<?xml version="1.0" encoding="UTF-8" standalone="no" ?>
<gpx xmlns="http://www.topografix.com/GPX/1/1" xmlns:xsi="http://www.w3.org/2001/XMLSchema-instance" xsi:schemaLocation="http://www.topografix.com/GPX/1/1 http://www.topografix.com/GPX/1/1/gpx.xsd" version="1.1" creator="VisuGPX - https://www.visugpx.com">
  <metadata>
    <name>2018-08-24 Bike ride-Val d-Azergues v31km</name>
    <desc><![CDATA[2018-08-24 Bike ride-Val d-Azergues v31km]]></desc>
  </metadata>
  <wpt lat="45.92455" lon="4.73723">
    <ele>174</ele>
    <name><![CDATA[2018-08-24 10:18 (Start)]]></name>
  </wpt>
  <wpt lat="45.92462" lon="4.73708">
    <ele>174</ele>
    <name><![CDATA[2018-08-24 10:18 (End)]]></name>
  </wpt>
  <trk>
    <name><![CDATA[2018-08-24 10:18]]></name>
    <trkseg>
      <trkpt lat="45.92455" lon="4.73723">
        <ele>174</ele>
        <time>2018-08-24T08:18:21.8Z</time>
      </trkpt>
      <trkpt lat="45.9246" lon="4.73714">
        <ele>174</ele>
        <time>2018-08-24T08:18:38Z</time>
      </trkpt>
      <trkpt lat="45.9246" lon="4.73713">
        <ele>174</ele>
        <time>2018-08-24T08:18:39Z</time>
      </trkpt>
      <trkpt lat="45.92464" lon="4.73703">
        <ele>174</ele>
        <time>2018-08-24T08:18:47.933Z</time>
      </trkpt>
      <trkpt lat="45.92465" lon="4.737">
        <ele>174</ele>
        <time>2018-08-24T08:18:48Z</time>
      </trkpt>
      <trkpt lat="45.92466" lon="4.73689">
        <ele>174</ele>
        <time>2018-08-24T08:18:51Z</time>
      </trkpt>
      <trkpt lat="45.92466" lon="4.73684">
        <ele>174</ele>
        <time>2018-08-24T08:18:52Z</time>
      </trkpt>
      <trkpt lat="45.92467" lon="4.73674">
        <ele>174</ele>
        <time>2018-08-24T08:18:54Z</time>
      </trkpt>
      <trkpt lat="45.92468" lon="4.73669">
        <ele>174</ele>
        <time>2018-08-24T08:18:55Z</time>
      </trkpt>
      <trkpt lat="45.92469" lon="4.7366">
        <ele>174</ele>
        <time>2018-08-24T08:18:57Z</time>
      </trkpt>
      <trkpt lat="45.92471" lon="4.73645">
        <ele>174</ele>
        <time>2018-08-24T08:18:58Z</time>
      </trkpt>
      <trkpt lat="45.92476" lon="4.73636">
        <ele>174</ele>
        <time>2018-08-24T08:19:01Z</time>
      </trkpt>
      <trkpt lat="45.92478" lon="4.73635">
        <ele>174</ele>
        <time>2018-08-24T08:19:02Z</time>
      </trkpt>
      <trkpt lat="45.92486" lon="4.73632">
        <ele>174</ele>
        <time>2018-08-24T08:19:03Z</time>
      </trkpt>
      <trkpt lat="45.92491" lon="4.73632">
        <ele>174</ele>
        <time>2018-08-24T08:19:04Z</time>
      </trkpt>
      <trkpt lat="45.92499" lon="4.73632">
        <ele>174</ele>
        <time>2018-08-24T08:19:05Z</time>
      </trkpt>
      <trkpt lat="45.92504" lon="4.73633">
        <ele>173</ele>
        <time>2018-08-24T08:19:06Z</time>
      </trkpt>
      <trkpt lat="45.92508" lon="4.73634">
        <ele>173</ele>
        <time>2018-08-24T08:19:07Z</time>
      </trkpt>
      <trkpt lat="45.92513" lon="4.73635">
        <ele>173</ele>
        <time>2018-08-24T08:19:08Z</time>
      </trkpt>
      <trkpt lat="45.92521" lon="4.73637">
        <ele>173</ele>
        <time>2018-08-24T08:19:10Z</time>
      </trkpt>
      <trkpt lat="45.92525" lon="4.73638">
        <ele>173</ele>
        <time>2018-08-24T08:19:11Z</time>
      </trkpt>
      <trkpt lat="45.92533" lon="4.73639">
        <ele>173</ele>
        <time>2018-08-24T08:19:13Z</time>
      </trkpt>
      <trkpt lat="45.9254" lon="4.73639">
        <ele>173</ele>
        <time>2018-08-24T08:19:14Z</time>
      </trkpt>
      <trkpt lat="45.92545" lon="4.73635">
        <ele>173</ele>
        <time>2018-08-24T08:19:15Z</time>
      </trkpt>
      <trkpt lat="45.92551" lon="4.73634">
        <ele>173</ele>
        <time>2018-08-24T08:19:16Z</time>
      </trkpt>
      <trkpt lat="45.92556" lon="4.73632">
        <ele>173</ele>
        <time>2018-08-24T08:19:17Z</time>
      </trkpt>
      <trkpt lat="45.92561" lon="4.73629">
        <ele>173</ele>
        <time>2018-08-24T08:19:18Z</time>
      </trkpt>
      <trkpt lat="45.92566" lon="4.73627">
        <ele>173</ele>
        <time>2018-08-24T08:19:19Z</time>
      </trkpt>
      <trkpt lat="45.9257" lon="4.73624">
        <ele>173</ele>
        <time>2018-08-24T08:19:20Z</time>
      </trkpt>
      <trkpt lat="45.92576" lon="4.7362">
        <ele>173</ele>
        <time>2018-08-24T08:19:21Z</time>
      </trkpt>
      <trkpt lat="45.92578" lon="4.73621">
        <ele>173</ele>
        <time>2018-08-24T08:19:22Z</time>
      </trkpt>
      <trkpt lat="45.92583" lon="4.73617">
        <ele>173</ele>
        <time>2018-08-24T08:19:23Z</time>
      </trkpt>
      <trkpt lat="45.92587" lon="4.73616">
        <ele>173</ele>
        <time>2018-08-24T08:19:24Z</time>
      </trkpt>
      <trkpt lat="45.92591" lon="4.73615">
        <ele>173</ele>
        <time>2018-08-24T08:19:25Z</time>
      </trkpt>
      <trkpt lat="45.92598" lon="4.73615">
        <ele>173</ele>
        <time>2018-08-24T08:19:26Z</time>
      </trkpt>
      <trkpt lat="45.92605" lon="4.73619">
        <ele>173</ele>
        <time>2018-08-24T08:19:27Z</time>
      </trkpt>
      <trkpt lat="45.92611" lon="4.73619">
        <ele>173</ele>
        <time>2018-08-24T08:19:28Z</time>
      </trkpt>
      <trkpt lat="45.92616" lon="4.73622">
        <ele>173</ele>
        <time>2018-08-24T08:19:29Z</time>
      </trkpt>
      <trkpt lat="45.92623" lon="4.73631">
        <ele>173</ele>
        <time>2018-08-24T08:19:30Z</time>
      </trkpt>
      <trkpt lat="45.92623" lon="4.73643">
        <ele>173</ele>
        <time>2018-08-24T08:19:31Z</time>
      </trkpt>
      <trkpt lat="45.92629" lon="4.73649">
        <ele>173</ele>
        <time>2018-08-24T08:19:32Z</time>
      </trkpt>
      <trkpt lat="45.9263" lon="4.73657">
        <ele>173</ele>
        <time>2018-08-24T08:19:33Z</time>
      </trkpt>
      <trkpt lat="45.92634" lon="4.73662">
        <ele>173</ele>
        <time>2018-08-24T08:19:34Z</time>
      </trkpt>
      <trkpt lat="45.92638" lon="4.73669">
        <ele>173</ele>
        <time>2018-08-24T08:19:35Z</time>
      </trkpt>
      <trkpt lat="45.9264" lon="4.73676">
        <ele>173</ele>
        <time>2018-08-24T08:19:36Z</time>
      </trkpt>
      <trkpt lat="45.92644" lon="4.73683">
        <ele>173</ele>
        <time>2018-08-24T08:19:37Z</time>
      </trkpt>
      <trkpt lat="45.9265" lon="4.73686">
        <ele>173</ele>
        <time>2018-08-24T08:19:38Z</time>
      </trkpt>
      <trkpt lat="45.92655" lon="4.73689">
        <ele>173</ele>
        <time>2018-08-24T08:19:39Z</time>
      </trkpt>
      <trkpt lat="45.9266" lon="4.73693">
        <ele>173</ele>
        <time>2018-08-24T08:19:40Z</time>
      </trkpt>
      <trkpt lat="45.92665" lon="4.73697">
        <ele>173</ele>
        <time>2018-08-24T08:19:41Z</time>
      </trkpt>
      <trkpt lat="45.92669" lon="4.73701">
        <ele>174</ele>
        <time>2018-08-24T08:19:42Z</time>
      </trkpt>
      <trkpt lat="45.92673" lon="4.73704">
        <ele>174</ele>
        <time>2018-08-24T08:19:43Z</time>
      </trkpt>
      <trkpt lat="45.92679" lon="4.73708">
        <ele>173</ele>
        <time>2018-08-24T08:19:44Z</time>
      </trkpt>
      <trkpt lat="45.92685" lon="4.73709">
        <ele>173</ele>
        <time>2018-08-24T08:19:45Z</time>
      </trkpt>
      <trkpt lat="45.9269" lon="4.73711">
        <ele>173</ele>
        <time>2018-08-24T08:19:46Z</time>
      </trkpt>
      <trkpt lat="45.92698" lon="4.73711">
        <ele>173</ele>
        <time>2018-08-24T08:19:47Z</time>
      </trkpt>
      <trkpt lat="45.92705" lon="4.73711">
        <ele>173</ele>
        <time>2018-08-24T08:19:48Z</time>
      </trkpt>
      <trkpt lat="45.92711" lon="4.73713">
        <ele>173</ele>
        <time>2018-08-24T08:19:49Z</time>
      </trkpt>
      <trkpt lat="45.92717" lon="4.73712">
        <ele>173</ele>
        <time>2018-08-24T08:19:50Z</time>
      </trkpt>
      <trkpt lat="45.92722" lon="4.73714">
        <ele>173</ele>
        <time>2018-08-24T08:19:51Z</time>
      </trkpt>
      <trkpt lat="45.9273" lon="4.73716">
        <ele>173</ele>
        <time>2018-08-24T08:19:52Z</time>
      </trkpt>
      <trkpt lat="45.92735" lon="4.73717">
        <ele>173</ele>
        <time>2018-08-24T08:19:53Z</time>
      </trkpt>
      <trkpt lat="45.92741" lon="4.73718">
        <ele>173</ele>
        <time>2018-08-24T08:19:54Z</time>
      </trkpt>
      <trkpt lat="45.92747" lon="4.7372">
        <ele>173</ele>
        <time>2018-08-24T08:19:55Z</time>
      </trkpt>
      <trkpt lat="45.92752" lon="4.73722">
        <ele>172</ele>
        <time>2018-08-24T08:19:56Z</time>
      </trkpt>
      <trkpt lat="45.92758" lon="4.73724">
        <ele>172</ele>
        <time>2018-08-24T08:19:57Z</time>
      </trkpt>
      <trkpt lat="45.92763" lon="4.73726">
        <ele>172</ele>
        <time>2018-08-24T08:19:58Z</time>
      </trkpt>
      <trkpt lat="45.92771" lon="4.7373">
        <ele>172</ele>
        <time>2018-08-24T08:20:00Z</time>
      </trkpt>
      <trkpt lat="45.92774" lon="4.73731">
        <ele>172</ele>
        <time>2018-08-24T08:20:01Z</time>
      </trkpt>
      <trkpt lat="45.92781" lon="4.73737">
        <ele>172</ele>
        <time>2018-08-24T08:20:03Z</time>
      </trkpt>
      <trkpt lat="45.92782" lon="4.73736">
        <ele>172</ele>
        <time>2018-08-24T08:20:04Z</time>
      </trkpt>
      <trkpt lat="45.92784" lon="4.73748">
        <ele>172</ele>
        <time>2018-08-24T08:20:08Z</time>
      </trkpt>
      <trkpt lat="45.92785" lon="4.73751">
        <ele>173</ele>
        <time>2018-08-24T08:20:09Z</time>
      </trkpt>
      <trkpt lat="45.92786" lon="4.73755">
        <ele>173</ele>
        <time>2018-08-24T08:20:10Z</time>
      </trkpt>
      <trkpt lat="45.92792" lon="4.73764">
        <ele>173</ele>
        <time>2018-08-24T08:20:11Z</time>
      </trkpt>
      <trkpt lat="45.92798" lon="4.73765">
        <ele>173</ele>
        <time>2018-08-24T08:20:12Z</time>
      </trkpt>
      <trkpt lat="45.928" lon="4.7377">
        <ele>173</ele>
        <time>2018-08-24T08:20:13Z</time>
      </trkpt>
      <trkpt lat="45.92806" lon="4.73772">
        <ele>173</ele>
        <time>2018-08-24T08:20:14Z</time>
      </trkpt>
      <trkpt lat="45.92811" lon="4.73774">
        <ele>173</ele>
        <time>2018-08-24T08:20:15Z</time>
      </trkpt>
      <trkpt lat="45.92816" lon="4.73777">
        <ele>173</ele>
        <time>2018-08-24T08:20:16Z</time>
      </trkpt>
      <trkpt lat="45.92821" lon="4.73776">
        <ele>173</ele>
        <time>2018-08-24T08:20:17Z</time>
      </trkpt>
      <trkpt lat="45.92826" lon="4.73777">
        <ele>173</ele>
        <time>2018-08-24T08:20:18Z</time>
      </trkpt>
      <trkpt lat="45.92834" lon="4.73782">
        <ele>173</ele>
        <time>2018-08-24T08:20:19Z</time>
      </trkpt>
      <trkpt lat="45.92839" lon="4.73785">
        <ele>173</ele>
        <time>2018-08-24T08:20:20Z</time>
      </trkpt>
      <trkpt lat="45.92844" lon="4.73791">
        <ele>173</ele>
        <time>2018-08-24T08:20:21Z</time>
      </trkpt>
      <trkpt lat="45.92848" lon="4.73798">
        <ele>173</ele>
        <time>2018-08-24T08:20:22Z</time>
      </trkpt>
      <trkpt lat="45.92853" lon="4.73802">
        <ele>173</ele>
        <time>2018-08-24T08:20:23Z</time>
      </trkpt>
      <trkpt lat="45.92854" lon="4.73808">
        <ele>173</ele>
        <time>2018-08-24T08:20:24Z</time>
      </trkpt>
      <trkpt lat="45.92858" lon="4.73815">
        <ele>173</ele>
        <time>2018-08-24T08:20:25Z</time>
      </trkpt>
      <trkpt lat="45.92858" lon="4.73823">
        <ele>173</ele>
        <time>2018-08-24T08:20:26Z</time>
      </trkpt>
      <trkpt lat="45.92862" lon="4.7383">
        <ele>173</ele>
        <time>2018-08-24T08:20:27Z</time>
      </trkpt>
      <trkpt lat="45.92864" lon="4.73838">
        <ele>173</ele>
        <time>2018-08-24T08:20:28Z</time>
      </trkpt>
      <trkpt lat="45.92867" lon="4.73847">
        <ele>173</ele>
        <time>2018-08-24T08:20:29Z</time>
      </trkpt>
      <trkpt lat="45.92868" lon="4.73853">
        <ele>173</ele>
        <time>2018-08-24T08:20:30Z</time>
      </trkpt>
      <trkpt lat="45.92871" lon="4.73862">
        <ele>173</ele>
        <time>2018-08-24T08:20:31Z</time>
      </trkpt>
      <trkpt lat="45.92874" lon="4.7387">
        <ele>173</ele>
        <time>2018-08-24T08:20:32Z</time>
      </trkpt>
      <trkpt lat="45.92877" lon="4.73876">
        <ele>173</ele>
        <time>2018-08-24T08:20:33Z</time>
      </trkpt>
      <trkpt lat="45.92876" lon="4.73886">
        <ele>173</ele>
        <time>2018-08-24T08:20:34Z</time>
      </trkpt>
      <trkpt lat="45.92881" lon="4.73896">
        <ele>173</ele>
        <time>2018-08-24T08:20:35Z</time>
      </trkpt>
      <trkpt lat="45.92881" lon="4.73904">
        <ele>173</ele>
        <time>2018-08-24T08:20:36Z</time>
      </trkpt>
      <trkpt lat="45.92883" lon="4.73912">
        <ele>173</ele>
        <time>2018-08-24T08:20:37Z</time>
      </trkpt>
      <trkpt lat="45.92883" lon="4.73921">
        <ele>172</ele>
        <time>2018-08-24T08:20:38Z</time>
      </trkpt>
      <trkpt lat="45.92884" lon="4.73929">
        <ele>172</ele>
        <time>2018-08-24T08:20:39Z</time>
      </trkpt>
      <trkpt lat="45.92884" lon="4.73937">
        <ele>172</ele>
        <time>2018-08-24T08:20:40Z</time>
      </trkpt>
      <trkpt lat="45.92884" lon="4.73946">
        <ele>172</ele>
        <time>2018-08-24T08:20:41Z</time>
      </trkpt>
      <trkpt lat="45.92885" lon="4.73954">
        <ele>172</ele>
        <time>2018-08-24T08:20:42Z</time>
      </trkpt>
      <trkpt lat="45.92886" lon="4.73962">
        <ele>172</ele>
        <time>2018-08-24T08:20:43Z</time>
      </trkpt>
      <trkpt lat="45.92885" lon="4.73969">
        <ele>172</ele>
        <time>2018-08-24T08:20:44Z</time>
      </trkpt>
      <trkpt lat="45.92885" lon="4.73977">
        <ele>172</ele>
        <time>2018-08-24T08:20:45Z</time>
      </trkpt>
      <trkpt lat="45.92884" lon="4.73983">
        <ele>172</ele>
        <time>2018-08-24T08:20:46Z</time>
      </trkpt>
      <trkpt lat="45.92883" lon="4.7399">
        <ele>172</ele>
        <time>2018-08-24T08:20:47Z</time>
      </trkpt>
      <trkpt lat="45.9288" lon="4.73996">
        <ele>172</ele>
        <time>2018-08-24T08:20:48Z</time>
      </trkpt>
      <trkpt lat="45.92877" lon="4.74003">
        <ele>172</ele>
        <time>2018-08-24T08:20:49Z</time>
      </trkpt>
      <trkpt lat="45.92875" lon="4.74011">
        <ele>172</ele>
        <time>2018-08-24T08:20:50Z</time>
      </trkpt>
      <trkpt lat="45.92873" lon="4.74018">
        <ele>172</ele>
        <time>2018-08-24T08:20:51Z</time>
      </trkpt>
      <trkpt lat="45.92872" lon="4.74024">
        <ele>172</ele>
        <time>2018-08-24T08:20:52Z</time>
      </trkpt>
      <trkpt lat="45.92871" lon="4.74031">
        <ele>172</ele>
        <time>2018-08-24T08:20:53Z</time>
      </trkpt>
      <trkpt lat="45.92868" lon="4.74039">
        <ele>172</ele>
        <time>2018-08-24T08:20:54Z</time>
      </trkpt>
      <trkpt lat="45.92864" lon="4.74046">
        <ele>172</ele>
        <time>2018-08-24T08:20:55Z</time>
      </trkpt>
      <trkpt lat="45.9286" lon="4.7405">
        <ele>172</ele>
        <time>2018-08-24T08:20:56Z</time>
      </trkpt>
      <trkpt lat="45.92856" lon="4.74054">
        <ele>172</ele>
        <time>2018-08-24T08:20:57Z</time>
      </trkpt>
      <trkpt lat="45.92852" lon="4.74059">
        <ele>172</ele>
        <time>2018-08-24T08:20:58Z</time>
      </trkpt>
      <trkpt lat="45.92848" lon="4.74064">
        <ele>172</ele>
        <time>2018-08-24T08:20:59Z</time>
      </trkpt>
      <trkpt lat="45.92843" lon="4.7407">
        <ele>172</ele>
        <time>2018-08-24T08:21:00Z</time>
      </trkpt>
      <trkpt lat="45.92838" lon="4.74076">
        <ele>171</ele>
        <time>2018-08-24T08:21:01Z</time>
      </trkpt>
      <trkpt lat="45.92833" lon="4.74082">
        <ele>171</ele>
        <time>2018-08-24T08:21:02Z</time>
      </trkpt>
      <trkpt lat="45.92829" lon="4.74089">
        <ele>171</ele>
        <time>2018-08-24T08:21:03Z</time>
      </trkpt>
      <trkpt lat="45.92824" lon="4.74094">
        <ele>171</ele>
        <time>2018-08-24T08:21:04Z</time>
      </trkpt>
      <trkpt lat="45.9282" lon="4.74101">
        <ele>171</ele>
        <time>2018-08-24T08:21:05Z</time>
      </trkpt>
      <trkpt lat="45.92815" lon="4.74109">
        <ele>172</ele>
        <time>2018-08-24T08:21:06Z</time>
      </trkpt>
      <trkpt lat="45.9281" lon="4.74114">
        <ele>172</ele>
        <time>2018-08-24T08:21:07Z</time>
      </trkpt>
      <trkpt lat="45.92804" lon="4.7412">
        <ele>172</ele>
        <time>2018-08-24T08:21:08Z</time>
      </trkpt>
      <trkpt lat="45.92801" lon="4.74126">
        <ele>172</ele>
        <time>2018-08-24T08:21:09Z</time>
      </trkpt>
      <trkpt lat="45.92795" lon="4.74131">
        <ele>172</ele>
        <time>2018-08-24T08:21:10Z</time>
      </trkpt>
      <trkpt lat="45.9279" lon="4.74136">
        <ele>172</ele>
        <time>2018-08-24T08:21:11Z</time>
      </trkpt>
      <trkpt lat="45.92785" lon="4.74143">
        <ele>172</ele>
        <time>2018-08-24T08:21:12Z</time>
      </trkpt>
      <trkpt lat="45.9278" lon="4.74148">
        <ele>172</ele>
        <time>2018-08-24T08:21:13Z</time>
      </trkpt>
      <trkpt lat="45.92775" lon="4.74154">
        <ele>172</ele>
        <time>2018-08-24T08:21:14Z</time>
      </trkpt>
      <trkpt lat="45.92769" lon="4.74159">
        <ele>172</ele>
        <time>2018-08-24T08:21:15Z</time>
      </trkpt>
      <trkpt lat="45.92765" lon="4.74163">
        <ele>172</ele>
        <time>2018-08-24T08:21:16Z</time>
      </trkpt>
      <trkpt lat="45.9276" lon="4.74169">
        <ele>172</ele>
        <time>2018-08-24T08:21:17Z</time>
      </trkpt>
      <trkpt lat="45.92755" lon="4.74174">
        <ele>172</ele>
        <time>2018-08-24T08:21:18Z</time>
      </trkpt>
      <trkpt lat="45.9275" lon="4.74178">
        <ele>172</ele>
        <time>2018-08-24T08:21:19Z</time>
      </trkpt>
      <trkpt lat="45.92745" lon="4.74183">
        <ele>172</ele>
        <time>2018-08-24T08:21:20Z</time>
      </trkpt>
      <trkpt lat="45.92741" lon="4.74189">
        <ele>172</ele>
        <time>2018-08-24T08:21:21Z</time>
      </trkpt>
      <trkpt lat="45.92737" lon="4.74195">
        <ele>171</ele>
        <time>2018-08-24T08:21:22Z</time>
      </trkpt>
      <trkpt lat="45.92732" lon="4.74201">
        <ele>171</ele>
        <time>2018-08-24T08:21:23Z</time>
      </trkpt>
      <trkpt lat="45.92728" lon="4.74206">
        <ele>171</ele>
        <time>2018-08-24T08:21:24Z</time>
      </trkpt>
      <trkpt lat="45.92724" lon="4.74212">
        <ele>171</ele>
        <time>2018-08-24T08:21:25Z</time>
      </trkpt>
      <trkpt lat="45.9272" lon="4.74216">
        <ele>171</ele>
        <time>2018-08-24T08:21:26Z</time>
      </trkpt>
      <trkpt lat="45.92716" lon="4.74222">
        <ele>171</ele>
        <time>2018-08-24T08:21:27Z</time>
      </trkpt>
      <trkpt lat="45.92712" lon="4.74228">
        <ele>171</ele>
        <time>2018-08-24T08:21:28Z</time>
      </trkpt>
      <trkpt lat="45.92708" lon="4.74235">
        <ele>171</ele>
        <time>2018-08-24T08:21:29Z</time>
      </trkpt>
      <trkpt lat="45.92704" lon="4.74242">
        <ele>171</ele>
        <time>2018-08-24T08:21:30Z</time>
      </trkpt>
      <trkpt lat="45.927" lon="4.74248">
        <ele>171</ele>
        <time>2018-08-24T08:21:31Z</time>
      </trkpt>
      <trkpt lat="45.92696" lon="4.74254">
        <ele>171</ele>
        <time>2018-08-24T08:21:32Z</time>
      </trkpt>
      <trkpt lat="45.92692" lon="4.74261">
        <ele>171</ele>
        <time>2018-08-24T08:21:33Z</time>
      </trkpt>
      <trkpt lat="45.92689" lon="4.74268">
        <ele>171</ele>
        <time>2018-08-24T08:21:34Z</time>
      </trkpt>
      <trkpt lat="45.92685" lon="4.74275">
        <ele>171</ele>
        <time>2018-08-24T08:21:35Z</time>
      </trkpt>
      <trkpt lat="45.92681" lon="4.74282">
        <ele>171</ele>
        <time>2018-08-24T08:21:36Z</time>
      </trkpt>
      <trkpt lat="45.92678" lon="4.74289">
        <ele>171</ele>
        <time>2018-08-24T08:21:37Z</time>
      </trkpt>
      <trkpt lat="45.92674" lon="4.74296">
        <ele>171</ele>
        <time>2018-08-24T08:21:38Z</time>
      </trkpt>
      <trkpt lat="45.9267" lon="4.74302">
        <ele>171</ele>
        <time>2018-08-24T08:21:39Z</time>
      </trkpt>
      <trkpt lat="45.92667" lon="4.7431">
        <ele>171</ele>
        <time>2018-08-24T08:21:40Z</time>
      </trkpt>
      <trkpt lat="45.92663" lon="4.74317">
        <ele>171</ele>
        <time>2018-08-24T08:21:41Z</time>
      </trkpt>
      <trkpt lat="45.9266" lon="4.74324">
        <ele>171</ele>
        <time>2018-08-24T08:21:42Z</time>
      </trkpt>
      <trkpt lat="45.92656" lon="4.74329">
        <ele>171</ele>
        <time>2018-08-24T08:21:43Z</time>
      </trkpt>
      <trkpt lat="45.92653" lon="4.74335">
        <ele>171</ele>
        <time>2018-08-24T08:21:44Z</time>
      </trkpt>
      <trkpt lat="45.9265" lon="4.74341">
        <ele>171</ele>
        <time>2018-08-24T08:21:45Z</time>
      </trkpt>
      <trkpt lat="45.92648" lon="4.74348">
        <ele>171</ele>
        <time>2018-08-24T08:21:46Z</time>
      </trkpt>
      <trkpt lat="45.92645" lon="4.74353">
        <ele>171</ele>
        <time>2018-08-24T08:21:47Z</time>
      </trkpt>
      <trkpt lat="45.92641" lon="4.7436">
        <ele>171</ele>
        <time>2018-08-24T08:21:48Z</time>
      </trkpt>
      <trkpt lat="45.92638" lon="4.74364">
        <ele>171</ele>
        <time>2018-08-24T08:21:49Z</time>
      </trkpt>
      <trkpt lat="45.92635" lon="4.7437">
        <ele>171</ele>
        <time>2018-08-24T08:21:50Z</time>
      </trkpt>
      <trkpt lat="45.92632" lon="4.74377">
        <ele>170</ele>
        <time>2018-08-24T08:21:51Z</time>
      </trkpt>
      <trkpt lat="45.92628" lon="4.74384">
        <ele>170</ele>
        <time>2018-08-24T08:21:52Z</time>
      </trkpt>
      <trkpt lat="45.92625" lon="4.74392">
        <ele>170</ele>
        <time>2018-08-24T08:21:53Z</time>
      </trkpt>
      <trkpt lat="45.9262" lon="4.74399">
        <ele>170</ele>
        <time>2018-08-24T08:21:54Z</time>
      </trkpt>
      <trkpt lat="45.92616" lon="4.74406">
        <ele>170</ele>
        <time>2018-08-24T08:21:55Z</time>
      </trkpt>
      <trkpt lat="45.92611" lon="4.74414">
        <ele>170</ele>
        <time>2018-08-24T08:21:56Z</time>
      </trkpt>
      <trkpt lat="45.92606" lon="4.7442">
        <ele>170</ele>
        <time>2018-08-24T08:21:57Z</time>
      </trkpt>
      <trkpt lat="45.92604" lon="4.74429">
        <ele>170</ele>
        <time>2018-08-24T08:21:58Z</time>
      </trkpt>
      <trkpt lat="45.926" lon="4.74436">
        <ele>170</ele>
        <time>2018-08-24T08:21:59Z</time>
      </trkpt>
      <trkpt lat="45.92596" lon="4.74443">
        <ele>170</ele>
        <time>2018-08-24T08:22:00Z</time>
      </trkpt>
      <trkpt lat="45.92591" lon="4.74451">
        <ele>170</ele>
        <time>2018-08-24T08:22:01Z</time>
      </trkpt>
      <trkpt lat="45.92587" lon="4.74457">
        <ele>170</ele>
        <time>2018-08-24T08:22:02Z</time>
      </trkpt>
      <trkpt lat="45.92583" lon="4.74464">
        <ele>170</ele>
        <time>2018-08-24T08:22:03Z</time>
      </trkpt>
      <trkpt lat="45.92579" lon="4.74473">
        <ele>170</ele>
        <time>2018-08-24T08:22:04Z</time>
      </trkpt>
      <trkpt lat="45.92574" lon="4.7448">
        <ele>170</ele>
        <time>2018-08-24T08:22:05Z</time>
      </trkpt>
      <trkpt lat="45.92571" lon="4.74487">
        <ele>170</ele>
        <time>2018-08-24T08:22:06Z</time>
      </trkpt>
      <trkpt lat="45.92567" lon="4.74495">
        <ele>170</ele>
        <time>2018-08-24T08:22:07Z</time>
      </trkpt>
      <trkpt lat="45.92564" lon="4.74502">
        <ele>170</ele>
        <time>2018-08-24T08:22:08Z</time>
      </trkpt>
      <trkpt lat="45.9256" lon="4.74509">
        <ele>170</ele>
        <time>2018-08-24T08:22:09Z</time>
      </trkpt>
      <trkpt lat="45.92557" lon="4.74517">
        <ele>170</ele>
        <time>2018-08-24T08:22:10Z</time>
      </trkpt>
      <trkpt lat="45.92552" lon="4.74524">
        <ele>170</ele>
        <time>2018-08-24T08:22:11Z</time>
      </trkpt>
      <trkpt lat="45.92548" lon="4.7453">
        <ele>170</ele>
        <time>2018-08-24T08:22:12Z</time>
      </trkpt>
      <trkpt lat="45.92544" lon="4.74537">
        <ele>170</ele>
        <time>2018-08-24T08:22:13Z</time>
      </trkpt>
      <trkpt lat="45.9254" lon="4.74544">
        <ele>171</ele>
        <time>2018-08-24T08:22:14Z</time>
      </trkpt>
      <trkpt lat="45.92537" lon="4.74551">
        <ele>171</ele>
        <time>2018-08-24T08:22:15Z</time>
      </trkpt>
      <trkpt lat="45.92532" lon="4.74556">
        <ele>171</ele>
        <time>2018-08-24T08:22:16Z</time>
      </trkpt>
      <trkpt lat="45.92526" lon="4.74563">
        <ele>171</ele>
        <time>2018-08-24T08:22:17Z</time>
      </trkpt>
      <trkpt lat="45.92521" lon="4.74569">
        <ele>171</ele>
        <time>2018-08-24T08:22:18Z</time>
      </trkpt>
      <trkpt lat="45.92517" lon="4.74575">
        <ele>171</ele>
        <time>2018-08-24T08:22:19Z</time>
      </trkpt>
      <trkpt lat="45.92512" lon="4.7458">
        <ele>171</ele>
        <time>2018-08-24T08:22:20Z</time>
      </trkpt>
      <trkpt lat="45.92507" lon="4.74586">
        <ele>171</ele>
        <time>2018-08-24T08:22:21Z</time>
      </trkpt>
      <trkpt lat="45.92503" lon="4.74591">
        <ele>171</ele>
        <time>2018-08-24T08:22:22Z</time>
      </trkpt>
      <trkpt lat="45.92498" lon="4.74597">
        <ele>171</ele>
        <time>2018-08-24T08:22:23Z</time>
      </trkpt>
      <trkpt lat="45.92494" lon="4.74603">
        <ele>171</ele>
        <time>2018-08-24T08:22:24Z</time>
      </trkpt>
      <trkpt lat="45.9249" lon="4.74608">
        <ele>171</ele>
        <time>2018-08-24T08:22:25Z</time>
      </trkpt>
      <trkpt lat="45.92485" lon="4.74613">
        <ele>171</ele>
        <time>2018-08-24T08:22:26Z</time>
      </trkpt>
      <trkpt lat="45.92481" lon="4.74618">
        <ele>171</ele>
        <time>2018-08-24T08:22:27Z</time>
      </trkpt>
      <trkpt lat="45.92476" lon="4.74624">
        <ele>171</ele>
        <time>2018-08-24T08:22:28Z</time>
      </trkpt>
      <trkpt lat="45.92473" lon="4.74629">
        <ele>171</ele>
        <time>2018-08-24T08:22:29Z</time>
      </trkpt>
      <trkpt lat="45.92469" lon="4.74635">
        <ele>171</ele>
        <time>2018-08-24T08:22:30Z</time>
      </trkpt>
      <trkpt lat="45.92466" lon="4.74642">
        <ele>171</ele>
        <time>2018-08-24T08:22:31Z</time>
      </trkpt>
      <trkpt lat="45.92462" lon="4.74648">
        <ele>171</ele>
        <time>2018-08-24T08:22:32Z</time>
      </trkpt>
      <trkpt lat="45.92458" lon="4.74654">
        <ele>171</ele>
        <time>2018-08-24T08:22:33Z</time>
      </trkpt>
      <trkpt lat="45.92454" lon="4.74661">
        <ele>171</ele>
        <time>2018-08-24T08:22:34Z</time>
      </trkpt>
      <trkpt lat="45.92449" lon="4.7467">
        <ele>171</ele>
        <time>2018-08-24T08:22:35Z</time>
      </trkpt>
      <trkpt lat="45.92445" lon="4.74676">
        <ele>171</ele>
        <time>2018-08-24T08:22:36Z</time>
      </trkpt>
      <trkpt lat="45.92442" lon="4.74682">
        <ele>171</ele>
        <time>2018-08-24T08:22:37Z</time>
      </trkpt>
      <trkpt lat="45.92439" lon="4.74689">
        <ele>171</ele>
        <time>2018-08-24T08:22:38Z</time>
      </trkpt>
      <trkpt lat="45.92435" lon="4.74694">
        <ele>171</ele>
        <time>2018-08-24T08:22:39Z</time>
      </trkpt>
      <trkpt lat="45.92432" lon="4.74701">
        <ele>171</ele>
        <time>2018-08-24T08:22:40Z</time>
      </trkpt>
      <trkpt lat="45.92429" lon="4.74708">
        <ele>171</ele>
        <time>2018-08-24T08:22:41Z</time>
      </trkpt>
      <trkpt lat="45.92426" lon="4.74715">
        <ele>171</ele>
        <time>2018-08-24T08:22:42Z</time>
      </trkpt>
      <trkpt lat="45.92423" lon="4.74721">
        <ele>171</ele>
        <time>2018-08-24T08:22:43Z</time>
      </trkpt>
      <trkpt lat="45.9242" lon="4.74729">
        <ele>171</ele>
        <time>2018-08-24T08:22:44Z</time>
      </trkpt>
      <trkpt lat="45.92417" lon="4.74738">
        <ele>172</ele>
        <time>2018-08-24T08:22:45Z</time>
      </trkpt>
      <trkpt lat="45.92416" lon="4.74746">
        <ele>172</ele>
        <time>2018-08-24T08:22:46Z</time>
      </trkpt>
      <trkpt lat="45.92413" lon="4.74755">
        <ele>172</ele>
        <time>2018-08-24T08:22:47Z</time>
      </trkpt>
      <trkpt lat="45.92411" lon="4.74763">
        <ele>172</ele>
        <time>2018-08-24T08:22:48Z</time>
      </trkpt>
      <trkpt lat="45.92409" lon="4.74772">
        <ele>171</ele>
        <time>2018-08-24T08:22:49Z</time>
      </trkpt>
      <trkpt lat="45.92407" lon="4.7478">
        <ele>171</ele>
        <time>2018-08-24T08:22:50Z</time>
      </trkpt>
      <trkpt lat="45.92405" lon="4.74787">
        <ele>171</ele>
        <time>2018-08-24T08:22:51Z</time>
      </trkpt>
      <trkpt lat="45.92404" lon="4.74795">
        <ele>171</ele>
        <time>2018-08-24T08:22:52Z</time>
      </trkpt>
      <trkpt lat="45.92402" lon="4.74805">
        <ele>171</ele>
        <time>2018-08-24T08:22:53Z</time>
      </trkpt>
      <trkpt lat="45.92401" lon="4.74812">
        <ele>171</ele>
        <time>2018-08-24T08:22:54Z</time>
      </trkpt>
      <trkpt lat="45.92399" lon="4.74821">
        <ele>171</ele>
        <time>2018-08-24T08:22:55Z</time>
      </trkpt>
      <trkpt lat="45.92398" lon="4.74829">
        <ele>171</ele>
        <time>2018-08-24T08:22:56Z</time>
      </trkpt>
      <trkpt lat="45.92396" lon="4.74837">
        <ele>171</ele>
        <time>2018-08-24T08:22:57Z</time>
      </trkpt>
      <trkpt lat="45.92394" lon="4.74845">
        <ele>171</ele>
        <time>2018-08-24T08:22:58Z</time>
      </trkpt>
      <trkpt lat="45.92391" lon="4.74854">
        <ele>171</ele>
        <time>2018-08-24T08:22:59Z</time>
      </trkpt>
      <trkpt lat="45.92388" lon="4.74862">
        <ele>171</ele>
        <time>2018-08-24T08:23:00Z</time>
      </trkpt>
      <trkpt lat="45.92386" lon="4.74869">
        <ele>171</ele>
        <time>2018-08-24T08:23:01Z</time>
      </trkpt>
      <trkpt lat="45.92382" lon="4.74877">
        <ele>171</ele>
        <time>2018-08-24T08:23:02Z</time>
      </trkpt>
      <trkpt lat="45.9238" lon="4.74886">
        <ele>171</ele>
        <time>2018-08-24T08:23:03Z</time>
      </trkpt>
      <trkpt lat="45.92376" lon="4.74894">
        <ele>171</ele>
        <time>2018-08-24T08:23:04Z</time>
      </trkpt>
      <trkpt lat="45.92373" lon="4.74902">
        <ele>171</ele>
        <time>2018-08-24T08:23:05Z</time>
      </trkpt>
      <trkpt lat="45.92369" lon="4.7491">
        <ele>171</ele>
        <time>2018-08-24T08:23:06Z</time>
      </trkpt>
      <trkpt lat="45.92367" lon="4.74916">
        <ele>171</ele>
        <time>2018-08-24T08:23:07Z</time>
      </trkpt>
      <trkpt lat="45.92365" lon="4.74923">
        <ele>170</ele>
        <time>2018-08-24T08:23:08Z</time>
      </trkpt>
      <trkpt lat="45.92361" lon="4.74931">
        <ele>170</ele>
        <time>2018-08-24T08:23:09Z</time>
      </trkpt>
      <trkpt lat="45.9236" lon="4.7494">
        <ele>170</ele>
        <time>2018-08-24T08:23:10Z</time>
      </trkpt>
      <trkpt lat="45.92358" lon="4.74948">
        <ele>170</ele>
        <time>2018-08-24T08:23:11Z</time>
      </trkpt>
      <trkpt lat="45.92354" lon="4.7496">
        <ele>170</ele>
        <time>2018-08-24T08:23:12Z</time>
      </trkpt>
      <trkpt lat="45.92351" lon="4.74966">
        <ele>170</ele>
        <time>2018-08-24T08:23:13Z</time>
      </trkpt>
      <trkpt lat="45.92349" lon="4.74974">
        <ele>170</ele>
        <time>2018-08-24T08:23:14Z</time>
      </trkpt>
      <trkpt lat="45.92346" lon="4.74985">
        <ele>170</ele>
        <time>2018-08-24T08:23:15Z</time>
      </trkpt>
      <trkpt lat="45.92341" lon="4.74995">
        <ele>170</ele>
        <time>2018-08-24T08:23:16Z</time>
      </trkpt>
      <trkpt lat="45.92339" lon="4.75">
        <ele>170</ele>
        <time>2018-08-24T08:23:17Z</time>
      </trkpt>
      <trkpt lat="45.92335" lon="4.75008">
        <ele>170</ele>
        <time>2018-08-24T08:23:18Z</time>
      </trkpt>
      <trkpt lat="45.92332" lon="4.75016">
        <ele>171</ele>
        <time>2018-08-24T08:23:19Z</time>
      </trkpt>
      <trkpt lat="45.92329" lon="4.7502">
        <ele>171</ele>
        <time>2018-08-24T08:23:20Z</time>
      </trkpt>
      <trkpt lat="45.92324" lon="4.75029">
        <ele>171</ele>
        <time>2018-08-24T08:23:21Z</time>
      </trkpt>
      <trkpt lat="45.9232" lon="4.75036">
        <ele>171</ele>
        <time>2018-08-24T08:23:22Z</time>
      </trkpt>
      <trkpt lat="45.92316" lon="4.75043">
        <ele>172</ele>
        <time>2018-08-24T08:23:23Z</time>
      </trkpt>
      <trkpt lat="45.9231" lon="4.75051">
        <ele>172</ele>
        <time>2018-08-24T08:23:24Z</time>
      </trkpt>
      <trkpt lat="45.92306" lon="4.75057">
        <ele>172</ele>
        <time>2018-08-24T08:23:25Z</time>
      </trkpt>
      <trkpt lat="45.92301" lon="4.75063">
        <ele>172</ele>
        <time>2018-08-24T08:23:26Z</time>
      </trkpt>
      <trkpt lat="45.92297" lon="4.7507">
        <ele>172</ele>
        <time>2018-08-24T08:23:27Z</time>
      </trkpt>
      <trkpt lat="45.92292" lon="4.75076">
        <ele>172</ele>
        <time>2018-08-24T08:23:28Z</time>
      </trkpt>
      <trkpt lat="45.92287" lon="4.75081">
        <ele>172</ele>
        <time>2018-08-24T08:23:29Z</time>
      </trkpt>
      <trkpt lat="45.92282" lon="4.75085">
        <ele>173</ele>
        <time>2018-08-24T08:23:30Z</time>
      </trkpt>
      <trkpt lat="45.92277" lon="4.7509">
        <ele>173</ele>
        <time>2018-08-24T08:23:31Z</time>
      </trkpt>
      <trkpt lat="45.92272" lon="4.75095">
        <ele>173</ele>
        <time>2018-08-24T08:23:32Z</time>
      </trkpt>
      <trkpt lat="45.92268" lon="4.75101">
        <ele>173</ele>
        <time>2018-08-24T08:23:33Z</time>
      </trkpt>
      <trkpt lat="45.92263" lon="4.75105">
        <ele>173</ele>
        <time>2018-08-24T08:23:34Z</time>
      </trkpt>
      <trkpt lat="45.92258" lon="4.75111">
        <ele>174</ele>
        <time>2018-08-24T08:23:35Z</time>
      </trkpt>
      <trkpt lat="45.92254" lon="4.75116">
        <ele>174</ele>
        <time>2018-08-24T08:23:36Z</time>
      </trkpt>
      <trkpt lat="45.9225" lon="4.75122">
        <ele>174</ele>
        <time>2018-08-24T08:23:37Z</time>
      </trkpt>
      <trkpt lat="45.92246" lon="4.75128">
        <ele>174</ele>
        <time>2018-08-24T08:23:38Z</time>
      </trkpt>
      <trkpt lat="45.92242" lon="4.75133">
        <ele>174</ele>
        <time>2018-08-24T08:23:39Z</time>
      </trkpt>
      <trkpt lat="45.92238" lon="4.75138">
        <ele>174</ele>
        <time>2018-08-24T08:23:40Z</time>
      </trkpt>
      <trkpt lat="45.92234" lon="4.75142">
        <ele>174</ele>
        <time>2018-08-24T08:23:41Z</time>
      </trkpt>
      <trkpt lat="45.92229" lon="4.75149">
        <ele>174</ele>
        <time>2018-08-24T08:23:42Z</time>
      </trkpt>
      <trkpt lat="45.92225" lon="4.75156">
        <ele>174</ele>
        <time>2018-08-24T08:23:43Z</time>
      </trkpt>
      <trkpt lat="45.92223" lon="4.75164">
        <ele>174</ele>
        <time>2018-08-24T08:23:44Z</time>
      </trkpt>
      <trkpt lat="45.9222" lon="4.75171">
        <ele>175</ele>
        <time>2018-08-24T08:23:45Z</time>
      </trkpt>
      <trkpt lat="45.92217" lon="4.75179">
        <ele>175</ele>
        <time>2018-08-24T08:23:46Z</time>
      </trkpt>
      <trkpt lat="45.92216" lon="4.75186">
        <ele>175</ele>
        <time>2018-08-24T08:23:47Z</time>
      </trkpt>
      <trkpt lat="45.92214" lon="4.75193">
        <ele>175</ele>
        <time>2018-08-24T08:23:48Z</time>
      </trkpt>
      <trkpt lat="45.92212" lon="4.75201">
        <ele>175</ele>
        <time>2018-08-24T08:23:49Z</time>
      </trkpt>
      <trkpt lat="45.9221" lon="4.75209">
        <ele>175</ele>
        <time>2018-08-24T08:23:50Z</time>
      </trkpt>
      <trkpt lat="45.92209" lon="4.75217">
        <ele>175</ele>
        <time>2018-08-24T08:23:51Z</time>
      </trkpt>
      <trkpt lat="45.92209" lon="4.75225">
        <ele>175</ele>
        <time>2018-08-24T08:23:52Z</time>
      </trkpt>
      <trkpt lat="45.92209" lon="4.75231">
        <ele>175</ele>
        <time>2018-08-24T08:23:53Z</time>
      </trkpt>
      <trkpt lat="45.9221" lon="4.75242">
        <ele>175</ele>
        <time>2018-08-24T08:23:54Z</time>
      </trkpt>
      <trkpt lat="45.92209" lon="4.75254">
        <ele>175</ele>
        <time>2018-08-24T08:23:56Z</time>
      </trkpt>
      <trkpt lat="45.92207" lon="4.75257">
        <ele>175</ele>
        <time>2018-08-24T08:23:57Z</time>
      </trkpt>
      <trkpt lat="45.92209" lon="4.75266">
        <ele>176</ele>
        <time>2018-08-24T08:23:58Z</time>
      </trkpt>
      <trkpt lat="45.92209" lon="4.75273">
        <ele>176</ele>
        <time>2018-08-24T08:23:59Z</time>
      </trkpt>
      <trkpt lat="45.92209" lon="4.75282">
        <ele>176</ele>
        <time>2018-08-24T08:24:00Z</time>
      </trkpt>
      <trkpt lat="45.92211" lon="4.75292">
        <ele>176</ele>
        <time>2018-08-24T08:24:01Z</time>
      </trkpt>
      <trkpt lat="45.92211" lon="4.753">
        <ele>176</ele>
        <time>2018-08-24T08:24:02Z</time>
      </trkpt>
      <trkpt lat="45.92209" lon="4.7531">
        <ele>176</ele>
        <time>2018-08-24T08:24:03Z</time>
      </trkpt>
      <trkpt lat="45.92209" lon="4.75318">
        <ele>176</ele>
        <time>2018-08-24T08:24:04Z</time>
      </trkpt>
      <trkpt lat="45.92207" lon="4.75327">
        <ele>176</ele>
        <time>2018-08-24T08:24:05Z</time>
      </trkpt>
      <trkpt lat="45.92205" lon="4.75334">
        <ele>177</ele>
        <time>2018-08-24T08:24:06Z</time>
      </trkpt>
      <trkpt lat="45.92203" lon="4.75343">
        <ele>177</ele>
        <time>2018-08-24T08:24:07Z</time>
      </trkpt>
      <trkpt lat="45.922" lon="4.7535">
        <ele>177</ele>
        <time>2018-08-24T08:24:08Z</time>
      </trkpt>
      <trkpt lat="45.92198" lon="4.75359">
        <ele>177</ele>
        <time>2018-08-24T08:24:09Z</time>
      </trkpt>
      <trkpt lat="45.92195" lon="4.75366">
        <ele>177</ele>
        <time>2018-08-24T08:24:10Z</time>
      </trkpt>
      <trkpt lat="45.92193" lon="4.75374">
        <ele>177</ele>
        <time>2018-08-24T08:24:11Z</time>
      </trkpt>
      <trkpt lat="45.92189" lon="4.75381">
        <ele>177</ele>
        <time>2018-08-24T08:24:12Z</time>
      </trkpt>
      <trkpt lat="45.92186" lon="4.7539">
        <ele>177</ele>
        <time>2018-08-24T08:24:13Z</time>
      </trkpt>
      <trkpt lat="45.92183" lon="4.75397">
        <ele>177</ele>
        <time>2018-08-24T08:24:14Z</time>
      </trkpt>
      <trkpt lat="45.9218" lon="4.75405">
        <ele>177</ele>
        <time>2018-08-24T08:24:15Z</time>
      </trkpt>
      <trkpt lat="45.92176" lon="4.75411">
        <ele>178</ele>
        <time>2018-08-24T08:24:16Z</time>
      </trkpt>
      <trkpt lat="45.92173" lon="4.75419">
        <ele>177</ele>
        <time>2018-08-24T08:24:17Z</time>
      </trkpt>
      <trkpt lat="45.9217" lon="4.75426">
        <ele>177</ele>
        <time>2018-08-24T08:24:18Z</time>
      </trkpt>
      <trkpt lat="45.92167" lon="4.75431">
        <ele>177</ele>
        <time>2018-08-24T08:24:19Z</time>
      </trkpt>
      <trkpt lat="45.92164" lon="4.75439">
        <ele>177</ele>
        <time>2018-08-24T08:24:20Z</time>
      </trkpt>
      <trkpt lat="45.92163" lon="4.75449">
        <ele>176</ele>
        <time>2018-08-24T08:24:21Z</time>
      </trkpt>
      <trkpt lat="45.9216" lon="4.75456">
        <ele>176</ele>
        <time>2018-08-24T08:24:22Z</time>
      </trkpt>
      <trkpt lat="45.92157" lon="4.75464">
        <ele>176</ele>
        <time>2018-08-24T08:24:23Z</time>
      </trkpt>
      <trkpt lat="45.92151" lon="4.75475">
        <ele>176</ele>
        <time>2018-08-24T08:24:24Z</time>
      </trkpt>
      <trkpt lat="45.92148" lon="4.75484">
        <ele>176</ele>
        <time>2018-08-24T08:24:25Z</time>
      </trkpt>
      <trkpt lat="45.92145" lon="4.7549">
        <ele>176</ele>
        <time>2018-08-24T08:24:26Z</time>
      </trkpt>
      <trkpt lat="45.92141" lon="4.75498">
        <ele>175</ele>
        <time>2018-08-24T08:24:27Z</time>
      </trkpt>
      <trkpt lat="45.92137" lon="4.75506">
        <ele>174</ele>
        <time>2018-08-24T08:24:28Z</time>
      </trkpt>
      <trkpt lat="45.92133" lon="4.75514">
        <ele>174</ele>
        <time>2018-08-24T08:24:29Z</time>
      </trkpt>
      <trkpt lat="45.92129" lon="4.75522">
        <ele>174</ele>
        <time>2018-08-24T08:24:30Z</time>
      </trkpt>
      <trkpt lat="45.92124" lon="4.75529">
        <ele>174</ele>
        <time>2018-08-24T08:24:31Z</time>
      </trkpt>
      <trkpt lat="45.9212" lon="4.75536">
        <ele>174</ele>
        <time>2018-08-24T08:24:32Z</time>
      </trkpt>
      <trkpt lat="45.92116" lon="4.75542">
        <ele>174</ele>
        <time>2018-08-24T08:24:33Z</time>
      </trkpt>
      <trkpt lat="45.92113" lon="4.7555">
        <ele>174</ele>
        <time>2018-08-24T08:24:34Z</time>
      </trkpt>
      <trkpt lat="45.92111" lon="4.75555">
        <ele>174</ele>
        <time>2018-08-24T08:24:35Z</time>
      </trkpt>
      <trkpt lat="45.92107" lon="4.75562">
        <ele>174</ele>
        <time>2018-08-24T08:24:36Z</time>
      </trkpt>
      <trkpt lat="45.92103" lon="4.75566">
        <ele>174</ele>
        <time>2018-08-24T08:24:37Z</time>
      </trkpt>
      <trkpt lat="45.92099" lon="4.75574">
        <ele>174</ele>
        <time>2018-08-24T08:24:38Z</time>
      </trkpt>
      <trkpt lat="45.92095" lon="4.75581">
        <ele>174</ele>
        <time>2018-08-24T08:24:39Z</time>
      </trkpt>
      <trkpt lat="45.92091" lon="4.75589">
        <ele>174</ele>
        <time>2018-08-24T08:24:40Z</time>
      </trkpt>
      <trkpt lat="45.92087" lon="4.75597">
        <ele>174</ele>
        <time>2018-08-24T08:24:41Z</time>
      </trkpt>
      <trkpt lat="45.92083" lon="4.75604">
        <ele>175</ele>
        <time>2018-08-24T08:24:42Z</time>
      </trkpt>
      <trkpt lat="45.92078" lon="4.75611">
        <ele>175</ele>
        <time>2018-08-24T08:24:43Z</time>
      </trkpt>
      <trkpt lat="45.92075" lon="4.75619">
        <ele>175</ele>
        <time>2018-08-24T08:24:44Z</time>
      </trkpt>
      <trkpt lat="45.92071" lon="4.75627">
        <ele>175</ele>
        <time>2018-08-24T08:24:45Z</time>
      </trkpt>
      <trkpt lat="45.92067" lon="4.75635">
        <ele>175</ele>
        <time>2018-08-24T08:24:46Z</time>
      </trkpt>
      <trkpt lat="45.92063" lon="4.75643">
        <ele>175</ele>
        <time>2018-08-24T08:24:47Z</time>
      </trkpt>
      <trkpt lat="45.92058" lon="4.75649">
        <ele>175</ele>
        <time>2018-08-24T08:24:48Z</time>
      </trkpt>
      <trkpt lat="45.92054" lon="4.75657">
        <ele>175</ele>
        <time>2018-08-24T08:24:49Z</time>
      </trkpt>
      <trkpt lat="45.92051" lon="4.75664">
        <ele>175</ele>
        <time>2018-08-24T08:24:50Z</time>
      </trkpt>
      <trkpt lat="45.92048" lon="4.75669">
        <ele>175</ele>
        <time>2018-08-24T08:24:51Z</time>
      </trkpt>
      <trkpt lat="45.92044" lon="4.75677">
        <ele>175</ele>
        <time>2018-08-24T08:24:52Z</time>
      </trkpt>
      <trkpt lat="45.92039" lon="4.75683">
        <ele>175</ele>
        <time>2018-08-24T08:24:53Z</time>
      </trkpt>
      <trkpt lat="45.92036" lon="4.7569">
        <ele>175</ele>
        <time>2018-08-24T08:24:54Z</time>
      </trkpt>
      <trkpt lat="45.92033" lon="4.75693">
        <ele>175</ele>
        <time>2018-08-24T08:24:55Z</time>
      </trkpt>
      <trkpt lat="45.92028" lon="4.75702">
        <ele>175</ele>
        <time>2018-08-24T08:24:56Z</time>
      </trkpt>
      <trkpt lat="45.92025" lon="4.75712">
        <ele>175</ele>
        <time>2018-08-24T08:24:57Z</time>
      </trkpt>
      <trkpt lat="45.92019" lon="4.75719">
        <ele>175</ele>
        <time>2018-08-24T08:24:58Z</time>
      </trkpt>
      <trkpt lat="45.92016" lon="4.75727">
        <ele>175</ele>
        <time>2018-08-24T08:24:59Z</time>
      </trkpt>
      <trkpt lat="45.92012" lon="4.75734">
        <ele>175</ele>
        <time>2018-08-24T08:25:00Z</time>
      </trkpt>
      <trkpt lat="45.92007" lon="4.75741">
        <ele>174</ele>
        <time>2018-08-24T08:25:01Z</time>
      </trkpt>
      <trkpt lat="45.92003" lon="4.75749">
        <ele>174</ele>
        <time>2018-08-24T08:25:02Z</time>
      </trkpt>
      <trkpt lat="45.91998" lon="4.75756">
        <ele>174</ele>
        <time>2018-08-24T08:25:03Z</time>
      </trkpt>
      <trkpt lat="45.91994" lon="4.75763">
        <ele>174</ele>
        <time>2018-08-24T08:25:04Z</time>
      </trkpt>
      <trkpt lat="45.91989" lon="4.75771">
        <ele>174</ele>
        <time>2018-08-24T08:25:05Z</time>
      </trkpt>
      <trkpt lat="45.91985" lon="4.75779">
        <ele>174</ele>
        <time>2018-08-24T08:25:06Z</time>
      </trkpt>
      <trkpt lat="45.91982" lon="4.75788">
        <ele>173</ele>
        <time>2018-08-24T08:25:07Z</time>
      </trkpt>
      <trkpt lat="45.91978" lon="4.75795">
        <ele>173</ele>
        <time>2018-08-24T08:25:08Z</time>
      </trkpt>
      <trkpt lat="45.91973" lon="4.75803">
        <ele>173</ele>
        <time>2018-08-24T08:25:09Z</time>
      </trkpt>
      <trkpt lat="45.91969" lon="4.7581">
        <ele>173</ele>
        <time>2018-08-24T08:25:10Z</time>
      </trkpt>
      <trkpt lat="45.91965" lon="4.75818">
        <ele>173</ele>
        <time>2018-08-24T08:25:11Z</time>
      </trkpt>
      <trkpt lat="45.91961" lon="4.75825">
        <ele>173</ele>
        <time>2018-08-24T08:25:12Z</time>
      </trkpt>
      <trkpt lat="45.91956" lon="4.75831">
        <ele>173</ele>
        <time>2018-08-24T08:25:13Z</time>
      </trkpt>
      <trkpt lat="45.91953" lon="4.75839">
        <ele>172</ele>
        <time>2018-08-24T08:25:14Z</time>
      </trkpt>
      <trkpt lat="45.91949" lon="4.75846">
        <ele>172</ele>
        <time>2018-08-24T08:25:15Z</time>
      </trkpt>
      <trkpt lat="45.91945" lon="4.75853">
        <ele>172</ele>
        <time>2018-08-24T08:25:16Z</time>
      </trkpt>
      <trkpt lat="45.91942" lon="4.75861">
        <ele>172</ele>
        <time>2018-08-24T08:25:17Z</time>
      </trkpt>
      <trkpt lat="45.91938" lon="4.75869">
        <ele>172</ele>
        <time>2018-08-24T08:25:18Z</time>
      </trkpt>
      <trkpt lat="45.91934" lon="4.75878">
        <ele>172</ele>
        <time>2018-08-24T08:25:19Z</time>
      </trkpt>
      <trkpt lat="45.91932" lon="4.75886">
        <ele>172</ele>
        <time>2018-08-24T08:25:20Z</time>
      </trkpt>
      <trkpt lat="45.91929" lon="4.75894">
        <ele>172</ele>
        <time>2018-08-24T08:25:21Z</time>
      </trkpt>
      <trkpt lat="45.91926" lon="4.75901">
        <ele>172</ele>
        <time>2018-08-24T08:25:22Z</time>
      </trkpt>
      <trkpt lat="45.91923" lon="4.7591">
        <ele>172</ele>
        <time>2018-08-24T08:25:23Z</time>
      </trkpt>
      <trkpt lat="45.91921" lon="4.75918">
        <ele>172</ele>
        <time>2018-08-24T08:25:24Z</time>
      </trkpt>
      <trkpt lat="45.91919" lon="4.75926">
        <ele>172</ele>
        <time>2018-08-24T08:25:25Z</time>
      </trkpt>
      <trkpt lat="45.91917" lon="4.75933">
        <ele>172</ele>
        <time>2018-08-24T08:25:26Z</time>
      </trkpt>
      <trkpt lat="45.91915" lon="4.75941">
        <ele>173</ele>
        <time>2018-08-24T08:25:27Z</time>
      </trkpt>
      <trkpt lat="45.91914" lon="4.75948">
        <ele>173</ele>
        <time>2018-08-24T08:25:28Z</time>
      </trkpt>
      <trkpt lat="45.91912" lon="4.75957">
        <ele>173</ele>
        <time>2018-08-24T08:25:29Z</time>
      </trkpt>
      <trkpt lat="45.91909" lon="4.75967">
        <ele>173</ele>
        <time>2018-08-24T08:25:30Z</time>
      </trkpt>
      <trkpt lat="45.91907" lon="4.75975">
        <ele>173</ele>
        <time>2018-08-24T08:25:31Z</time>
      </trkpt>
      <trkpt lat="45.91904" lon="4.75983">
        <ele>173</ele>
        <time>2018-08-24T08:25:32Z</time>
      </trkpt>
      <trkpt lat="45.91904" lon="4.75993">
        <ele>173</ele>
        <time>2018-08-24T08:25:33Z</time>
      </trkpt>
      <trkpt lat="45.91903" lon="4.76003">
        <ele>173</ele>
        <time>2018-08-24T08:25:34Z</time>
      </trkpt>
      <trkpt lat="45.919" lon="4.76012">
        <ele>173</ele>
        <time>2018-08-24T08:25:35Z</time>
      </trkpt>
      <trkpt lat="45.91898" lon="4.7602">
        <ele>173</ele>
        <time>2018-08-24T08:25:36Z</time>
      </trkpt>
      <trkpt lat="45.91897" lon="4.76029">
        <ele>173</ele>
        <time>2018-08-24T08:25:37Z</time>
      </trkpt>
      <trkpt lat="45.91895" lon="4.76037">
        <ele>173</ele>
        <time>2018-08-24T08:25:38Z</time>
      </trkpt>
      <trkpt lat="45.91893" lon="4.76045">
        <ele>173</ele>
        <time>2018-08-24T08:25:39Z</time>
      </trkpt>
      <trkpt lat="45.91891" lon="4.76053">
        <ele>173</ele>
        <time>2018-08-24T08:25:40Z</time>
      </trkpt>
      <trkpt lat="45.91888" lon="4.76061">
        <ele>173</ele>
        <time>2018-08-24T08:25:41Z</time>
      </trkpt>
      <trkpt lat="45.91886" lon="4.7607">
        <ele>173</ele>
        <time>2018-08-24T08:25:42Z</time>
      </trkpt>
      <trkpt lat="45.91883" lon="4.76078">
        <ele>173</ele>
        <time>2018-08-24T08:25:43Z</time>
      </trkpt>
      <trkpt lat="45.91881" lon="4.76087">
        <ele>172</ele>
        <time>2018-08-24T08:25:44Z</time>
      </trkpt>
      <trkpt lat="45.91881" lon="4.76095">
        <ele>172</ele>
        <time>2018-08-24T08:25:45Z</time>
      </trkpt>
      <trkpt lat="45.91879" lon="4.76104">
        <ele>173</ele>
        <time>2018-08-24T08:25:46Z</time>
      </trkpt>
      <trkpt lat="45.91878" lon="4.76113">
        <ele>173</ele>
        <time>2018-08-24T08:25:47Z</time>
      </trkpt>
      <trkpt lat="45.91876" lon="4.7612">
        <ele>173</ele>
        <time>2018-08-24T08:25:48Z</time>
      </trkpt>
      <trkpt lat="45.91872" lon="4.76128">
        <ele>173</ele>
        <time>2018-08-24T08:25:49Z</time>
      </trkpt>
      <trkpt lat="45.9187" lon="4.76136">
        <ele>173</ele>
        <time>2018-08-24T08:25:50Z</time>
      </trkpt>
      <trkpt lat="45.91868" lon="4.76144">
        <ele>173</ele>
        <time>2018-08-24T08:25:51Z</time>
      </trkpt>
      <trkpt lat="45.91865" lon="4.76152">
        <ele>173</ele>
        <time>2018-08-24T08:25:52Z</time>
      </trkpt>
      <trkpt lat="45.91863" lon="4.76159">
        <ele>173</ele>
        <time>2018-08-24T08:25:53Z</time>
      </trkpt>
      <trkpt lat="45.9186" lon="4.76167">
        <ele>172</ele>
        <time>2018-08-24T08:25:54Z</time>
      </trkpt>
      <trkpt lat="45.91859" lon="4.76176">
        <ele>172</ele>
        <time>2018-08-24T08:25:55Z</time>
      </trkpt>
      <trkpt lat="45.91856" lon="4.76185">
        <ele>172</ele>
        <time>2018-08-24T08:25:56Z</time>
      </trkpt>
      <trkpt lat="45.91854" lon="4.76193">
        <ele>172</ele>
        <time>2018-08-24T08:25:57Z</time>
      </trkpt>
      <trkpt lat="45.91853" lon="4.76201">
        <ele>172</ele>
        <time>2018-08-24T08:25:58Z</time>
      </trkpt>
      <trkpt lat="45.91848" lon="4.7621">
        <ele>172</ele>
        <time>2018-08-24T08:25:59Z</time>
      </trkpt>
      <trkpt lat="45.91845" lon="4.76218">
        <ele>172</ele>
        <time>2018-08-24T08:26:00Z</time>
      </trkpt>
      <trkpt lat="45.91845" lon="4.76226">
        <ele>172</ele>
        <time>2018-08-24T08:26:01Z</time>
      </trkpt>
      <trkpt lat="45.91843" lon="4.76235">
        <ele>173</ele>
        <time>2018-08-24T08:26:02Z</time>
      </trkpt>
      <trkpt lat="45.91841" lon="4.76241">
        <ele>173</ele>
        <time>2018-08-24T08:26:03Z</time>
      </trkpt>
      <trkpt lat="45.91839" lon="4.76249">
        <ele>173</ele>
        <time>2018-08-24T08:26:04Z</time>
      </trkpt>
      <trkpt lat="45.91838" lon="4.76257">
        <ele>173</ele>
        <time>2018-08-24T08:26:05Z</time>
      </trkpt>
      <trkpt lat="45.91836" lon="4.76266">
        <ele>172</ele>
        <time>2018-08-24T08:26:06Z</time>
      </trkpt>
      <trkpt lat="45.91833" lon="4.76274">
        <ele>172</ele>
        <time>2018-08-24T08:26:07Z</time>
      </trkpt>
      <trkpt lat="45.91829" lon="4.76283">
        <ele>174</ele>
        <time>2018-08-24T08:26:08Z</time>
      </trkpt>
      <trkpt lat="45.91827" lon="4.76291">
        <ele>174</ele>
        <time>2018-08-24T08:26:09Z</time>
      </trkpt>
      <trkpt lat="45.91824" lon="4.76298">
        <ele>174</ele>
        <time>2018-08-24T08:26:10Z</time>
      </trkpt>
      <trkpt lat="45.91822" lon="4.76306">
        <ele>174</ele>
        <time>2018-08-24T08:26:11Z</time>
      </trkpt>
      <trkpt lat="45.91819" lon="4.76314">
        <ele>174</ele>
        <time>2018-08-24T08:26:12Z</time>
      </trkpt>
      <trkpt lat="45.91817" lon="4.76324">
        <ele>174</ele>
        <time>2018-08-24T08:26:13Z</time>
      </trkpt>
      <trkpt lat="45.91815" lon="4.76331">
        <ele>174</ele>
        <time>2018-08-24T08:26:14Z</time>
      </trkpt>
      <trkpt lat="45.91815" lon="4.76341">
        <ele>174</ele>
        <time>2018-08-24T08:26:15Z</time>
      </trkpt>
      <trkpt lat="45.91812" lon="4.76352">
        <ele>174</ele>
        <time>2018-08-24T08:26:17Z</time>
      </trkpt>
      <trkpt lat="45.91811" lon="4.7636">
        <ele>174</ele>
        <time>2018-08-24T08:26:18Z</time>
      </trkpt>
      <trkpt lat="45.9181" lon="4.7637">
        <ele>174</ele>
        <time>2018-08-24T08:26:19Z</time>
      </trkpt>
      <trkpt lat="45.91809" lon="4.76378">
        <ele>174</ele>
        <time>2018-08-24T08:26:20Z</time>
      </trkpt>
      <trkpt lat="45.91807" lon="4.76389">
        <ele>174</ele>
        <time>2018-08-24T08:26:21Z</time>
      </trkpt>
      <trkpt lat="45.91807" lon="4.76399">
        <ele>174</ele>
        <time>2018-08-24T08:26:22Z</time>
      </trkpt>
      <trkpt lat="45.91806" lon="4.76408">
        <ele>173</ele>
        <time>2018-08-24T08:26:23Z</time>
      </trkpt>
      <trkpt lat="45.91804" lon="4.76416">
        <ele>173</ele>
        <time>2018-08-24T08:26:24Z</time>
      </trkpt>
      <trkpt lat="45.91804" lon="4.76426">
        <ele>173</ele>
        <time>2018-08-24T08:26:25Z</time>
      </trkpt>
      <trkpt lat="45.91806" lon="4.76434">
        <ele>173</ele>
        <time>2018-08-24T08:26:26Z</time>
      </trkpt>
      <trkpt lat="45.91806" lon="4.76443">
        <ele>173</ele>
        <time>2018-08-24T08:26:27Z</time>
      </trkpt>
      <trkpt lat="45.91805" lon="4.76451">
        <ele>173</ele>
        <time>2018-08-24T08:26:28Z</time>
      </trkpt>
      <trkpt lat="45.91806" lon="4.76458">
        <ele>173</ele>
        <time>2018-08-24T08:26:29Z</time>
      </trkpt>
      <trkpt lat="45.91805" lon="4.76466">
        <ele>173</ele>
        <time>2018-08-24T08:26:30Z</time>
      </trkpt>
      <trkpt lat="45.91805" lon="4.76474">
        <ele>173</ele>
        <time>2018-08-24T08:26:31Z</time>
      </trkpt>
      <trkpt lat="45.91804" lon="4.76481">
        <ele>173</ele>
        <time>2018-08-24T08:26:32Z</time>
      </trkpt>
      <trkpt lat="45.91803" lon="4.76489">
        <ele>173</ele>
        <time>2018-08-24T08:26:33Z</time>
      </trkpt>
      <trkpt lat="45.91804" lon="4.76498">
        <ele>173</ele>
        <time>2018-08-24T08:26:34Z</time>
      </trkpt>
      <trkpt lat="45.91803" lon="4.76506">
        <ele>173</ele>
        <time>2018-08-24T08:26:35Z</time>
      </trkpt>
      <trkpt lat="45.91803" lon="4.76515">
        <ele>173</ele>
        <time>2018-08-24T08:26:36Z</time>
      </trkpt>
      <trkpt lat="45.91802" lon="4.76524">
        <ele>173</ele>
        <time>2018-08-24T08:26:37Z</time>
      </trkpt>
      <trkpt lat="45.91802" lon="4.76532">
        <ele>173</ele>
        <time>2018-08-24T08:26:38Z</time>
      </trkpt>
      <trkpt lat="45.91802" lon="4.76541">
        <ele>173</ele>
        <time>2018-08-24T08:26:39Z</time>
      </trkpt>
      <trkpt lat="45.91802" lon="4.7655">
        <ele>173</ele>
        <time>2018-08-24T08:26:40Z</time>
      </trkpt>
      <trkpt lat="45.91802" lon="4.76559">
        <ele>173</ele>
        <time>2018-08-24T08:26:41Z</time>
      </trkpt>
      <trkpt lat="45.918" lon="4.76566">
        <ele>173</ele>
        <time>2018-08-24T08:26:42Z</time>
      </trkpt>
      <trkpt lat="45.91799" lon="4.76574">
        <ele>173</ele>
        <time>2018-08-24T08:26:43Z</time>
      </trkpt>
      <trkpt lat="45.91799" lon="4.76582">
        <ele>173</ele>
        <time>2018-08-24T08:26:44Z</time>
      </trkpt>
      <trkpt lat="45.91796" lon="4.76591">
        <ele>173</ele>
        <time>2018-08-24T08:26:45Z</time>
      </trkpt>
      <trkpt lat="45.91795" lon="4.766">
        <ele>173</ele>
        <time>2018-08-24T08:26:46Z</time>
      </trkpt>
      <trkpt lat="45.91795" lon="4.76608">
        <ele>173</ele>
        <time>2018-08-24T08:26:47Z</time>
      </trkpt>
      <trkpt lat="45.91793" lon="4.76617">
        <ele>173</ele>
        <time>2018-08-24T08:26:48Z</time>
      </trkpt>
      <trkpt lat="45.91792" lon="4.76625">
        <ele>173</ele>
        <time>2018-08-24T08:26:49Z</time>
      </trkpt>
      <trkpt lat="45.91791" lon="4.76634">
        <ele>173</ele>
        <time>2018-08-24T08:26:50Z</time>
      </trkpt>
      <trkpt lat="45.9179" lon="4.76642">
        <ele>173</ele>
        <time>2018-08-24T08:26:51Z</time>
      </trkpt>
      <trkpt lat="45.91789" lon="4.76649">
        <ele>173</ele>
        <time>2018-08-24T08:26:52Z</time>
      </trkpt>
      <trkpt lat="45.91788" lon="4.76658">
        <ele>173</ele>
        <time>2018-08-24T08:26:53Z</time>
      </trkpt>
      <trkpt lat="45.91787" lon="4.76667">
        <ele>173</ele>
        <time>2018-08-24T08:26:54Z</time>
      </trkpt>
      <trkpt lat="45.91785" lon="4.76676">
        <ele>172</ele>
        <time>2018-08-24T08:26:55Z</time>
      </trkpt>
      <trkpt lat="45.91784" lon="4.76687">
        <ele>172</ele>
        <time>2018-08-24T08:26:56Z</time>
      </trkpt>
      <trkpt lat="45.91783" lon="4.76695">
        <ele>172</ele>
        <time>2018-08-24T08:26:57Z</time>
      </trkpt>
      <trkpt lat="45.91782" lon="4.76704">
        <ele>172</ele>
        <time>2018-08-24T08:26:58Z</time>
      </trkpt>
      <trkpt lat="45.91781" lon="4.76713">
        <ele>172</ele>
        <time>2018-08-24T08:26:59Z</time>
      </trkpt>
      <trkpt lat="45.9178" lon="4.76723">
        <ele>172</ele>
        <time>2018-08-24T08:27:00Z</time>
      </trkpt>
      <trkpt lat="45.91779" lon="4.76733">
        <ele>172</ele>
        <time>2018-08-24T08:27:01Z</time>
      </trkpt>
      <trkpt lat="45.91777" lon="4.76743">
        <ele>172</ele>
        <time>2018-08-24T08:27:02Z</time>
      </trkpt>
      <trkpt lat="45.91777" lon="4.76753">
        <ele>171</ele>
        <time>2018-08-24T08:27:03Z</time>
      </trkpt>
      <trkpt lat="45.91776" lon="4.76762">
        <ele>171</ele>
        <time>2018-08-24T08:27:04Z</time>
      </trkpt>
      <trkpt lat="45.91775" lon="4.76772">
        <ele>171</ele>
        <time>2018-08-24T08:27:05Z</time>
      </trkpt>
      <trkpt lat="45.91775" lon="4.76781">
        <ele>171</ele>
        <time>2018-08-24T08:27:06Z</time>
      </trkpt>
      <trkpt lat="45.91776" lon="4.76791">
        <ele>171</ele>
        <time>2018-08-24T08:27:07Z</time>
      </trkpt>
      <trkpt lat="45.91775" lon="4.768">
        <ele>171</ele>
        <time>2018-08-24T08:27:08Z</time>
      </trkpt>
      <trkpt lat="45.91778" lon="4.76811">
        <ele>171</ele>
        <time>2018-08-24T08:27:09Z</time>
      </trkpt>
      <trkpt lat="45.91778" lon="4.7682">
        <ele>171</ele>
        <time>2018-08-24T08:27:10Z</time>
      </trkpt>
      <trkpt lat="45.91778" lon="4.7683">
        <ele>171</ele>
        <time>2018-08-24T08:27:11Z</time>
      </trkpt>
      <trkpt lat="45.91776" lon="4.7684">
        <ele>171</ele>
        <time>2018-08-24T08:27:12Z</time>
      </trkpt>
      <trkpt lat="45.91778" lon="4.76851">
        <ele>170</ele>
        <time>2018-08-24T08:27:13Z</time>
      </trkpt>
      <trkpt lat="45.91776" lon="4.76862">
        <ele>170</ele>
        <time>2018-08-24T08:27:14Z</time>
      </trkpt>
      <trkpt lat="45.91776" lon="4.7687">
        <ele>170</ele>
        <time>2018-08-24T08:27:15Z</time>
      </trkpt>
      <trkpt lat="45.91776" lon="4.7688">
        <ele>170</ele>
        <time>2018-08-24T08:27:16Z</time>
      </trkpt>
      <trkpt lat="45.91775" lon="4.76888">
        <ele>170</ele>
        <time>2018-08-24T08:27:17Z</time>
      </trkpt>
      <trkpt lat="45.91775" lon="4.76897">
        <ele>170</ele>
        <time>2018-08-24T08:27:18Z</time>
      </trkpt>
      <trkpt lat="45.91774" lon="4.76906">
        <ele>170</ele>
        <time>2018-08-24T08:27:19Z</time>
      </trkpt>
      <trkpt lat="45.91774" lon="4.76915">
        <ele>170</ele>
        <time>2018-08-24T08:27:20Z</time>
      </trkpt>
      <trkpt lat="45.91773" lon="4.76924">
        <ele>170</ele>
        <time>2018-08-24T08:27:21Z</time>
      </trkpt>
      <trkpt lat="45.91772" lon="4.76933">
        <ele>170</ele>
        <time>2018-08-24T08:27:22Z</time>
      </trkpt>
      <trkpt lat="45.91771" lon="4.76942">
        <ele>169</ele>
        <time>2018-08-24T08:27:23Z</time>
      </trkpt>
      <trkpt lat="45.91771" lon="4.76951">
        <ele>169</ele>
        <time>2018-08-24T08:27:24Z</time>
      </trkpt>
      <trkpt lat="45.9177" lon="4.7696">
        <ele>169</ele>
        <time>2018-08-24T08:27:25Z</time>
      </trkpt>
      <trkpt lat="45.9177" lon="4.76969">
        <ele>169</ele>
        <time>2018-08-24T08:27:26Z</time>
      </trkpt>
      <trkpt lat="45.91769" lon="4.76978">
        <ele>169</ele>
        <time>2018-08-24T08:27:27Z</time>
      </trkpt>
      <trkpt lat="45.91768" lon="4.76987">
        <ele>169</ele>
        <time>2018-08-24T08:27:28Z</time>
      </trkpt>
      <trkpt lat="45.91767" lon="4.76996">
        <ele>169</ele>
        <time>2018-08-24T08:27:29Z</time>
      </trkpt>
      <trkpt lat="45.91765" lon="4.77004">
        <ele>169</ele>
        <time>2018-08-24T08:27:30Z</time>
      </trkpt>
      <trkpt lat="45.91764" lon="4.77013">
        <ele>169</ele>
        <time>2018-08-24T08:27:31Z</time>
      </trkpt>
      <trkpt lat="45.91764" lon="4.7702">
        <ele>169</ele>
        <time>2018-08-24T08:27:32Z</time>
      </trkpt>
      <trkpt lat="45.91764" lon="4.77028">
        <ele>168</ele>
        <time>2018-08-24T08:27:33Z</time>
      </trkpt>
      <trkpt lat="45.91763" lon="4.77037">
        <ele>168</ele>
        <time>2018-08-24T08:27:34Z</time>
      </trkpt>
      <trkpt lat="45.91762" lon="4.77047">
        <ele>168</ele>
        <time>2018-08-24T08:27:35Z</time>
      </trkpt>
      <trkpt lat="45.91761" lon="4.77057">
        <ele>169</ele>
        <time>2018-08-24T08:27:36Z</time>
      </trkpt>
      <trkpt lat="45.91759" lon="4.77066">
        <ele>169</ele>
        <time>2018-08-24T08:27:37Z</time>
      </trkpt>
      <trkpt lat="45.91759" lon="4.77076">
        <ele>169</ele>
        <time>2018-08-24T08:27:38Z</time>
      </trkpt>
      <trkpt lat="45.91757" lon="4.77085">
        <ele>169</ele>
        <time>2018-08-24T08:27:39Z</time>
      </trkpt>
      <trkpt lat="45.91755" lon="4.77094">
        <ele>169</ele>
        <time>2018-08-24T08:27:40Z</time>
      </trkpt>
      <trkpt lat="45.91753" lon="4.77102">
        <ele>169</ele>
        <time>2018-08-24T08:27:41Z</time>
      </trkpt>
      <trkpt lat="45.91752" lon="4.77111">
        <ele>169</ele>
        <time>2018-08-24T08:27:42Z</time>
      </trkpt>
      <trkpt lat="45.91749" lon="4.77121">
        <ele>170</ele>
        <time>2018-08-24T08:27:43Z</time>
      </trkpt>
      <trkpt lat="45.91748" lon="4.77131">
        <ele>170</ele>
        <time>2018-08-24T08:27:44Z</time>
      </trkpt>
      <trkpt lat="45.91746" lon="4.77138">
        <ele>170</ele>
        <time>2018-08-24T08:27:45Z</time>
      </trkpt>
      <trkpt lat="45.91744" lon="4.77146">
        <ele>170</ele>
        <time>2018-08-24T08:27:46Z</time>
      </trkpt>
      <trkpt lat="45.91743" lon="4.77154">
        <ele>170</ele>
        <time>2018-08-24T08:27:47Z</time>
      </trkpt>
      <trkpt lat="45.91742" lon="4.77159">
        <ele>170</ele>
        <time>2018-08-24T08:27:48Z</time>
      </trkpt>
      <trkpt lat="45.91737" lon="4.77168">
        <ele>170</ele>
        <time>2018-08-24T08:27:50Z</time>
      </trkpt>
      <trkpt lat="45.91733" lon="4.77169">
        <ele>170</ele>
        <time>2018-08-24T08:27:51Z</time>
      </trkpt>
      <trkpt lat="45.91728" lon="4.77177">
        <ele>170</ele>
        <time>2018-08-24T08:27:53Z</time>
      </trkpt>
      <trkpt lat="45.91727" lon="4.77183">
        <ele>170</ele>
        <time>2018-08-24T08:27:54Z</time>
      </trkpt>
      <trkpt lat="45.91726" lon="4.7719">
        <ele>170</ele>
        <time>2018-08-24T08:27:55Z</time>
      </trkpt>
      <trkpt lat="45.91724" lon="4.77197">
        <ele>170</ele>
        <time>2018-08-24T08:27:56Z</time>
      </trkpt>
      <trkpt lat="45.91721" lon="4.77201">
        <ele>170</ele>
        <time>2018-08-24T08:27:57Z</time>
      </trkpt>
      <trkpt lat="45.91717" lon="4.77207">
        <ele>170</ele>
        <time>2018-08-24T08:27:58Z</time>
      </trkpt>
      <trkpt lat="45.91715" lon="4.77213">
        <ele>170</ele>
        <time>2018-08-24T08:27:59Z</time>
      </trkpt>
      <trkpt lat="45.91711" lon="4.77219">
        <ele>170</ele>
        <time>2018-08-24T08:28:00Z</time>
      </trkpt>
      <trkpt lat="45.91708" lon="4.77225">
        <ele>170</ele>
        <time>2018-08-24T08:28:01Z</time>
      </trkpt>
      <trkpt lat="45.91704" lon="4.7723">
        <ele>170</ele>
        <time>2018-08-24T08:28:02Z</time>
      </trkpt>
      <trkpt lat="45.91701" lon="4.77238">
        <ele>170</ele>
        <time>2018-08-24T08:28:03Z</time>
      </trkpt>
      <trkpt lat="45.91699" lon="4.77244">
        <ele>170</ele>
        <time>2018-08-24T08:28:04Z</time>
      </trkpt>
      <trkpt lat="45.91696" lon="4.77252">
        <ele>170</ele>
        <time>2018-08-24T08:28:05Z</time>
      </trkpt>
      <trkpt lat="45.91693" lon="4.7726">
        <ele>170</ele>
        <time>2018-08-24T08:28:06Z</time>
      </trkpt>
      <trkpt lat="45.91691" lon="4.77268">
        <ele>170</ele>
        <time>2018-08-24T08:28:07Z</time>
      </trkpt>
      <trkpt lat="45.9169" lon="4.77278">
        <ele>170</ele>
        <time>2018-08-24T08:28:08Z</time>
      </trkpt>
      <trkpt lat="45.91688" lon="4.77286">
        <ele>170</ele>
        <time>2018-08-24T08:28:09Z</time>
      </trkpt>
      <trkpt lat="45.91686" lon="4.77294">
        <ele>170</ele>
        <time>2018-08-24T08:28:10Z</time>
      </trkpt>
      <trkpt lat="45.91683" lon="4.77301">
        <ele>170</ele>
        <time>2018-08-24T08:28:11Z</time>
      </trkpt>
      <trkpt lat="45.91681" lon="4.77309">
        <ele>171</ele>
        <time>2018-08-24T08:28:12Z</time>
      </trkpt>
      <trkpt lat="45.91678" lon="4.77318">
        <ele>171</ele>
        <time>2018-08-24T08:28:13Z</time>
      </trkpt>
      <trkpt lat="45.91676" lon="4.77325">
        <ele>171</ele>
        <time>2018-08-24T08:28:14Z</time>
      </trkpt>
      <trkpt lat="45.91675" lon="4.77332">
        <ele>171</ele>
        <time>2018-08-24T08:28:15Z</time>
      </trkpt>
      <trkpt lat="45.91673" lon="4.77338">
        <ele>172</ele>
        <time>2018-08-24T08:28:16Z</time>
      </trkpt>
      <trkpt lat="45.91669" lon="4.77344">
        <ele>172</ele>
        <time>2018-08-24T08:28:17Z</time>
      </trkpt>
      <trkpt lat="45.91666" lon="4.7735">
        <ele>172</ele>
        <time>2018-08-24T08:28:18Z</time>
      </trkpt>
      <trkpt lat="45.91662" lon="4.77362">
        <ele>172</ele>
        <time>2018-08-24T08:28:20Z</time>
      </trkpt>
      <trkpt lat="45.9166" lon="4.77368">
        <ele>172</ele>
        <time>2018-08-24T08:28:21Z</time>
      </trkpt>
      <trkpt lat="45.9166" lon="4.77374">
        <ele>172</ele>
        <time>2018-08-24T08:28:22Z</time>
      </trkpt>
      <trkpt lat="45.91656" lon="4.77381">
        <ele>172</ele>
        <time>2018-08-24T08:28:23Z</time>
      </trkpt>
      <trkpt lat="45.91653" lon="4.77388">
        <ele>172</ele>
        <time>2018-08-24T08:28:24Z</time>
      </trkpt>
      <trkpt lat="45.91652" lon="4.77396">
        <ele>172</ele>
        <time>2018-08-24T08:28:25Z</time>
      </trkpt>
      <trkpt lat="45.91651" lon="4.77405">
        <ele>172</ele>
        <time>2018-08-24T08:28:26Z</time>
      </trkpt>
      <trkpt lat="45.91649" lon="4.77414">
        <ele>172</ele>
        <time>2018-08-24T08:28:27Z</time>
      </trkpt>
      <trkpt lat="45.91647" lon="4.77422">
        <ele>172</ele>
        <time>2018-08-24T08:28:28Z</time>
      </trkpt>
      <trkpt lat="45.91644" lon="4.77429">
        <ele>172</ele>
        <time>2018-08-24T08:28:29Z</time>
      </trkpt>
      <trkpt lat="45.91643" lon="4.77434">
        <ele>172</ele>
        <time>2018-08-24T08:28:30Z</time>
      </trkpt>
      <trkpt lat="45.9164" lon="4.77441">
        <ele>172</ele>
        <time>2018-08-24T08:28:31Z</time>
      </trkpt>
      <trkpt lat="45.91637" lon="4.77449">
        <ele>172</ele>
        <time>2018-08-24T08:28:32Z</time>
      </trkpt>
      <trkpt lat="45.91635" lon="4.77455">
        <ele>171</ele>
        <time>2018-08-24T08:28:33Z</time>
      </trkpt>
      <trkpt lat="45.91634" lon="4.77462">
        <ele>171</ele>
        <time>2018-08-24T08:28:34Z</time>
      </trkpt>
      <trkpt lat="45.91631" lon="4.77467">
        <ele>171</ele>
        <time>2018-08-24T08:28:35Z</time>
      </trkpt>
      <trkpt lat="45.9163" lon="4.77476">
        <ele>171</ele>
        <time>2018-08-24T08:28:37Z</time>
      </trkpt>
      <trkpt lat="45.91629" lon="4.77484">
        <ele>171</ele>
        <time>2018-08-24T08:28:38Z</time>
      </trkpt>
      <trkpt lat="45.91628" lon="4.77496">
        <ele>171</ele>
        <time>2018-08-24T08:28:40Z</time>
      </trkpt>
      <trkpt lat="45.91627" lon="4.77502">
        <ele>171</ele>
        <time>2018-08-24T08:28:41Z</time>
      </trkpt>
      <trkpt lat="45.91626" lon="4.77509">
        <ele>171</ele>
        <time>2018-08-24T08:28:42Z</time>
      </trkpt>
      <trkpt lat="45.91624" lon="4.77514">
        <ele>171</ele>
        <time>2018-08-24T08:28:43Z</time>
      </trkpt>
      <trkpt lat="45.91619" lon="4.77519">
        <ele>171</ele>
        <time>2018-08-24T08:28:44Z</time>
      </trkpt>
      <trkpt lat="45.91615" lon="4.77524">
        <ele>171</ele>
        <time>2018-08-24T08:28:45Z</time>
      </trkpt>
      <trkpt lat="45.91612" lon="4.77531">
        <ele>171</ele>
        <time>2018-08-24T08:28:46Z</time>
      </trkpt>
      <trkpt lat="45.91609" lon="4.77539">
        <ele>171</ele>
        <time>2018-08-24T08:28:47Z</time>
      </trkpt>
      <trkpt lat="45.91606" lon="4.77546">
        <ele>171</ele>
        <time>2018-08-24T08:28:48Z</time>
      </trkpt>
      <trkpt lat="45.91603" lon="4.77552">
        <ele>171</ele>
        <time>2018-08-24T08:28:49Z</time>
      </trkpt>
      <trkpt lat="45.916" lon="4.77558">
        <ele>172</ele>
        <time>2018-08-24T08:28:50Z</time>
      </trkpt>
      <trkpt lat="45.91597" lon="4.77564">
        <ele>172</ele>
        <time>2018-08-24T08:28:51Z</time>
      </trkpt>
      <trkpt lat="45.91593" lon="4.7757">
        <ele>172</ele>
        <time>2018-08-24T08:28:52Z</time>
      </trkpt>
      <trkpt lat="45.9159" lon="4.77575">
        <ele>172</ele>
        <time>2018-08-24T08:28:53Z</time>
      </trkpt>
      <trkpt lat="45.91584" lon="4.77582">
        <ele>173</ele>
        <time>2018-08-24T08:28:55Z</time>
      </trkpt>
      <trkpt lat="45.91582" lon="4.77589">
        <ele>173</ele>
        <time>2018-08-24T08:28:56Z</time>
      </trkpt>
      <trkpt lat="45.91579" lon="4.77594">
        <ele>173</ele>
        <time>2018-08-24T08:28:57Z</time>
      </trkpt>
      <trkpt lat="45.91576" lon="4.776">
        <ele>173</ele>
        <time>2018-08-24T08:28:58Z</time>
      </trkpt>
      <trkpt lat="45.91574" lon="4.77606">
        <ele>174</ele>
        <time>2018-08-24T08:28:59Z</time>
      </trkpt>
      <trkpt lat="45.91569" lon="4.7761">
        <ele>174</ele>
        <time>2018-08-24T08:29:00Z</time>
      </trkpt>
      <trkpt lat="45.91565" lon="4.77612">
        <ele>174</ele>
        <time>2018-08-24T08:29:01Z</time>
      </trkpt>
      <trkpt lat="45.91562" lon="4.77618">
        <ele>174</ele>
        <time>2018-08-24T08:29:02Z</time>
      </trkpt>
      <trkpt lat="45.91557" lon="4.77625">
        <ele>174</ele>
        <time>2018-08-24T08:29:04Z</time>
      </trkpt>
      <trkpt lat="45.91554" lon="4.77631">
        <ele>174</ele>
        <time>2018-08-24T08:29:05Z</time>
      </trkpt>
      <trkpt lat="45.91551" lon="4.77636">
        <ele>174</ele>
        <time>2018-08-24T08:29:06Z</time>
      </trkpt>
      <trkpt lat="45.91546" lon="4.7764">
        <ele>174</ele>
        <time>2018-08-24T08:29:07Z</time>
      </trkpt>
      <trkpt lat="45.91545" lon="4.77646">
        <ele>174</ele>
        <time>2018-08-24T08:29:08Z</time>
      </trkpt>
      <trkpt lat="45.91543" lon="4.77651">
        <ele>174</ele>
        <time>2018-08-24T08:29:09Z</time>
      </trkpt>
      <trkpt lat="45.91539" lon="4.77656">
        <ele>174</ele>
        <time>2018-08-24T08:29:10Z</time>
      </trkpt>
      <trkpt lat="45.91535" lon="4.77659">
        <ele>174</ele>
        <time>2018-08-24T08:29:11Z</time>
      </trkpt>
      <trkpt lat="45.91532" lon="4.77664">
        <ele>174</ele>
        <time>2018-08-24T08:29:12Z</time>
      </trkpt>
      <trkpt lat="45.91528" lon="4.77671">
        <ele>175</ele>
        <time>2018-08-24T08:29:13Z</time>
      </trkpt>
      <trkpt lat="45.91522" lon="4.7768">
        <ele>175</ele>
        <time>2018-08-24T08:29:15Z</time>
      </trkpt>
      <trkpt lat="45.9152" lon="4.77685">
        <ele>176</ele>
        <time>2018-08-24T08:29:16Z</time>
      </trkpt>
      <trkpt lat="45.91512" lon="4.7769">
        <ele>176</ele>
        <time>2018-08-24T08:29:18Z</time>
      </trkpt>
      <trkpt lat="45.91508" lon="4.77692">
        <ele>176</ele>
        <time>2018-08-24T08:29:19Z</time>
      </trkpt>
      <trkpt lat="45.91503" lon="4.77692">
        <ele>176</ele>
        <time>2018-08-24T08:29:20Z</time>
      </trkpt>
      <trkpt lat="45.91499" lon="4.77692">
        <ele>177</ele>
        <time>2018-08-24T08:29:21Z</time>
      </trkpt>
      <trkpt lat="45.91493" lon="4.77693">
        <ele>177</ele>
        <time>2018-08-24T08:29:22Z</time>
      </trkpt>
      <trkpt lat="45.91487" lon="4.77694">
        <ele>177</ele>
        <time>2018-08-24T08:29:23Z</time>
      </trkpt>
      <trkpt lat="45.91479" lon="4.77695">
        <ele>177</ele>
        <time>2018-08-24T08:29:25Z</time>
      </trkpt>
      <trkpt lat="45.91473" lon="4.77696">
        <ele>177</ele>
        <time>2018-08-24T08:29:26Z</time>
      </trkpt>
      <trkpt lat="45.91464" lon="4.77698">
        <ele>177</ele>
        <time>2018-08-24T08:29:28Z</time>
      </trkpt>
      <trkpt lat="45.91461" lon="4.77702">
        <ele>177</ele>
        <time>2018-08-24T08:29:29Z</time>
      </trkpt>
      <trkpt lat="45.91455" lon="4.77705">
        <ele>177</ele>
        <time>2018-08-24T08:29:30Z</time>
      </trkpt>
      <trkpt lat="45.91451" lon="4.77707">
        <ele>177</ele>
        <time>2018-08-24T08:29:31Z</time>
      </trkpt>
      <trkpt lat="45.91444" lon="4.77708">
        <ele>177</ele>
        <time>2018-08-24T08:29:32Z</time>
      </trkpt>
      <trkpt lat="45.91438" lon="4.77709">
        <ele>177</ele>
        <time>2018-08-24T08:29:33Z</time>
      </trkpt>
      <trkpt lat="45.91434" lon="4.7771">
        <ele>177</ele>
        <time>2018-08-24T08:29:34Z</time>
      </trkpt>
      <trkpt lat="45.91426" lon="4.77708">
        <ele>177</ele>
        <time>2018-08-24T08:29:35Z</time>
      </trkpt>
      <trkpt lat="45.9142" lon="4.7771">
        <ele>177</ele>
        <time>2018-08-24T08:29:36Z</time>
      </trkpt>
      <trkpt lat="45.91415" lon="4.77713">
        <ele>177</ele>
        <time>2018-08-24T08:29:37Z</time>
      </trkpt>
      <trkpt lat="45.91409" lon="4.77712">
        <ele>177</ele>
        <time>2018-08-24T08:29:38Z</time>
      </trkpt>
      <trkpt lat="45.91403" lon="4.77713">
        <ele>177</ele>
        <time>2018-08-24T08:29:39Z</time>
      </trkpt>
      <trkpt lat="45.91397" lon="4.77714">
        <ele>177</ele>
        <time>2018-08-24T08:29:40Z</time>
      </trkpt>
      <trkpt lat="45.91391" lon="4.77715">
        <ele>176</ele>
        <time>2018-08-24T08:29:41Z</time>
      </trkpt>
      <trkpt lat="45.91384" lon="4.77717">
        <ele>176</ele>
        <time>2018-08-24T08:29:42Z</time>
      </trkpt>
      <trkpt lat="45.91378" lon="4.77716">
        <ele>176</ele>
        <time>2018-08-24T08:29:43Z</time>
      </trkpt>
      <trkpt lat="45.91372" lon="4.77715">
        <ele>176</ele>
        <time>2018-08-24T08:29:44Z</time>
      </trkpt>
      <trkpt lat="45.91366" lon="4.77714">
        <ele>176</ele>
        <time>2018-08-24T08:29:45Z</time>
      </trkpt>
      <trkpt lat="45.91361" lon="4.77715">
        <ele>176</ele>
        <time>2018-08-24T08:29:46Z</time>
      </trkpt>
      <trkpt lat="45.91356" lon="4.77715">
        <ele>176</ele>
        <time>2018-08-24T08:29:47Z</time>
      </trkpt>
      <trkpt lat="45.9135" lon="4.77715">
        <ele>176</ele>
        <time>2018-08-24T08:29:48Z</time>
      </trkpt>
      <trkpt lat="45.91345" lon="4.77714">
        <ele>176</ele>
        <time>2018-08-24T08:29:49Z</time>
      </trkpt>
      <trkpt lat="45.9134" lon="4.77715">
        <ele>176</ele>
        <time>2018-08-24T08:29:50Z</time>
      </trkpt>
      <trkpt lat="45.91335" lon="4.77713">
        <ele>176</ele>
        <time>2018-08-24T08:29:51Z</time>
      </trkpt>
      <trkpt lat="45.91329" lon="4.77713">
        <ele>176</ele>
        <time>2018-08-24T08:29:52Z</time>
      </trkpt>
      <trkpt lat="45.91323" lon="4.77712">
        <ele>176</ele>
        <time>2018-08-24T08:29:53Z</time>
      </trkpt>
      <trkpt lat="45.91318" lon="4.77711">
        <ele>176</ele>
        <time>2018-08-24T08:29:54Z</time>
      </trkpt>
      <trkpt lat="45.91313" lon="4.7771">
        <ele>176</ele>
        <time>2018-08-24T08:29:55Z</time>
      </trkpt>
      <trkpt lat="45.91308" lon="4.77709">
        <ele>176</ele>
        <time>2018-08-24T08:29:56Z</time>
      </trkpt>
      <trkpt lat="45.91304" lon="4.77705">
        <ele>176</ele>
        <time>2018-08-24T08:29:57Z</time>
      </trkpt>
      <trkpt lat="45.91298" lon="4.77702">
        <ele>176</ele>
        <time>2018-08-24T08:29:58Z</time>
      </trkpt>
      <trkpt lat="45.91293" lon="4.77699">
        <ele>176</ele>
        <time>2018-08-24T08:29:59Z</time>
      </trkpt>
      <trkpt lat="45.91288" lon="4.77697">
        <ele>176</ele>
        <time>2018-08-24T08:30:00Z</time>
      </trkpt>
      <trkpt lat="45.91282" lon="4.77694">
        <ele>176</ele>
        <time>2018-08-24T08:30:01Z</time>
      </trkpt>
      <trkpt lat="45.91277" lon="4.77692">
        <ele>176</ele>
        <time>2018-08-24T08:30:02Z</time>
      </trkpt>
      <trkpt lat="45.91273" lon="4.77689">
        <ele>176</ele>
        <time>2018-08-24T08:30:03Z</time>
      </trkpt>
      <trkpt lat="45.91268" lon="4.77684">
        <ele>176</ele>
        <time>2018-08-24T08:30:04Z</time>
      </trkpt>
      <trkpt lat="45.91264" lon="4.77681">
        <ele>176</ele>
        <time>2018-08-24T08:30:05Z</time>
      </trkpt>
      <trkpt lat="45.91258" lon="4.7768">
        <ele>175</ele>
        <time>2018-08-24T08:30:06Z</time>
      </trkpt>
      <trkpt lat="45.91252" lon="4.77678">
        <ele>175</ele>
        <time>2018-08-24T08:30:07Z</time>
      </trkpt>
      <trkpt lat="45.91247" lon="4.77678">
        <ele>176</ele>
        <time>2018-08-24T08:30:08Z</time>
      </trkpt>
      <trkpt lat="45.91242" lon="4.7768">
        <ele>176</ele>
        <time>2018-08-24T08:30:09Z</time>
      </trkpt>
      <trkpt lat="45.91236" lon="4.77682">
        <ele>176</ele>
        <time>2018-08-24T08:30:10Z</time>
      </trkpt>
      <trkpt lat="45.9123" lon="4.77683">
        <ele>176</ele>
        <time>2018-08-24T08:30:11Z</time>
      </trkpt>
      <trkpt lat="45.91225" lon="4.77684">
        <ele>176</ele>
        <time>2018-08-24T08:30:12Z</time>
      </trkpt>
      <trkpt lat="45.9122" lon="4.77686">
        <ele>176</ele>
        <time>2018-08-24T08:30:13Z</time>
      </trkpt>
      <trkpt lat="45.91214" lon="4.77688">
        <ele>176</ele>
        <time>2018-08-24T08:30:14Z</time>
      </trkpt>
      <trkpt lat="45.91209" lon="4.77689">
        <ele>176</ele>
        <time>2018-08-24T08:30:15Z</time>
      </trkpt>
      <trkpt lat="45.91202" lon="4.7769">
        <ele>176</ele>
        <time>2018-08-24T08:30:17Z</time>
      </trkpt>
      <trkpt lat="45.91198" lon="4.77693">
        <ele>176</ele>
        <time>2018-08-24T08:30:18Z</time>
      </trkpt>
      <trkpt lat="45.91189" lon="4.77697">
        <ele>176</ele>
        <time>2018-08-24T08:30:20Z</time>
      </trkpt>
      <trkpt lat="45.91184" lon="4.77698">
        <ele>176</ele>
        <time>2018-08-24T08:30:21Z</time>
      </trkpt>
      <trkpt lat="45.91179" lon="4.777">
        <ele>176</ele>
        <time>2018-08-24T08:30:22Z</time>
      </trkpt>
      <trkpt lat="45.91173" lon="4.77701">
        <ele>176</ele>
        <time>2018-08-24T08:30:23Z</time>
      </trkpt>
      <trkpt lat="45.91168" lon="4.77702">
        <ele>176</ele>
        <time>2018-08-24T08:30:24Z</time>
      </trkpt>
      <trkpt lat="45.91164" lon="4.77704">
        <ele>177</ele>
        <time>2018-08-24T08:30:25Z</time>
      </trkpt>
      <trkpt lat="45.91157" lon="4.77704">
        <ele>177</ele>
        <time>2018-08-24T08:30:27Z</time>
      </trkpt>
      <trkpt lat="45.91151" lon="4.77706">
        <ele>177</ele>
        <time>2018-08-24T08:30:28Z</time>
      </trkpt>
      <trkpt lat="45.91144" lon="4.77709">
        <ele>177</ele>
        <time>2018-08-24T08:30:30Z</time>
      </trkpt>
      <trkpt lat="45.9114" lon="4.77712">
        <ele>177</ele>
        <time>2018-08-24T08:30:31Z</time>
      </trkpt>
      <trkpt lat="45.91131" lon="4.77714">
        <ele>177</ele>
        <time>2018-08-24T08:30:33Z</time>
      </trkpt>
      <trkpt lat="45.91127" lon="4.77716">
        <ele>177</ele>
        <time>2018-08-24T08:30:34Z</time>
      </trkpt>
      <trkpt lat="45.91122" lon="4.77719">
        <ele>177</ele>
        <time>2018-08-24T08:30:35Z</time>
      </trkpt>
      <trkpt lat="45.91118" lon="4.77723">
        <ele>178</ele>
        <time>2018-08-24T08:30:36Z</time>
      </trkpt>
      <trkpt lat="45.91114" lon="4.77726">
        <ele>178</ele>
        <time>2018-08-24T08:30:37Z</time>
      </trkpt>
      <trkpt lat="45.91108" lon="4.7773">
        <ele>178</ele>
        <time>2018-08-24T08:30:38Z</time>
      </trkpt>
      <trkpt lat="45.91102" lon="4.77733">
        <ele>178</ele>
        <time>2018-08-24T08:30:39Z</time>
      </trkpt>
      <trkpt lat="45.91097" lon="4.77736">
        <ele>178</ele>
        <time>2018-08-24T08:30:40Z</time>
      </trkpt>
      <trkpt lat="45.91093" lon="4.7774">
        <ele>178</ele>
        <time>2018-08-24T08:30:41Z</time>
      </trkpt>
      <trkpt lat="45.91088" lon="4.77742">
        <ele>178</ele>
        <time>2018-08-24T08:30:42Z</time>
      </trkpt>
      <trkpt lat="45.91081" lon="4.77745">
        <ele>179</ele>
        <time>2018-08-24T08:30:44Z</time>
      </trkpt>
      <trkpt lat="45.91076" lon="4.77747">
        <ele>179</ele>
        <time>2018-08-24T08:30:45Z</time>
      </trkpt>
      <trkpt lat="45.91073" lon="4.77753">
        <ele>179</ele>
        <time>2018-08-24T08:30:46Z</time>
      </trkpt>
      <trkpt lat="45.91068" lon="4.77755">
        <ele>179</ele>
        <time>2018-08-24T08:30:47Z</time>
      </trkpt>
      <trkpt lat="45.91063" lon="4.77759">
        <ele>178</ele>
        <time>2018-08-24T08:30:48Z</time>
      </trkpt>
      <trkpt lat="45.91058" lon="4.77761">
        <ele>178</ele>
        <time>2018-08-24T08:30:49Z</time>
      </trkpt>
      <trkpt lat="45.91053" lon="4.77764">
        <ele>178</ele>
        <time>2018-08-24T08:30:50Z</time>
      </trkpt>
      <trkpt lat="45.91047" lon="4.7777">
        <ele>178</ele>
        <time>2018-08-24T08:30:51Z</time>
      </trkpt>
      <trkpt lat="45.9104" lon="4.77771">
        <ele>178</ele>
        <time>2018-08-24T08:30:52Z</time>
      </trkpt>
      <trkpt lat="45.91037" lon="4.77775">
        <ele>178</ele>
        <time>2018-08-24T08:30:53Z</time>
      </trkpt>
      <trkpt lat="45.91032" lon="4.77777">
        <ele>178</ele>
        <time>2018-08-24T08:30:54Z</time>
      </trkpt>
      <trkpt lat="45.91027" lon="4.77781">
        <ele>178</ele>
        <time>2018-08-24T08:30:55Z</time>
      </trkpt>
      <trkpt lat="45.91021" lon="4.77783">
        <ele>178</ele>
        <time>2018-08-24T08:30:56Z</time>
      </trkpt>
      <trkpt lat="45.91016" lon="4.77785">
        <ele>178</ele>
        <time>2018-08-24T08:30:57Z</time>
      </trkpt>
      <trkpt lat="45.91011" lon="4.77788">
        <ele>178</ele>
        <time>2018-08-24T08:30:58Z</time>
      </trkpt>
      <trkpt lat="45.91006" lon="4.77787">
        <ele>178</ele>
        <time>2018-08-24T08:30:59Z</time>
      </trkpt>
      <trkpt lat="45.91" lon="4.77788">
        <ele>178</ele>
        <time>2018-08-24T08:31:00Z</time>
      </trkpt>
      <trkpt lat="45.90995" lon="4.77788">
        <ele>177</ele>
        <time>2018-08-24T08:31:01Z</time>
      </trkpt>
      <trkpt lat="45.9099" lon="4.77788">
        <ele>177</ele>
        <time>2018-08-24T08:31:02Z</time>
      </trkpt>
      <trkpt lat="45.90985" lon="4.77789">
        <ele>177</ele>
        <time>2018-08-24T08:31:03Z</time>
      </trkpt>
      <trkpt lat="45.90979" lon="4.77792">
        <ele>177</ele>
        <time>2018-08-24T08:31:04Z</time>
      </trkpt>
      <trkpt lat="45.90974" lon="4.77793">
        <ele>177</ele>
        <time>2018-08-24T08:31:05Z</time>
      </trkpt>
      <trkpt lat="45.90968" lon="4.77792">
        <ele>177</ele>
        <time>2018-08-24T08:31:06Z</time>
      </trkpt>
      <trkpt lat="45.90964" lon="4.77789">
        <ele>177</ele>
        <time>2018-08-24T08:31:07Z</time>
      </trkpt>
      <trkpt lat="45.90957" lon="4.77781">
        <ele>177</ele>
        <time>2018-08-24T08:31:09Z</time>
      </trkpt>
      <trkpt lat="45.90954" lon="4.77778">
        <ele>177</ele>
        <time>2018-08-24T08:31:10Z</time>
      </trkpt>
      <trkpt lat="45.90949" lon="4.77773">
        <ele>177</ele>
        <time>2018-08-24T08:31:11Z</time>
      </trkpt>
      <trkpt lat="45.90945" lon="4.77771">
        <ele>177</ele>
        <time>2018-08-24T08:31:12Z</time>
      </trkpt>
      <trkpt lat="45.90941" lon="4.77769">
        <ele>177</ele>
        <time>2018-08-24T08:31:13Z</time>
      </trkpt>
      <trkpt lat="45.90935" lon="4.77769">
        <ele>177</ele>
        <time>2018-08-24T08:31:14Z</time>
      </trkpt>
      <trkpt lat="45.90926" lon="4.77765">
        <ele>177</ele>
        <time>2018-08-24T08:31:16Z</time>
      </trkpt>
      <trkpt lat="45.90924" lon="4.7776">
        <ele>176</ele>
        <time>2018-08-24T08:31:17Z</time>
      </trkpt>
      <trkpt lat="45.90918" lon="4.77751">
        <ele>176</ele>
        <time>2018-08-24T08:31:19Z</time>
      </trkpt>
      <trkpt lat="45.90913" lon="4.77747">
        <ele>176</ele>
        <time>2018-08-24T08:31:20Z</time>
      </trkpt>
      <trkpt lat="45.90907" lon="4.77738">
        <ele>177</ele>
        <time>2018-08-24T08:31:22Z</time>
      </trkpt>
      <trkpt lat="45.90904" lon="4.77733">
        <ele>177</ele>
        <time>2018-08-24T08:31:23Z</time>
      </trkpt>
      <trkpt lat="45.909" lon="4.77726">
        <ele>177</ele>
        <time>2018-08-24T08:31:24Z</time>
      </trkpt>
      <trkpt lat="45.90898" lon="4.77721">
        <ele>177</ele>
        <time>2018-08-24T08:31:25Z</time>
      </trkpt>
      <trkpt lat="45.90895" lon="4.77717">
        <ele>177</ele>
        <time>2018-08-24T08:31:26Z</time>
      </trkpt>
      <trkpt lat="45.90888" lon="4.77716">
        <ele>177</ele>
        <time>2018-08-24T08:31:27Z</time>
      </trkpt>
      <trkpt lat="45.90883" lon="4.7771">
        <ele>177</ele>
        <time>2018-08-24T08:31:29Z</time>
      </trkpt>
      <trkpt lat="45.9088" lon="4.77707">
        <ele>177</ele>
        <time>2018-08-24T08:31:30Z</time>
      </trkpt>
      <trkpt lat="45.90872" lon="4.77701">
        <ele>178</ele>
        <time>2018-08-24T08:31:33Z</time>
      </trkpt>
      <trkpt lat="45.9087" lon="4.77699">
        <ele>178</ele>
        <time>2018-08-24T08:31:34Z</time>
      </trkpt>
      <trkpt lat="45.90863" lon="4.77693">
        <ele>178</ele>
        <time>2018-08-24T08:31:37Z</time>
      </trkpt>
      <trkpt lat="45.90855" lon="4.77686">
        <ele>178</ele>
        <time>2018-08-24T08:31:38Z</time>
      </trkpt>
      <trkpt lat="45.90849" lon="4.77682">
        <ele>178</ele>
        <time>2018-08-24T08:31:40Z</time>
      </trkpt>
      <trkpt lat="45.90845" lon="4.77681">
        <ele>178</ele>
        <time>2018-08-24T08:31:41Z</time>
      </trkpt>
      <trkpt lat="45.90837" lon="4.77678">
        <ele>178</ele>
        <time>2018-08-24T08:31:43Z</time>
      </trkpt>
      <trkpt lat="45.90834" lon="4.77675">
        <ele>179</ele>
        <time>2018-08-24T08:31:44Z</time>
      </trkpt>
      <trkpt lat="45.90827" lon="4.77672">
        <ele>179</ele>
        <time>2018-08-24T08:31:46Z</time>
      </trkpt>
      <trkpt lat="45.90823" lon="4.77671">
        <ele>179</ele>
        <time>2018-08-24T08:31:47Z</time>
      </trkpt>
      <trkpt lat="45.90815" lon="4.77668">
        <ele>179</ele>
        <time>2018-08-24T08:31:49Z</time>
      </trkpt>
      <trkpt lat="45.90811" lon="4.77667">
        <ele>179</ele>
        <time>2018-08-24T08:31:50Z</time>
      </trkpt>
      <trkpt lat="45.90803" lon="4.77665">
        <ele>179</ele>
        <time>2018-08-24T08:31:52Z</time>
      </trkpt>
      <trkpt lat="45.90799" lon="4.77663">
        <ele>179</ele>
        <time>2018-08-24T08:31:53Z</time>
      </trkpt>
      <trkpt lat="45.90794" lon="4.77662">
        <ele>179</ele>
        <time>2018-08-24T08:31:54Z</time>
      </trkpt>
      <trkpt lat="45.90788" lon="4.7766">
        <ele>179</ele>
        <time>2018-08-24T08:31:55Z</time>
      </trkpt>
      <trkpt lat="45.90784" lon="4.77659">
        <ele>179</ele>
        <time>2018-08-24T08:31:56Z</time>
      </trkpt>
      <trkpt lat="45.90779" lon="4.77658">
        <ele>180</ele>
        <time>2018-08-24T08:31:57Z</time>
      </trkpt>
      <trkpt lat="45.90774" lon="4.77656">
        <ele>180</ele>
        <time>2018-08-24T08:31:58Z</time>
      </trkpt>
      <trkpt lat="45.9077" lon="4.77655">
        <ele>180</ele>
        <time>2018-08-24T08:31:59Z</time>
      </trkpt>
      <trkpt lat="45.90762" lon="4.7765">
        <ele>180</ele>
        <time>2018-08-24T08:32:01Z</time>
      </trkpt>
      <trkpt lat="45.9076" lon="4.77646">
        <ele>180</ele>
        <time>2018-08-24T08:32:02Z</time>
      </trkpt>
      <trkpt lat="45.90755" lon="4.77643">
        <ele>180</ele>
        <time>2018-08-24T08:32:03Z</time>
      </trkpt>
      <trkpt lat="45.90751" lon="4.7764">
        <ele>180</ele>
        <time>2018-08-24T08:32:04Z</time>
      </trkpt>
      <trkpt lat="45.90745" lon="4.77641">
        <ele>180</ele>
        <time>2018-08-24T08:32:05Z</time>
      </trkpt>
      <trkpt lat="45.90741" lon="4.7764">
        <ele>180</ele>
        <time>2018-08-24T08:32:06Z</time>
      </trkpt>
      <trkpt lat="45.90732" lon="4.77642">
        <ele>180</ele>
        <time>2018-08-24T08:32:08Z</time>
      </trkpt>
      <trkpt lat="45.90727" lon="4.77641">
        <ele>180</ele>
        <time>2018-08-24T08:32:09Z</time>
      </trkpt>
      <trkpt lat="45.90722" lon="4.77639">
        <ele>180</ele>
        <time>2018-08-24T08:32:10Z</time>
      </trkpt>
      <trkpt lat="45.90717" lon="4.77637">
        <ele>179</ele>
        <time>2018-08-24T08:32:11Z</time>
      </trkpt>
      <trkpt lat="45.90712" lon="4.77637">
        <ele>179</ele>
        <time>2018-08-24T08:32:12Z</time>
      </trkpt>
      <trkpt lat="45.90705" lon="4.77637">
        <ele>179</ele>
        <time>2018-08-24T08:32:13Z</time>
      </trkpt>
      <trkpt lat="45.90697" lon="4.77636">
        <ele>179</ele>
        <time>2018-08-24T08:32:14Z</time>
      </trkpt>
      <trkpt lat="45.90692" lon="4.77634">
        <ele>179</ele>
        <time>2018-08-24T08:32:15Z</time>
      </trkpt>
      <trkpt lat="45.90685" lon="4.77632">
        <ele>179</ele>
        <time>2018-08-24T08:32:16Z</time>
      </trkpt>
      <trkpt lat="45.90679" lon="4.77631">
        <ele>179</ele>
        <time>2018-08-24T08:32:17Z</time>
      </trkpt>
      <trkpt lat="45.90673" lon="4.7763">
        <ele>179</ele>
        <time>2018-08-24T08:32:18Z</time>
      </trkpt>
      <trkpt lat="45.90668" lon="4.77628">
        <ele>179</ele>
        <time>2018-08-24T08:32:19Z</time>
      </trkpt>
      <trkpt lat="45.90662" lon="4.77627">
        <ele>179</ele>
        <time>2018-08-24T08:32:20Z</time>
      </trkpt>
      <trkpt lat="45.90656" lon="4.77626">
        <ele>179</ele>
        <time>2018-08-24T08:32:21Z</time>
      </trkpt>
      <trkpt lat="45.90649" lon="4.77626">
        <ele>179</ele>
        <time>2018-08-24T08:32:22Z</time>
      </trkpt>
      <trkpt lat="45.90643" lon="4.77626">
        <ele>179</ele>
        <time>2018-08-24T08:32:23Z</time>
      </trkpt>
      <trkpt lat="45.90637" lon="4.77629">
        <ele>179</ele>
        <time>2018-08-24T08:32:24Z</time>
      </trkpt>
      <trkpt lat="45.90631" lon="4.77631">
        <ele>179</ele>
        <time>2018-08-24T08:32:25Z</time>
      </trkpt>
      <trkpt lat="45.90624" lon="4.7763">
        <ele>179</ele>
        <time>2018-08-24T08:32:26Z</time>
      </trkpt>
      <trkpt lat="45.90617" lon="4.7763">
        <ele>179</ele>
        <time>2018-08-24T08:32:27Z</time>
      </trkpt>
      <trkpt lat="45.90609" lon="4.7763">
        <ele>179</ele>
        <time>2018-08-24T08:32:28Z</time>
      </trkpt>
      <trkpt lat="45.90603" lon="4.7763">
        <ele>179</ele>
        <time>2018-08-24T08:32:29Z</time>
      </trkpt>
      <trkpt lat="45.90596" lon="4.77631">
        <ele>179</ele>
        <time>2018-08-24T08:32:30Z</time>
      </trkpt>
      <trkpt lat="45.90588" lon="4.77632">
        <ele>179</ele>
        <time>2018-08-24T08:32:31Z</time>
      </trkpt>
      <trkpt lat="45.90581" lon="4.77632">
        <ele>178</ele>
        <time>2018-08-24T08:32:32Z</time>
      </trkpt>
      <trkpt lat="45.90575" lon="4.77634">
        <ele>178</ele>
        <time>2018-08-24T08:32:33Z</time>
      </trkpt>
      <trkpt lat="45.90567" lon="4.77634">
        <ele>178</ele>
        <time>2018-08-24T08:32:34Z</time>
      </trkpt>
      <trkpt lat="45.90561" lon="4.77636">
        <ele>178</ele>
        <time>2018-08-24T08:32:35Z</time>
      </trkpt>
      <trkpt lat="45.90554" lon="4.77638">
        <ele>178</ele>
        <time>2018-08-24T08:32:36Z</time>
      </trkpt>
      <trkpt lat="45.90548" lon="4.77638">
        <ele>178</ele>
        <time>2018-08-24T08:32:37Z</time>
      </trkpt>
      <trkpt lat="45.90542" lon="4.77639">
        <ele>178</ele>
        <time>2018-08-24T08:32:38Z</time>
      </trkpt>
      <trkpt lat="45.90535" lon="4.7764">
        <ele>178</ele>
        <time>2018-08-24T08:32:39Z</time>
      </trkpt>
      <trkpt lat="45.90528" lon="4.77641">
        <ele>178</ele>
        <time>2018-08-24T08:32:40Z</time>
      </trkpt>
      <trkpt lat="45.90519" lon="4.7764">
        <ele>178</ele>
        <time>2018-08-24T08:32:41Z</time>
      </trkpt>
      <trkpt lat="45.90513" lon="4.7764">
        <ele>178</ele>
        <time>2018-08-24T08:32:42Z</time>
      </trkpt>
      <trkpt lat="45.90507" lon="4.7764">
        <ele>178</ele>
        <time>2018-08-24T08:32:43Z</time>
      </trkpt>
      <trkpt lat="45.90501" lon="4.7764">
        <ele>178</ele>
        <time>2018-08-24T08:32:44Z</time>
      </trkpt>
      <trkpt lat="45.90496" lon="4.77641">
        <ele>179</ele>
        <time>2018-08-24T08:32:45Z</time>
      </trkpt>
      <trkpt lat="45.9049" lon="4.77642">
        <ele>179</ele>
        <time>2018-08-24T08:32:46Z</time>
      </trkpt>
      <trkpt lat="45.90484" lon="4.77643">
        <ele>179</ele>
        <time>2018-08-24T08:32:47Z</time>
      </trkpt>
      <trkpt lat="45.90478" lon="4.77644">
        <ele>179</ele>
        <time>2018-08-24T08:32:48Z</time>
      </trkpt>
      <trkpt lat="45.90472" lon="4.77644">
        <ele>179</ele>
        <time>2018-08-24T08:32:49Z</time>
      </trkpt>
      <trkpt lat="45.90465" lon="4.77644">
        <ele>179</ele>
        <time>2018-08-24T08:32:50Z</time>
      </trkpt>
      <trkpt lat="45.90459" lon="4.77645">
        <ele>179</ele>
        <time>2018-08-24T08:32:51Z</time>
      </trkpt>
      <trkpt lat="45.90453" lon="4.77646">
        <ele>179</ele>
        <time>2018-08-24T08:32:52Z</time>
      </trkpt>
      <trkpt lat="45.90449" lon="4.77647">
        <ele>179</ele>
        <time>2018-08-24T08:32:53Z</time>
      </trkpt>
      <trkpt lat="45.90443" lon="4.77648">
        <ele>179</ele>
        <time>2018-08-24T08:32:54Z</time>
      </trkpt>
      <trkpt lat="45.9044" lon="4.7765">
        <ele>180</ele>
        <time>2018-08-24T08:32:55Z</time>
      </trkpt>
      <trkpt lat="45.90433" lon="4.7765">
        <ele>180</ele>
        <time>2018-08-24T08:32:56Z</time>
      </trkpt>
      <trkpt lat="45.90427" lon="4.77652">
        <ele>180</ele>
        <time>2018-08-24T08:32:57Z</time>
      </trkpt>
      <trkpt lat="45.90421" lon="4.77653">
        <ele>180</ele>
        <time>2018-08-24T08:32:58Z</time>
      </trkpt>
      <trkpt lat="45.90416" lon="4.77653">
        <ele>181</ele>
        <time>2018-08-24T08:32:59Z</time>
      </trkpt>
      <trkpt lat="45.9041" lon="4.77654">
        <ele>181</ele>
        <time>2018-08-24T08:33:00Z</time>
      </trkpt>
      <trkpt lat="45.90405" lon="4.77657">
        <ele>181</ele>
        <time>2018-08-24T08:33:01Z</time>
      </trkpt>
      <trkpt lat="45.904" lon="4.77658">
        <ele>181</ele>
        <time>2018-08-24T08:33:02Z</time>
      </trkpt>
      <trkpt lat="45.90395" lon="4.77659">
        <ele>181</ele>
        <time>2018-08-24T08:33:03Z</time>
      </trkpt>
      <trkpt lat="45.90389" lon="4.77659">
        <ele>181</ele>
        <time>2018-08-24T08:33:04Z</time>
      </trkpt>
      <trkpt lat="45.90384" lon="4.77659">
        <ele>181</ele>
        <time>2018-08-24T08:33:05Z</time>
      </trkpt>
      <trkpt lat="45.90375" lon="4.7766">
        <ele>181</ele>
        <time>2018-08-24T08:33:07Z</time>
      </trkpt>
      <trkpt lat="45.9037" lon="4.77661">
        <ele>181</ele>
        <time>2018-08-24T08:33:08Z</time>
      </trkpt>
      <trkpt lat="45.90365" lon="4.77661">
        <ele>181</ele>
        <time>2018-08-24T08:33:09Z</time>
      </trkpt>
      <trkpt lat="45.9036" lon="4.77662">
        <ele>181</ele>
        <time>2018-08-24T08:33:10Z</time>
      </trkpt>
      <trkpt lat="45.90356" lon="4.77663">
        <ele>181</ele>
        <time>2018-08-24T08:33:11Z</time>
      </trkpt>
      <trkpt lat="45.9035" lon="4.77664">
        <ele>181</ele>
        <time>2018-08-24T08:33:12Z</time>
      </trkpt>
      <trkpt lat="45.90345" lon="4.77665">
        <ele>181</ele>
        <time>2018-08-24T08:33:13Z</time>
      </trkpt>
      <trkpt lat="45.90341" lon="4.77665">
        <ele>182</ele>
        <time>2018-08-24T08:33:14Z</time>
      </trkpt>
      <trkpt lat="45.90335" lon="4.77666">
        <ele>182</ele>
        <time>2018-08-24T08:33:15Z</time>
      </trkpt>
      <trkpt lat="45.9033" lon="4.77667">
        <ele>182</ele>
        <time>2018-08-24T08:33:16Z</time>
      </trkpt>
      <trkpt lat="45.90323" lon="4.77669">
        <ele>182</ele>
        <time>2018-08-24T08:33:17Z</time>
      </trkpt>
      <trkpt lat="45.90318" lon="4.7767">
        <ele>182</ele>
        <time>2018-08-24T08:33:18Z</time>
      </trkpt>
      <trkpt lat="45.90312" lon="4.77671">
        <ele>182</ele>
        <time>2018-08-24T08:33:19Z</time>
      </trkpt>
      <trkpt lat="45.90307" lon="4.77671">
        <ele>182</ele>
        <time>2018-08-24T08:33:20Z</time>
      </trkpt>
      <trkpt lat="45.90299" lon="4.77672">
        <ele>182</ele>
        <time>2018-08-24T08:33:22Z</time>
      </trkpt>
      <trkpt lat="45.90295" lon="4.77672">
        <ele>182</ele>
        <time>2018-08-24T08:33:23Z</time>
      </trkpt>
      <trkpt lat="45.9029" lon="4.77671">
        <ele>182</ele>
        <time>2018-08-24T08:33:24Z</time>
      </trkpt>
      <trkpt lat="45.90285" lon="4.77671">
        <ele>182</ele>
        <time>2018-08-24T08:33:25Z</time>
      </trkpt>
      <trkpt lat="45.9028" lon="4.77672">
        <ele>182</ele>
        <time>2018-08-24T08:33:26Z</time>
      </trkpt>
      <trkpt lat="45.90274" lon="4.7767">
        <ele>182</ele>
        <time>2018-08-24T08:33:27Z</time>
      </trkpt>
      <trkpt lat="45.90266" lon="4.77671">
        <ele>182</ele>
        <time>2018-08-24T08:33:28Z</time>
      </trkpt>
      <trkpt lat="45.90261" lon="4.77672">
        <ele>182</ele>
        <time>2018-08-24T08:33:29Z</time>
      </trkpt>
      <trkpt lat="45.90255" lon="4.77671">
        <ele>182</ele>
        <time>2018-08-24T08:33:30Z</time>
      </trkpt>
      <trkpt lat="45.90248" lon="4.77671">
        <ele>182</ele>
        <time>2018-08-24T08:33:31Z</time>
      </trkpt>
      <trkpt lat="45.90243" lon="4.7767">
        <ele>183</ele>
        <time>2018-08-24T08:33:32Z</time>
      </trkpt>
      <trkpt lat="45.90238" lon="4.7767">
        <ele>183</ele>
        <time>2018-08-24T08:33:33Z</time>
      </trkpt>
      <trkpt lat="45.90234" lon="4.77671">
        <ele>183</ele>
        <time>2018-08-24T08:33:34Z</time>
      </trkpt>
      <trkpt lat="45.90227" lon="4.77671">
        <ele>184</ele>
        <time>2018-08-24T08:33:35Z</time>
      </trkpt>
      <trkpt lat="45.90222" lon="4.77671">
        <ele>184</ele>
        <time>2018-08-24T08:33:36Z</time>
      </trkpt>
      <trkpt lat="45.90217" lon="4.77671">
        <ele>184</ele>
        <time>2018-08-24T08:33:37Z</time>
      </trkpt>
      <trkpt lat="45.90211" lon="4.77672">
        <ele>184</ele>
        <time>2018-08-24T08:33:38Z</time>
      </trkpt>
      <trkpt lat="45.90206" lon="4.77672">
        <ele>184</ele>
        <time>2018-08-24T08:33:39Z</time>
      </trkpt>
      <trkpt lat="45.90201" lon="4.77673">
        <ele>184</ele>
        <time>2018-08-24T08:33:40Z</time>
      </trkpt>
      <trkpt lat="45.90196" lon="4.77672">
        <ele>184</ele>
        <time>2018-08-24T08:33:41Z</time>
      </trkpt>
      <trkpt lat="45.90191" lon="4.77672">
        <ele>185</ele>
        <time>2018-08-24T08:33:42Z</time>
      </trkpt>
      <trkpt lat="45.90186" lon="4.77671">
        <ele>185</ele>
        <time>2018-08-24T08:33:43Z</time>
      </trkpt>
      <trkpt lat="45.90181" lon="4.77671">
        <ele>185</ele>
        <time>2018-08-24T08:33:44Z</time>
      </trkpt>
      <trkpt lat="45.90175" lon="4.77671">
        <ele>185</ele>
        <time>2018-08-24T08:33:45Z</time>
      </trkpt>
      <trkpt lat="45.90167" lon="4.77673">
        <ele>185</ele>
        <time>2018-08-24T08:33:47Z</time>
      </trkpt>
      <trkpt lat="45.90161" lon="4.77673">
        <ele>185</ele>
        <time>2018-08-24T08:33:48Z</time>
      </trkpt>
      <trkpt lat="45.90155" lon="4.77673">
        <ele>185</ele>
        <time>2018-08-24T08:33:49Z</time>
      </trkpt>
      <trkpt lat="45.9015" lon="4.77673">
        <ele>185</ele>
        <time>2018-08-24T08:33:50Z</time>
      </trkpt>
      <trkpt lat="45.90145" lon="4.77672">
        <ele>185</ele>
        <time>2018-08-24T08:33:51Z</time>
      </trkpt>
      <trkpt lat="45.90139" lon="4.77671">
        <ele>185</ele>
        <time>2018-08-24T08:33:52Z</time>
      </trkpt>
      <trkpt lat="45.9013" lon="4.7767">
        <ele>185</ele>
        <time>2018-08-24T08:33:54Z</time>
      </trkpt>
      <trkpt lat="45.90126" lon="4.7767">
        <ele>184</ele>
        <time>2018-08-24T08:33:55Z</time>
      </trkpt>
      <trkpt lat="45.90121" lon="4.7767">
        <ele>184</ele>
        <time>2018-08-24T08:33:56Z</time>
      </trkpt>
      <trkpt lat="45.90116" lon="4.7767">
        <ele>184</ele>
        <time>2018-08-24T08:33:57Z</time>
      </trkpt>
      <trkpt lat="45.90111" lon="4.7767">
        <ele>184</ele>
        <time>2018-08-24T08:33:58Z</time>
      </trkpt>
      <trkpt lat="45.90104" lon="4.77671">
        <ele>184</ele>
        <time>2018-08-24T08:33:59Z</time>
      </trkpt>
      <trkpt lat="45.90097" lon="4.77671">
        <ele>184</ele>
        <time>2018-08-24T08:34:00Z</time>
      </trkpt>
      <trkpt lat="45.90088" lon="4.77669">
        <ele>183</ele>
        <time>2018-08-24T08:34:01Z</time>
      </trkpt>
      <trkpt lat="45.9008" lon="4.77671">
        <ele>183</ele>
        <time>2018-08-24T08:34:03Z</time>
      </trkpt>
      <trkpt lat="45.90074" lon="4.7767">
        <ele>184</ele>
        <time>2018-08-24T08:34:04Z</time>
      </trkpt>
      <trkpt lat="45.90068" lon="4.77669">
        <ele>184</ele>
        <time>2018-08-24T08:34:05Z</time>
      </trkpt>
      <trkpt lat="45.90063" lon="4.7767">
        <ele>184</ele>
        <time>2018-08-24T08:34:06Z</time>
      </trkpt>
      <trkpt lat="45.90054" lon="4.77671">
        <ele>184</ele>
        <time>2018-08-24T08:34:08Z</time>
      </trkpt>
      <trkpt lat="45.90049" lon="4.77671">
        <ele>184</ele>
        <time>2018-08-24T08:34:09Z</time>
      </trkpt>
      <trkpt lat="45.90044" lon="4.7767">
        <ele>185</ele>
        <time>2018-08-24T08:34:10Z</time>
      </trkpt>
      <trkpt lat="45.90038" lon="4.7767">
        <ele>185</ele>
        <time>2018-08-24T08:34:11Z</time>
      </trkpt>
      <trkpt lat="45.90033" lon="4.77671">
        <ele>185</ele>
        <time>2018-08-24T08:34:12Z</time>
      </trkpt>
      <trkpt lat="45.90028" lon="4.77671">
        <ele>185</ele>
        <time>2018-08-24T08:34:13Z</time>
      </trkpt>
      <trkpt lat="45.90022" lon="4.7767">
        <ele>185</ele>
        <time>2018-08-24T08:34:14Z</time>
      </trkpt>
      <trkpt lat="45.90018" lon="4.77671">
        <ele>185</ele>
        <time>2018-08-24T08:34:15Z</time>
      </trkpt>
      <trkpt lat="45.90011" lon="4.77668">
        <ele>186</ele>
        <time>2018-08-24T08:34:17Z</time>
      </trkpt>
      <trkpt lat="45.90006" lon="4.77668">
        <ele>186</ele>
        <time>2018-08-24T08:34:18Z</time>
      </trkpt>
      <trkpt lat="45.89998" lon="4.77667">
        <ele>186</ele>
        <time>2018-08-24T08:34:20Z</time>
      </trkpt>
      <trkpt lat="45.89994" lon="4.77667">
        <ele>186</ele>
        <time>2018-08-24T08:34:21Z</time>
      </trkpt>
      <trkpt lat="45.89989" lon="4.77667">
        <ele>186</ele>
        <time>2018-08-24T08:34:22Z</time>
      </trkpt>
      <trkpt lat="45.89985" lon="4.77667">
        <ele>187</ele>
        <time>2018-08-24T08:34:23Z</time>
      </trkpt>
      <trkpt lat="45.8998" lon="4.77666">
        <ele>185</ele>
        <time>2018-08-24T08:34:24Z</time>
      </trkpt>
      <trkpt lat="45.89975" lon="4.77664">
        <ele>185</ele>
        <time>2018-08-24T08:34:25Z</time>
      </trkpt>
      <trkpt lat="45.8997" lon="4.77663">
        <ele>185</ele>
        <time>2018-08-24T08:34:26Z</time>
      </trkpt>
      <trkpt lat="45.89965" lon="4.77662">
        <ele>185</ele>
        <time>2018-08-24T08:34:27Z</time>
      </trkpt>
      <trkpt lat="45.89959" lon="4.77664">
        <ele>185</ele>
        <time>2018-08-24T08:34:28Z</time>
      </trkpt>
      <trkpt lat="45.89953" lon="4.77666">
        <ele>185</ele>
        <time>2018-08-24T08:34:29Z</time>
      </trkpt>
      <trkpt lat="45.89944" lon="4.77667">
        <ele>187</ele>
        <time>2018-08-24T08:34:31Z</time>
      </trkpt>
      <trkpt lat="45.89939" lon="4.77667">
        <ele>187</ele>
        <time>2018-08-24T08:34:32Z</time>
      </trkpt>
      <trkpt lat="45.89934" lon="4.77668">
        <ele>187</ele>
        <time>2018-08-24T08:34:33Z</time>
      </trkpt>
      <trkpt lat="45.8993" lon="4.77668">
        <ele>187</ele>
        <time>2018-08-24T08:34:34Z</time>
      </trkpt>
      <trkpt lat="45.89924" lon="4.77668">
        <ele>187</ele>
        <time>2018-08-24T08:34:35Z</time>
      </trkpt>
      <trkpt lat="45.89919" lon="4.77668">
        <ele>187</ele>
        <time>2018-08-24T08:34:36Z</time>
      </trkpt>
      <trkpt lat="45.89912" lon="4.77665">
        <ele>187</ele>
        <time>2018-08-24T08:34:37Z</time>
      </trkpt>
      <trkpt lat="45.89907" lon="4.77669">
        <ele>188</ele>
        <time>2018-08-24T08:34:38Z</time>
      </trkpt>
      <trkpt lat="45.89902" lon="4.77666">
        <ele>186</ele>
        <time>2018-08-24T08:34:39Z</time>
      </trkpt>
      <trkpt lat="45.89896" lon="4.77665">
        <ele>186</ele>
        <time>2018-08-24T08:34:40Z</time>
      </trkpt>
      <trkpt lat="45.89891" lon="4.77665">
        <ele>186</ele>
        <time>2018-08-24T08:34:41Z</time>
      </trkpt>
      <trkpt lat="45.89887" lon="4.77667">
        <ele>189</ele>
        <time>2018-08-24T08:34:42Z</time>
      </trkpt>
      <trkpt lat="45.89882" lon="4.77669">
        <ele>189</ele>
        <time>2018-08-24T08:34:43Z</time>
      </trkpt>
      <trkpt lat="45.89878" lon="4.77668">
        <ele>189</ele>
        <time>2018-08-24T08:34:44Z</time>
      </trkpt>
      <trkpt lat="45.89873" lon="4.77667">
        <ele>189</ele>
        <time>2018-08-24T08:34:45Z</time>
      </trkpt>
      <trkpt lat="45.89869" lon="4.77665">
        <ele>186</ele>
        <time>2018-08-24T08:34:46Z</time>
      </trkpt>
      <trkpt lat="45.8986" lon="4.77666">
        <ele>187</ele>
        <time>2018-08-24T08:34:48Z</time>
      </trkpt>
      <trkpt lat="45.89856" lon="4.77666">
        <ele>187</ele>
        <time>2018-08-24T08:34:49Z</time>
      </trkpt>
      <trkpt lat="45.89848" lon="4.77666">
        <ele>187</ele>
        <time>2018-08-24T08:34:51Z</time>
      </trkpt>
      <trkpt lat="45.89845" lon="4.77665">
        <ele>188</ele>
        <time>2018-08-24T08:34:52Z</time>
      </trkpt>
      <trkpt lat="45.89841" lon="4.77664">
        <ele>188</ele>
        <time>2018-08-24T08:34:53Z</time>
      </trkpt>
      <trkpt lat="45.89836" lon="4.77663">
        <ele>188</ele>
        <time>2018-08-24T08:34:54Z</time>
      </trkpt>
      <trkpt lat="45.89828" lon="4.77666">
        <ele>189</ele>
        <time>2018-08-24T08:34:56Z</time>
      </trkpt>
      <trkpt lat="45.89826" lon="4.77666">
        <ele>189</ele>
        <time>2018-08-24T08:34:57Z</time>
      </trkpt>
      <trkpt lat="45.89824" lon="4.77666">
        <ele>189</ele>
        <time>2018-08-24T08:34:58Z</time>
      </trkpt>
      <trkpt lat="45.89817" lon="4.77664">
        <ele>188</ele>
        <time>2018-08-24T08:34:59Z</time>
      </trkpt>
      <trkpt lat="45.89809" lon="4.77664">
        <ele>188</ele>
        <time>2018-08-24T08:35:01Z</time>
      </trkpt>
      <trkpt lat="45.89804" lon="4.77665">
        <ele>189</ele>
        <time>2018-08-24T08:35:02Z</time>
      </trkpt>
      <trkpt lat="45.89796" lon="4.77666">
        <ele>189</ele>
        <time>2018-08-24T08:35:05Z</time>
      </trkpt>
      <trkpt lat="45.89794" lon="4.77666">
        <ele>189</ele>
        <time>2018-08-24T08:35:06Z</time>
      </trkpt>
      <trkpt lat="45.89786" lon="4.77666">
        <ele>189</ele>
        <time>2018-08-24T08:35:09Z</time>
      </trkpt>
      <trkpt lat="45.89783" lon="4.77666">
        <ele>189</ele>
        <time>2018-08-24T08:35:10Z</time>
      </trkpt>
      <trkpt lat="45.89776" lon="4.77665">
        <ele>189</ele>
        <time>2018-08-24T08:35:12Z</time>
      </trkpt>
      <trkpt lat="45.89773" lon="4.77665">
        <ele>190</ele>
        <time>2018-08-24T08:35:13Z</time>
      </trkpt>
      <trkpt lat="45.89764" lon="4.77662">
        <ele>190</ele>
        <time>2018-08-24T08:35:16Z</time>
      </trkpt>
      <trkpt lat="45.89756" lon="4.77659">
        <ele>191</ele>
        <time>2018-08-24T08:35:17Z</time>
      </trkpt>
      <trkpt lat="45.89752" lon="4.77655">
        <ele>190</ele>
        <time>2018-08-24T08:35:18Z</time>
      </trkpt>
      <trkpt lat="45.89747" lon="4.77654">
        <ele>191</ele>
        <time>2018-08-24T08:35:19Z</time>
      </trkpt>
      <trkpt lat="45.89741" lon="4.77653">
        <ele>191</ele>
        <time>2018-08-24T08:35:20Z</time>
      </trkpt>
      <trkpt lat="45.89735" lon="4.77651">
        <ele>191</ele>
        <time>2018-08-24T08:35:21Z</time>
      </trkpt>
      <trkpt lat="45.8973" lon="4.7765">
        <ele>190</ele>
        <time>2018-08-24T08:35:22Z</time>
      </trkpt>
      <trkpt lat="45.89724" lon="4.7765">
        <ele>190</ele>
        <time>2018-08-24T08:35:23Z</time>
      </trkpt>
      <trkpt lat="45.89719" lon="4.77649">
        <ele>190</ele>
        <time>2018-08-24T08:35:24Z</time>
      </trkpt>
      <trkpt lat="45.89714" lon="4.77649">
        <ele>190</ele>
        <time>2018-08-24T08:35:25Z</time>
      </trkpt>
      <trkpt lat="45.8971" lon="4.77647">
        <ele>190</ele>
        <time>2018-08-24T08:35:26Z</time>
      </trkpt>
      <trkpt lat="45.89704" lon="4.77647">
        <ele>190</ele>
        <time>2018-08-24T08:35:27Z</time>
      </trkpt>
      <trkpt lat="45.89696" lon="4.77644">
        <ele>190</ele>
        <time>2018-08-24T08:35:29Z</time>
      </trkpt>
      <trkpt lat="45.89692" lon="4.77644">
        <ele>190</ele>
        <time>2018-08-24T08:35:30Z</time>
      </trkpt>
      <trkpt lat="45.89684" lon="4.77643">
        <ele>190</ele>
        <time>2018-08-24T08:35:32Z</time>
      </trkpt>
      <trkpt lat="45.89679" lon="4.77643">
        <ele>190</ele>
        <time>2018-08-24T08:35:33Z</time>
      </trkpt>
      <trkpt lat="45.89674" lon="4.77642">
        <ele>190</ele>
        <time>2018-08-24T08:35:34Z</time>
      </trkpt>
      <trkpt lat="45.89669" lon="4.77641">
        <ele>190</ele>
        <time>2018-08-24T08:35:35Z</time>
      </trkpt>
      <trkpt lat="45.89662" lon="4.77639">
        <ele>190</ele>
        <time>2018-08-24T08:35:36Z</time>
      </trkpt>
      <trkpt lat="45.89657" lon="4.77638">
        <ele>190</ele>
        <time>2018-08-24T08:35:37Z</time>
      </trkpt>
      <trkpt lat="45.89652" lon="4.77637">
        <ele>190</ele>
        <time>2018-08-24T08:35:38Z</time>
      </trkpt>
      <trkpt lat="45.89646" lon="4.77637">
        <ele>190</ele>
        <time>2018-08-24T08:35:39Z</time>
      </trkpt>
      <trkpt lat="45.89637" lon="4.77636">
        <ele>190</ele>
        <time>2018-08-24T08:35:41Z</time>
      </trkpt>
      <trkpt lat="45.89633" lon="4.77635">
        <ele>190</ele>
        <time>2018-08-24T08:35:42Z</time>
      </trkpt>
      <trkpt lat="45.89628" lon="4.77635">
        <ele>191</ele>
        <time>2018-08-24T08:35:43Z</time>
      </trkpt>
      <trkpt lat="45.89623" lon="4.77634">
        <ele>191</ele>
        <time>2018-08-24T08:35:44Z</time>
      </trkpt>
      <trkpt lat="45.89618" lon="4.77632">
        <ele>191</ele>
        <time>2018-08-24T08:35:45Z</time>
      </trkpt>
      <trkpt lat="45.89613" lon="4.77632">
        <ele>191</ele>
        <time>2018-08-24T08:35:46Z</time>
      </trkpt>
      <trkpt lat="45.89609" lon="4.7763">
        <ele>191</ele>
        <time>2018-08-24T08:35:47Z</time>
      </trkpt>
      <trkpt lat="45.89603" lon="4.77629">
        <ele>191</ele>
        <time>2018-08-24T08:35:48Z</time>
      </trkpt>
      <trkpt lat="45.89598" lon="4.77628">
        <ele>191</ele>
        <time>2018-08-24T08:35:49Z</time>
      </trkpt>
      <trkpt lat="45.89592" lon="4.77626">
        <ele>191</ele>
        <time>2018-08-24T08:35:50Z</time>
      </trkpt>
      <trkpt lat="45.89586" lon="4.77627">
        <ele>191</ele>
        <time>2018-08-24T08:35:51Z</time>
      </trkpt>
      <trkpt lat="45.89581" lon="4.77626">
        <ele>192</ele>
        <time>2018-08-24T08:35:52Z</time>
      </trkpt>
      <trkpt lat="45.89577" lon="4.77624">
        <ele>192</ele>
        <time>2018-08-24T08:35:53Z</time>
      </trkpt>
      <trkpt lat="45.89572" lon="4.77624">
        <ele>192</ele>
        <time>2018-08-24T08:35:54Z</time>
      </trkpt>
      <trkpt lat="45.89567" lon="4.77623">
        <ele>192</ele>
        <time>2018-08-24T08:35:55Z</time>
      </trkpt>
      <trkpt lat="45.8956" lon="4.77622">
        <ele>192</ele>
        <time>2018-08-24T08:35:56Z</time>
      </trkpt>
      <trkpt lat="45.89551" lon="4.77622">
        <ele>192</ele>
        <time>2018-08-24T08:35:58Z</time>
      </trkpt>
      <trkpt lat="45.89546" lon="4.77622">
        <ele>192</ele>
        <time>2018-08-24T08:35:59Z</time>
      </trkpt>
      <trkpt lat="45.89541" lon="4.77621">
        <ele>192</ele>
        <time>2018-08-24T08:36:00Z</time>
      </trkpt>
      <trkpt lat="45.89535" lon="4.7762">
        <ele>192</ele>
        <time>2018-08-24T08:36:01Z</time>
      </trkpt>
      <trkpt lat="45.8953" lon="4.77619">
        <ele>192</ele>
        <time>2018-08-24T08:36:02Z</time>
      </trkpt>
      <trkpt lat="45.89524" lon="4.77617">
        <ele>192</ele>
        <time>2018-08-24T08:36:03Z</time>
      </trkpt>
      <trkpt lat="45.89519" lon="4.77615">
        <ele>192</ele>
        <time>2018-08-24T08:36:04Z</time>
      </trkpt>
      <trkpt lat="45.89514" lon="4.77615">
        <ele>192</ele>
        <time>2018-08-24T08:36:05Z</time>
      </trkpt>
      <trkpt lat="45.89509" lon="4.77614">
        <ele>192</ele>
        <time>2018-08-24T08:36:06Z</time>
      </trkpt>
      <trkpt lat="45.89503" lon="4.77613">
        <ele>192</ele>
        <time>2018-08-24T08:36:07Z</time>
      </trkpt>
      <trkpt lat="45.89497" lon="4.77611">
        <ele>193</ele>
        <time>2018-08-24T08:36:08Z</time>
      </trkpt>
      <trkpt lat="45.89491" lon="4.7761">
        <ele>193</ele>
        <time>2018-08-24T08:36:09Z</time>
      </trkpt>
      <trkpt lat="45.89487" lon="4.77609">
        <ele>193</ele>
        <time>2018-08-24T08:36:10Z</time>
      </trkpt>
      <trkpt lat="45.89482" lon="4.77607">
        <ele>193</ele>
        <time>2018-08-24T08:36:11Z</time>
      </trkpt>
      <trkpt lat="45.89477" lon="4.77605">
        <ele>193</ele>
        <time>2018-08-24T08:36:12Z</time>
      </trkpt>
      <trkpt lat="45.89471" lon="4.77603">
        <ele>193</ele>
        <time>2018-08-24T08:36:13Z</time>
      </trkpt>
      <trkpt lat="45.89463" lon="4.77598">
        <ele>193</ele>
        <time>2018-08-24T08:36:15Z</time>
      </trkpt>
      <trkpt lat="45.89458" lon="4.77597">
        <ele>193</ele>
        <time>2018-08-24T08:36:16Z</time>
      </trkpt>
      <trkpt lat="45.89452" lon="4.77596">
        <ele>193</ele>
        <time>2018-08-24T08:36:17Z</time>
      </trkpt>
      <trkpt lat="45.89447" lon="4.77594">
        <ele>193</ele>
        <time>2018-08-24T08:36:18Z</time>
      </trkpt>
      <trkpt lat="45.89441" lon="4.7759">
        <ele>193</ele>
        <time>2018-08-24T08:36:19Z</time>
      </trkpt>
      <trkpt lat="45.89437" lon="4.77589">
        <ele>193</ele>
        <time>2018-08-24T08:36:20Z</time>
      </trkpt>
      <trkpt lat="45.89431" lon="4.77586">
        <ele>194</ele>
        <time>2018-08-24T08:36:21Z</time>
      </trkpt>
      <trkpt lat="45.89426" lon="4.77583">
        <ele>194</ele>
        <time>2018-08-24T08:36:22Z</time>
      </trkpt>
      <trkpt lat="45.89419" lon="4.77581">
        <ele>194</ele>
        <time>2018-08-24T08:36:23Z</time>
      </trkpt>
      <trkpt lat="45.89414" lon="4.77578">
        <ele>194</ele>
        <time>2018-08-24T08:36:24Z</time>
      </trkpt>
      <trkpt lat="45.8941" lon="4.77575">
        <ele>194</ele>
        <time>2018-08-24T08:36:25Z</time>
      </trkpt>
      <trkpt lat="45.89403" lon="4.77573">
        <ele>194</ele>
        <time>2018-08-24T08:36:26Z</time>
      </trkpt>
      <trkpt lat="45.89398" lon="4.77571">
        <ele>194</ele>
        <time>2018-08-24T08:36:27Z</time>
      </trkpt>
      <trkpt lat="45.89392" lon="4.77569">
        <ele>194</ele>
        <time>2018-08-24T08:36:28Z</time>
      </trkpt>
      <trkpt lat="45.89386" lon="4.77568">
        <ele>194</ele>
        <time>2018-08-24T08:36:29Z</time>
      </trkpt>
      <trkpt lat="45.8938" lon="4.77565">
        <ele>194</ele>
        <time>2018-08-24T08:36:30Z</time>
      </trkpt>
      <trkpt lat="45.89375" lon="4.77564">
        <ele>194</ele>
        <time>2018-08-24T08:36:31Z</time>
      </trkpt>
      <trkpt lat="45.8937" lon="4.77561">
        <ele>194</ele>
        <time>2018-08-24T08:36:32Z</time>
      </trkpt>
      <trkpt lat="45.89365" lon="4.77559">
        <ele>194</ele>
        <time>2018-08-24T08:36:33Z</time>
      </trkpt>
      <trkpt lat="45.8936" lon="4.77556">
        <ele>194</ele>
        <time>2018-08-24T08:36:34Z</time>
      </trkpt>
      <trkpt lat="45.89354" lon="4.77555">
        <ele>194</ele>
        <time>2018-08-24T08:36:35Z</time>
      </trkpt>
      <trkpt lat="45.89349" lon="4.77553">
        <ele>194</ele>
        <time>2018-08-24T08:36:36Z</time>
      </trkpt>
      <trkpt lat="45.89343" lon="4.77551">
        <ele>194</ele>
        <time>2018-08-24T08:36:37Z</time>
      </trkpt>
      <trkpt lat="45.89337" lon="4.77549">
        <ele>194</ele>
        <time>2018-08-24T08:36:38Z</time>
      </trkpt>
      <trkpt lat="45.89331" lon="4.77546">
        <ele>194</ele>
        <time>2018-08-24T08:36:39Z</time>
      </trkpt>
      <trkpt lat="45.89325" lon="4.77544">
        <ele>194</ele>
        <time>2018-08-24T08:36:40Z</time>
      </trkpt>
      <trkpt lat="45.8932" lon="4.77541">
        <ele>194</ele>
        <time>2018-08-24T08:36:41Z</time>
      </trkpt>
      <trkpt lat="45.89314" lon="4.77538">
        <ele>194</ele>
        <time>2018-08-24T08:36:42Z</time>
      </trkpt>
      <trkpt lat="45.89309" lon="4.77536">
        <ele>194</ele>
        <time>2018-08-24T08:36:43Z</time>
      </trkpt>
      <trkpt lat="45.89304" lon="4.77535">
        <ele>194</ele>
        <time>2018-08-24T08:36:44Z</time>
      </trkpt>
      <trkpt lat="45.89299" lon="4.77534">
        <ele>194</ele>
        <time>2018-08-24T08:36:45Z</time>
      </trkpt>
      <trkpt lat="45.89295" lon="4.77532">
        <ele>194</ele>
        <time>2018-08-24T08:36:46Z</time>
      </trkpt>
      <trkpt lat="45.89289" lon="4.77532">
        <ele>193</ele>
        <time>2018-08-24T08:36:47Z</time>
      </trkpt>
      <trkpt lat="45.89284" lon="4.77529">
        <ele>193</ele>
        <time>2018-08-24T08:36:48Z</time>
      </trkpt>
      <trkpt lat="45.8928" lon="4.77527">
        <ele>193</ele>
        <time>2018-08-24T08:36:49Z</time>
      </trkpt>
      <trkpt lat="45.89275" lon="4.77527">
        <ele>193</ele>
        <time>2018-08-24T08:36:50Z</time>
      </trkpt>
      <trkpt lat="45.89269" lon="4.77526">
        <ele>193</ele>
        <time>2018-08-24T08:36:51Z</time>
      </trkpt>
      <trkpt lat="45.89263" lon="4.77524">
        <ele>193</ele>
        <time>2018-08-24T08:36:52Z</time>
      </trkpt>
      <trkpt lat="45.89257" lon="4.77525">
        <ele>193</ele>
        <time>2018-08-24T08:36:53Z</time>
      </trkpt>
      <trkpt lat="45.89251" lon="4.77525">
        <ele>193</ele>
        <time>2018-08-24T08:36:54Z</time>
      </trkpt>
      <trkpt lat="45.89247" lon="4.77525">
        <ele>193</ele>
        <time>2018-08-24T08:36:55Z</time>
      </trkpt>
      <trkpt lat="45.89242" lon="4.77525">
        <ele>193</ele>
        <time>2018-08-24T08:36:56Z</time>
      </trkpt>
      <trkpt lat="45.89237" lon="4.77527">
        <ele>193</ele>
        <time>2018-08-24T08:36:57Z</time>
      </trkpt>
      <trkpt lat="45.89229" lon="4.77527">
        <ele>194</ele>
        <time>2018-08-24T08:36:58Z</time>
      </trkpt>
      <trkpt lat="45.89224" lon="4.77528">
        <ele>194</ele>
        <time>2018-08-24T08:36:59Z</time>
      </trkpt>
      <trkpt lat="45.89218" lon="4.7753">
        <ele>194</ele>
        <time>2018-08-24T08:37:00Z</time>
      </trkpt>
      <trkpt lat="45.89212" lon="4.7753">
        <ele>194</ele>
        <time>2018-08-24T08:37:01Z</time>
      </trkpt>
      <trkpt lat="45.89206" lon="4.77533">
        <ele>194</ele>
        <time>2018-08-24T08:37:02Z</time>
      </trkpt>
      <trkpt lat="45.892" lon="4.77534">
        <ele>194</ele>
        <time>2018-08-24T08:37:03Z</time>
      </trkpt>
      <trkpt lat="45.89194" lon="4.77535">
        <ele>194</ele>
        <time>2018-08-24T08:37:04Z</time>
      </trkpt>
      <trkpt lat="45.89188" lon="4.77536">
        <ele>194</ele>
        <time>2018-08-24T08:37:05Z</time>
      </trkpt>
      <trkpt lat="45.89184" lon="4.77537">
        <ele>194</ele>
        <time>2018-08-24T08:37:06Z</time>
      </trkpt>
      <trkpt lat="45.89175" lon="4.77539">
        <ele>194</ele>
        <time>2018-08-24T08:37:08Z</time>
      </trkpt>
      <trkpt lat="45.89171" lon="4.77541">
        <ele>194</ele>
        <time>2018-08-24T08:37:09Z</time>
      </trkpt>
      <trkpt lat="45.89166" lon="4.77541">
        <ele>195</ele>
        <time>2018-08-24T08:37:10Z</time>
      </trkpt>
      <trkpt lat="45.89161" lon="4.77542">
        <ele>195</ele>
        <time>2018-08-24T08:37:11Z</time>
      </trkpt>
      <trkpt lat="45.89156" lon="4.77542">
        <ele>195</ele>
        <time>2018-08-24T08:37:12Z</time>
      </trkpt>
      <trkpt lat="45.89152" lon="4.77542">
        <ele>195</ele>
        <time>2018-08-24T08:37:13Z</time>
      </trkpt>
      <trkpt lat="45.89146" lon="4.77543">
        <ele>195</ele>
        <time>2018-08-24T08:37:14Z</time>
      </trkpt>
      <trkpt lat="45.89142" lon="4.77546">
        <ele>195</ele>
        <time>2018-08-24T08:37:15Z</time>
      </trkpt>
      <trkpt lat="45.89137" lon="4.77549">
        <ele>195</ele>
        <time>2018-08-24T08:37:16Z</time>
      </trkpt>
      <trkpt lat="45.89132" lon="4.7755">
        <ele>195</ele>
        <time>2018-08-24T08:37:17Z</time>
      </trkpt>
      <trkpt lat="45.89126" lon="4.77552">
        <ele>195</ele>
        <time>2018-08-24T08:37:18Z</time>
      </trkpt>
      <trkpt lat="45.89121" lon="4.77553">
        <ele>195</ele>
        <time>2018-08-24T08:37:19Z</time>
      </trkpt>
      <trkpt lat="45.89115" lon="4.77556">
        <ele>195</ele>
        <time>2018-08-24T08:37:20Z</time>
      </trkpt>
      <trkpt lat="45.8911" lon="4.77558">
        <ele>195</ele>
        <time>2018-08-24T08:37:21Z</time>
      </trkpt>
      <trkpt lat="45.89105" lon="4.77561">
        <ele>195</ele>
        <time>2018-08-24T08:37:22Z</time>
      </trkpt>
      <trkpt lat="45.89099" lon="4.77566">
        <ele>196</ele>
        <time>2018-08-24T08:37:23Z</time>
      </trkpt>
      <trkpt lat="45.89094" lon="4.77568">
        <ele>196</ele>
        <time>2018-08-24T08:37:24Z</time>
      </trkpt>
      <trkpt lat="45.8909" lon="4.77571">
        <ele>196</ele>
        <time>2018-08-24T08:37:25Z</time>
      </trkpt>
      <trkpt lat="45.89082" lon="4.77577">
        <ele>196</ele>
        <time>2018-08-24T08:37:27Z</time>
      </trkpt>
      <trkpt lat="45.89078" lon="4.77581">
        <ele>196</ele>
        <time>2018-08-24T08:37:28Z</time>
      </trkpt>
      <trkpt lat="45.89073" lon="4.77586">
        <ele>196</ele>
        <time>2018-08-24T08:37:29Z</time>
      </trkpt>
      <trkpt lat="45.89068" lon="4.77591">
        <ele>196</ele>
        <time>2018-08-24T08:37:30Z</time>
      </trkpt>
      <trkpt lat="45.89064" lon="4.77594">
        <ele>196</ele>
        <time>2018-08-24T08:37:31Z</time>
      </trkpt>
      <trkpt lat="45.89058" lon="4.77599">
        <ele>197</ele>
        <time>2018-08-24T08:37:32Z</time>
      </trkpt>
      <trkpt lat="45.89054" lon="4.77603">
        <ele>197</ele>
        <time>2018-08-24T08:37:33Z</time>
      </trkpt>
      <trkpt lat="45.89051" lon="4.77608">
        <ele>197</ele>
        <time>2018-08-24T08:37:34Z</time>
      </trkpt>
      <trkpt lat="45.89048" lon="4.77613">
        <ele>197</ele>
        <time>2018-08-24T08:37:35Z</time>
      </trkpt>
      <trkpt lat="45.89044" lon="4.77619">
        <ele>197</ele>
        <time>2018-08-24T08:37:36Z</time>
      </trkpt>
      <trkpt lat="45.89039" lon="4.77623">
        <ele>197</ele>
        <time>2018-08-24T08:37:37Z</time>
      </trkpt>
      <trkpt lat="45.89033" lon="4.77627">
        <ele>197</ele>
        <time>2018-08-24T08:37:38Z</time>
      </trkpt>
      <trkpt lat="45.8903" lon="4.77632">
        <ele>197</ele>
        <time>2018-08-24T08:37:39Z</time>
      </trkpt>
      <trkpt lat="45.89025" lon="4.77635">
        <ele>197</ele>
        <time>2018-08-24T08:37:40Z</time>
      </trkpt>
      <trkpt lat="45.89021" lon="4.77639">
        <ele>197</ele>
        <time>2018-08-24T08:37:41Z</time>
      </trkpt>
      <trkpt lat="45.89017" lon="4.77643">
        <ele>197</ele>
        <time>2018-08-24T08:37:42Z</time>
      </trkpt>
      <trkpt lat="45.89012" lon="4.77646">
        <ele>197</ele>
        <time>2018-08-24T08:37:43Z</time>
      </trkpt>
      <trkpt lat="45.89007" lon="4.77646">
        <ele>197</ele>
        <time>2018-08-24T08:37:44Z</time>
      </trkpt>
      <trkpt lat="45.89001" lon="4.77653">
        <ele>197</ele>
        <time>2018-08-24T08:37:46Z</time>
      </trkpt>
      <trkpt lat="45.88996" lon="4.77656">
        <ele>197</ele>
        <time>2018-08-24T08:37:47Z</time>
      </trkpt>
      <trkpt lat="45.88991" lon="4.7766">
        <ele>197</ele>
        <time>2018-08-24T08:37:48Z</time>
      </trkpt>
      <trkpt lat="45.88987" lon="4.77664">
        <ele>198</ele>
        <time>2018-08-24T08:37:49Z</time>
      </trkpt>
      <trkpt lat="45.88983" lon="4.77667">
        <ele>198</ele>
        <time>2018-08-24T08:37:50Z</time>
      </trkpt>
      <trkpt lat="45.88977" lon="4.77669">
        <ele>198</ele>
        <time>2018-08-24T08:37:51Z</time>
      </trkpt>
      <trkpt lat="45.88969" lon="4.77674">
        <ele>198</ele>
        <time>2018-08-24T08:37:53Z</time>
      </trkpt>
      <trkpt lat="45.88962" lon="4.77677">
        <ele>198</ele>
        <time>2018-08-24T08:37:54Z</time>
      </trkpt>
      <trkpt lat="45.88957" lon="4.77682">
        <ele>199</ele>
        <time>2018-08-24T08:37:55Z</time>
      </trkpt>
      <trkpt lat="45.88952" lon="4.77685">
        <ele>199</ele>
        <time>2018-08-24T08:37:56Z</time>
      </trkpt>
      <trkpt lat="45.88948" lon="4.77687">
        <ele>199</ele>
        <time>2018-08-24T08:37:57Z</time>
      </trkpt>
      <trkpt lat="45.88943" lon="4.77688">
        <ele>199</ele>
        <time>2018-08-24T08:37:58Z</time>
      </trkpt>
      <trkpt lat="45.88939" lon="4.77694">
        <ele>199</ele>
        <time>2018-08-24T08:37:59Z</time>
      </trkpt>
      <trkpt lat="45.88934" lon="4.77695">
        <ele>199</ele>
        <time>2018-08-24T08:38:00Z</time>
      </trkpt>
      <trkpt lat="45.88929" lon="4.77698">
        <ele>199</ele>
        <time>2018-08-24T08:38:01Z</time>
      </trkpt>
      <trkpt lat="45.88925" lon="4.77699">
        <ele>199</ele>
        <time>2018-08-24T08:38:02Z</time>
      </trkpt>
      <trkpt lat="45.88916" lon="4.77698">
        <ele>200</ele>
        <time>2018-08-24T08:38:04Z</time>
      </trkpt>
      <trkpt lat="45.88912" lon="4.77699">
        <ele>200</ele>
        <time>2018-08-24T08:38:05Z</time>
      </trkpt>
      <trkpt lat="45.88904" lon="4.77699">
        <ele>200</ele>
        <time>2018-08-24T08:38:07Z</time>
      </trkpt>
      <trkpt lat="45.88899" lon="4.777">
        <ele>200</ele>
        <time>2018-08-24T08:38:08Z</time>
      </trkpt>
      <trkpt lat="45.88895" lon="4.77702">
        <ele>200</ele>
        <time>2018-08-24T08:38:09Z</time>
      </trkpt>
      <trkpt lat="45.8889" lon="4.77703">
        <ele>200</ele>
        <time>2018-08-24T08:38:10Z</time>
      </trkpt>
      <trkpt lat="45.88884" lon="4.77704">
        <ele>200</ele>
        <time>2018-08-24T08:38:11Z</time>
      </trkpt>
      <trkpt lat="45.88879" lon="4.77705">
        <ele>200</ele>
        <time>2018-08-24T08:38:12Z</time>
      </trkpt>
      <trkpt lat="45.88874" lon="4.77704">
        <ele>201</ele>
        <time>2018-08-24T08:38:13Z</time>
      </trkpt>
      <trkpt lat="45.88869" lon="4.77704">
        <ele>201</ele>
        <time>2018-08-24T08:38:14Z</time>
      </trkpt>
      <trkpt lat="45.88861" lon="4.77704">
        <ele>201</ele>
        <time>2018-08-24T08:38:16Z</time>
      </trkpt>
      <trkpt lat="45.88858" lon="4.77703">
        <ele>201</ele>
        <time>2018-08-24T08:38:17Z</time>
      </trkpt>
      <trkpt lat="45.88853" lon="4.77704">
        <ele>201</ele>
        <time>2018-08-24T08:38:18Z</time>
      </trkpt>
      <trkpt lat="45.88848" lon="4.77704">
        <ele>201</ele>
        <time>2018-08-24T08:38:19Z</time>
      </trkpt>
      <trkpt lat="45.88844" lon="4.77704">
        <ele>201</ele>
        <time>2018-08-24T08:38:20Z</time>
      </trkpt>
      <trkpt lat="45.88838" lon="4.77703">
        <ele>201</ele>
        <time>2018-08-24T08:38:21Z</time>
      </trkpt>
      <trkpt lat="45.88833" lon="4.77703">
        <ele>201</ele>
        <time>2018-08-24T08:38:22Z</time>
      </trkpt>
      <trkpt lat="45.88828" lon="4.77703">
        <ele>201</ele>
        <time>2018-08-24T08:38:23Z</time>
      </trkpt>
      <trkpt lat="45.88823" lon="4.77703">
        <ele>201</ele>
        <time>2018-08-24T08:38:24Z</time>
      </trkpt>
      <trkpt lat="45.88817" lon="4.77704">
        <ele>202</ele>
        <time>2018-08-24T08:38:25Z</time>
      </trkpt>
      <trkpt lat="45.88812" lon="4.77705">
        <ele>202</ele>
        <time>2018-08-24T08:38:26Z</time>
      </trkpt>
      <trkpt lat="45.88806" lon="4.77705">
        <ele>202</ele>
        <time>2018-08-24T08:38:27Z</time>
      </trkpt>
      <trkpt lat="45.88801" lon="4.77704">
        <ele>202</ele>
        <time>2018-08-24T08:38:28Z</time>
      </trkpt>
      <trkpt lat="45.88797" lon="4.77707">
        <ele>202</ele>
        <time>2018-08-24T08:38:29Z</time>
      </trkpt>
      <trkpt lat="45.88792" lon="4.77708">
        <ele>202</ele>
        <time>2018-08-24T08:38:30Z</time>
      </trkpt>
      <trkpt lat="45.88787" lon="4.77707">
        <ele>202</ele>
        <time>2018-08-24T08:38:31Z</time>
      </trkpt>
      <trkpt lat="45.88782" lon="4.77707">
        <ele>202</ele>
        <time>2018-08-24T08:38:32Z</time>
      </trkpt>
      <trkpt lat="45.88775" lon="4.77712">
        <ele>202</ele>
        <time>2018-08-24T08:38:33Z</time>
      </trkpt>
      <trkpt lat="45.8877" lon="4.77712">
        <ele>202</ele>
        <time>2018-08-24T08:38:34Z</time>
      </trkpt>
      <trkpt lat="45.88764" lon="4.77713">
        <ele>202</ele>
        <time>2018-08-24T08:38:35Z</time>
      </trkpt>
      <trkpt lat="45.88756" lon="4.77712">
        <ele>202</ele>
        <time>2018-08-24T08:38:37Z</time>
      </trkpt>
      <trkpt lat="45.88751" lon="4.77713">
        <ele>202</ele>
        <time>2018-08-24T08:38:38Z</time>
      </trkpt>
      <trkpt lat="45.88744" lon="4.77713">
        <ele>203</ele>
        <time>2018-08-24T08:38:40Z</time>
      </trkpt>
      <trkpt lat="45.88741" lon="4.77711">
        <ele>203</ele>
        <time>2018-08-24T08:38:41Z</time>
      </trkpt>
      <trkpt lat="45.88735" lon="4.77711">
        <ele>203</ele>
        <time>2018-08-24T08:38:42Z</time>
      </trkpt>
      <trkpt lat="45.8873" lon="4.77711">
        <ele>203</ele>
        <time>2018-08-24T08:38:43Z</time>
      </trkpt>
      <trkpt lat="45.88725" lon="4.77711">
        <ele>203</ele>
        <time>2018-08-24T08:38:44Z</time>
      </trkpt>
      <trkpt lat="45.8872" lon="4.7771">
        <ele>203</ele>
        <time>2018-08-24T08:38:45Z</time>
      </trkpt>
      <trkpt lat="45.88715" lon="4.77713">
        <ele>203</ele>
        <time>2018-08-24T08:38:46Z</time>
      </trkpt>
      <trkpt lat="45.8871" lon="4.77714">
        <ele>203</ele>
        <time>2018-08-24T08:38:47Z</time>
      </trkpt>
      <trkpt lat="45.88704" lon="4.77715">
        <ele>203</ele>
        <time>2018-08-24T08:38:48Z</time>
      </trkpt>
      <trkpt lat="45.887" lon="4.77718">
        <ele>203</ele>
        <time>2018-08-24T08:38:49Z</time>
      </trkpt>
      <trkpt lat="45.88694" lon="4.77715">
        <ele>203</ele>
        <time>2018-08-24T08:38:50Z</time>
      </trkpt>
      <trkpt lat="45.88689" lon="4.77715">
        <ele>203</ele>
        <time>2018-08-24T08:38:51Z</time>
      </trkpt>
      <trkpt lat="45.88684" lon="4.77714">
        <ele>203</ele>
        <time>2018-08-24T08:38:52Z</time>
      </trkpt>
      <trkpt lat="45.88678" lon="4.77715">
        <ele>203</ele>
        <time>2018-08-24T08:38:53Z</time>
      </trkpt>
      <trkpt lat="45.88674" lon="4.77715">
        <ele>203</ele>
        <time>2018-08-24T08:38:54Z</time>
      </trkpt>
      <trkpt lat="45.88669" lon="4.77715">
        <ele>203</ele>
        <time>2018-08-24T08:38:55Z</time>
      </trkpt>
      <trkpt lat="45.88664" lon="4.77714">
        <ele>203</ele>
        <time>2018-08-24T08:38:56Z</time>
      </trkpt>
      <trkpt lat="45.88659" lon="4.77714">
        <ele>203</ele>
        <time>2018-08-24T08:38:57Z</time>
      </trkpt>
      <trkpt lat="45.8865" lon="4.77714">
        <ele>203</ele>
        <time>2018-08-24T08:38:59Z</time>
      </trkpt>
      <trkpt lat="45.88646" lon="4.77713">
        <ele>203</ele>
        <time>2018-08-24T08:39:00Z</time>
      </trkpt>
      <trkpt lat="45.88641" lon="4.77712">
        <ele>203</ele>
        <time>2018-08-24T08:39:01Z</time>
      </trkpt>
      <trkpt lat="45.88636" lon="4.7771">
        <ele>203</ele>
        <time>2018-08-24T08:39:02Z</time>
      </trkpt>
      <trkpt lat="45.88631" lon="4.7771">
        <ele>203</ele>
        <time>2018-08-24T08:39:03Z</time>
      </trkpt>
      <trkpt lat="45.88627" lon="4.77708">
        <ele>203</ele>
        <time>2018-08-24T08:39:04Z</time>
      </trkpt>
      <trkpt lat="45.88622" lon="4.77708">
        <ele>203</ele>
        <time>2018-08-24T08:39:05Z</time>
      </trkpt>
      <trkpt lat="45.88618" lon="4.77706">
        <ele>203</ele>
        <time>2018-08-24T08:39:06Z</time>
      </trkpt>
      <trkpt lat="45.88613" lon="4.77705">
        <ele>203</ele>
        <time>2018-08-24T08:39:07Z</time>
      </trkpt>
      <trkpt lat="45.88608" lon="4.77704">
        <ele>203</ele>
        <time>2018-08-24T08:39:08Z</time>
      </trkpt>
      <trkpt lat="45.88599" lon="4.77701">
        <ele>203</ele>
        <time>2018-08-24T08:39:10Z</time>
      </trkpt>
      <trkpt lat="45.88596" lon="4.77699">
        <ele>203</ele>
        <time>2018-08-24T08:39:11Z</time>
      </trkpt>
      <trkpt lat="45.88588" lon="4.77698">
        <ele>203</ele>
        <time>2018-08-24T08:39:13Z</time>
      </trkpt>
      <trkpt lat="45.88584" lon="4.77697">
        <ele>203</ele>
        <time>2018-08-24T08:39:14Z</time>
      </trkpt>
      <trkpt lat="45.88576" lon="4.77696">
        <ele>204</ele>
        <time>2018-08-24T08:39:16Z</time>
      </trkpt>
      <trkpt lat="45.88572" lon="4.77695">
        <ele>204</ele>
        <time>2018-08-24T08:39:17Z</time>
      </trkpt>
      <trkpt lat="45.88567" lon="4.77694">
        <ele>204</ele>
        <time>2018-08-24T08:39:18Z</time>
      </trkpt>
      <trkpt lat="45.88563" lon="4.77693">
        <ele>204</ele>
        <time>2018-08-24T08:39:19Z</time>
      </trkpt>
      <trkpt lat="45.88559" lon="4.77692">
        <ele>204</ele>
        <time>2018-08-24T08:39:20Z</time>
      </trkpt>
      <trkpt lat="45.88553" lon="4.77692">
        <ele>204</ele>
        <time>2018-08-24T08:39:21Z</time>
      </trkpt>
      <trkpt lat="45.88549" lon="4.77691">
        <ele>204</ele>
        <time>2018-08-24T08:39:22Z</time>
      </trkpt>
      <trkpt lat="45.88544" lon="4.7769">
        <ele>204</ele>
        <time>2018-08-24T08:39:23Z</time>
      </trkpt>
      <trkpt lat="45.88539" lon="4.77691">
        <ele>204</ele>
        <time>2018-08-24T08:39:24Z</time>
      </trkpt>
      <trkpt lat="45.88534" lon="4.7769">
        <ele>204</ele>
        <time>2018-08-24T08:39:25Z</time>
      </trkpt>
      <trkpt lat="45.8853" lon="4.77689">
        <ele>204</ele>
        <time>2018-08-24T08:39:26Z</time>
      </trkpt>
      <trkpt lat="45.88524" lon="4.77689">
        <ele>204</ele>
        <time>2018-08-24T08:39:27Z</time>
      </trkpt>
      <trkpt lat="45.88519" lon="4.77688">
        <ele>204</ele>
        <time>2018-08-24T08:39:28Z</time>
      </trkpt>
      <trkpt lat="45.88514" lon="4.77688">
        <ele>205</ele>
        <time>2018-08-24T08:39:29Z</time>
      </trkpt>
      <trkpt lat="45.88509" lon="4.77687">
        <ele>205</ele>
        <time>2018-08-24T08:39:30Z</time>
      </trkpt>
      <trkpt lat="45.88502" lon="4.77686">
        <ele>205</ele>
        <time>2018-08-24T08:39:31Z</time>
      </trkpt>
      <trkpt lat="45.88497" lon="4.77685">
        <ele>206</ele>
        <time>2018-08-24T08:39:32Z</time>
      </trkpt>
      <trkpt lat="45.88492" lon="4.77683">
        <ele>206</ele>
        <time>2018-08-24T08:39:33Z</time>
      </trkpt>
      <trkpt lat="45.88484" lon="4.7768">
        <ele>206</ele>
        <time>2018-08-24T08:39:35Z</time>
      </trkpt>
      <trkpt lat="45.88479" lon="4.77679">
        <ele>206</ele>
        <time>2018-08-24T08:39:36Z</time>
      </trkpt>
      <trkpt lat="45.8847" lon="4.77675">
        <ele>206</ele>
        <time>2018-08-24T08:39:38Z</time>
      </trkpt>
      <trkpt lat="45.88466" lon="4.77673">
        <ele>206</ele>
        <time>2018-08-24T08:39:39Z</time>
      </trkpt>
      <trkpt lat="45.88459" lon="4.77672">
        <ele>206</ele>
        <time>2018-08-24T08:39:41Z</time>
      </trkpt>
      <trkpt lat="45.88453" lon="4.77669">
        <ele>206</ele>
        <time>2018-08-24T08:39:42Z</time>
      </trkpt>
      <trkpt lat="45.88444" lon="4.77666">
        <ele>206</ele>
        <time>2018-08-24T08:39:44Z</time>
      </trkpt>
      <trkpt lat="45.8844" lon="4.77665">
        <ele>206</ele>
        <time>2018-08-24T08:39:45Z</time>
      </trkpt>
      <trkpt lat="45.88431" lon="4.77663">
        <ele>206</ele>
        <time>2018-08-24T08:39:47Z</time>
      </trkpt>
      <trkpt lat="45.88429" lon="4.77664">
        <ele>206</ele>
        <time>2018-08-24T08:39:48Z</time>
      </trkpt>
      <trkpt lat="45.88423" lon="4.77662">
        <ele>206</ele>
        <time>2018-08-24T08:39:49Z</time>
      </trkpt>
      <trkpt lat="45.88418" lon="4.77662">
        <ele>206</ele>
        <time>2018-08-24T08:39:50Z</time>
      </trkpt>
      <trkpt lat="45.88413" lon="4.77661">
        <ele>206</ele>
        <time>2018-08-24T08:39:51Z</time>
      </trkpt>
      <trkpt lat="45.88408" lon="4.7766">
        <ele>207</ele>
        <time>2018-08-24T08:39:52Z</time>
      </trkpt>
      <trkpt lat="45.884" lon="4.77659">
        <ele>207</ele>
        <time>2018-08-24T08:39:54Z</time>
      </trkpt>
      <trkpt lat="45.88396" lon="4.77659">
        <ele>207</ele>
        <time>2018-08-24T08:39:55Z</time>
      </trkpt>
      <trkpt lat="45.88389" lon="4.77658">
        <ele>207</ele>
        <time>2018-08-24T08:39:56Z</time>
      </trkpt>
      <trkpt lat="45.88385" lon="4.77657">
        <ele>207</ele>
        <time>2018-08-24T08:39:57Z</time>
      </trkpt>
      <trkpt lat="45.88376" lon="4.77657">
        <ele>207</ele>
        <time>2018-08-24T08:39:59Z</time>
      </trkpt>
      <trkpt lat="45.8837" lon="4.77657">
        <ele>207</ele>
        <time>2018-08-24T08:40:00Z</time>
      </trkpt>
      <trkpt lat="45.88365" lon="4.77656">
        <ele>207</ele>
        <time>2018-08-24T08:40:01Z</time>
      </trkpt>
      <trkpt lat="45.88361" lon="4.77656">
        <ele>208</ele>
        <time>2018-08-24T08:40:02Z</time>
      </trkpt>
      <trkpt lat="45.88356" lon="4.77655">
        <ele>208</ele>
        <time>2018-08-24T08:40:03Z</time>
      </trkpt>
      <trkpt lat="45.88351" lon="4.77655">
        <ele>208</ele>
        <time>2018-08-24T08:40:04Z</time>
      </trkpt>
      <trkpt lat="45.88343" lon="4.77655">
        <ele>208</ele>
        <time>2018-08-24T08:40:05Z</time>
      </trkpt>
      <trkpt lat="45.88338" lon="4.77656">
        <ele>208</ele>
        <time>2018-08-24T08:40:06Z</time>
      </trkpt>
      <trkpt lat="45.88334" lon="4.77655">
        <ele>208</ele>
        <time>2018-08-24T08:40:07Z</time>
      </trkpt>
      <trkpt lat="45.88328" lon="4.77655">
        <ele>209</ele>
        <time>2018-08-24T08:40:08Z</time>
      </trkpt>
      <trkpt lat="45.8832" lon="4.77654">
        <ele>209</ele>
        <time>2018-08-24T08:40:10Z</time>
      </trkpt>
      <trkpt lat="45.88316" lon="4.77654">
        <ele>209</ele>
        <time>2018-08-24T08:40:11Z</time>
      </trkpt>
      <trkpt lat="45.88308" lon="4.77654">
        <ele>209</ele>
        <time>2018-08-24T08:40:13Z</time>
      </trkpt>
      <trkpt lat="45.88303" lon="4.77651">
        <ele>209</ele>
        <time>2018-08-24T08:40:14Z</time>
      </trkpt>
      <trkpt lat="45.88298" lon="4.77652">
        <ele>209</ele>
        <time>2018-08-24T08:40:15Z</time>
      </trkpt>
      <trkpt lat="45.88293" lon="4.77652">
        <ele>209</ele>
        <time>2018-08-24T08:40:16Z</time>
      </trkpt>
      <trkpt lat="45.88289" lon="4.77652">
        <ele>209</ele>
        <time>2018-08-24T08:40:17Z</time>
      </trkpt>
      <trkpt lat="45.88283" lon="4.77655">
        <ele>210</ele>
        <time>2018-08-24T08:40:18Z</time>
      </trkpt>
      <trkpt lat="45.88275" lon="4.77656">
        <ele>210</ele>
        <time>2018-08-24T08:40:20Z</time>
      </trkpt>
      <trkpt lat="45.8827" lon="4.77656">
        <ele>210</ele>
        <time>2018-08-24T08:40:21Z</time>
      </trkpt>
      <trkpt lat="45.88265" lon="4.77656">
        <ele>210</ele>
        <time>2018-08-24T08:40:22Z</time>
      </trkpt>
      <trkpt lat="45.88259" lon="4.77657">
        <ele>210</ele>
        <time>2018-08-24T08:40:23Z</time>
      </trkpt>
      <trkpt lat="45.88251" lon="4.77656">
        <ele>210</ele>
        <time>2018-08-24T08:40:25Z</time>
      </trkpt>
      <trkpt lat="45.88246" lon="4.77658">
        <ele>211</ele>
        <time>2018-08-24T08:40:26Z</time>
      </trkpt>
      <trkpt lat="45.88242" lon="4.77658">
        <ele>211</ele>
        <time>2018-08-24T08:40:27Z</time>
      </trkpt>
      <trkpt lat="45.88237" lon="4.77658">
        <ele>211</ele>
        <time>2018-08-24T08:40:28Z</time>
      </trkpt>
      <trkpt lat="45.88232" lon="4.77658">
        <ele>211</ele>
        <time>2018-08-24T08:40:29Z</time>
      </trkpt>
      <trkpt lat="45.88227" lon="4.77659">
        <ele>211</ele>
        <time>2018-08-24T08:40:30Z</time>
      </trkpt>
      <trkpt lat="45.88223" lon="4.7766">
        <ele>211</ele>
        <time>2018-08-24T08:40:31Z</time>
      </trkpt>
      <trkpt lat="45.88218" lon="4.77659">
        <ele>211</ele>
        <time>2018-08-24T08:40:32Z</time>
      </trkpt>
      <trkpt lat="45.88213" lon="4.7766">
        <ele>211</ele>
        <time>2018-08-24T08:40:33Z</time>
      </trkpt>
      <trkpt lat="45.88208" lon="4.7766">
        <ele>211</ele>
        <time>2018-08-24T08:40:34Z</time>
      </trkpt>
      <trkpt lat="45.88204" lon="4.7766">
        <ele>211</ele>
        <time>2018-08-24T08:40:35Z</time>
      </trkpt>
      <trkpt lat="45.88199" lon="4.77661">
        <ele>211</ele>
        <time>2018-08-24T08:40:36Z</time>
      </trkpt>
      <trkpt lat="45.88191" lon="4.77661">
        <ele>212</ele>
        <time>2018-08-24T08:40:38Z</time>
      </trkpt>
      <trkpt lat="45.88187" lon="4.77662">
        <ele>212</ele>
        <time>2018-08-24T08:40:39Z</time>
      </trkpt>
      <trkpt lat="45.88179" lon="4.77659">
        <ele>212</ele>
        <time>2018-08-24T08:40:41Z</time>
      </trkpt>
      <trkpt lat="45.88174" lon="4.77661">
        <ele>212</ele>
        <time>2018-08-24T08:40:42Z</time>
      </trkpt>
      <trkpt lat="45.88167" lon="4.77662">
        <ele>212</ele>
        <time>2018-08-24T08:40:44Z</time>
      </trkpt>
      <trkpt lat="45.88161" lon="4.77664">
        <ele>212</ele>
        <time>2018-08-24T08:40:45Z</time>
      </trkpt>
      <trkpt lat="45.88154" lon="4.77668">
        <ele>213</ele>
        <time>2018-08-24T08:40:47Z</time>
      </trkpt>
      <trkpt lat="45.8815" lon="4.77668">
        <ele>213</ele>
        <time>2018-08-24T08:40:48Z</time>
      </trkpt>
      <trkpt lat="45.88146" lon="4.77668">
        <ele>213</ele>
        <time>2018-08-24T08:40:49Z</time>
      </trkpt>
      <trkpt lat="45.8814" lon="4.77669">
        <ele>213</ele>
        <time>2018-08-24T08:40:50Z</time>
      </trkpt>
      <trkpt lat="45.88136" lon="4.77673">
        <ele>213</ele>
        <time>2018-08-24T08:40:51Z</time>
      </trkpt>
      <trkpt lat="45.88131" lon="4.77673">
        <ele>213</ele>
        <time>2018-08-24T08:40:52Z</time>
      </trkpt>
      <trkpt lat="45.88126" lon="4.77674">
        <ele>214</ele>
        <time>2018-08-24T08:40:53Z</time>
      </trkpt>
      <trkpt lat="45.88121" lon="4.77677">
        <ele>214</ele>
        <time>2018-08-24T08:40:54Z</time>
      </trkpt>
      <trkpt lat="45.88113" lon="4.7768">
        <ele>214</ele>
        <time>2018-08-24T08:40:56Z</time>
      </trkpt>
      <trkpt lat="45.88109" lon="4.77681">
        <ele>214</ele>
        <time>2018-08-24T08:40:57Z</time>
      </trkpt>
      <trkpt lat="45.88103" lon="4.7768">
        <ele>214</ele>
        <time>2018-08-24T08:40:58Z</time>
      </trkpt>
      <trkpt lat="45.881" lon="4.7768">
        <ele>214</ele>
        <time>2018-08-24T08:40:59Z</time>
      </trkpt>
      <trkpt lat="45.88091" lon="4.77683">
        <ele>214</ele>
        <time>2018-08-24T08:41:01Z</time>
      </trkpt>
      <trkpt lat="45.88087" lon="4.77685">
        <ele>214</ele>
        <time>2018-08-24T08:41:02Z</time>
      </trkpt>
      <trkpt lat="45.88081" lon="4.77687">
        <ele>215</ele>
        <time>2018-08-24T08:41:03Z</time>
      </trkpt>
      <trkpt lat="45.88077" lon="4.77687">
        <ele>215</ele>
        <time>2018-08-24T08:41:04Z</time>
      </trkpt>
      <trkpt lat="45.88069" lon="4.77689">
        <ele>216</ele>
        <time>2018-08-24T08:41:06Z</time>
      </trkpt>
      <trkpt lat="45.88064" lon="4.7769">
        <ele>216</ele>
        <time>2018-08-24T08:41:07Z</time>
      </trkpt>
      <trkpt lat="45.88056" lon="4.77689">
        <ele>216</ele>
        <time>2018-08-24T08:41:09Z</time>
      </trkpt>
      <trkpt lat="45.88055" lon="4.77691">
        <ele>216</ele>
        <time>2018-08-24T08:41:10Z</time>
      </trkpt>
      <trkpt lat="45.88049" lon="4.77693">
        <ele>216</ele>
        <time>2018-08-24T08:41:11Z</time>
      </trkpt>
      <trkpt lat="45.88045" lon="4.77693">
        <ele>216</ele>
        <time>2018-08-24T08:41:12Z</time>
      </trkpt>
      <trkpt lat="45.8804" lon="4.77694">
        <ele>216</ele>
        <time>2018-08-24T08:41:13Z</time>
      </trkpt>
      <trkpt lat="45.88036" lon="4.77695">
        <ele>216</ele>
        <time>2018-08-24T08:41:14Z</time>
      </trkpt>
      <trkpt lat="45.88033" lon="4.77699">
        <ele>216</ele>
        <time>2018-08-24T08:41:15Z</time>
      </trkpt>
      <trkpt lat="45.88027" lon="4.77699">
        <ele>216</ele>
        <time>2018-08-24T08:41:16Z</time>
      </trkpt>
      <trkpt lat="45.88018" lon="4.777">
        <ele>216</ele>
        <time>2018-08-24T08:41:18Z</time>
      </trkpt>
      <trkpt lat="45.88013" lon="4.77702">
        <ele>216</ele>
        <time>2018-08-24T08:41:19Z</time>
      </trkpt>
      <trkpt lat="45.88008" lon="4.77702">
        <ele>216</ele>
        <time>2018-08-24T08:41:20Z</time>
      </trkpt>
      <trkpt lat="45.88003" lon="4.77701">
        <ele>216</ele>
        <time>2018-08-24T08:41:21Z</time>
      </trkpt>
      <trkpt lat="45.87995" lon="4.777">
        <ele>217</ele>
        <time>2018-08-24T08:41:23Z</time>
      </trkpt>
      <trkpt lat="45.87991" lon="4.77697">
        <ele>217</ele>
        <time>2018-08-24T08:41:24Z</time>
      </trkpt>
      <trkpt lat="45.87983" lon="4.77693">
        <ele>218</ele>
        <time>2018-08-24T08:41:26Z</time>
      </trkpt>
      <trkpt lat="45.87976" lon="4.77692">
        <ele>218</ele>
        <time>2018-08-24T08:41:27Z</time>
      </trkpt>
      <trkpt lat="45.87972" lon="4.77689">
        <ele>218</ele>
        <time>2018-08-24T08:41:28Z</time>
      </trkpt>
      <trkpt lat="45.87968" lon="4.77685">
        <ele>218</ele>
        <time>2018-08-24T08:41:29Z</time>
      </trkpt>
      <trkpt lat="45.87964" lon="4.7768">
        <ele>218</ele>
        <time>2018-08-24T08:41:30Z</time>
      </trkpt>
      <trkpt lat="45.87959" lon="4.77677">
        <ele>218</ele>
        <time>2018-08-24T08:41:31Z</time>
      </trkpt>
      <trkpt lat="45.87954" lon="4.77674">
        <ele>218</ele>
        <time>2018-08-24T08:41:33Z</time>
      </trkpt>
      <trkpt lat="45.87949" lon="4.77672">
        <ele>218</ele>
        <time>2018-08-24T08:41:34Z</time>
      </trkpt>
      <trkpt lat="45.87942" lon="4.77665">
        <ele>219</ele>
        <time>2018-08-24T08:41:36Z</time>
      </trkpt>
      <trkpt lat="45.87938" lon="4.77662">
        <ele>219</ele>
        <time>2018-08-24T08:41:37Z</time>
      </trkpt>
      <trkpt lat="45.87933" lon="4.77658">
        <ele>219</ele>
        <time>2018-08-24T08:41:38Z</time>
      </trkpt>
      <trkpt lat="45.87929" lon="4.77654">
        <ele>219</ele>
        <time>2018-08-24T08:41:39Z</time>
      </trkpt>
      <trkpt lat="45.87925" lon="4.77649">
        <ele>219</ele>
        <time>2018-08-24T08:41:40Z</time>
      </trkpt>
      <trkpt lat="45.87922" lon="4.77646">
        <ele>219</ele>
        <time>2018-08-24T08:41:41Z</time>
      </trkpt>
      <trkpt lat="45.87918" lon="4.77643">
        <ele>219</ele>
        <time>2018-08-24T08:41:42Z</time>
      </trkpt>
      <trkpt lat="45.87914" lon="4.77638">
        <ele>220</ele>
        <time>2018-08-24T08:41:43Z</time>
      </trkpt>
      <trkpt lat="45.8791" lon="4.77635">
        <ele>221</ele>
        <time>2018-08-24T08:41:44Z</time>
      </trkpt>
      <trkpt lat="45.87906" lon="4.77632">
        <ele>221</ele>
        <time>2018-08-24T08:41:45Z</time>
      </trkpt>
      <trkpt lat="45.87899" lon="4.77625">
        <ele>221</ele>
        <time>2018-08-24T08:41:47Z</time>
      </trkpt>
      <trkpt lat="45.87893" lon="4.77622">
        <ele>221</ele>
        <time>2018-08-24T08:41:48Z</time>
      </trkpt>
      <trkpt lat="45.87888" lon="4.77615">
        <ele>221</ele>
        <time>2018-08-24T08:41:50Z</time>
      </trkpt>
      <trkpt lat="45.87883" lon="4.77612">
        <ele>221</ele>
        <time>2018-08-24T08:41:51Z</time>
      </trkpt>
      <trkpt lat="45.87879" lon="4.77608">
        <ele>221</ele>
        <time>2018-08-24T08:41:52Z</time>
      </trkpt>
      <trkpt lat="45.87874" lon="4.77605">
        <ele>221</ele>
        <time>2018-08-24T08:41:53Z</time>
      </trkpt>
      <trkpt lat="45.87868" lon="4.77597">
        <ele>221</ele>
        <time>2018-08-24T08:41:55Z</time>
      </trkpt>
      <trkpt lat="45.87864" lon="4.77594">
        <ele>221</ele>
        <time>2018-08-24T08:41:56Z</time>
      </trkpt>
      <trkpt lat="45.87857" lon="4.77589">
        <ele>221</ele>
        <time>2018-08-24T08:41:58Z</time>
      </trkpt>
      <trkpt lat="45.87852" lon="4.77584">
        <ele>221</ele>
        <time>2018-08-24T08:41:59Z</time>
      </trkpt>
      <trkpt lat="45.87845" lon="4.77577">
        <ele>221</ele>
        <time>2018-08-24T08:42:01Z</time>
      </trkpt>
      <trkpt lat="45.87841" lon="4.77575">
        <ele>221</ele>
        <time>2018-08-24T08:42:02Z</time>
      </trkpt>
      <trkpt lat="45.87835" lon="4.77568">
        <ele>221</ele>
        <time>2018-08-24T08:42:04Z</time>
      </trkpt>
      <trkpt lat="45.87829" lon="4.77564">
        <ele>222</ele>
        <time>2018-08-24T08:42:05Z</time>
      </trkpt>
      <trkpt lat="45.87826" lon="4.77557">
        <ele>223</ele>
        <time>2018-08-24T08:42:06Z</time>
      </trkpt>
      <trkpt lat="45.87821" lon="4.77554">
        <ele>223</ele>
        <time>2018-08-24T08:42:07Z</time>
      </trkpt>
      <trkpt lat="45.87815" lon="4.7755">
        <ele>223</ele>
        <time>2018-08-24T08:42:08Z</time>
      </trkpt>
      <trkpt lat="45.8781" lon="4.77547">
        <ele>223</ele>
        <time>2018-08-24T08:42:09Z</time>
      </trkpt>
      <trkpt lat="45.87806" lon="4.77544">
        <ele>223</ele>
        <time>2018-08-24T08:42:10Z</time>
      </trkpt>
      <trkpt lat="45.87801" lon="4.77541">
        <ele>223</ele>
        <time>2018-08-24T08:42:11Z</time>
      </trkpt>
      <trkpt lat="45.87793" lon="4.77535">
        <ele>223</ele>
        <time>2018-08-24T08:42:13Z</time>
      </trkpt>
      <trkpt lat="45.87788" lon="4.77533">
        <ele>223</ele>
        <time>2018-08-24T08:42:14Z</time>
      </trkpt>
      <trkpt lat="45.87781" lon="4.77529">
        <ele>223</ele>
        <time>2018-08-24T08:42:16Z</time>
      </trkpt>
      <trkpt lat="45.87778" lon="4.77526">
        <ele>223</ele>
        <time>2018-08-24T08:42:17Z</time>
      </trkpt>
      <trkpt lat="45.8777" lon="4.7752">
        <ele>223</ele>
        <time>2018-08-24T08:42:19Z</time>
      </trkpt>
      <trkpt lat="45.87766" lon="4.77518">
        <ele>223</ele>
        <time>2018-08-24T08:42:20Z</time>
      </trkpt>
      <trkpt lat="45.8776" lon="4.77511">
        <ele>224</ele>
        <time>2018-08-24T08:42:22Z</time>
      </trkpt>
      <trkpt lat="45.87756" lon="4.77509">
        <ele>224</ele>
        <time>2018-08-24T08:42:23Z</time>
      </trkpt>
      <trkpt lat="45.8775" lon="4.77504">
        <ele>224</ele>
        <time>2018-08-24T08:42:25Z</time>
      </trkpt>
      <trkpt lat="45.87743" lon="4.77502">
        <ele>225</ele>
        <time>2018-08-24T08:42:26Z</time>
      </trkpt>
      <trkpt lat="45.87736" lon="4.77498">
        <ele>225</ele>
        <time>2018-08-24T08:42:28Z</time>
      </trkpt>
      <trkpt lat="45.87732" lon="4.77495">
        <ele>225</ele>
        <time>2018-08-24T08:42:29Z</time>
      </trkpt>
      <trkpt lat="45.87725" lon="4.77491">
        <ele>226</ele>
        <time>2018-08-24T08:42:31Z</time>
      </trkpt>
      <trkpt lat="45.87721" lon="4.7749">
        <ele>226</ele>
        <time>2018-08-24T08:42:32Z</time>
      </trkpt>
      <trkpt lat="45.87714" lon="4.7749">
        <ele>226</ele>
        <time>2018-08-24T08:42:35Z</time>
      </trkpt>
      <trkpt lat="45.87709" lon="4.77488">
        <ele>226</ele>
        <time>2018-08-24T08:42:36Z</time>
      </trkpt>
      <trkpt lat="45.87704" lon="4.77487">
        <ele>226</ele>
        <time>2018-08-24T08:42:38Z</time>
      </trkpt>
      <trkpt lat="45.87699" lon="4.77487">
        <ele>227</ele>
        <time>2018-08-24T08:42:39Z</time>
      </trkpt>
      <trkpt lat="45.87694" lon="4.77488">
        <ele>227</ele>
        <time>2018-08-24T08:42:42Z</time>
      </trkpt>
      <trkpt lat="45.87688" lon="4.7749">
        <ele>227</ele>
        <time>2018-08-24T08:42:43Z</time>
      </trkpt>
      <trkpt lat="45.87679" lon="4.77489">
        <ele>228</ele>
        <time>2018-08-24T08:42:47Z</time>
      </trkpt>
      <trkpt lat="45.87676" lon="4.77488">
        <ele>228</ele>
        <time>2018-08-24T08:42:48Z</time>
      </trkpt>
      <trkpt lat="45.8767" lon="4.77489">
        <ele>228</ele>
        <time>2018-08-24T08:42:50Z</time>
      </trkpt>
      <trkpt lat="45.87667" lon="4.77489">
        <ele>228</ele>
        <time>2018-08-24T08:42:51Z</time>
      </trkpt>
      <trkpt lat="45.87661" lon="4.77489">
        <ele>230</ele>
        <time>2018-08-24T08:42:53Z</time>
      </trkpt>
      <trkpt lat="45.87658" lon="4.77489">
        <ele>230</ele>
        <time>2018-08-24T08:42:54Z</time>
      </trkpt>
      <trkpt lat="45.87649" lon="4.77489">
        <ele>230</ele>
        <time>2018-08-24T08:42:57Z</time>
      </trkpt>
      <trkpt lat="45.87646" lon="4.7749">
        <ele>230</ele>
        <time>2018-08-24T08:42:58Z</time>
      </trkpt>
      <trkpt lat="45.8764" lon="4.7749">
        <ele>230</ele>
        <time>2018-08-24T08:43:00Z</time>
      </trkpt>
      <trkpt lat="45.87637" lon="4.7749">
        <ele>230</ele>
        <time>2018-08-24T08:43:01Z</time>
      </trkpt>
      <trkpt lat="45.8763" lon="4.7749">
        <ele>231</ele>
        <time>2018-08-24T08:43:03Z</time>
      </trkpt>
      <trkpt lat="45.87627" lon="4.77491">
        <ele>231</ele>
        <time>2018-08-24T08:43:04Z</time>
      </trkpt>
      <trkpt lat="45.87619" lon="4.77493">
        <ele>231</ele>
        <time>2018-08-24T08:43:07Z</time>
      </trkpt>
      <trkpt lat="45.87616" lon="4.77494">
        <ele>231</ele>
        <time>2018-08-24T08:43:08Z</time>
      </trkpt>
      <trkpt lat="45.8761" lon="4.77498">
        <ele>231</ele>
        <time>2018-08-24T08:43:10Z</time>
      </trkpt>
      <trkpt lat="45.87607" lon="4.77499">
        <ele>231</ele>
        <time>2018-08-24T08:43:11Z</time>
      </trkpt>
      <trkpt lat="45.876" lon="4.77501">
        <ele>231</ele>
        <time>2018-08-24T08:43:14Z</time>
      </trkpt>
      <trkpt lat="45.87597" lon="4.77502">
        <ele>231</ele>
        <time>2018-08-24T08:43:15Z</time>
      </trkpt>
      <trkpt lat="45.87589" lon="4.77502">
        <ele>232</ele>
        <time>2018-08-24T08:43:18Z</time>
      </trkpt>
      <trkpt lat="45.87586" lon="4.77502">
        <ele>232</ele>
        <time>2018-08-24T08:43:19Z</time>
      </trkpt>
      <trkpt lat="45.87578" lon="4.77501">
        <ele>232</ele>
        <time>2018-08-24T08:43:22Z</time>
      </trkpt>
      <trkpt lat="45.87575" lon="4.775">
        <ele>232</ele>
        <time>2018-08-24T08:43:23Z</time>
      </trkpt>
      <trkpt lat="45.87569" lon="4.77497">
        <ele>233</ele>
        <time>2018-08-24T08:43:25Z</time>
      </trkpt>
      <trkpt lat="45.87566" lon="4.77495">
        <ele>233</ele>
        <time>2018-08-24T08:43:26Z</time>
      </trkpt>
      <trkpt lat="45.87562" lon="4.77489">
        <ele>233</ele>
        <time>2018-08-24T08:43:28Z</time>
      </trkpt>
      <trkpt lat="45.87555" lon="4.77479">
        <ele>233</ele>
        <time>2018-08-24T08:43:29Z</time>
      </trkpt>
      <trkpt lat="45.87549" lon="4.7747">
        <ele>233</ele>
        <time>2018-08-24T08:43:31Z</time>
      </trkpt>
      <trkpt lat="45.87548" lon="4.77469">
        <ele>233</ele>
        <time>2018-08-24T08:43:32Z</time>
      </trkpt>
      <trkpt lat="45.87544" lon="4.77461">
        <ele>233</ele>
        <time>2018-08-24T08:43:35Z</time>
      </trkpt>
      <trkpt lat="45.87542" lon="4.77458">
        <ele>234</ele>
        <time>2018-08-24T08:43:36Z</time>
      </trkpt>
      <trkpt lat="45.87535" lon="4.77448">
        <ele>234</ele>
        <time>2018-08-24T08:43:37Z</time>
      </trkpt>
      <trkpt lat="45.87531" lon="4.77443">
        <ele>234</ele>
        <time>2018-08-24T08:43:38Z</time>
      </trkpt>
      <trkpt lat="45.87525" lon="4.77438">
        <ele>233</ele>
        <time>2018-08-24T08:43:39Z</time>
      </trkpt>
      <trkpt lat="45.87521" lon="4.77433">
        <ele>233</ele>
        <time>2018-08-24T08:43:40Z</time>
      </trkpt>
      <trkpt lat="45.87518" lon="4.77428">
        <ele>233</ele>
        <time>2018-08-24T08:43:41Z</time>
      </trkpt>
      <trkpt lat="45.87513" lon="4.77423">
        <ele>233</ele>
        <time>2018-08-24T08:43:42Z</time>
      </trkpt>
      <trkpt lat="45.87511" lon="4.77418">
        <ele>233</ele>
        <time>2018-08-24T08:43:43Z</time>
      </trkpt>
      <trkpt lat="45.87505" lon="4.77409">
        <ele>233</ele>
        <time>2018-08-24T08:43:45Z</time>
      </trkpt>
      <trkpt lat="45.87501" lon="4.77403">
        <ele>233</ele>
        <time>2018-08-24T08:43:46Z</time>
      </trkpt>
      <trkpt lat="45.87498" lon="4.77397">
        <ele>234</ele>
        <time>2018-08-24T08:43:47Z</time>
      </trkpt>
      <trkpt lat="45.87495" lon="4.77392">
        <ele>235</ele>
        <time>2018-08-24T08:43:48Z</time>
      </trkpt>
      <trkpt lat="45.87491" lon="4.77385">
        <ele>235</ele>
        <time>2018-08-24T08:43:49Z</time>
      </trkpt>
      <trkpt lat="45.87489" lon="4.7738">
        <ele>235</ele>
        <time>2018-08-24T08:43:50Z</time>
      </trkpt>
      <trkpt lat="45.87487" lon="4.77368">
        <ele>235</ele>
        <time>2018-08-24T08:43:52Z</time>
      </trkpt>
      <trkpt lat="45.87485" lon="4.77361">
        <ele>235</ele>
        <time>2018-08-24T08:43:53Z</time>
      </trkpt>
      <trkpt lat="45.87483" lon="4.77349">
        <ele>235</ele>
        <time>2018-08-24T08:43:55Z</time>
      </trkpt>
      <trkpt lat="45.87481" lon="4.7734">
        <ele>235</ele>
        <time>2018-08-24T08:43:56Z</time>
      </trkpt>
      <trkpt lat="45.8748" lon="4.77334">
        <ele>235</ele>
        <time>2018-08-24T08:43:57Z</time>
      </trkpt>
      <trkpt lat="45.87477" lon="4.77327">
        <ele>235</ele>
        <time>2018-08-24T08:43:58Z</time>
      </trkpt>
      <trkpt lat="45.87475" lon="4.77318">
        <ele>235</ele>
        <time>2018-08-24T08:44:00Z</time>
      </trkpt>
      <trkpt lat="45.87474" lon="4.77312">
        <ele>235</ele>
        <time>2018-08-24T08:44:01Z</time>
      </trkpt>
      <trkpt lat="45.87472" lon="4.77301">
        <ele>235</ele>
        <time>2018-08-24T08:44:03Z</time>
      </trkpt>
      <trkpt lat="45.87471" lon="4.77296">
        <ele>235</ele>
        <time>2018-08-24T08:44:04Z</time>
      </trkpt>
      <trkpt lat="45.87468" lon="4.77286">
        <ele>235</ele>
        <time>2018-08-24T08:44:06Z</time>
      </trkpt>
      <trkpt lat="45.87467" lon="4.7728">
        <ele>235</ele>
        <time>2018-08-24T08:44:07Z</time>
      </trkpt>
      <trkpt lat="45.87464" lon="4.77274">
        <ele>235</ele>
        <time>2018-08-24T08:44:08Z</time>
      </trkpt>
      <trkpt lat="45.87462" lon="4.77269">
        <ele>235</ele>
        <time>2018-08-24T08:44:09Z</time>
      </trkpt>
      <trkpt lat="45.87457" lon="4.77259">
        <ele>235</ele>
        <time>2018-08-24T08:44:11Z</time>
      </trkpt>
      <trkpt lat="45.87457" lon="4.77254">
        <ele>235</ele>
        <time>2018-08-24T08:44:12Z</time>
      </trkpt>
      <trkpt lat="45.87451" lon="4.77245">
        <ele>235</ele>
        <time>2018-08-24T08:44:16Z</time>
      </trkpt>
      <trkpt lat="45.87449" lon="4.77242">
        <ele>235</ele>
        <time>2018-08-24T08:44:17Z</time>
      </trkpt>
      <trkpt lat="45.87442" lon="4.77233">
        <ele>235</ele>
        <time>2018-08-24T08:44:18Z</time>
      </trkpt>
      <trkpt lat="45.87434" lon="4.77229">
        <ele>235</ele>
        <time>2018-08-24T08:44:20Z</time>
      </trkpt>
      <trkpt lat="45.87428" lon="4.77228">
        <ele>235</ele>
        <time>2018-08-24T08:44:21Z</time>
      </trkpt>
      <trkpt lat="45.87419" lon="4.77224">
        <ele>235</ele>
        <time>2018-08-24T08:44:23Z</time>
      </trkpt>
      <trkpt lat="45.87415" lon="4.77222">
        <ele>238</ele>
        <time>2018-08-24T08:44:24Z</time>
      </trkpt>
      <trkpt lat="45.8741" lon="4.77221">
        <ele>238</ele>
        <time>2018-08-24T08:44:25Z</time>
      </trkpt>
      <trkpt lat="45.87406" lon="4.7722">
        <ele>238</ele>
        <time>2018-08-24T08:44:26Z</time>
      </trkpt>
      <trkpt lat="45.874" lon="4.77219">
        <ele>238</ele>
        <time>2018-08-24T08:44:27Z</time>
      </trkpt>
      <trkpt lat="45.87395" lon="4.77217">
        <ele>239</ele>
        <time>2018-08-24T08:44:28Z</time>
      </trkpt>
      <trkpt lat="45.87387" lon="4.77216">
        <ele>239</ele>
        <time>2018-08-24T08:44:30Z</time>
      </trkpt>
      <trkpt lat="45.87385" lon="4.77216">
        <ele>239</ele>
        <time>2018-08-24T08:44:31Z</time>
      </trkpt>
      <trkpt lat="45.87377" lon="4.77215">
        <ele>239</ele>
        <time>2018-08-24T08:44:34Z</time>
      </trkpt>
      <trkpt lat="45.87375" lon="4.77216">
        <ele>239</ele>
        <time>2018-08-24T08:44:35Z</time>
      </trkpt>
      <trkpt lat="45.87366" lon="4.77217">
        <ele>240</ele>
        <time>2018-08-24T08:44:36Z</time>
      </trkpt>
      <trkpt lat="45.87362" lon="4.77217">
        <ele>240</ele>
        <time>2018-08-24T08:44:37Z</time>
      </trkpt>
      <trkpt lat="45.87357" lon="4.77217">
        <ele>240</ele>
        <time>2018-08-24T08:44:39Z</time>
      </trkpt>
      <trkpt lat="45.8735" lon="4.77216">
        <ele>240</ele>
        <time>2018-08-24T08:44:40Z</time>
      </trkpt>
      <trkpt lat="45.87341" lon="4.77215">
        <ele>240</ele>
        <time>2018-08-24T08:44:43Z</time>
      </trkpt>
      <trkpt lat="45.87332" lon="4.77212">
        <ele>243</ele>
        <time>2018-08-24T08:44:44Z</time>
      </trkpt>
      <trkpt lat="45.87326" lon="4.77213">
        <ele>243</ele>
        <time>2018-08-24T08:44:45Z</time>
      </trkpt>
      <trkpt lat="45.87317" lon="4.77214">
        <ele>244</ele>
        <time>2018-08-24T08:44:46Z</time>
      </trkpt>
      <trkpt lat="45.87313" lon="4.77216">
        <ele>244</ele>
        <time>2018-08-24T08:44:47Z</time>
      </trkpt>
      <trkpt lat="45.87308" lon="4.77216">
        <ele>244</ele>
        <time>2018-08-24T08:44:48Z</time>
      </trkpt>
      <trkpt lat="45.873" lon="4.77215">
        <ele>244</ele>
        <time>2018-08-24T08:44:50Z</time>
      </trkpt>
      <trkpt lat="45.87294" lon="4.77215">
        <ele>244</ele>
        <time>2018-08-24T08:44:51Z</time>
      </trkpt>
      <trkpt lat="45.87289" lon="4.77212">
        <ele>244</ele>
        <time>2018-08-24T08:44:53Z</time>
      </trkpt>
      <trkpt lat="45.87283" lon="4.77206">
        <ele>244</ele>
        <time>2018-08-24T08:44:54Z</time>
      </trkpt>
      <trkpt lat="45.87284" lon="4.772">
        <ele>244</ele>
        <time>2018-08-24T08:44:56Z</time>
      </trkpt>
      <trkpt lat="45.87282" lon="4.77192">
        <ele>244</ele>
        <time>2018-08-24T08:44:57Z</time>
      </trkpt>
      <trkpt lat="45.8728" lon="4.7718">
        <ele>244</ele>
        <time>2018-08-24T08:44:59Z</time>
      </trkpt>
      <trkpt lat="45.87278" lon="4.77173">
        <ele>244</ele>
        <time>2018-08-24T08:45:00Z</time>
      </trkpt>
      <trkpt lat="45.87279" lon="4.77166">
        <ele>242</ele>
        <time>2018-08-24T08:45:01Z</time>
      </trkpt>
      <trkpt lat="45.87278" lon="4.77159">
        <ele>242</ele>
        <time>2018-08-24T08:45:02Z</time>
      </trkpt>
      <trkpt lat="45.87276" lon="4.77148">
        <ele>241</ele>
        <time>2018-08-24T08:45:04Z</time>
      </trkpt>
      <trkpt lat="45.87277" lon="4.77143">
        <ele>241</ele>
        <time>2018-08-24T08:45:05Z</time>
      </trkpt>
      <trkpt lat="45.87277" lon="4.77131">
        <ele>241</ele>
        <time>2018-08-24T08:45:07Z</time>
      </trkpt>
      <trkpt lat="45.87277" lon="4.77124">
        <ele>241</ele>
        <time>2018-08-24T08:45:08Z</time>
      </trkpt>
      <trkpt lat="45.87278" lon="4.77117">
        <ele>240</ele>
        <time>2018-08-24T08:45:09Z</time>
      </trkpt>
      <trkpt lat="45.87277" lon="4.7711">
        <ele>240</ele>
        <time>2018-08-24T08:45:10Z</time>
      </trkpt>
      <trkpt lat="45.87278" lon="4.77101">
        <ele>240</ele>
        <time>2018-08-24T08:45:11Z</time>
      </trkpt>
      <trkpt lat="45.87277" lon="4.77095">
        <ele>240</ele>
        <time>2018-08-24T08:45:12Z</time>
      </trkpt>
      <trkpt lat="45.87275" lon="4.77088">
        <ele>240</ele>
        <time>2018-08-24T08:45:13Z</time>
      </trkpt>
      <trkpt lat="45.87274" lon="4.77081">
        <ele>239</ele>
        <time>2018-08-24T08:45:14Z</time>
      </trkpt>
      <trkpt lat="45.87273" lon="4.77073">
        <ele>239</ele>
        <time>2018-08-24T08:45:15Z</time>
      </trkpt>
      <trkpt lat="45.87274" lon="4.77067">
        <ele>239</ele>
        <time>2018-08-24T08:45:16Z</time>
      </trkpt>
      <trkpt lat="45.87275" lon="4.77057">
        <ele>239</ele>
        <time>2018-08-24T08:45:18Z</time>
      </trkpt>
      <trkpt lat="45.87274" lon="4.77049">
        <ele>239</ele>
        <time>2018-08-24T08:45:19Z</time>
      </trkpt>
      <trkpt lat="45.87274" lon="4.77044">
        <ele>239</ele>
        <time>2018-08-24T08:45:20Z</time>
      </trkpt>
      <trkpt lat="45.87273" lon="4.77035">
        <ele>239</ele>
        <time>2018-08-24T08:45:21Z</time>
      </trkpt>
      <trkpt lat="45.87274" lon="4.77024">
        <ele>239</ele>
        <time>2018-08-24T08:45:22Z</time>
      </trkpt>
      <trkpt lat="45.87274" lon="4.77016">
        <ele>239</ele>
        <time>2018-08-24T08:45:23Z</time>
      </trkpt>
      <trkpt lat="45.87275" lon="4.77009">
        <ele>239</ele>
        <time>2018-08-24T08:45:24Z</time>
      </trkpt>
      <trkpt lat="45.87276" lon="4.77003">
        <ele>239</ele>
        <time>2018-08-24T08:45:25Z</time>
      </trkpt>
      <trkpt lat="45.87274" lon="4.76996">
        <ele>240</ele>
        <time>2018-08-24T08:45:26Z</time>
      </trkpt>
      <trkpt lat="45.87276" lon="4.76989">
        <ele>240</ele>
        <time>2018-08-24T08:45:27Z</time>
      </trkpt>
      <trkpt lat="45.87274" lon="4.76978">
        <ele>240</ele>
        <time>2018-08-24T08:45:28Z</time>
      </trkpt>
      <trkpt lat="45.87275" lon="4.76971">
        <ele>240</ele>
        <time>2018-08-24T08:45:29Z</time>
      </trkpt>
      <trkpt lat="45.87273" lon="4.76963">
        <ele>240</ele>
        <time>2018-08-24T08:45:30Z</time>
      </trkpt>
      <trkpt lat="45.87273" lon="4.76953">
        <ele>240</ele>
        <time>2018-08-24T08:45:31Z</time>
      </trkpt>
      <trkpt lat="45.87273" lon="4.76947">
        <ele>240</ele>
        <time>2018-08-24T08:45:32Z</time>
      </trkpt>
      <trkpt lat="45.87269" lon="4.76939">
        <ele>241</ele>
        <time>2018-08-24T08:45:33Z</time>
      </trkpt>
      <trkpt lat="45.87271" lon="4.76931">
        <ele>241</ele>
        <time>2018-08-24T08:45:34Z</time>
      </trkpt>
      <trkpt lat="45.87271" lon="4.76924">
        <ele>241</ele>
        <time>2018-08-24T08:45:35Z</time>
      </trkpt>
      <trkpt lat="45.8727" lon="4.76917">
        <ele>241</ele>
        <time>2018-08-24T08:45:36Z</time>
      </trkpt>
      <trkpt lat="45.8727" lon="4.76907">
        <ele>241</ele>
        <time>2018-08-24T08:45:37Z</time>
      </trkpt>
      <trkpt lat="45.8727" lon="4.76899">
        <ele>240</ele>
        <time>2018-08-24T08:45:38Z</time>
      </trkpt>
      <trkpt lat="45.87269" lon="4.76888">
        <ele>240</ele>
        <time>2018-08-24T08:45:39Z</time>
      </trkpt>
      <trkpt lat="45.8727" lon="4.7688">
        <ele>240</ele>
        <time>2018-08-24T08:45:40Z</time>
      </trkpt>
      <trkpt lat="45.8727" lon="4.7687">
        <ele>239</ele>
        <time>2018-08-24T08:45:41Z</time>
      </trkpt>
      <trkpt lat="45.87271" lon="4.7686">
        <ele>239</ele>
        <time>2018-08-24T08:45:42Z</time>
      </trkpt>
      <trkpt lat="45.87272" lon="4.7685">
        <ele>239</ele>
        <time>2018-08-24T08:45:43Z</time>
      </trkpt>
      <trkpt lat="45.87272" lon="4.76841">
        <ele>239</ele>
        <time>2018-08-24T08:45:44Z</time>
      </trkpt>
      <trkpt lat="45.87271" lon="4.76829">
        <ele>237</ele>
        <time>2018-08-24T08:45:45Z</time>
      </trkpt>
      <trkpt lat="45.8727" lon="4.76819">
        <ele>237</ele>
        <time>2018-08-24T08:45:46Z</time>
      </trkpt>
      <trkpt lat="45.87271" lon="4.7681">
        <ele>237</ele>
        <time>2018-08-24T08:45:47Z</time>
      </trkpt>
      <trkpt lat="45.87269" lon="4.76802">
        <ele>236</ele>
        <time>2018-08-24T08:45:48Z</time>
      </trkpt>
      <trkpt lat="45.87269" lon="4.76793">
        <ele>236</ele>
        <time>2018-08-24T08:45:49Z</time>
      </trkpt>
      <trkpt lat="45.8727" lon="4.76783">
        <ele>236</ele>
        <time>2018-08-24T08:45:50Z</time>
      </trkpt>
      <trkpt lat="45.87269" lon="4.76775">
        <ele>236</ele>
        <time>2018-08-24T08:45:51Z</time>
      </trkpt>
      <trkpt lat="45.87271" lon="4.76768">
        <ele>236</ele>
        <time>2018-08-24T08:45:52Z</time>
      </trkpt>
      <trkpt lat="45.8727" lon="4.7676">
        <ele>236</ele>
        <time>2018-08-24T08:45:53Z</time>
      </trkpt>
      <trkpt lat="45.87271" lon="4.76752">
        <ele>236</ele>
        <time>2018-08-24T08:45:54Z</time>
      </trkpt>
      <trkpt lat="45.8727" lon="4.76742">
        <ele>235</ele>
        <time>2018-08-24T08:45:55Z</time>
      </trkpt>
      <trkpt lat="45.87272" lon="4.76737">
        <ele>234</ele>
        <time>2018-08-24T08:45:56Z</time>
      </trkpt>
      <trkpt lat="45.8727" lon="4.76729">
        <ele>234</ele>
        <time>2018-08-24T08:45:57Z</time>
      </trkpt>
      <trkpt lat="45.87269" lon="4.76721">
        <ele>234</ele>
        <time>2018-08-24T08:45:58Z</time>
      </trkpt>
      <trkpt lat="45.87272" lon="4.76713">
        <ele>234</ele>
        <time>2018-08-24T08:45:59Z</time>
      </trkpt>
      <trkpt lat="45.87271" lon="4.76705">
        <ele>234</ele>
        <time>2018-08-24T08:46:00Z</time>
      </trkpt>
      <trkpt lat="45.87272" lon="4.76698">
        <ele>234</ele>
        <time>2018-08-24T08:46:01Z</time>
      </trkpt>
      <trkpt lat="45.87273" lon="4.76692">
        <ele>234</ele>
        <time>2018-08-24T08:46:02Z</time>
      </trkpt>
      <trkpt lat="45.87274" lon="4.76683">
        <ele>234</ele>
        <time>2018-08-24T08:46:03Z</time>
      </trkpt>
      <trkpt lat="45.87275" lon="4.76676">
        <ele>234</ele>
        <time>2018-08-24T08:46:04Z</time>
      </trkpt>
      <trkpt lat="45.8727" lon="4.76667">
        <ele>234</ele>
        <time>2018-08-24T08:46:05Z</time>
      </trkpt>
      <trkpt lat="45.8727" lon="4.76657">
        <ele>234</ele>
        <time>2018-08-24T08:46:06Z</time>
      </trkpt>
      <trkpt lat="45.87269" lon="4.76647">
        <ele>234</ele>
        <time>2018-08-24T08:46:07Z</time>
      </trkpt>
      <trkpt lat="45.87269" lon="4.76638">
        <ele>234</ele>
        <time>2018-08-24T08:46:08Z</time>
      </trkpt>
      <trkpt lat="45.87267" lon="4.76627">
        <ele>234</ele>
        <time>2018-08-24T08:46:09Z</time>
      </trkpt>
      <trkpt lat="45.87268" lon="4.76619">
        <ele>234</ele>
        <time>2018-08-24T08:46:10Z</time>
      </trkpt>
      <trkpt lat="45.87267" lon="4.76611">
        <ele>234</ele>
        <time>2018-08-24T08:46:11Z</time>
      </trkpt>
      <trkpt lat="45.87267" lon="4.76603">
        <ele>235</ele>
        <time>2018-08-24T08:46:12Z</time>
      </trkpt>
      <trkpt lat="45.87266" lon="4.76597">
        <ele>235</ele>
        <time>2018-08-24T08:46:13Z</time>
      </trkpt>
      <trkpt lat="45.87264" lon="4.76588">
        <ele>235</ele>
        <time>2018-08-24T08:46:14Z</time>
      </trkpt>
      <trkpt lat="45.87265" lon="4.76579">
        <ele>235</ele>
        <time>2018-08-24T08:46:15Z</time>
      </trkpt>
      <trkpt lat="45.87265" lon="4.76571">
        <ele>235</ele>
        <time>2018-08-24T08:46:16Z</time>
      </trkpt>
      <trkpt lat="45.87264" lon="4.76563">
        <ele>235</ele>
        <time>2018-08-24T08:46:17Z</time>
      </trkpt>
      <trkpt lat="45.87262" lon="4.76554">
        <ele>235</ele>
        <time>2018-08-24T08:46:18Z</time>
      </trkpt>
      <trkpt lat="45.87263" lon="4.76547">
        <ele>235</ele>
        <time>2018-08-24T08:46:19Z</time>
      </trkpt>
      <trkpt lat="45.87265" lon="4.7654">
        <ele>235</ele>
        <time>2018-08-24T08:46:20Z</time>
      </trkpt>
      <trkpt lat="45.87261" lon="4.76532">
        <ele>236</ele>
        <time>2018-08-24T08:46:21Z</time>
      </trkpt>
      <trkpt lat="45.87261" lon="4.76524">
        <ele>236</ele>
        <time>2018-08-24T08:46:22Z</time>
      </trkpt>
      <trkpt lat="45.8726" lon="4.76516">
        <ele>236</ele>
        <time>2018-08-24T08:46:23Z</time>
      </trkpt>
      <trkpt lat="45.87261" lon="4.76504">
        <ele>236</ele>
        <time>2018-08-24T08:46:25Z</time>
      </trkpt>
      <trkpt lat="45.87261" lon="4.76498">
        <ele>236</ele>
        <time>2018-08-24T08:46:26Z</time>
      </trkpt>
      <trkpt lat="45.8726" lon="4.76491">
        <ele>236</ele>
        <time>2018-08-24T08:46:27Z</time>
      </trkpt>
      <trkpt lat="45.8726" lon="4.76484">
        <ele>236</ele>
        <time>2018-08-24T08:46:28Z</time>
      </trkpt>
      <trkpt lat="45.8726" lon="4.76477">
        <ele>236</ele>
        <time>2018-08-24T08:46:29Z</time>
      </trkpt>
      <trkpt lat="45.87261" lon="4.7647">
        <ele>235</ele>
        <time>2018-08-24T08:46:30Z</time>
      </trkpt>
      <trkpt lat="45.87262" lon="4.76463">
        <ele>235</ele>
        <time>2018-08-24T08:46:31Z</time>
      </trkpt>
      <trkpt lat="45.8726" lon="4.76455">
        <ele>235</ele>
        <time>2018-08-24T08:46:32Z</time>
      </trkpt>
      <trkpt lat="45.8726" lon="4.76447">
        <ele>235</ele>
        <time>2018-08-24T08:46:33Z</time>
      </trkpt>
      <trkpt lat="45.8726" lon="4.76438">
        <ele>235</ele>
        <time>2018-08-24T08:46:34Z</time>
      </trkpt>
      <trkpt lat="45.87259" lon="4.7643">
        <ele>235</ele>
        <time>2018-08-24T08:46:35Z</time>
      </trkpt>
      <trkpt lat="45.87258" lon="4.76421">
        <ele>236</ele>
        <time>2018-08-24T08:46:36Z</time>
      </trkpt>
      <trkpt lat="45.87257" lon="4.76414">
        <ele>235</ele>
        <time>2018-08-24T08:46:37Z</time>
      </trkpt>
      <trkpt lat="45.87256" lon="4.76402">
        <ele>235</ele>
        <time>2018-08-24T08:46:38Z</time>
      </trkpt>
      <trkpt lat="45.87255" lon="4.76392">
        <ele>234</ele>
        <time>2018-08-24T08:46:39Z</time>
      </trkpt>
      <trkpt lat="45.87255" lon="4.76383">
        <ele>234</ele>
        <time>2018-08-24T08:46:40Z</time>
      </trkpt>
      <trkpt lat="45.87255" lon="4.76374">
        <ele>234</ele>
        <time>2018-08-24T08:46:41Z</time>
      </trkpt>
      <trkpt lat="45.87255" lon="4.76366">
        <ele>234</ele>
        <time>2018-08-24T08:46:42Z</time>
      </trkpt>
      <trkpt lat="45.87255" lon="4.76357">
        <ele>234</ele>
        <time>2018-08-24T08:46:43Z</time>
      </trkpt>
      <trkpt lat="45.87254" lon="4.76349">
        <ele>234</ele>
        <time>2018-08-24T08:46:44Z</time>
      </trkpt>
      <trkpt lat="45.87253" lon="4.76342">
        <ele>234</ele>
        <time>2018-08-24T08:46:45Z</time>
      </trkpt>
      <trkpt lat="45.87255" lon="4.76335">
        <ele>234</ele>
        <time>2018-08-24T08:46:46Z</time>
      </trkpt>
      <trkpt lat="45.87254" lon="4.76327">
        <ele>234</ele>
        <time>2018-08-24T08:46:47Z</time>
      </trkpt>
      <trkpt lat="45.87253" lon="4.76319">
        <ele>233</ele>
        <time>2018-08-24T08:46:48Z</time>
      </trkpt>
      <trkpt lat="45.87253" lon="4.76311">
        <ele>233</ele>
        <time>2018-08-24T08:46:49Z</time>
      </trkpt>
      <trkpt lat="45.87254" lon="4.76302">
        <ele>233</ele>
        <time>2018-08-24T08:46:50Z</time>
      </trkpt>
      <trkpt lat="45.87252" lon="4.76294">
        <ele>233</ele>
        <time>2018-08-24T08:46:51Z</time>
      </trkpt>
      <trkpt lat="45.87251" lon="4.76286">
        <ele>233</ele>
        <time>2018-08-24T08:46:52Z</time>
      </trkpt>
      <trkpt lat="45.87252" lon="4.76277">
        <ele>233</ele>
        <time>2018-08-24T08:46:53Z</time>
      </trkpt>
      <trkpt lat="45.87252" lon="4.76269">
        <ele>234</ele>
        <time>2018-08-24T08:46:54Z</time>
      </trkpt>
      <trkpt lat="45.87252" lon="4.76261">
        <ele>234</ele>
        <time>2018-08-24T08:46:55Z</time>
      </trkpt>
      <trkpt lat="45.87258" lon="4.76251">
        <ele>234</ele>
        <time>2018-08-24T08:46:56Z</time>
      </trkpt>
      <trkpt lat="45.87258" lon="4.76243">
        <ele>234</ele>
        <time>2018-08-24T08:46:57Z</time>
      </trkpt>
      <trkpt lat="45.87254" lon="4.76233">
        <ele>233</ele>
        <time>2018-08-24T08:46:58Z</time>
      </trkpt>
      <trkpt lat="45.87254" lon="4.76221">
        <ele>233</ele>
        <time>2018-08-24T08:46:59Z</time>
      </trkpt>
      <trkpt lat="45.87252" lon="4.76212">
        <ele>232</ele>
        <time>2018-08-24T08:47:00Z</time>
      </trkpt>
      <trkpt lat="45.87252" lon="4.76204">
        <ele>232</ele>
        <time>2018-08-24T08:47:01Z</time>
      </trkpt>
      <trkpt lat="45.8725" lon="4.76194">
        <ele>232</ele>
        <time>2018-08-24T08:47:02Z</time>
      </trkpt>
      <trkpt lat="45.87249" lon="4.76184">
        <ele>233</ele>
        <time>2018-08-24T08:47:03Z</time>
      </trkpt>
      <trkpt lat="45.87249" lon="4.76175">
        <ele>233</ele>
        <time>2018-08-24T08:47:04Z</time>
      </trkpt>
      <trkpt lat="45.87249" lon="4.76166">
        <ele>232</ele>
        <time>2018-08-24T08:47:05Z</time>
      </trkpt>
      <trkpt lat="45.87248" lon="4.76158">
        <ele>232</ele>
        <time>2018-08-24T08:47:06Z</time>
      </trkpt>
      <trkpt lat="45.87248" lon="4.76148">
        <ele>232</ele>
        <time>2018-08-24T08:47:07Z</time>
      </trkpt>
      <trkpt lat="45.87248" lon="4.7614">
        <ele>232</ele>
        <time>2018-08-24T08:47:08Z</time>
      </trkpt>
      <trkpt lat="45.87247" lon="4.76131">
        <ele>232</ele>
        <time>2018-08-24T08:47:09Z</time>
      </trkpt>
      <trkpt lat="45.87249" lon="4.76123">
        <ele>232</ele>
        <time>2018-08-24T08:47:10Z</time>
      </trkpt>
      <trkpt lat="45.87248" lon="4.76114">
        <ele>232</ele>
        <time>2018-08-24T08:47:11Z</time>
      </trkpt>
      <trkpt lat="45.87248" lon="4.76104">
        <ele>231</ele>
        <time>2018-08-24T08:47:12Z</time>
      </trkpt>
      <trkpt lat="45.87245" lon="4.76091">
        <ele>231</ele>
        <time>2018-08-24T08:47:13Z</time>
      </trkpt>
      <trkpt lat="45.87245" lon="4.76081">
        <ele>230</ele>
        <time>2018-08-24T08:47:14Z</time>
      </trkpt>
      <trkpt lat="45.87243" lon="4.76071">
        <ele>230</ele>
        <time>2018-08-24T08:47:15Z</time>
      </trkpt>
      <trkpt lat="45.87243" lon="4.76062">
        <ele>230</ele>
        <time>2018-08-24T08:47:16Z</time>
      </trkpt>
      <trkpt lat="45.87242" lon="4.76052">
        <ele>230</ele>
        <time>2018-08-24T08:47:17Z</time>
      </trkpt>
      <trkpt lat="45.87242" lon="4.76043">
        <ele>230</ele>
        <time>2018-08-24T08:47:18Z</time>
      </trkpt>
      <trkpt lat="45.87243" lon="4.76034">
        <ele>230</ele>
        <time>2018-08-24T08:47:19Z</time>
      </trkpt>
      <trkpt lat="45.87243" lon="4.76025">
        <ele>230</ele>
        <time>2018-08-24T08:47:20Z</time>
      </trkpt>
      <trkpt lat="45.87242" lon="4.76015">
        <ele>229</ele>
        <time>2018-08-24T08:47:21Z</time>
      </trkpt>
      <trkpt lat="45.87241" lon="4.76005">
        <ele>229</ele>
        <time>2018-08-24T08:47:22Z</time>
      </trkpt>
      <trkpt lat="45.8724" lon="4.75995">
        <ele>228</ele>
        <time>2018-08-24T08:47:23Z</time>
      </trkpt>
      <trkpt lat="45.87239" lon="4.75984">
        <ele>228</ele>
        <time>2018-08-24T08:47:24Z</time>
      </trkpt>
      <trkpt lat="45.87235" lon="4.75977">
        <ele>228</ele>
        <time>2018-08-24T08:47:25Z</time>
      </trkpt>
      <trkpt lat="45.87235" lon="4.75966">
        <ele>228</ele>
        <time>2018-08-24T08:47:26Z</time>
      </trkpt>
      <trkpt lat="45.87233" lon="4.75955">
        <ele>228</ele>
        <time>2018-08-24T08:47:27Z</time>
      </trkpt>
      <trkpt lat="45.87232" lon="4.75944">
        <ele>228</ele>
        <time>2018-08-24T08:47:28Z</time>
      </trkpt>
      <trkpt lat="45.8723" lon="4.75936">
        <ele>228</ele>
        <time>2018-08-24T08:47:29Z</time>
      </trkpt>
      <trkpt lat="45.87229" lon="4.75925">
        <ele>228</ele>
        <time>2018-08-24T08:47:30Z</time>
      </trkpt>
      <trkpt lat="45.87224" lon="4.75915">
        <ele>227</ele>
        <time>2018-08-24T08:47:31Z</time>
      </trkpt>
      <trkpt lat="45.87223" lon="4.75905">
        <ele>227</ele>
        <time>2018-08-24T08:47:32Z</time>
      </trkpt>
      <trkpt lat="45.87222" lon="4.75894">
        <ele>227</ele>
        <time>2018-08-24T08:47:33Z</time>
      </trkpt>
      <trkpt lat="45.87222" lon="4.75883">
        <ele>226</ele>
        <time>2018-08-24T08:47:34Z</time>
      </trkpt>
      <trkpt lat="45.8722" lon="4.75872">
        <ele>226</ele>
        <time>2018-08-24T08:47:35Z</time>
      </trkpt>
      <trkpt lat="45.87215" lon="4.75859">
        <ele>226</ele>
        <time>2018-08-24T08:47:36Z</time>
      </trkpt>
      <trkpt lat="45.87214" lon="4.75847">
        <ele>226</ele>
        <time>2018-08-24T08:47:37Z</time>
      </trkpt>
      <trkpt lat="45.87212" lon="4.75835">
        <ele>226</ele>
        <time>2018-08-24T08:47:38Z</time>
      </trkpt>
      <trkpt lat="45.8721" lon="4.75824">
        <ele>225</ele>
        <time>2018-08-24T08:47:39Z</time>
      </trkpt>
      <trkpt lat="45.87208" lon="4.75813">
        <ele>225</ele>
        <time>2018-08-24T08:47:40Z</time>
      </trkpt>
      <trkpt lat="45.87207" lon="4.75802">
        <ele>224</ele>
        <time>2018-08-24T08:47:41Z</time>
      </trkpt>
      <trkpt lat="45.87205" lon="4.75792">
        <ele>224</ele>
        <time>2018-08-24T08:47:42Z</time>
      </trkpt>
      <trkpt lat="45.87203" lon="4.75783">
        <ele>224</ele>
        <time>2018-08-24T08:47:43Z</time>
      </trkpt>
      <trkpt lat="45.87201" lon="4.75773">
        <ele>224</ele>
        <time>2018-08-24T08:47:44Z</time>
      </trkpt>
      <trkpt lat="45.87197" lon="4.75762">
        <ele>224</ele>
        <time>2018-08-24T08:47:45Z</time>
      </trkpt>
      <trkpt lat="45.87193" lon="4.75754">
        <ele>224</ele>
        <time>2018-08-24T08:47:46Z</time>
      </trkpt>
      <trkpt lat="45.87191" lon="4.75741">
        <ele>223</ele>
        <time>2018-08-24T08:47:47Z</time>
      </trkpt>
      <trkpt lat="45.87188" lon="4.75731">
        <ele>223</ele>
        <time>2018-08-24T08:47:48Z</time>
      </trkpt>
      <trkpt lat="45.87183" lon="4.75721">
        <ele>223</ele>
        <time>2018-08-24T08:47:49Z</time>
      </trkpt>
      <trkpt lat="45.87181" lon="4.75713">
        <ele>223</ele>
        <time>2018-08-24T08:47:50Z</time>
      </trkpt>
      <trkpt lat="45.87177" lon="4.75703">
        <ele>223</ele>
        <time>2018-08-24T08:47:51Z</time>
      </trkpt>
      <trkpt lat="45.87175" lon="4.75694">
        <ele>223</ele>
        <time>2018-08-24T08:47:52Z</time>
      </trkpt>
      <trkpt lat="45.87176" lon="4.75684">
        <ele>223</ele>
        <time>2018-08-24T08:47:53Z</time>
      </trkpt>
      <trkpt lat="45.87175" lon="4.75675">
        <ele>223</ele>
        <time>2018-08-24T08:47:54Z</time>
      </trkpt>
      <trkpt lat="45.87175" lon="4.75665">
        <ele>223</ele>
        <time>2018-08-24T08:47:55Z</time>
      </trkpt>
      <trkpt lat="45.87172" lon="4.75658">
        <ele>223</ele>
        <time>2018-08-24T08:47:56Z</time>
      </trkpt>
      <trkpt lat="45.87169" lon="4.75647">
        <ele>222</ele>
        <time>2018-08-24T08:47:57Z</time>
      </trkpt>
      <trkpt lat="45.87171" lon="4.7564">
        <ele>222</ele>
        <time>2018-08-24T08:47:58Z</time>
      </trkpt>
      <trkpt lat="45.87173" lon="4.75631">
        <ele>222</ele>
        <time>2018-08-24T08:47:59Z</time>
      </trkpt>
      <trkpt lat="45.87174" lon="4.75623">
        <ele>222</ele>
        <time>2018-08-24T08:48:00Z</time>
      </trkpt>
      <trkpt lat="45.87175" lon="4.75613">
        <ele>222</ele>
        <time>2018-08-24T08:48:01Z</time>
      </trkpt>
      <trkpt lat="45.87175" lon="4.75604">
        <ele>222</ele>
        <time>2018-08-24T08:48:02Z</time>
      </trkpt>
      <trkpt lat="45.87176" lon="4.75594">
        <ele>222</ele>
        <time>2018-08-24T08:48:03Z</time>
      </trkpt>
      <trkpt lat="45.87176" lon="4.75587">
        <ele>223</ele>
        <time>2018-08-24T08:48:04Z</time>
      </trkpt>
      <trkpt lat="45.87176" lon="4.7558">
        <ele>223</ele>
        <time>2018-08-24T08:48:05Z</time>
      </trkpt>
      <trkpt lat="45.87177" lon="4.75571">
        <ele>222</ele>
        <time>2018-08-24T08:48:06Z</time>
      </trkpt>
      <trkpt lat="45.87176" lon="4.75562">
        <ele>222</ele>
        <time>2018-08-24T08:48:07Z</time>
      </trkpt>
      <trkpt lat="45.87177" lon="4.75553">
        <ele>222</ele>
        <time>2018-08-24T08:48:08Z</time>
      </trkpt>
      <trkpt lat="45.87178" lon="4.75545">
        <ele>222</ele>
        <time>2018-08-24T08:48:09Z</time>
      </trkpt>
      <trkpt lat="45.87178" lon="4.75535">
        <ele>222</ele>
        <time>2018-08-24T08:48:10Z</time>
      </trkpt>
      <trkpt lat="45.87177" lon="4.75525">
        <ele>222</ele>
        <time>2018-08-24T08:48:11Z</time>
      </trkpt>
      <trkpt lat="45.87177" lon="4.75516">
        <ele>222</ele>
        <time>2018-08-24T08:48:12Z</time>
      </trkpt>
      <trkpt lat="45.87178" lon="4.75508">
        <ele>222</ele>
        <time>2018-08-24T08:48:13Z</time>
      </trkpt>
      <trkpt lat="45.87178" lon="4.755">
        <ele>223</ele>
        <time>2018-08-24T08:48:14Z</time>
      </trkpt>
      <trkpt lat="45.87177" lon="4.75491">
        <ele>223</ele>
        <time>2018-08-24T08:48:15Z</time>
      </trkpt>
      <trkpt lat="45.87176" lon="4.75482">
        <ele>222</ele>
        <time>2018-08-24T08:48:16Z</time>
      </trkpt>
      <trkpt lat="45.87176" lon="4.75475">
        <ele>222</ele>
        <time>2018-08-24T08:48:17Z</time>
      </trkpt>
      <trkpt lat="45.87176" lon="4.75468">
        <ele>222</ele>
        <time>2018-08-24T08:48:18Z</time>
      </trkpt>
      <trkpt lat="45.87175" lon="4.75461">
        <ele>222</ele>
        <time>2018-08-24T08:48:19Z</time>
      </trkpt>
      <trkpt lat="45.87175" lon="4.75454">
        <ele>222</ele>
        <time>2018-08-24T08:48:20Z</time>
      </trkpt>
      <trkpt lat="45.87176" lon="4.75445">
        <ele>222</ele>
        <time>2018-08-24T08:48:21Z</time>
      </trkpt>
      <trkpt lat="45.87176" lon="4.75438">
        <ele>222</ele>
        <time>2018-08-24T08:48:22Z</time>
      </trkpt>
      <trkpt lat="45.87176" lon="4.75431">
        <ele>223</ele>
        <time>2018-08-24T08:48:23Z</time>
      </trkpt>
      <trkpt lat="45.87176" lon="4.75424">
        <ele>223</ele>
        <time>2018-08-24T08:48:24Z</time>
      </trkpt>
      <trkpt lat="45.87175" lon="4.75416">
        <ele>223</ele>
        <time>2018-08-24T08:48:25Z</time>
      </trkpt>
      <trkpt lat="45.87176" lon="4.75408">
        <ele>223</ele>
        <time>2018-08-24T08:48:26Z</time>
      </trkpt>
      <trkpt lat="45.87175" lon="4.75402">
        <ele>223</ele>
        <time>2018-08-24T08:48:27Z</time>
      </trkpt>
      <trkpt lat="45.87176" lon="4.75394">
        <ele>223</ele>
        <time>2018-08-24T08:48:28Z</time>
      </trkpt>
      <trkpt lat="45.87176" lon="4.75386">
        <ele>223</ele>
        <time>2018-08-24T08:48:29Z</time>
      </trkpt>
      <trkpt lat="45.87175" lon="4.75378">
        <ele>223</ele>
        <time>2018-08-24T08:48:30Z</time>
      </trkpt>
      <trkpt lat="45.87174" lon="4.75371">
        <ele>223</ele>
        <time>2018-08-24T08:48:31Z</time>
      </trkpt>
      <trkpt lat="45.87174" lon="4.75363">
        <ele>223</ele>
        <time>2018-08-24T08:48:32Z</time>
      </trkpt>
      <trkpt lat="45.87174" lon="4.75357">
        <ele>223</ele>
        <time>2018-08-24T08:48:33Z</time>
      </trkpt>
      <trkpt lat="45.87174" lon="4.75349">
        <ele>223</ele>
        <time>2018-08-24T08:48:34Z</time>
      </trkpt>
      <trkpt lat="45.87175" lon="4.75342">
        <ele>223</ele>
        <time>2018-08-24T08:48:35Z</time>
      </trkpt>
      <trkpt lat="45.87173" lon="4.75335">
        <ele>224</ele>
        <time>2018-08-24T08:48:36Z</time>
      </trkpt>
      <trkpt lat="45.87172" lon="4.75328">
        <ele>224</ele>
        <time>2018-08-24T08:48:37Z</time>
      </trkpt>
      <trkpt lat="45.87172" lon="4.75321">
        <ele>223</ele>
        <time>2018-08-24T08:48:38Z</time>
      </trkpt>
      <trkpt lat="45.87172" lon="4.75313">
        <ele>223</ele>
        <time>2018-08-24T08:48:39Z</time>
      </trkpt>
      <trkpt lat="45.87171" lon="4.75301">
        <ele>223</ele>
        <time>2018-08-24T08:48:41Z</time>
      </trkpt>
      <trkpt lat="45.87171" lon="4.75295">
        <ele>223</ele>
        <time>2018-08-24T08:48:42Z</time>
      </trkpt>
      <trkpt lat="45.87169" lon="4.75282">
        <ele>223</ele>
        <time>2018-08-24T08:48:44Z</time>
      </trkpt>
      <trkpt lat="45.87168" lon="4.75275">
        <ele>223</ele>
        <time>2018-08-24T08:48:45Z</time>
      </trkpt>
      <trkpt lat="45.87167" lon="4.75268">
        <ele>223</ele>
        <time>2018-08-24T08:48:46Z</time>
      </trkpt>
      <trkpt lat="45.87166" lon="4.75262">
        <ele>224</ele>
        <time>2018-08-24T08:48:47Z</time>
      </trkpt>
      <trkpt lat="45.87165" lon="4.75256">
        <ele>223</ele>
        <time>2018-08-24T08:48:48Z</time>
      </trkpt>
      <trkpt lat="45.87165" lon="4.75248">
        <ele>223</ele>
        <time>2018-08-24T08:48:49Z</time>
      </trkpt>
      <trkpt lat="45.87164" lon="4.7524">
        <ele>224</ele>
        <time>2018-08-24T08:48:50Z</time>
      </trkpt>
      <trkpt lat="45.87162" lon="4.75234">
        <ele>224</ele>
        <time>2018-08-24T08:48:51Z</time>
      </trkpt>
      <trkpt lat="45.8716" lon="4.75227">
        <ele>224</ele>
        <time>2018-08-24T08:48:52Z</time>
      </trkpt>
      <trkpt lat="45.87158" lon="4.7522">
        <ele>225</ele>
        <time>2018-08-24T08:48:53Z</time>
      </trkpt>
      <trkpt lat="45.87157" lon="4.75212">
        <ele>225</ele>
        <time>2018-08-24T08:48:54Z</time>
      </trkpt>
      <trkpt lat="45.87155" lon="4.75205">
        <ele>225</ele>
        <time>2018-08-24T08:48:55Z</time>
      </trkpt>
      <trkpt lat="45.87153" lon="4.75198">
        <ele>225</ele>
        <time>2018-08-24T08:48:56Z</time>
      </trkpt>
      <trkpt lat="45.87151" lon="4.75192">
        <ele>225</ele>
        <time>2018-08-24T08:48:57Z</time>
      </trkpt>
      <trkpt lat="45.87147" lon="4.75185">
        <ele>225</ele>
        <time>2018-08-24T08:48:58Z</time>
      </trkpt>
      <trkpt lat="45.87145" lon="4.75178">
        <ele>225</ele>
        <time>2018-08-24T08:48:59Z</time>
      </trkpt>
      <trkpt lat="45.87144" lon="4.7517">
        <ele>225</ele>
        <time>2018-08-24T08:49:00Z</time>
      </trkpt>
      <trkpt lat="45.87141" lon="4.75164">
        <ele>225</ele>
        <time>2018-08-24T08:49:01Z</time>
      </trkpt>
      <trkpt lat="45.8714" lon="4.75155">
        <ele>225</ele>
        <time>2018-08-24T08:49:02Z</time>
      </trkpt>
      <trkpt lat="45.87138" lon="4.75147">
        <ele>225</ele>
        <time>2018-08-24T08:49:03Z</time>
      </trkpt>
      <trkpt lat="45.87137" lon="4.75139">
        <ele>225</ele>
        <time>2018-08-24T08:49:04Z</time>
      </trkpt>
      <trkpt lat="45.87136" lon="4.75131">
        <ele>225</ele>
        <time>2018-08-24T08:49:05Z</time>
      </trkpt>
      <trkpt lat="45.87135" lon="4.75121">
        <ele>225</ele>
        <time>2018-08-24T08:49:06Z</time>
      </trkpt>
      <trkpt lat="45.87134" lon="4.75114">
        <ele>225</ele>
        <time>2018-08-24T08:49:07Z</time>
      </trkpt>
      <trkpt lat="45.87134" lon="4.75107">
        <ele>225</ele>
        <time>2018-08-24T08:49:08Z</time>
      </trkpt>
      <trkpt lat="45.87133" lon="4.751">
        <ele>225</ele>
        <time>2018-08-24T08:49:09Z</time>
      </trkpt>
      <trkpt lat="45.87131" lon="4.75093">
        <ele>225</ele>
        <time>2018-08-24T08:49:10Z</time>
      </trkpt>
      <trkpt lat="45.87133" lon="4.75086">
        <ele>225</ele>
        <time>2018-08-24T08:49:11Z</time>
      </trkpt>
      <trkpt lat="45.87131" lon="4.75075">
        <ele>225</ele>
        <time>2018-08-24T08:49:13Z</time>
      </trkpt>
      <trkpt lat="45.8713" lon="4.75068">
        <ele>225</ele>
        <time>2018-08-24T08:49:14Z</time>
      </trkpt>
      <trkpt lat="45.87129" lon="4.75055">
        <ele>225</ele>
        <time>2018-08-24T08:49:16Z</time>
      </trkpt>
      <trkpt lat="45.87127" lon="4.75046">
        <ele>225</ele>
        <time>2018-08-24T08:49:17Z</time>
      </trkpt>
      <trkpt lat="45.87129" lon="4.75038">
        <ele>225</ele>
        <time>2018-08-24T08:49:18Z</time>
      </trkpt>
      <trkpt lat="45.87128" lon="4.7503">
        <ele>226</ele>
        <time>2018-08-24T08:49:19Z</time>
      </trkpt>
      <trkpt lat="45.87127" lon="4.75022">
        <ele>226</ele>
        <time>2018-08-24T08:49:20Z</time>
      </trkpt>
      <trkpt lat="45.87127" lon="4.75014">
        <ele>226</ele>
        <time>2018-08-24T08:49:21Z</time>
      </trkpt>
      <trkpt lat="45.87127" lon="4.75005">
        <ele>226</ele>
        <time>2018-08-24T08:49:22Z</time>
      </trkpt>
      <trkpt lat="45.87129" lon="4.74998">
        <ele>226</ele>
        <time>2018-08-24T08:49:23Z</time>
      </trkpt>
      <trkpt lat="45.8713" lon="4.74991">
        <ele>226</ele>
        <time>2018-08-24T08:49:24Z</time>
      </trkpt>
      <trkpt lat="45.87131" lon="4.74983">
        <ele>226</ele>
        <time>2018-08-24T08:49:25Z</time>
      </trkpt>
      <trkpt lat="45.87131" lon="4.74975">
        <ele>226</ele>
        <time>2018-08-24T08:49:26Z</time>
      </trkpt>
      <trkpt lat="45.87133" lon="4.7497">
        <ele>226</ele>
        <time>2018-08-24T08:49:27Z</time>
      </trkpt>
      <trkpt lat="45.87134" lon="4.74964">
        <ele>226</ele>
        <time>2018-08-24T08:49:28Z</time>
      </trkpt>
      <trkpt lat="45.87134" lon="4.74955">
        <ele>226</ele>
        <time>2018-08-24T08:49:29Z</time>
      </trkpt>
      <trkpt lat="45.87136" lon="4.74948">
        <ele>226</ele>
        <time>2018-08-24T08:49:30Z</time>
      </trkpt>
      <trkpt lat="45.8714" lon="4.74942">
        <ele>226</ele>
        <time>2018-08-24T08:49:31Z</time>
      </trkpt>
      <trkpt lat="45.87143" lon="4.74936">
        <ele>226</ele>
        <time>2018-08-24T08:49:32Z</time>
      </trkpt>
      <trkpt lat="45.87146" lon="4.7493">
        <ele>226</ele>
        <time>2018-08-24T08:49:33Z</time>
      </trkpt>
      <trkpt lat="45.87146" lon="4.74917">
        <ele>226</ele>
        <time>2018-08-24T08:49:34Z</time>
      </trkpt>
      <trkpt lat="45.87144" lon="4.74909">
        <ele>225</ele>
        <time>2018-08-24T08:49:35Z</time>
      </trkpt>
      <trkpt lat="45.87142" lon="4.749">
        <ele>225</ele>
        <time>2018-08-24T08:49:36Z</time>
      </trkpt>
      <trkpt lat="45.8714" lon="4.74893">
        <ele>225</ele>
        <time>2018-08-24T08:49:37Z</time>
      </trkpt>
      <trkpt lat="45.87137" lon="4.74887">
        <ele>225</ele>
        <time>2018-08-24T08:49:38Z</time>
      </trkpt>
      <trkpt lat="45.87136" lon="4.74879">
        <ele>225</ele>
        <time>2018-08-24T08:49:39Z</time>
      </trkpt>
      <trkpt lat="45.87134" lon="4.74872">
        <ele>225</ele>
        <time>2018-08-24T08:49:40Z</time>
      </trkpt>
      <trkpt lat="45.87134" lon="4.74867">
        <ele>225</ele>
        <time>2018-08-24T08:49:41Z</time>
      </trkpt>
      <trkpt lat="45.87133" lon="4.74855">
        <ele>224</ele>
        <time>2018-08-24T08:49:42Z</time>
      </trkpt>
      <trkpt lat="45.87133" lon="4.74847">
        <ele>224</ele>
        <time>2018-08-24T08:49:43Z</time>
      </trkpt>
      <trkpt lat="45.87134" lon="4.74835">
        <ele>224</ele>
        <time>2018-08-24T08:49:45Z</time>
      </trkpt>
      <trkpt lat="45.87135" lon="4.74825">
        <ele>223</ele>
        <time>2018-08-24T08:49:46Z</time>
      </trkpt>
      <trkpt lat="45.87134" lon="4.74817">
        <ele>223</ele>
        <time>2018-08-24T08:49:47Z</time>
      </trkpt>
      <trkpt lat="45.87134" lon="4.74808">
        <ele>222</ele>
        <time>2018-08-24T08:49:48Z</time>
      </trkpt>
      <trkpt lat="45.87134" lon="4.74799">
        <ele>222</ele>
        <time>2018-08-24T08:49:49Z</time>
      </trkpt>
      <trkpt lat="45.87135" lon="4.74791">
        <ele>222</ele>
        <time>2018-08-24T08:49:50Z</time>
      </trkpt>
      <trkpt lat="45.87133" lon="4.74783">
        <ele>222</ele>
        <time>2018-08-24T08:49:51Z</time>
      </trkpt>
      <trkpt lat="45.87132" lon="4.74775">
        <ele>222</ele>
        <time>2018-08-24T08:49:52Z</time>
      </trkpt>
      <trkpt lat="45.87131" lon="4.74765">
        <ele>222</ele>
        <time>2018-08-24T08:49:53Z</time>
      </trkpt>
      <trkpt lat="45.87131" lon="4.74756">
        <ele>222</ele>
        <time>2018-08-24T08:49:54Z</time>
      </trkpt>
      <trkpt lat="45.8713" lon="4.74747">
        <ele>221</ele>
        <time>2018-08-24T08:49:55Z</time>
      </trkpt>
      <trkpt lat="45.8713" lon="4.74738">
        <ele>221</ele>
        <time>2018-08-24T08:49:56Z</time>
      </trkpt>
      <trkpt lat="45.87128" lon="4.74728">
        <ele>221</ele>
        <time>2018-08-24T08:49:57Z</time>
      </trkpt>
      <trkpt lat="45.87127" lon="4.7472">
        <ele>221</ele>
        <time>2018-08-24T08:49:58Z</time>
      </trkpt>
      <trkpt lat="45.87127" lon="4.74712">
        <ele>221</ele>
        <time>2018-08-24T08:49:59Z</time>
      </trkpt>
      <trkpt lat="45.87127" lon="4.74703">
        <ele>221</ele>
        <time>2018-08-24T08:50:00Z</time>
      </trkpt>
      <trkpt lat="45.87127" lon="4.74694">
        <ele>221</ele>
        <time>2018-08-24T08:50:01Z</time>
      </trkpt>
      <trkpt lat="45.87127" lon="4.74686">
        <ele>221</ele>
        <time>2018-08-24T08:50:02Z</time>
      </trkpt>
      <trkpt lat="45.87126" lon="4.74678">
        <ele>221</ele>
        <time>2018-08-24T08:50:03Z</time>
      </trkpt>
      <trkpt lat="45.87125" lon="4.74669">
        <ele>221</ele>
        <time>2018-08-24T08:50:04Z</time>
      </trkpt>
      <trkpt lat="45.87124" lon="4.74662">
        <ele>222</ele>
        <time>2018-08-24T08:50:05Z</time>
      </trkpt>
      <trkpt lat="45.87122" lon="4.74649">
        <ele>222</ele>
        <time>2018-08-24T08:50:06Z</time>
      </trkpt>
      <trkpt lat="45.87122" lon="4.74641">
        <ele>222</ele>
        <time>2018-08-24T08:50:07Z</time>
      </trkpt>
      <trkpt lat="45.87122" lon="4.74633">
        <ele>222</ele>
        <time>2018-08-24T08:50:08Z</time>
      </trkpt>
      <trkpt lat="45.87123" lon="4.74625">
        <ele>222</ele>
        <time>2018-08-24T08:50:09Z</time>
      </trkpt>
      <trkpt lat="45.87122" lon="4.74616">
        <ele>222</ele>
        <time>2018-08-24T08:50:10Z</time>
      </trkpt>
      <trkpt lat="45.87121" lon="4.74608">
        <ele>222</ele>
        <time>2018-08-24T08:50:11Z</time>
      </trkpt>
      <trkpt lat="45.87119" lon="4.74599">
        <ele>222</ele>
        <time>2018-08-24T08:50:12Z</time>
      </trkpt>
      <trkpt lat="45.87119" lon="4.74591">
        <ele>222</ele>
        <time>2018-08-24T08:50:13Z</time>
      </trkpt>
      <trkpt lat="45.87118" lon="4.74585">
        <ele>222</ele>
        <time>2018-08-24T08:50:14Z</time>
      </trkpt>
      <trkpt lat="45.87116" lon="4.74577">
        <ele>220</ele>
        <time>2018-08-24T08:50:15Z</time>
      </trkpt>
      <trkpt lat="45.87116" lon="4.74571">
        <ele>220</ele>
        <time>2018-08-24T08:50:16Z</time>
      </trkpt>
      <trkpt lat="45.87112" lon="4.7456">
        <ele>220</ele>
        <time>2018-08-24T08:50:18Z</time>
      </trkpt>
      <trkpt lat="45.8711" lon="4.74554">
        <ele>220</ele>
        <time>2018-08-24T08:50:19Z</time>
      </trkpt>
      <trkpt lat="45.87108" lon="4.74545">
        <ele>220</ele>
        <time>2018-08-24T08:50:22Z</time>
      </trkpt>
      <trkpt lat="45.87109" lon="4.74533">
        <ele>220</ele>
        <time>2018-08-24T08:50:23Z</time>
      </trkpt>
      <trkpt lat="45.87115" lon="4.74524">
        <ele>219</ele>
        <time>2018-08-24T08:50:25Z</time>
      </trkpt>
      <trkpt lat="45.87118" lon="4.74519">
        <ele>219</ele>
        <time>2018-08-24T08:50:26Z</time>
      </trkpt>
      <trkpt lat="45.87121" lon="4.74508">
        <ele>219</ele>
        <time>2018-08-24T08:50:28Z</time>
      </trkpt>
      <trkpt lat="45.87121" lon="4.74501">
        <ele>219</ele>
        <time>2018-08-24T08:50:29Z</time>
      </trkpt>
      <trkpt lat="45.8712" lon="4.74494">
        <ele>218</ele>
        <time>2018-08-24T08:50:30Z</time>
      </trkpt>
      <trkpt lat="45.87118" lon="4.74487">
        <ele>218</ele>
        <time>2018-08-24T08:50:31Z</time>
      </trkpt>
      <trkpt lat="45.87119" lon="4.7448">
        <ele>218</ele>
        <time>2018-08-24T08:50:32Z</time>
      </trkpt>
      <trkpt lat="45.87113" lon="4.74472">
        <ele>218</ele>
        <time>2018-08-24T08:50:33Z</time>
      </trkpt>
      <trkpt lat="45.8711" lon="4.74464">
        <ele>218</ele>
        <time>2018-08-24T08:50:34Z</time>
      </trkpt>
      <trkpt lat="45.87108" lon="4.74454">
        <ele>218</ele>
        <time>2018-08-24T08:50:35Z</time>
      </trkpt>
      <trkpt lat="45.87105" lon="4.74445">
        <ele>218</ele>
        <time>2018-08-24T08:50:36Z</time>
      </trkpt>
      <trkpt lat="45.87103" lon="4.74437">
        <ele>218</ele>
        <time>2018-08-24T08:50:37Z</time>
      </trkpt>
      <trkpt lat="45.87101" lon="4.74428">
        <ele>218</ele>
        <time>2018-08-24T08:50:38Z</time>
      </trkpt>
      <trkpt lat="45.871" lon="4.7442">
        <ele>218</ele>
        <time>2018-08-24T08:50:39Z</time>
      </trkpt>
      <trkpt lat="45.87098" lon="4.74411">
        <ele>218</ele>
        <time>2018-08-24T08:50:40Z</time>
      </trkpt>
      <trkpt lat="45.87096" lon="4.74404">
        <ele>218</ele>
        <time>2018-08-24T08:50:41Z</time>
      </trkpt>
      <trkpt lat="45.87095" lon="4.74396">
        <ele>218</ele>
        <time>2018-08-24T08:50:42Z</time>
      </trkpt>
      <trkpt lat="45.87094" lon="4.74389">
        <ele>218</ele>
        <time>2018-08-24T08:50:43Z</time>
      </trkpt>
      <trkpt lat="45.87093" lon="4.7438">
        <ele>218</ele>
        <time>2018-08-24T08:50:44Z</time>
      </trkpt>
      <trkpt lat="45.87091" lon="4.74371">
        <ele>218</ele>
        <time>2018-08-24T08:50:45Z</time>
      </trkpt>
      <trkpt lat="45.87089" lon="4.74363">
        <ele>218</ele>
        <time>2018-08-24T08:50:46Z</time>
      </trkpt>
      <trkpt lat="45.87089" lon="4.74355">
        <ele>218</ele>
        <time>2018-08-24T08:50:47Z</time>
      </trkpt>
      <trkpt lat="45.87086" lon="4.74347">
        <ele>218</ele>
        <time>2018-08-24T08:50:48Z</time>
      </trkpt>
      <trkpt lat="45.87085" lon="4.74339">
        <ele>219</ele>
        <time>2018-08-24T08:50:49Z</time>
      </trkpt>
      <trkpt lat="45.87085" lon="4.74331">
        <ele>219</ele>
        <time>2018-08-24T08:50:50Z</time>
      </trkpt>
      <trkpt lat="45.87084" lon="4.74322">
        <ele>218</ele>
        <time>2018-08-24T08:50:51Z</time>
      </trkpt>
      <trkpt lat="45.8708" lon="4.74312">
        <ele>218</ele>
        <time>2018-08-24T08:50:52Z</time>
      </trkpt>
      <trkpt lat="45.87079" lon="4.74302">
        <ele>218</ele>
        <time>2018-08-24T08:50:53Z</time>
      </trkpt>
      <trkpt lat="45.87079" lon="4.74293">
        <ele>217</ele>
        <time>2018-08-24T08:50:54Z</time>
      </trkpt>
      <trkpt lat="45.87079" lon="4.74283">
        <ele>217</ele>
        <time>2018-08-24T08:50:55Z</time>
      </trkpt>
      <trkpt lat="45.87079" lon="4.74272">
        <ele>216</ele>
        <time>2018-08-24T08:50:56Z</time>
      </trkpt>
      <trkpt lat="45.87078" lon="4.74262">
        <ele>216</ele>
        <time>2018-08-24T08:50:57Z</time>
      </trkpt>
      <trkpt lat="45.87077" lon="4.74252">
        <ele>215</ele>
        <time>2018-08-24T08:50:58Z</time>
      </trkpt>
      <trkpt lat="45.87076" lon="4.74242">
        <ele>214</ele>
        <time>2018-08-24T08:50:59Z</time>
      </trkpt>
      <trkpt lat="45.87075" lon="4.74231">
        <ele>214</ele>
        <time>2018-08-24T08:51:00Z</time>
      </trkpt>
      <trkpt lat="45.87075" lon="4.74221">
        <ele>214</ele>
        <time>2018-08-24T08:51:01Z</time>
      </trkpt>
      <trkpt lat="45.87075" lon="4.74211">
        <ele>214</ele>
        <time>2018-08-24T08:51:02Z</time>
      </trkpt>
      <trkpt lat="45.87075" lon="4.74199">
        <ele>213</ele>
        <time>2018-08-24T08:51:03Z</time>
      </trkpt>
      <trkpt lat="45.87074" lon="4.74188">
        <ele>213</ele>
        <time>2018-08-24T08:51:04Z</time>
      </trkpt>
      <trkpt lat="45.87074" lon="4.74177">
        <ele>212</ele>
        <time>2018-08-24T08:51:05Z</time>
      </trkpt>
      <trkpt lat="45.87074" lon="4.74166">
        <ele>211</ele>
        <time>2018-08-24T08:51:06Z</time>
      </trkpt>
      <trkpt lat="45.87074" lon="4.74155">
        <ele>212</ele>
        <time>2018-08-24T08:51:07Z</time>
      </trkpt>
      <trkpt lat="45.87072" lon="4.74146">
        <ele>212</ele>
        <time>2018-08-24T08:51:08Z</time>
      </trkpt>
      <trkpt lat="45.87072" lon="4.74136">
        <ele>212</ele>
        <time>2018-08-24T08:51:09Z</time>
      </trkpt>
      <trkpt lat="45.87072" lon="4.74128">
        <ele>212</ele>
        <time>2018-08-24T08:51:10Z</time>
      </trkpt>
      <trkpt lat="45.87072" lon="4.74119">
        <ele>212</ele>
        <time>2018-08-24T08:51:11Z</time>
      </trkpt>
      <trkpt lat="45.87073" lon="4.7411">
        <ele>212</ele>
        <time>2018-08-24T08:51:12Z</time>
      </trkpt>
      <trkpt lat="45.87071" lon="4.74102">
        <ele>212</ele>
        <time>2018-08-24T08:51:13Z</time>
      </trkpt>
      <trkpt lat="45.87068" lon="4.74094">
        <ele>212</ele>
        <time>2018-08-24T08:51:14Z</time>
      </trkpt>
      <trkpt lat="45.87067" lon="4.74087">
        <ele>212</ele>
        <time>2018-08-24T08:51:15Z</time>
      </trkpt>
      <trkpt lat="45.87069" lon="4.74075">
        <ele>213</ele>
        <time>2018-08-24T08:51:17Z</time>
      </trkpt>
      <trkpt lat="45.87069" lon="4.74068">
        <ele>214</ele>
        <time>2018-08-24T08:51:18Z</time>
      </trkpt>
      <trkpt lat="45.87069" lon="4.74056">
        <ele>214</ele>
        <time>2018-08-24T08:51:20Z</time>
      </trkpt>
      <trkpt lat="45.8707" lon="4.74049">
        <ele>214</ele>
        <time>2018-08-24T08:51:21Z</time>
      </trkpt>
      <trkpt lat="45.8707" lon="4.74038">
        <ele>215</ele>
        <time>2018-08-24T08:51:23Z</time>
      </trkpt>
      <trkpt lat="45.8707" lon="4.7403">
        <ele>215</ele>
        <time>2018-08-24T08:51:24Z</time>
      </trkpt>
      <trkpt lat="45.87071" lon="4.74018">
        <ele>215</ele>
        <time>2018-08-24T08:51:26Z</time>
      </trkpt>
      <trkpt lat="45.87071" lon="4.74012">
        <ele>216</ele>
        <time>2018-08-24T08:51:27Z</time>
      </trkpt>
      <trkpt lat="45.8707" lon="4.74003">
        <ele>216</ele>
        <time>2018-08-24T08:51:29Z</time>
      </trkpt>
      <trkpt lat="45.87072" lon="4.73994">
        <ele>217</ele>
        <time>2018-08-24T08:51:30Z</time>
      </trkpt>
      <trkpt lat="45.87071" lon="4.73984">
        <ele>217</ele>
        <time>2018-08-24T08:51:33Z</time>
      </trkpt>
      <trkpt lat="45.87071" lon="4.73975">
        <ele>217</ele>
        <time>2018-08-24T08:51:34Z</time>
      </trkpt>
      <trkpt lat="45.87072" lon="4.73963">
        <ele>217</ele>
        <time>2018-08-24T08:51:36Z</time>
      </trkpt>
      <trkpt lat="45.87073" lon="4.73956">
        <ele>218</ele>
        <time>2018-08-24T08:51:37Z</time>
      </trkpt>
      <trkpt lat="45.87075" lon="4.73947">
        <ele>218</ele>
        <time>2018-08-24T08:51:38Z</time>
      </trkpt>
      <trkpt lat="45.87076" lon="4.73939">
        <ele>218</ele>
        <time>2018-08-24T08:51:39Z</time>
      </trkpt>
      <trkpt lat="45.87073" lon="4.73932">
        <ele>218</ele>
        <time>2018-08-24T08:51:40Z</time>
      </trkpt>
      <trkpt lat="45.87073" lon="4.73925">
        <ele>218</ele>
        <time>2018-08-24T08:51:41Z</time>
      </trkpt>
      <trkpt lat="45.87072" lon="4.73918">
        <ele>218</ele>
        <time>2018-08-24T08:51:42Z</time>
      </trkpt>
      <trkpt lat="45.87073" lon="4.73911">
        <ele>218</ele>
        <time>2018-08-24T08:51:43Z</time>
      </trkpt>
      <trkpt lat="45.87073" lon="4.73905">
        <ele>218</ele>
        <time>2018-08-24T08:51:44Z</time>
      </trkpt>
      <trkpt lat="45.87073" lon="4.73897">
        <ele>218</ele>
        <time>2018-08-24T08:51:45Z</time>
      </trkpt>
      <trkpt lat="45.87074" lon="4.73889">
        <ele>218</ele>
        <time>2018-08-24T08:51:46Z</time>
      </trkpt>
      <trkpt lat="45.87075" lon="4.73881">
        <ele>218</ele>
        <time>2018-08-24T08:51:47Z</time>
      </trkpt>
      <trkpt lat="45.87076" lon="4.73874">
        <ele>218</ele>
        <time>2018-08-24T08:51:48Z</time>
      </trkpt>
      <trkpt lat="45.87076" lon="4.73868">
        <ele>218</ele>
        <time>2018-08-24T08:51:49Z</time>
      </trkpt>
      <trkpt lat="45.87077" lon="4.73859">
        <ele>218</ele>
        <time>2018-08-24T08:51:50Z</time>
      </trkpt>
      <trkpt lat="45.87076" lon="4.7385">
        <ele>218</ele>
        <time>2018-08-24T08:51:51Z</time>
      </trkpt>
      <trkpt lat="45.87076" lon="4.7384">
        <ele>217</ele>
        <time>2018-08-24T08:51:52Z</time>
      </trkpt>
      <trkpt lat="45.87075" lon="4.73831">
        <ele>217</ele>
        <time>2018-08-24T08:51:53Z</time>
      </trkpt>
      <trkpt lat="45.87077" lon="4.73823">
        <ele>217</ele>
        <time>2018-08-24T08:51:54Z</time>
      </trkpt>
      <trkpt lat="45.87077" lon="4.73815">
        <ele>217</ele>
        <time>2018-08-24T08:51:55Z</time>
      </trkpt>
      <trkpt lat="45.87077" lon="4.73808">
        <ele>217</ele>
        <time>2018-08-24T08:51:56Z</time>
      </trkpt>
      <trkpt lat="45.87078" lon="4.73799">
        <ele>217</ele>
        <time>2018-08-24T08:51:57Z</time>
      </trkpt>
      <trkpt lat="45.87077" lon="4.7379">
        <ele>217</ele>
        <time>2018-08-24T08:51:58Z</time>
      </trkpt>
      <trkpt lat="45.87077" lon="4.73781">
        <ele>217</ele>
        <time>2018-08-24T08:51:59Z</time>
      </trkpt>
      <trkpt lat="45.87075" lon="4.73772">
        <ele>217</ele>
        <time>2018-08-24T08:52:00Z</time>
      </trkpt>
      <trkpt lat="45.87076" lon="4.73765">
        <ele>216</ele>
        <time>2018-08-24T08:52:01Z</time>
      </trkpt>
      <trkpt lat="45.87078" lon="4.73757">
        <ele>216</ele>
        <time>2018-08-24T08:52:02Z</time>
      </trkpt>
      <trkpt lat="45.87076" lon="4.73747">
        <ele>216</ele>
        <time>2018-08-24T08:52:03Z</time>
      </trkpt>
      <trkpt lat="45.87079" lon="4.7374">
        <ele>216</ele>
        <time>2018-08-24T08:52:04Z</time>
      </trkpt>
      <trkpt lat="45.87081" lon="4.73732">
        <ele>216</ele>
        <time>2018-08-24T08:52:05Z</time>
      </trkpt>
      <trkpt lat="45.87082" lon="4.73724">
        <ele>216</ele>
        <time>2018-08-24T08:52:06Z</time>
      </trkpt>
      <trkpt lat="45.87084" lon="4.73716">
        <ele>214</ele>
        <time>2018-08-24T08:52:07Z</time>
      </trkpt>
      <trkpt lat="45.87085" lon="4.73708">
        <ele>214</ele>
        <time>2018-08-24T08:52:08Z</time>
      </trkpt>
      <trkpt lat="45.87086" lon="4.73702">
        <ele>214</ele>
        <time>2018-08-24T08:52:09Z</time>
      </trkpt>
      <trkpt lat="45.87088" lon="4.73694">
        <ele>214</ele>
        <time>2018-08-24T08:52:10Z</time>
      </trkpt>
      <trkpt lat="45.87088" lon="4.73687">
        <ele>215</ele>
        <time>2018-08-24T08:52:11Z</time>
      </trkpt>
      <trkpt lat="45.8709" lon="4.73679">
        <ele>215</ele>
        <time>2018-08-24T08:52:12Z</time>
      </trkpt>
      <trkpt lat="45.87092" lon="4.73671">
        <ele>215</ele>
        <time>2018-08-24T08:52:13Z</time>
      </trkpt>
      <trkpt lat="45.87093" lon="4.7366">
        <ele>215</ele>
        <time>2018-08-24T08:52:14Z</time>
      </trkpt>
      <trkpt lat="45.87095" lon="4.73649">
        <ele>214</ele>
        <time>2018-08-24T08:52:15Z</time>
      </trkpt>
      <trkpt lat="45.87096" lon="4.73638">
        <ele>214</ele>
        <time>2018-08-24T08:52:16Z</time>
      </trkpt>
      <trkpt lat="45.87096" lon="4.73628">
        <ele>214</ele>
        <time>2018-08-24T08:52:17Z</time>
      </trkpt>
      <trkpt lat="45.87097" lon="4.73618">
        <ele>214</ele>
        <time>2018-08-24T08:52:18Z</time>
      </trkpt>
      <trkpt lat="45.87099" lon="4.73608">
        <ele>214</ele>
        <time>2018-08-24T08:52:19Z</time>
      </trkpt>
      <trkpt lat="45.871" lon="4.73597">
        <ele>214</ele>
        <time>2018-08-24T08:52:20Z</time>
      </trkpt>
      <trkpt lat="45.87101" lon="4.73586">
        <ele>214</ele>
        <time>2018-08-24T08:52:21Z</time>
      </trkpt>
      <trkpt lat="45.87102" lon="4.73576">
        <ele>213</ele>
        <time>2018-08-24T08:52:22Z</time>
      </trkpt>
      <trkpt lat="45.87103" lon="4.73569">
        <ele>213</ele>
        <time>2018-08-24T08:52:23Z</time>
      </trkpt>
      <trkpt lat="45.87104" lon="4.73559">
        <ele>213</ele>
        <time>2018-08-24T08:52:24Z</time>
      </trkpt>
      <trkpt lat="45.87105" lon="4.73551">
        <ele>213</ele>
        <time>2018-08-24T08:52:25Z</time>
      </trkpt>
      <trkpt lat="45.87105" lon="4.73543">
        <ele>213</ele>
        <time>2018-08-24T08:52:26Z</time>
      </trkpt>
      <trkpt lat="45.87106" lon="4.73535">
        <ele>213</ele>
        <time>2018-08-24T08:52:27Z</time>
      </trkpt>
      <trkpt lat="45.87106" lon="4.73525">
        <ele>213</ele>
        <time>2018-08-24T08:52:28Z</time>
      </trkpt>
      <trkpt lat="45.87106" lon="4.73516">
        <ele>213</ele>
        <time>2018-08-24T08:52:29Z</time>
      </trkpt>
      <trkpt lat="45.87107" lon="4.73507">
        <ele>213</ele>
        <time>2018-08-24T08:52:30Z</time>
      </trkpt>
      <trkpt lat="45.87107" lon="4.73498">
        <ele>212</ele>
        <time>2018-08-24T08:52:31Z</time>
      </trkpt>
      <trkpt lat="45.87107" lon="4.73488">
        <ele>212</ele>
        <time>2018-08-24T08:52:32Z</time>
      </trkpt>
      <trkpt lat="45.87108" lon="4.7348">
        <ele>212</ele>
        <time>2018-08-24T08:52:33Z</time>
      </trkpt>
      <trkpt lat="45.87108" lon="4.73472">
        <ele>212</ele>
        <time>2018-08-24T08:52:34Z</time>
      </trkpt>
      <trkpt lat="45.87108" lon="4.73463">
        <ele>212</ele>
        <time>2018-08-24T08:52:35Z</time>
      </trkpt>
      <trkpt lat="45.87105" lon="4.73453">
        <ele>212</ele>
        <time>2018-08-24T08:52:36Z</time>
      </trkpt>
      <trkpt lat="45.87105" lon="4.73444">
        <ele>212</ele>
        <time>2018-08-24T08:52:37Z</time>
      </trkpt>
      <trkpt lat="45.87105" lon="4.73434">
        <ele>212</ele>
        <time>2018-08-24T08:52:38Z</time>
      </trkpt>
      <trkpt lat="45.87107" lon="4.73424">
        <ele>212</ele>
        <time>2018-08-24T08:52:39Z</time>
      </trkpt>
      <trkpt lat="45.87107" lon="4.73415">
        <ele>212</ele>
        <time>2018-08-24T08:52:40Z</time>
      </trkpt>
      <trkpt lat="45.87109" lon="4.73404">
        <ele>211</ele>
        <time>2018-08-24T08:52:41Z</time>
      </trkpt>
      <trkpt lat="45.87109" lon="4.73393">
        <ele>211</ele>
        <time>2018-08-24T08:52:42Z</time>
      </trkpt>
      <trkpt lat="45.87111" lon="4.73385">
        <ele>211</ele>
        <time>2018-08-24T08:52:43Z</time>
      </trkpt>
      <trkpt lat="45.87112" lon="4.73375">
        <ele>211</ele>
        <time>2018-08-24T08:52:44Z</time>
      </trkpt>
      <trkpt lat="45.87114" lon="4.73364">
        <ele>210</ele>
        <time>2018-08-24T08:52:45Z</time>
      </trkpt>
      <trkpt lat="45.87114" lon="4.73354">
        <ele>210</ele>
        <time>2018-08-24T08:52:46Z</time>
      </trkpt>
      <trkpt lat="45.87115" lon="4.73344">
        <ele>210</ele>
        <time>2018-08-24T08:52:47Z</time>
      </trkpt>
      <trkpt lat="45.87116" lon="4.73334">
        <ele>210</ele>
        <time>2018-08-24T08:52:48Z</time>
      </trkpt>
      <trkpt lat="45.87117" lon="4.73324">
        <ele>209</ele>
        <time>2018-08-24T08:52:49Z</time>
      </trkpt>
      <trkpt lat="45.87118" lon="4.73314">
        <ele>209</ele>
        <time>2018-08-24T08:52:50Z</time>
      </trkpt>
      <trkpt lat="45.87119" lon="4.73305">
        <ele>208</ele>
        <time>2018-08-24T08:52:51Z</time>
      </trkpt>
      <trkpt lat="45.8712" lon="4.73296">
        <ele>208</ele>
        <time>2018-08-24T08:52:52Z</time>
      </trkpt>
      <trkpt lat="45.87122" lon="4.73287">
        <ele>208</ele>
        <time>2018-08-24T08:52:53Z</time>
      </trkpt>
      <trkpt lat="45.87123" lon="4.73278">
        <ele>208</ele>
        <time>2018-08-24T08:52:54Z</time>
      </trkpt>
      <trkpt lat="45.87124" lon="4.7327">
        <ele>208</ele>
        <time>2018-08-24T08:52:55Z</time>
      </trkpt>
      <trkpt lat="45.87126" lon="4.7326">
        <ele>208</ele>
        <time>2018-08-24T08:52:56Z</time>
      </trkpt>
      <trkpt lat="45.87128" lon="4.73251">
        <ele>207</ele>
        <time>2018-08-24T08:52:57Z</time>
      </trkpt>
      <trkpt lat="45.8713" lon="4.73242">
        <ele>206</ele>
        <time>2018-08-24T08:52:58Z</time>
      </trkpt>
      <trkpt lat="45.87133" lon="4.73233">
        <ele>206</ele>
        <time>2018-08-24T08:52:59Z</time>
      </trkpt>
      <trkpt lat="45.87136" lon="4.73225">
        <ele>206</ele>
        <time>2018-08-24T08:53:00Z</time>
      </trkpt>
      <trkpt lat="45.87139" lon="4.73217">
        <ele>206</ele>
        <time>2018-08-24T08:53:01Z</time>
      </trkpt>
      <trkpt lat="45.87142" lon="4.73207">
        <ele>206</ele>
        <time>2018-08-24T08:53:02Z</time>
      </trkpt>
      <trkpt lat="45.87146" lon="4.732">
        <ele>205</ele>
        <time>2018-08-24T08:53:03Z</time>
      </trkpt>
      <trkpt lat="45.87149" lon="4.7319">
        <ele>205</ele>
        <time>2018-08-24T08:53:04Z</time>
      </trkpt>
      <trkpt lat="45.87153" lon="4.73182">
        <ele>205</ele>
        <time>2018-08-24T08:53:05Z</time>
      </trkpt>
      <trkpt lat="45.87157" lon="4.73172">
        <ele>204</ele>
        <time>2018-08-24T08:53:06Z</time>
      </trkpt>
      <trkpt lat="45.87161" lon="4.73163">
        <ele>204</ele>
        <time>2018-08-24T08:53:07Z</time>
      </trkpt>
      <trkpt lat="45.87164" lon="4.73154">
        <ele>204</ele>
        <time>2018-08-24T08:53:08Z</time>
      </trkpt>
      <trkpt lat="45.87166" lon="4.73143">
        <ele>204</ele>
        <time>2018-08-24T08:53:09Z</time>
      </trkpt>
      <trkpt lat="45.87167" lon="4.73135">
        <ele>202</ele>
        <time>2018-08-24T08:53:10Z</time>
      </trkpt>
      <trkpt lat="45.87168" lon="4.73124">
        <ele>202</ele>
        <time>2018-08-24T08:53:11Z</time>
      </trkpt>
      <trkpt lat="45.87169" lon="4.73114">
        <ele>202</ele>
        <time>2018-08-24T08:53:12Z</time>
      </trkpt>
      <trkpt lat="45.87169" lon="4.73104">
        <ele>202</ele>
        <time>2018-08-24T08:53:13Z</time>
      </trkpt>
      <trkpt lat="45.87169" lon="4.73095">
        <ele>202</ele>
        <time>2018-08-24T08:53:14Z</time>
      </trkpt>
      <trkpt lat="45.8717" lon="4.73086">
        <ele>203</ele>
        <time>2018-08-24T08:53:15Z</time>
      </trkpt>
      <trkpt lat="45.8717" lon="4.73076">
        <ele>202</ele>
        <time>2018-08-24T08:53:16Z</time>
      </trkpt>
      <trkpt lat="45.8717" lon="4.73067">
        <ele>202</ele>
        <time>2018-08-24T08:53:17Z</time>
      </trkpt>
      <trkpt lat="45.8717" lon="4.73058">
        <ele>201</ele>
        <time>2018-08-24T08:53:18Z</time>
      </trkpt>
      <trkpt lat="45.8717" lon="4.73049">
        <ele>201</ele>
        <time>2018-08-24T08:53:19Z</time>
      </trkpt>
      <trkpt lat="45.8717" lon="4.7304">
        <ele>201</ele>
        <time>2018-08-24T08:53:20Z</time>
      </trkpt>
      <trkpt lat="45.87171" lon="4.7303">
        <ele>201</ele>
        <time>2018-08-24T08:53:21Z</time>
      </trkpt>
      <trkpt lat="45.8717" lon="4.73021">
        <ele>202</ele>
        <time>2018-08-24T08:53:22Z</time>
      </trkpt>
      <trkpt lat="45.8717" lon="4.73013">
        <ele>202</ele>
        <time>2018-08-24T08:53:23Z</time>
      </trkpt>
      <trkpt lat="45.87171" lon="4.73004">
        <ele>203</ele>
        <time>2018-08-24T08:53:24Z</time>
      </trkpt>
      <trkpt lat="45.8717" lon="4.72993">
        <ele>203</ele>
        <time>2018-08-24T08:53:25Z</time>
      </trkpt>
      <trkpt lat="45.87171" lon="4.72982">
        <ele>202</ele>
        <time>2018-08-24T08:53:26Z</time>
      </trkpt>
      <trkpt lat="45.87171" lon="4.72974">
        <ele>202</ele>
        <time>2018-08-24T08:53:27Z</time>
      </trkpt>
      <trkpt lat="45.8717" lon="4.72966">
        <ele>202</ele>
        <time>2018-08-24T08:53:28Z</time>
      </trkpt>
      <trkpt lat="45.87171" lon="4.72957">
        <ele>201</ele>
        <time>2018-08-24T08:53:29Z</time>
      </trkpt>
      <trkpt lat="45.87171" lon="4.72949">
        <ele>202</ele>
        <time>2018-08-24T08:53:30Z</time>
      </trkpt>
      <trkpt lat="45.8717" lon="4.7294">
        <ele>202</ele>
        <time>2018-08-24T08:53:31Z</time>
      </trkpt>
      <trkpt lat="45.87171" lon="4.72931">
        <ele>202</ele>
        <time>2018-08-24T08:53:32Z</time>
      </trkpt>
      <trkpt lat="45.87171" lon="4.72924">
        <ele>203</ele>
        <time>2018-08-24T08:53:33Z</time>
      </trkpt>
      <trkpt lat="45.87172" lon="4.72916">
        <ele>203</ele>
        <time>2018-08-24T08:53:34Z</time>
      </trkpt>
      <trkpt lat="45.87171" lon="4.72906">
        <ele>202</ele>
        <time>2018-08-24T08:53:35Z</time>
      </trkpt>
      <trkpt lat="45.87172" lon="4.72898">
        <ele>201</ele>
        <time>2018-08-24T08:53:36Z</time>
      </trkpt>
      <trkpt lat="45.87173" lon="4.72889">
        <ele>201</ele>
        <time>2018-08-24T08:53:37Z</time>
      </trkpt>
      <trkpt lat="45.87173" lon="4.72878">
        <ele>200</ele>
        <time>2018-08-24T08:53:38Z</time>
      </trkpt>
      <trkpt lat="45.87173" lon="4.72868">
        <ele>200</ele>
        <time>2018-08-24T08:53:39Z</time>
      </trkpt>
      <trkpt lat="45.87173" lon="4.72859">
        <ele>200</ele>
        <time>2018-08-24T08:53:40Z</time>
      </trkpt>
      <trkpt lat="45.87172" lon="4.72849">
        <ele>201</ele>
        <time>2018-08-24T08:53:41Z</time>
      </trkpt>
      <trkpt lat="45.87173" lon="4.7284">
        <ele>201</ele>
        <time>2018-08-24T08:53:42Z</time>
      </trkpt>
      <trkpt lat="45.87172" lon="4.7283">
        <ele>201</ele>
        <time>2018-08-24T08:53:43Z</time>
      </trkpt>
      <trkpt lat="45.87171" lon="4.72819">
        <ele>200</ele>
        <time>2018-08-24T08:53:44Z</time>
      </trkpt>
      <trkpt lat="45.87172" lon="4.72808">
        <ele>200</ele>
        <time>2018-08-24T08:53:45Z</time>
      </trkpt>
      <trkpt lat="45.87171" lon="4.72798">
        <ele>199</ele>
        <time>2018-08-24T08:53:46Z</time>
      </trkpt>
      <trkpt lat="45.87171" lon="4.72789">
        <ele>199</ele>
        <time>2018-08-24T08:53:47Z</time>
      </trkpt>
      <trkpt lat="45.87171" lon="4.72777">
        <ele>199</ele>
        <time>2018-08-24T08:53:48Z</time>
      </trkpt>
      <trkpt lat="45.8717" lon="4.72765">
        <ele>200</ele>
        <time>2018-08-24T08:53:49Z</time>
      </trkpt>
      <trkpt lat="45.87169" lon="4.72753">
        <ele>201</ele>
        <time>2018-08-24T08:53:50Z</time>
      </trkpt>
      <trkpt lat="45.87173" lon="4.72744">
        <ele>200</ele>
        <time>2018-08-24T08:53:51Z</time>
      </trkpt>
      <trkpt lat="45.87177" lon="4.72734">
        <ele>200</ele>
        <time>2018-08-24T08:53:52Z</time>
      </trkpt>
      <trkpt lat="45.87182" lon="4.72726">
        <ele>199</ele>
        <time>2018-08-24T08:53:53Z</time>
      </trkpt>
      <trkpt lat="45.87186" lon="4.72718">
        <ele>199</ele>
        <time>2018-08-24T08:53:54Z</time>
      </trkpt>
      <trkpt lat="45.87186" lon="4.72702">
        <ele>199</ele>
        <time>2018-08-24T08:53:55Z</time>
      </trkpt>
      <trkpt lat="45.87189" lon="4.72695">
        <ele>199</ele>
        <time>2018-08-24T08:53:56Z</time>
      </trkpt>
      <trkpt lat="45.87191" lon="4.72686">
        <ele>199</ele>
        <time>2018-08-24T08:53:57Z</time>
      </trkpt>
      <trkpt lat="45.87193" lon="4.72676">
        <ele>199</ele>
        <time>2018-08-24T08:53:58Z</time>
      </trkpt>
      <trkpt lat="45.87196" lon="4.72668">
        <ele>199</ele>
        <time>2018-08-24T08:53:59Z</time>
      </trkpt>
      <trkpt lat="45.87197" lon="4.7266">
        <ele>199</ele>
        <time>2018-08-24T08:54:00Z</time>
      </trkpt>
      <trkpt lat="45.87199" lon="4.72652">
        <ele>199</ele>
        <time>2018-08-24T08:54:01Z</time>
      </trkpt>
      <trkpt lat="45.872" lon="4.72639">
        <ele>199</ele>
        <time>2018-08-24T08:54:03Z</time>
      </trkpt>
      <trkpt lat="45.87201" lon="4.72635">
        <ele>199</ele>
        <time>2018-08-24T08:54:04Z</time>
      </trkpt>
      <trkpt lat="45.87203" lon="4.72627">
        <ele>199</ele>
        <time>2018-08-24T08:54:05Z</time>
      </trkpt>
      <trkpt lat="45.87205" lon="4.72621">
        <ele>199</ele>
        <time>2018-08-24T08:54:06Z</time>
      </trkpt>
      <trkpt lat="45.87208" lon="4.72613">
        <ele>199</ele>
        <time>2018-08-24T08:54:07Z</time>
      </trkpt>
      <trkpt lat="45.87211" lon="4.72606">
        <ele>199</ele>
        <time>2018-08-24T08:54:08Z</time>
      </trkpt>
      <trkpt lat="45.87211" lon="4.72596">
        <ele>199</ele>
        <time>2018-08-24T08:54:09Z</time>
      </trkpt>
      <trkpt lat="45.87212" lon="4.72587">
        <ele>199</ele>
        <time>2018-08-24T08:54:10Z</time>
      </trkpt>
      <trkpt lat="45.87212" lon="4.72576">
        <ele>199</ele>
        <time>2018-08-24T08:54:11Z</time>
      </trkpt>
      <trkpt lat="45.87214" lon="4.72567">
        <ele>198</ele>
        <time>2018-08-24T08:54:12Z</time>
      </trkpt>
      <trkpt lat="45.87214" lon="4.72557">
        <ele>198</ele>
        <time>2018-08-24T08:54:13Z</time>
      </trkpt>
      <trkpt lat="45.87214" lon="4.72547">
        <ele>198</ele>
        <time>2018-08-24T08:54:14Z</time>
      </trkpt>
      <trkpt lat="45.87213" lon="4.72537">
        <ele>198</ele>
        <time>2018-08-24T08:54:15Z</time>
      </trkpt>
      <trkpt lat="45.87213" lon="4.72528">
        <ele>198</ele>
        <time>2018-08-24T08:54:16Z</time>
      </trkpt>
      <trkpt lat="45.87211" lon="4.72519">
        <ele>198</ele>
        <time>2018-08-24T08:54:17Z</time>
      </trkpt>
      <trkpt lat="45.8721" lon="4.72509">
        <ele>198</ele>
        <time>2018-08-24T08:54:18Z</time>
      </trkpt>
      <trkpt lat="45.87209" lon="4.72497">
        <ele>195</ele>
        <time>2018-08-24T08:54:19Z</time>
      </trkpt>
      <trkpt lat="45.87206" lon="4.7249">
        <ele>195</ele>
        <time>2018-08-24T08:54:20Z</time>
      </trkpt>
      <trkpt lat="45.87203" lon="4.72482">
        <ele>195</ele>
        <time>2018-08-24T08:54:21Z</time>
      </trkpt>
      <trkpt lat="45.87199" lon="4.72473">
        <ele>195</ele>
        <time>2018-08-24T08:54:22Z</time>
      </trkpt>
      <trkpt lat="45.87196" lon="4.72465">
        <ele>195</ele>
        <time>2018-08-24T08:54:23Z</time>
      </trkpt>
      <trkpt lat="45.87193" lon="4.72457">
        <ele>195</ele>
        <time>2018-08-24T08:54:24Z</time>
      </trkpt>
      <trkpt lat="45.8719" lon="4.72449">
        <ele>194</ele>
        <time>2018-08-24T08:54:25Z</time>
      </trkpt>
      <trkpt lat="45.87187" lon="4.72441">
        <ele>194</ele>
        <time>2018-08-24T08:54:26Z</time>
      </trkpt>
      <trkpt lat="45.87184" lon="4.72433">
        <ele>194</ele>
        <time>2018-08-24T08:54:27Z</time>
      </trkpt>
      <trkpt lat="45.87181" lon="4.72426">
        <ele>194</ele>
        <time>2018-08-24T08:54:28Z</time>
      </trkpt>
      <trkpt lat="45.87177" lon="4.72418">
        <ele>194</ele>
        <time>2018-08-24T08:54:29Z</time>
      </trkpt>
      <trkpt lat="45.87175" lon="4.72411">
        <ele>192</ele>
        <time>2018-08-24T08:54:30Z</time>
      </trkpt>
      <trkpt lat="45.87171" lon="4.72403">
        <ele>192</ele>
        <time>2018-08-24T08:54:31Z</time>
      </trkpt>
      <trkpt lat="45.87167" lon="4.72397">
        <ele>196</ele>
        <time>2018-08-24T08:54:32Z</time>
      </trkpt>
      <trkpt lat="45.87165" lon="4.7239">
        <ele>197</ele>
        <time>2018-08-24T08:54:33Z</time>
      </trkpt>
      <trkpt lat="45.87162" lon="4.72382">
        <ele>197</ele>
        <time>2018-08-24T08:54:34Z</time>
      </trkpt>
      <trkpt lat="45.87159" lon="4.72373">
        <ele>197</ele>
        <time>2018-08-24T08:54:35Z</time>
      </trkpt>
      <trkpt lat="45.87155" lon="4.72365">
        <ele>196</ele>
        <time>2018-08-24T08:54:36Z</time>
      </trkpt>
      <trkpt lat="45.87152" lon="4.72356">
        <ele>196</ele>
        <time>2018-08-24T08:54:37Z</time>
      </trkpt>
      <trkpt lat="45.87151" lon="4.7235">
        <ele>195</ele>
        <time>2018-08-24T08:54:38Z</time>
      </trkpt>
      <trkpt lat="45.87147" lon="4.72341">
        <ele>195</ele>
        <time>2018-08-24T08:54:39Z</time>
      </trkpt>
      <trkpt lat="45.87143" lon="4.72333">
        <ele>194</ele>
        <time>2018-08-24T08:54:40Z</time>
      </trkpt>
      <trkpt lat="45.8714" lon="4.72326">
        <ele>195</ele>
        <time>2018-08-24T08:54:41Z</time>
      </trkpt>
      <trkpt lat="45.87136" lon="4.72318">
        <ele>195</ele>
        <time>2018-08-24T08:54:42Z</time>
      </trkpt>
      <trkpt lat="45.87132" lon="4.7231">
        <ele>196</ele>
        <time>2018-08-24T08:54:43Z</time>
      </trkpt>
      <trkpt lat="45.87125" lon="4.72301">
        <ele>196</ele>
        <time>2018-08-24T08:54:44Z</time>
      </trkpt>
      <trkpt lat="45.8712" lon="4.72294">
        <ele>196</ele>
        <time>2018-08-24T08:54:45Z</time>
      </trkpt>
      <trkpt lat="45.87115" lon="4.72286">
        <ele>197</ele>
        <time>2018-08-24T08:54:46Z</time>
      </trkpt>
      <trkpt lat="45.87111" lon="4.72281">
        <ele>197</ele>
        <time>2018-08-24T08:54:47Z</time>
      </trkpt>
      <trkpt lat="45.87106" lon="4.72274">
        <ele>197</ele>
        <time>2018-08-24T08:54:48Z</time>
      </trkpt>
      <trkpt lat="45.871" lon="4.72267">
        <ele>197</ele>
        <time>2018-08-24T08:54:49Z</time>
      </trkpt>
      <trkpt lat="45.87095" lon="4.72261">
        <ele>198</ele>
        <time>2018-08-24T08:54:50Z</time>
      </trkpt>
      <trkpt lat="45.87091" lon="4.72256">
        <ele>198</ele>
        <time>2018-08-24T08:54:51Z</time>
      </trkpt>
      <trkpt lat="45.87086" lon="4.72249">
        <ele>198</ele>
        <time>2018-08-24T08:54:52Z</time>
      </trkpt>
      <trkpt lat="45.8708" lon="4.72243">
        <ele>199</ele>
        <time>2018-08-24T08:54:53Z</time>
      </trkpt>
      <trkpt lat="45.87074" lon="4.72238">
        <ele>200</ele>
        <time>2018-08-24T08:54:54Z</time>
      </trkpt>
      <trkpt lat="45.87068" lon="4.72233">
        <ele>200</ele>
        <time>2018-08-24T08:54:55Z</time>
      </trkpt>
      <trkpt lat="45.87063" lon="4.72227">
        <ele>200</ele>
        <time>2018-08-24T08:54:56Z</time>
      </trkpt>
      <trkpt lat="45.87058" lon="4.72222">
        <ele>200</ele>
        <time>2018-08-24T08:54:57Z</time>
      </trkpt>
      <trkpt lat="45.87052" lon="4.72217">
        <ele>201</ele>
        <time>2018-08-24T08:54:58Z</time>
      </trkpt>
      <trkpt lat="45.87047" lon="4.72211">
        <ele>201</ele>
        <time>2018-08-24T08:54:59Z</time>
      </trkpt>
      <trkpt lat="45.87039" lon="4.72206">
        <ele>201</ele>
        <time>2018-08-24T08:55:00Z</time>
      </trkpt>
      <trkpt lat="45.87033" lon="4.72201">
        <ele>201</ele>
        <time>2018-08-24T08:55:01Z</time>
      </trkpt>
      <trkpt lat="45.8703" lon="4.722">
        <ele>201</ele>
        <time>2018-08-24T08:55:02Z</time>
      </trkpt>
      <trkpt lat="45.87024" lon="4.72197">
        <ele>201</ele>
        <time>2018-08-24T08:55:03Z</time>
      </trkpt>
      <trkpt lat="45.87019" lon="4.72196">
        <ele>201</ele>
        <time>2018-08-24T08:55:04Z</time>
      </trkpt>
      <trkpt lat="45.87014" lon="4.72193">
        <ele>202</ele>
        <time>2018-08-24T08:55:05Z</time>
      </trkpt>
      <trkpt lat="45.87009" lon="4.72189">
        <ele>201</ele>
        <time>2018-08-24T08:55:06Z</time>
      </trkpt>
      <trkpt lat="45.87003" lon="4.72185">
        <ele>201</ele>
        <time>2018-08-24T08:55:07Z</time>
      </trkpt>
      <trkpt lat="45.86999" lon="4.7218">
        <ele>206</ele>
        <time>2018-08-24T08:55:08Z</time>
      </trkpt>
      <trkpt lat="45.86993" lon="4.72176">
        <ele>205</ele>
        <time>2018-08-24T08:55:09Z</time>
      </trkpt>
      <trkpt lat="45.86987" lon="4.72172">
        <ele>206</ele>
        <time>2018-08-24T08:55:10Z</time>
      </trkpt>
      <trkpt lat="45.8698" lon="4.72167">
        <ele>207</ele>
        <time>2018-08-24T08:55:11Z</time>
      </trkpt>
      <trkpt lat="45.86974" lon="4.72162">
        <ele>201</ele>
        <time>2018-08-24T08:55:12Z</time>
      </trkpt>
      <trkpt lat="45.86968" lon="4.72157">
        <ele>201</ele>
        <time>2018-08-24T08:55:13Z</time>
      </trkpt>
      <trkpt lat="45.86963" lon="4.72156">
        <ele>201</ele>
        <time>2018-08-24T08:55:14Z</time>
      </trkpt>
      <trkpt lat="45.86957" lon="4.72152">
        <ele>201</ele>
        <time>2018-08-24T08:55:15Z</time>
      </trkpt>
      <trkpt lat="45.86952" lon="4.72146">
        <ele>201</ele>
        <time>2018-08-24T08:55:16Z</time>
      </trkpt>
      <trkpt lat="45.86947" lon="4.72142">
        <ele>201</ele>
        <time>2018-08-24T08:55:17Z</time>
      </trkpt>
      <trkpt lat="45.8694" lon="4.72139">
        <ele>201</ele>
        <time>2018-08-24T08:55:18Z</time>
      </trkpt>
      <trkpt lat="45.86933" lon="4.72135">
        <ele>201</ele>
        <time>2018-08-24T08:55:19Z</time>
      </trkpt>
      <trkpt lat="45.86926" lon="4.72132">
        <ele>201</ele>
        <time>2018-08-24T08:55:20Z</time>
      </trkpt>
      <trkpt lat="45.8692" lon="4.72128">
        <ele>200</ele>
        <time>2018-08-24T08:55:21Z</time>
      </trkpt>
      <trkpt lat="45.86913" lon="4.72127">
        <ele>203</ele>
        <time>2018-08-24T08:55:22Z</time>
      </trkpt>
      <trkpt lat="45.86908" lon="4.72126">
        <ele>202</ele>
        <time>2018-08-24T08:55:23Z</time>
      </trkpt>
      <trkpt lat="45.869" lon="4.72124">
        <ele>202</ele>
        <time>2018-08-24T08:55:24Z</time>
      </trkpt>
      <trkpt lat="45.86893" lon="4.72122">
        <ele>202</ele>
        <time>2018-08-24T08:55:25Z</time>
      </trkpt>
      <trkpt lat="45.86887" lon="4.72119">
        <ele>202</ele>
        <time>2018-08-24T08:55:26Z</time>
      </trkpt>
      <trkpt lat="45.8688" lon="4.72116">
        <ele>202</ele>
        <time>2018-08-24T08:55:27Z</time>
      </trkpt>
      <trkpt lat="45.86874" lon="4.72114">
        <ele>201</ele>
        <time>2018-08-24T08:55:28Z</time>
      </trkpt>
      <trkpt lat="45.86868" lon="4.72111">
        <ele>201</ele>
        <time>2018-08-24T08:55:29Z</time>
      </trkpt>
      <trkpt lat="45.86862" lon="4.72108">
        <ele>201</ele>
        <time>2018-08-24T08:55:30Z</time>
      </trkpt>
      <trkpt lat="45.86856" lon="4.72107">
        <ele>200</ele>
        <time>2018-08-24T08:55:31Z</time>
      </trkpt>
      <trkpt lat="45.86849" lon="4.72104">
        <ele>200</ele>
        <time>2018-08-24T08:55:32Z</time>
      </trkpt>
      <trkpt lat="45.86843" lon="4.72101">
        <ele>199</ele>
        <time>2018-08-24T08:55:33Z</time>
      </trkpt>
      <trkpt lat="45.86838" lon="4.72102">
        <ele>199</ele>
        <time>2018-08-24T08:55:34Z</time>
      </trkpt>
      <trkpt lat="45.86832" lon="4.72099">
        <ele>199</ele>
        <time>2018-08-24T08:55:35Z</time>
      </trkpt>
      <trkpt lat="45.86825" lon="4.72097">
        <ele>199</ele>
        <time>2018-08-24T08:55:36Z</time>
      </trkpt>
      <trkpt lat="45.8682" lon="4.72093">
        <ele>199</ele>
        <time>2018-08-24T08:55:37Z</time>
      </trkpt>
      <trkpt lat="45.86814" lon="4.72089">
        <ele>200</ele>
        <time>2018-08-24T08:55:38Z</time>
      </trkpt>
      <trkpt lat="45.86806" lon="4.72086">
        <ele>200</ele>
        <time>2018-08-24T08:55:39Z</time>
      </trkpt>
      <trkpt lat="45.86801" lon="4.72083">
        <ele>194</ele>
        <time>2018-08-24T08:55:40Z</time>
      </trkpt>
      <trkpt lat="45.86794" lon="4.7208">
        <ele>194</ele>
        <time>2018-08-24T08:55:41Z</time>
      </trkpt>
      <trkpt lat="45.86788" lon="4.72077">
        <ele>194</ele>
        <time>2018-08-24T08:55:42Z</time>
      </trkpt>
      <trkpt lat="45.86781" lon="4.72074">
        <ele>194</ele>
        <time>2018-08-24T08:55:43Z</time>
      </trkpt>
      <trkpt lat="45.86775" lon="4.72071">
        <ele>195</ele>
        <time>2018-08-24T08:55:44Z</time>
      </trkpt>
      <trkpt lat="45.86769" lon="4.72069">
        <ele>195</ele>
        <time>2018-08-24T08:55:45Z</time>
      </trkpt>
      <trkpt lat="45.86762" lon="4.72065">
        <ele>195</ele>
        <time>2018-08-24T08:55:46Z</time>
      </trkpt>
      <trkpt lat="45.86756" lon="4.72061">
        <ele>195</ele>
        <time>2018-08-24T08:55:47Z</time>
      </trkpt>
      <trkpt lat="45.86749" lon="4.72058">
        <ele>197</ele>
        <time>2018-08-24T08:55:48Z</time>
      </trkpt>
      <trkpt lat="45.86743" lon="4.72055">
        <ele>197</ele>
        <time>2018-08-24T08:55:49.478Z</time>
      </trkpt>
      <trkpt lat="45.86739" lon="4.72049">
        <ele>197</ele>
        <time>2018-08-24T08:55:50Z</time>
      </trkpt>
      <trkpt lat="45.86733" lon="4.72045">
        <ele>197</ele>
        <time>2018-08-24T08:55:51Z</time>
      </trkpt>
      <trkpt lat="45.86726" lon="4.72042">
        <ele>197</ele>
        <time>2018-08-24T08:55:52Z</time>
      </trkpt>
      <trkpt lat="45.8672" lon="4.7204">
        <ele>197</ele>
        <time>2018-08-24T08:55:53Z</time>
      </trkpt>
      <trkpt lat="45.86717" lon="4.72035">
        <ele>197</ele>
        <time>2018-08-24T08:55:54Z</time>
      </trkpt>
      <trkpt lat="45.86712" lon="4.72031">
        <ele>197</ele>
        <time>2018-08-24T08:55:55Z</time>
      </trkpt>
      <trkpt lat="45.86707" lon="4.72028">
        <ele>197</ele>
        <time>2018-08-24T08:55:56Z</time>
      </trkpt>
      <trkpt lat="45.86701" lon="4.72024">
        <ele>197</ele>
        <time>2018-08-24T08:55:57Z</time>
      </trkpt>
      <trkpt lat="45.86696" lon="4.7202">
        <ele>197</ele>
        <time>2018-08-24T08:55:58Z</time>
      </trkpt>
      <trkpt lat="45.86689" lon="4.72016">
        <ele>196</ele>
        <time>2018-08-24T08:55:59Z</time>
      </trkpt>
      <trkpt lat="45.86683" lon="4.72012">
        <ele>196</ele>
        <time>2018-08-24T08:56:00Z</time>
      </trkpt>
      <trkpt lat="45.86676" lon="4.72006">
        <ele>196</ele>
        <time>2018-08-24T08:56:02Z</time>
      </trkpt>
      <trkpt lat="45.8667" lon="4.72002">
        <ele>195</ele>
        <time>2018-08-24T08:56:03Z</time>
      </trkpt>
      <trkpt lat="45.86665" lon="4.71998">
        <ele>195</ele>
        <time>2018-08-24T08:56:04Z</time>
      </trkpt>
      <trkpt lat="45.86662" lon="4.71995">
        <ele>195</ele>
        <time>2018-08-24T08:56:05Z</time>
      </trkpt>
      <trkpt lat="45.86659" lon="4.71992">
        <ele>195</ele>
        <time>2018-08-24T08:56:06Z</time>
      </trkpt>
      <trkpt lat="45.86653" lon="4.71988">
        <ele>195</ele>
        <time>2018-08-24T08:56:07Z</time>
      </trkpt>
      <trkpt lat="45.86645" lon="4.71982">
        <ele>195</ele>
        <time>2018-08-24T08:56:08Z</time>
      </trkpt>
      <trkpt lat="45.86639" lon="4.71977">
        <ele>195</ele>
        <time>2018-08-24T08:56:09Z</time>
      </trkpt>
      <trkpt lat="45.86633" lon="4.71972">
        <ele>195</ele>
        <time>2018-08-24T08:56:10Z</time>
      </trkpt>
      <trkpt lat="45.86626" lon="4.71967">
        <ele>195</ele>
        <time>2018-08-24T08:56:11Z</time>
      </trkpt>
      <trkpt lat="45.86619" lon="4.71962">
        <ele>195</ele>
        <time>2018-08-24T08:56:12Z</time>
      </trkpt>
      <trkpt lat="45.86613" lon="4.71958">
        <ele>194</ele>
        <time>2018-08-24T08:56:13Z</time>
      </trkpt>
      <trkpt lat="45.86608" lon="4.71954">
        <ele>194</ele>
        <time>2018-08-24T08:56:14Z</time>
      </trkpt>
      <trkpt lat="45.86604" lon="4.71947">
        <ele>194</ele>
        <time>2018-08-24T08:56:15Z</time>
      </trkpt>
      <trkpt lat="45.86598" lon="4.71943">
        <ele>194</ele>
        <time>2018-08-24T08:56:16Z</time>
      </trkpt>
      <trkpt lat="45.86592" lon="4.71938">
        <ele>194</ele>
        <time>2018-08-24T08:56:17Z</time>
      </trkpt>
      <trkpt lat="45.86586" lon="4.71933">
        <ele>194</ele>
        <time>2018-08-24T08:56:18Z</time>
      </trkpt>
      <trkpt lat="45.86581" lon="4.71929">
        <ele>195</ele>
        <time>2018-08-24T08:56:19Z</time>
      </trkpt>
      <trkpt lat="45.86575" lon="4.71924">
        <ele>195</ele>
        <time>2018-08-24T08:56:20Z</time>
      </trkpt>
      <trkpt lat="45.86569" lon="4.71919">
        <ele>195</ele>
        <time>2018-08-24T08:56:21Z</time>
      </trkpt>
      <trkpt lat="45.86564" lon="4.71915">
        <ele>195</ele>
        <time>2018-08-24T08:56:22Z</time>
      </trkpt>
      <trkpt lat="45.86559" lon="4.71911">
        <ele>195</ele>
        <time>2018-08-24T08:56:23Z</time>
      </trkpt>
      <trkpt lat="45.86552" lon="4.71904">
        <ele>195</ele>
        <time>2018-08-24T08:56:25Z</time>
      </trkpt>
      <trkpt lat="45.86546" lon="4.71901">
        <ele>195</ele>
        <time>2018-08-24T08:56:26Z</time>
      </trkpt>
      <trkpt lat="45.86542" lon="4.71897">
        <ele>195</ele>
        <time>2018-08-24T08:56:27Z</time>
      </trkpt>
      <trkpt lat="45.86537" lon="4.71892">
        <ele>195</ele>
        <time>2018-08-24T08:56:28Z</time>
      </trkpt>
      <trkpt lat="45.86532" lon="4.71888">
        <ele>195</ele>
        <time>2018-08-24T08:56:29Z</time>
      </trkpt>
      <trkpt lat="45.86529" lon="4.71885">
        <ele>195</ele>
        <time>2018-08-24T08:56:30Z</time>
      </trkpt>
      <trkpt lat="45.86525" lon="4.71882">
        <ele>195</ele>
        <time>2018-08-24T08:56:31Z</time>
      </trkpt>
      <trkpt lat="45.8652" lon="4.71879">
        <ele>195</ele>
        <time>2018-08-24T08:56:32Z</time>
      </trkpt>
      <trkpt lat="45.86516" lon="4.71875">
        <ele>195</ele>
        <time>2018-08-24T08:56:33Z</time>
      </trkpt>
      <trkpt lat="45.86512" lon="4.71871">
        <ele>195</ele>
        <time>2018-08-24T08:56:34Z</time>
      </trkpt>
      <trkpt lat="45.86509" lon="4.71866">
        <ele>195</ele>
        <time>2018-08-24T08:56:35Z</time>
      </trkpt>
      <trkpt lat="45.86505" lon="4.71861">
        <ele>195</ele>
        <time>2018-08-24T08:56:36Z</time>
      </trkpt>
      <trkpt lat="45.865" lon="4.71857">
        <ele>198</ele>
        <time>2018-08-24T08:56:37Z</time>
      </trkpt>
      <trkpt lat="45.86495" lon="4.71856">
        <ele>198</ele>
        <time>2018-08-24T08:56:38Z</time>
      </trkpt>
      <trkpt lat="45.8649" lon="4.71853">
        <ele>198</ele>
        <time>2018-08-24T08:56:39Z</time>
      </trkpt>
      <trkpt lat="45.86484" lon="4.71846">
        <ele>198</ele>
        <time>2018-08-24T08:56:40Z</time>
      </trkpt>
      <trkpt lat="45.86478" lon="4.71844">
        <ele>198</ele>
        <time>2018-08-24T08:56:41Z</time>
      </trkpt>
      <trkpt lat="45.86473" lon="4.7184">
        <ele>198</ele>
        <time>2018-08-24T08:56:42Z</time>
      </trkpt>
      <trkpt lat="45.8647" lon="4.71837">
        <ele>199</ele>
        <time>2018-08-24T08:56:43Z</time>
      </trkpt>
      <trkpt lat="45.86465" lon="4.71834">
        <ele>199</ele>
        <time>2018-08-24T08:56:44Z</time>
      </trkpt>
      <trkpt lat="45.86459" lon="4.71831">
        <ele>196</ele>
        <time>2018-08-24T08:56:45Z</time>
      </trkpt>
      <trkpt lat="45.86454" lon="4.71827">
        <ele>197</ele>
        <time>2018-08-24T08:56:46Z</time>
      </trkpt>
      <trkpt lat="45.86448" lon="4.71822">
        <ele>197</ele>
        <time>2018-08-24T08:56:47Z</time>
      </trkpt>
      <trkpt lat="45.86443" lon="4.71818">
        <ele>197</ele>
        <time>2018-08-24T08:56:48Z</time>
      </trkpt>
      <trkpt lat="45.86438" lon="4.71815">
        <ele>197</ele>
        <time>2018-08-24T08:56:49Z</time>
      </trkpt>
      <trkpt lat="45.86433" lon="4.71811">
        <ele>197</ele>
        <time>2018-08-24T08:56:50Z</time>
      </trkpt>
      <trkpt lat="45.86428" lon="4.71807">
        <ele>197</ele>
        <time>2018-08-24T08:56:51Z</time>
      </trkpt>
      <trkpt lat="45.86423" lon="4.71804">
        <ele>197</ele>
        <time>2018-08-24T08:56:52Z</time>
      </trkpt>
      <trkpt lat="45.86417" lon="4.718">
        <ele>197</ele>
        <time>2018-08-24T08:56:53Z</time>
      </trkpt>
      <trkpt lat="45.86413" lon="4.71798">
        <ele>199</ele>
        <time>2018-08-24T08:56:54Z</time>
      </trkpt>
      <trkpt lat="45.86407" lon="4.71794">
        <ele>199</ele>
        <time>2018-08-24T08:56:55Z</time>
      </trkpt>
      <trkpt lat="45.86402" lon="4.71789">
        <ele>198</ele>
        <time>2018-08-24T08:56:56Z</time>
      </trkpt>
      <trkpt lat="45.86395" lon="4.7178">
        <ele>198</ele>
        <time>2018-08-24T08:56:58Z</time>
      </trkpt>
      <trkpt lat="45.86391" lon="4.71778">
        <ele>198</ele>
        <time>2018-08-24T08:56:59Z</time>
      </trkpt>
      <trkpt lat="45.86384" lon="4.71774">
        <ele>198</ele>
        <time>2018-08-24T08:57:00Z</time>
      </trkpt>
      <trkpt lat="45.86378" lon="4.7177">
        <ele>198</ele>
        <time>2018-08-24T08:57:01Z</time>
      </trkpt>
      <trkpt lat="45.86373" lon="4.71766">
        <ele>198</ele>
        <time>2018-08-24T08:57:02Z</time>
      </trkpt>
      <trkpt lat="45.86368" lon="4.71762">
        <ele>198</ele>
        <time>2018-08-24T08:57:03Z</time>
      </trkpt>
      <trkpt lat="45.86364" lon="4.71757">
        <ele>198</ele>
        <time>2018-08-24T08:57:04Z</time>
      </trkpt>
      <trkpt lat="45.86358" lon="4.71754">
        <ele>197</ele>
        <time>2018-08-24T08:57:05Z</time>
      </trkpt>
      <trkpt lat="45.86353" lon="4.7175">
        <ele>197</ele>
        <time>2018-08-24T08:57:06Z</time>
      </trkpt>
      <trkpt lat="45.86349" lon="4.71748">
        <ele>195</ele>
        <time>2018-08-24T08:57:07Z</time>
      </trkpt>
      <trkpt lat="45.86343" lon="4.71746">
        <ele>195</ele>
        <time>2018-08-24T08:57:08Z</time>
      </trkpt>
      <trkpt lat="45.86339" lon="4.71742">
        <ele>195</ele>
        <time>2018-08-24T08:57:09Z</time>
      </trkpt>
      <trkpt lat="45.86334" lon="4.71739">
        <ele>195</ele>
        <time>2018-08-24T08:57:10Z</time>
      </trkpt>
      <trkpt lat="45.86328" lon="4.71733">
        <ele>196</ele>
        <time>2018-08-24T08:57:11Z</time>
      </trkpt>
      <trkpt lat="45.86322" lon="4.71728">
        <ele>196</ele>
        <time>2018-08-24T08:57:12Z</time>
      </trkpt>
      <trkpt lat="45.86317" lon="4.71724">
        <ele>196</ele>
        <time>2018-08-24T08:57:13Z</time>
      </trkpt>
      <trkpt lat="45.86308" lon="4.71721">
        <ele>196</ele>
        <time>2018-08-24T08:57:14Z</time>
      </trkpt>
      <trkpt lat="45.86301" lon="4.71715">
        <ele>196</ele>
        <time>2018-08-24T08:57:15Z</time>
      </trkpt>
      <trkpt lat="45.86296" lon="4.7171">
        <ele>195</ele>
        <time>2018-08-24T08:57:16Z</time>
      </trkpt>
      <trkpt lat="45.8629" lon="4.71706">
        <ele>195</ele>
        <time>2018-08-24T08:57:17Z</time>
      </trkpt>
      <trkpt lat="45.86286" lon="4.71701">
        <ele>195</ele>
        <time>2018-08-24T08:57:18Z</time>
      </trkpt>
      <trkpt lat="45.86281" lon="4.71698">
        <ele>195</ele>
        <time>2018-08-24T08:57:19Z</time>
      </trkpt>
      <trkpt lat="45.86275" lon="4.71693">
        <ele>195</ele>
        <time>2018-08-24T08:57:20Z</time>
      </trkpt>
      <trkpt lat="45.86269" lon="4.7169">
        <ele>195</ele>
        <time>2018-08-24T08:57:21Z</time>
      </trkpt>
      <trkpt lat="45.86263" lon="4.71684">
        <ele>195</ele>
        <time>2018-08-24T08:57:22Z</time>
      </trkpt>
      <trkpt lat="45.86259" lon="4.7168">
        <ele>195</ele>
        <time>2018-08-24T08:57:23Z</time>
      </trkpt>
      <trkpt lat="45.86256" lon="4.71675">
        <ele>195</ele>
        <time>2018-08-24T08:57:24Z</time>
      </trkpt>
      <trkpt lat="45.86251" lon="4.7167">
        <ele>195</ele>
        <time>2018-08-24T08:57:25Z</time>
      </trkpt>
      <trkpt lat="45.86246" lon="4.71666">
        <ele>195</ele>
        <time>2018-08-24T08:57:26Z</time>
      </trkpt>
      <trkpt lat="45.8624" lon="4.71659">
        <ele>195</ele>
        <time>2018-08-24T08:57:27Z</time>
      </trkpt>
      <trkpt lat="45.86236" lon="4.71656">
        <ele>195</ele>
        <time>2018-08-24T08:57:28Z</time>
      </trkpt>
      <trkpt lat="45.86231" lon="4.71652">
        <ele>195</ele>
        <time>2018-08-24T08:57:29Z</time>
      </trkpt>
      <trkpt lat="45.86226" lon="4.71648">
        <ele>195</ele>
        <time>2018-08-24T08:57:30Z</time>
      </trkpt>
      <trkpt lat="45.86221" lon="4.71644">
        <ele>195</ele>
        <time>2018-08-24T08:57:31Z</time>
      </trkpt>
      <trkpt lat="45.86217" lon="4.71641">
        <ele>195</ele>
        <time>2018-08-24T08:57:32Z</time>
      </trkpt>
      <trkpt lat="45.86215" lon="4.71635">
        <ele>195</ele>
        <time>2018-08-24T08:57:33Z</time>
      </trkpt>
      <trkpt lat="45.86213" lon="4.7163">
        <ele>195</ele>
        <time>2018-08-24T08:57:34Z</time>
      </trkpt>
      <trkpt lat="45.86211" lon="4.71623">
        <ele>195</ele>
        <time>2018-08-24T08:57:35Z</time>
      </trkpt>
      <trkpt lat="45.8621" lon="4.71617">
        <ele>195</ele>
        <time>2018-08-24T08:57:36Z</time>
      </trkpt>
      <trkpt lat="45.86209" lon="4.71611">
        <ele>195</ele>
        <time>2018-08-24T08:57:37Z</time>
      </trkpt>
      <trkpt lat="45.86205" lon="4.71606">
        <ele>195</ele>
        <time>2018-08-24T08:57:38Z</time>
      </trkpt>
      <trkpt lat="45.86201" lon="4.71599">
        <ele>195</ele>
        <time>2018-08-24T08:57:39Z</time>
      </trkpt>
      <trkpt lat="45.86197" lon="4.71596">
        <ele>195</ele>
        <time>2018-08-24T08:57:40Z</time>
      </trkpt>
      <trkpt lat="45.86194" lon="4.7159">
        <ele>195</ele>
        <time>2018-08-24T08:57:41Z</time>
      </trkpt>
      <trkpt lat="45.8619" lon="4.71584">
        <ele>195</ele>
        <time>2018-08-24T08:57:42Z</time>
      </trkpt>
      <trkpt lat="45.86187" lon="4.71579">
        <ele>195</ele>
        <time>2018-08-24T08:57:43Z</time>
      </trkpt>
      <trkpt lat="45.86183" lon="4.71573">
        <ele>195</ele>
        <time>2018-08-24T08:57:44Z</time>
      </trkpt>
      <trkpt lat="45.86179" lon="4.71567">
        <ele>195</ele>
        <time>2018-08-24T08:57:45Z</time>
      </trkpt>
      <trkpt lat="45.86176" lon="4.71562">
        <ele>195</ele>
        <time>2018-08-24T08:57:46Z</time>
      </trkpt>
      <trkpt lat="45.86173" lon="4.71557">
        <ele>195</ele>
        <time>2018-08-24T08:57:47Z</time>
      </trkpt>
      <trkpt lat="45.8617" lon="4.71552">
        <ele>195</ele>
        <time>2018-08-24T08:57:48Z</time>
      </trkpt>
      <trkpt lat="45.86167" lon="4.71545">
        <ele>196</ele>
        <time>2018-08-24T08:57:49Z</time>
      </trkpt>
      <trkpt lat="45.86164" lon="4.7154">
        <ele>195</ele>
        <time>2018-08-24T08:57:50Z</time>
      </trkpt>
      <trkpt lat="45.8616" lon="4.71529">
        <ele>195</ele>
        <time>2018-08-24T08:57:52Z</time>
      </trkpt>
      <trkpt lat="45.86159" lon="4.71523">
        <ele>195</ele>
        <time>2018-08-24T08:57:53Z</time>
      </trkpt>
      <trkpt lat="45.86154" lon="4.71515">
        <ele>195</ele>
        <time>2018-08-24T08:57:54Z</time>
      </trkpt>
      <trkpt lat="45.86151" lon="4.71509">
        <ele>195</ele>
        <time>2018-08-24T08:57:55Z</time>
      </trkpt>
      <trkpt lat="45.86148" lon="4.71501">
        <ele>195</ele>
        <time>2018-08-24T08:57:56Z</time>
      </trkpt>
      <trkpt lat="45.86145" lon="4.71495">
        <ele>195</ele>
        <time>2018-08-24T08:57:57Z</time>
      </trkpt>
      <trkpt lat="45.86143" lon="4.71489">
        <ele>195</ele>
        <time>2018-08-24T08:57:58Z</time>
      </trkpt>
      <trkpt lat="45.8614" lon="4.71483">
        <ele>195</ele>
        <time>2018-08-24T08:57:59Z</time>
      </trkpt>
      <trkpt lat="45.86137" lon="4.71477">
        <ele>195</ele>
        <time>2018-08-24T08:58:00Z</time>
      </trkpt>
      <trkpt lat="45.86135" lon="4.71471">
        <ele>195</ele>
        <time>2018-08-24T08:58:01Z</time>
      </trkpt>
      <trkpt lat="45.86132" lon="4.7146">
        <ele>195</ele>
        <time>2018-08-24T08:58:03Z</time>
      </trkpt>
      <trkpt lat="45.86131" lon="4.71454">
        <ele>195</ele>
        <time>2018-08-24T08:58:04Z</time>
      </trkpt>
      <trkpt lat="45.8613" lon="4.71447">
        <ele>195</ele>
        <time>2018-08-24T08:58:05Z</time>
      </trkpt>
      <trkpt lat="45.86128" lon="4.7144">
        <ele>195</ele>
        <time>2018-08-24T08:58:06Z</time>
      </trkpt>
      <trkpt lat="45.86125" lon="4.71433">
        <ele>195</ele>
        <time>2018-08-24T08:58:07Z</time>
      </trkpt>
      <trkpt lat="45.86124" lon="4.71426">
        <ele>195</ele>
        <time>2018-08-24T08:58:08Z</time>
      </trkpt>
      <trkpt lat="45.86122" lon="4.71419">
        <ele>195</ele>
        <time>2018-08-24T08:58:09Z</time>
      </trkpt>
      <trkpt lat="45.8612" lon="4.71411">
        <ele>196</ele>
        <time>2018-08-24T08:58:10Z</time>
      </trkpt>
      <trkpt lat="45.86123" lon="4.714">
        <ele>196</ele>
        <time>2018-08-24T08:58:12Z</time>
      </trkpt>
      <trkpt lat="45.86122" lon="4.71395">
        <ele>196</ele>
        <time>2018-08-24T08:58:13Z</time>
      </trkpt>
      <trkpt lat="45.86123" lon="4.71382">
        <ele>196</ele>
        <time>2018-08-24T08:58:16Z</time>
      </trkpt>
      <trkpt lat="45.86123" lon="4.71379">
        <ele>196</ele>
        <time>2018-08-24T08:58:17Z</time>
      </trkpt>
      <trkpt lat="45.86121" lon="4.71367">
        <ele>196</ele>
        <time>2018-08-24T08:58:18Z</time>
      </trkpt>
      <trkpt lat="45.86119" lon="4.71361">
        <ele>196</ele>
        <time>2018-08-24T08:58:19Z</time>
      </trkpt>
      <trkpt lat="45.86118" lon="4.71355">
        <ele>196</ele>
        <time>2018-08-24T08:58:20Z</time>
      </trkpt>
      <trkpt lat="45.86116" lon="4.71348">
        <ele>196</ele>
        <time>2018-08-24T08:58:21Z</time>
      </trkpt>
      <trkpt lat="45.86115" lon="4.71342">
        <ele>196</ele>
        <time>2018-08-24T08:58:22Z</time>
      </trkpt>
      <trkpt lat="45.86114" lon="4.71334">
        <ele>196</ele>
        <time>2018-08-24T08:58:23Z</time>
      </trkpt>
      <trkpt lat="45.86112" lon="4.71327">
        <ele>196</ele>
        <time>2018-08-24T08:58:24Z</time>
      </trkpt>
      <trkpt lat="45.86112" lon="4.71321">
        <ele>196</ele>
        <time>2018-08-24T08:58:25Z</time>
      </trkpt>
      <trkpt lat="45.8611" lon="4.71309">
        <ele>196</ele>
        <time>2018-08-24T08:58:27Z</time>
      </trkpt>
      <trkpt lat="45.8611" lon="4.71303">
        <ele>196</ele>
        <time>2018-08-24T08:58:28Z</time>
      </trkpt>
      <trkpt lat="45.86109" lon="4.71297">
        <ele>196</ele>
        <time>2018-08-24T08:58:29Z</time>
      </trkpt>
      <trkpt lat="45.86107" lon="4.71291">
        <ele>197</ele>
        <time>2018-08-24T08:58:30Z</time>
      </trkpt>
      <trkpt lat="45.86105" lon="4.71279">
        <ele>197</ele>
        <time>2018-08-24T08:58:32Z</time>
      </trkpt>
      <trkpt lat="45.86103" lon="4.71274">
        <ele>197</ele>
        <time>2018-08-24T08:58:33Z</time>
      </trkpt>
      <trkpt lat="45.86098" lon="4.71265">
        <ele>197</ele>
        <time>2018-08-24T08:58:35Z</time>
      </trkpt>
      <trkpt lat="45.86094" lon="4.7126">
        <ele>197</ele>
        <time>2018-08-24T08:58:36Z</time>
      </trkpt>
      <trkpt lat="45.86091" lon="4.71255">
        <ele>197</ele>
        <time>2018-08-24T08:58:37Z</time>
      </trkpt>
      <trkpt lat="45.86088" lon="4.71249">
        <ele>198</ele>
        <time>2018-08-24T08:58:38Z</time>
      </trkpt>
      <trkpt lat="45.86087" lon="4.71242">
        <ele>198</ele>
        <time>2018-08-24T08:58:39Z</time>
      </trkpt>
      <trkpt lat="45.86088" lon="4.71234">
        <ele>197</ele>
        <time>2018-08-24T08:58:40Z</time>
      </trkpt>
      <trkpt lat="45.86088" lon="4.71227">
        <ele>197</ele>
        <time>2018-08-24T08:58:41Z</time>
      </trkpt>
      <trkpt lat="45.86088" lon="4.71219">
        <ele>197</ele>
        <time>2018-08-24T08:58:42Z</time>
      </trkpt>
      <trkpt lat="45.86089" lon="4.71214">
        <ele>197</ele>
        <time>2018-08-24T08:58:43Z</time>
      </trkpt>
      <trkpt lat="45.8609" lon="4.71206">
        <ele>197</ele>
        <time>2018-08-24T08:58:44Z</time>
      </trkpt>
      <trkpt lat="45.86092" lon="4.71199">
        <ele>197</ele>
        <time>2018-08-24T08:58:45Z</time>
      </trkpt>
      <trkpt lat="45.86093" lon="4.71192">
        <ele>197</ele>
        <time>2018-08-24T08:58:46Z</time>
      </trkpt>
      <trkpt lat="45.86095" lon="4.71187">
        <ele>197</ele>
        <time>2018-08-24T08:58:47Z</time>
      </trkpt>
      <trkpt lat="45.86096" lon="4.7118">
        <ele>197</ele>
        <time>2018-08-24T08:58:48Z</time>
      </trkpt>
      <trkpt lat="45.86097" lon="4.71173">
        <ele>197</ele>
        <time>2018-08-24T08:58:49Z</time>
      </trkpt>
      <trkpt lat="45.86097" lon="4.71166">
        <ele>197</ele>
        <time>2018-08-24T08:58:50Z</time>
      </trkpt>
      <trkpt lat="45.86097" lon="4.7116">
        <ele>197</ele>
        <time>2018-08-24T08:58:51Z</time>
      </trkpt>
      <trkpt lat="45.86097" lon="4.71153">
        <ele>197</ele>
        <time>2018-08-24T08:58:52Z</time>
      </trkpt>
      <trkpt lat="45.86095" lon="4.71142">
        <ele>197</ele>
        <time>2018-08-24T08:58:54Z</time>
      </trkpt>
      <trkpt lat="45.86091" lon="4.71138">
        <ele>197</ele>
        <time>2018-08-24T08:58:55Z</time>
      </trkpt>
      <trkpt lat="45.86087" lon="4.71133">
        <ele>197</ele>
        <time>2018-08-24T08:58:56Z</time>
      </trkpt>
      <trkpt lat="45.86081" lon="4.7113">
        <ele>197</ele>
        <time>2018-08-24T08:58:57Z</time>
      </trkpt>
      <trkpt lat="45.86073" lon="4.71125">
        <ele>197</ele>
        <time>2018-08-24T08:58:59Z</time>
      </trkpt>
      <trkpt lat="45.86068" lon="4.71121">
        <ele>197</ele>
        <time>2018-08-24T08:59:00Z</time>
      </trkpt>
      <trkpt lat="45.86062" lon="4.71114">
        <ele>197</ele>
        <time>2018-08-24T08:59:02Z</time>
      </trkpt>
      <trkpt lat="45.86058" lon="4.71109">
        <ele>197</ele>
        <time>2018-08-24T08:59:03Z</time>
      </trkpt>
      <trkpt lat="45.86054" lon="4.71102">
        <ele>197</ele>
        <time>2018-08-24T08:59:05Z</time>
      </trkpt>
      <trkpt lat="45.86052" lon="4.71098">
        <ele>197</ele>
        <time>2018-08-24T08:59:06Z</time>
      </trkpt>
      <trkpt lat="45.86047" lon="4.71087">
        <ele>197</ele>
        <time>2018-08-24T08:59:08Z</time>
      </trkpt>
      <trkpt lat="45.86045" lon="4.71082">
        <ele>196</ele>
        <time>2018-08-24T08:59:09Z</time>
      </trkpt>
      <trkpt lat="45.86042" lon="4.71073">
        <ele>196</ele>
        <time>2018-08-24T08:59:10Z</time>
      </trkpt>
      <trkpt lat="45.86048" lon="4.71062">
        <ele>196</ele>
        <time>2018-08-24T08:59:11Z</time>
      </trkpt>
      <trkpt lat="45.86046" lon="4.71054">
        <ele>196</ele>
        <time>2018-08-24T08:59:12Z</time>
      </trkpt>
      <trkpt lat="45.86043" lon="4.71046">
        <ele>196</ele>
        <time>2018-08-24T08:59:13Z</time>
      </trkpt>
      <trkpt lat="45.8604" lon="4.71039">
        <ele>197</ele>
        <time>2018-08-24T08:59:14.578Z</time>
      </trkpt>
      <trkpt lat="45.86038" lon="4.71032">
        <ele>197</ele>
        <time>2018-08-24T08:59:15Z</time>
      </trkpt>
      <trkpt lat="45.86035" lon="4.71026">
        <ele>197</ele>
        <time>2018-08-24T08:59:16Z</time>
      </trkpt>
      <trkpt lat="45.86032" lon="4.7102">
        <ele>197</ele>
        <time>2018-08-24T08:59:17Z</time>
      </trkpt>
      <trkpt lat="45.86028" lon="4.71011">
        <ele>197</ele>
        <time>2018-08-24T08:59:19Z</time>
      </trkpt>
      <trkpt lat="45.86025" lon="4.71006">
        <ele>197</ele>
        <time>2018-08-24T08:59:20Z</time>
      </trkpt>
      <trkpt lat="45.86019" lon="4.71002">
        <ele>197</ele>
        <time>2018-08-24T08:59:21Z</time>
      </trkpt>
      <trkpt lat="45.86013" lon="4.70996">
        <ele>197</ele>
        <time>2018-08-24T08:59:22Z</time>
      </trkpt>
      <trkpt lat="45.86009" lon="4.70991">
        <ele>197</ele>
        <time>2018-08-24T08:59:23Z</time>
      </trkpt>
      <trkpt lat="45.86002" lon="4.7099">
        <ele>197</ele>
        <time>2018-08-24T08:59:24Z</time>
      </trkpt>
      <trkpt lat="45.85996" lon="4.70986">
        <ele>197</ele>
        <time>2018-08-24T08:59:25Z</time>
      </trkpt>
      <trkpt lat="45.85991" lon="4.70982">
        <ele>197</ele>
        <time>2018-08-24T08:59:26Z</time>
      </trkpt>
      <trkpt lat="45.85986" lon="4.70979">
        <ele>197</ele>
        <time>2018-08-24T08:59:27Z</time>
      </trkpt>
      <trkpt lat="45.85982" lon="4.70977">
        <ele>197</ele>
        <time>2018-08-24T08:59:28Z</time>
      </trkpt>
      <trkpt lat="45.85977" lon="4.70975">
        <ele>197</ele>
        <time>2018-08-24T08:59:29Z</time>
      </trkpt>
      <trkpt lat="45.85972" lon="4.70973">
        <ele>197</ele>
        <time>2018-08-24T08:59:30Z</time>
      </trkpt>
      <trkpt lat="45.85967" lon="4.70973">
        <ele>197</ele>
        <time>2018-08-24T08:59:31Z</time>
      </trkpt>
      <trkpt lat="45.85962" lon="4.70972">
        <ele>197</ele>
        <time>2018-08-24T08:59:32Z</time>
      </trkpt>
      <trkpt lat="45.85956" lon="4.70972">
        <ele>197</ele>
        <time>2018-08-24T08:59:33Z</time>
      </trkpt>
      <trkpt lat="45.85952" lon="4.70972">
        <ele>197</ele>
        <time>2018-08-24T08:59:34Z</time>
      </trkpt>
      <trkpt lat="45.85945" lon="4.7097">
        <ele>197</ele>
        <time>2018-08-24T08:59:36Z</time>
      </trkpt>
      <trkpt lat="45.85944" lon="4.70965">
        <ele>197</ele>
        <time>2018-08-24T08:59:37Z</time>
      </trkpt>
      <trkpt lat="45.85942" lon="4.70953">
        <ele>197</ele>
        <time>2018-08-24T08:59:39Z</time>
      </trkpt>
      <trkpt lat="45.85944" lon="4.70946">
        <ele>197</ele>
        <time>2018-08-24T08:59:40Z</time>
      </trkpt>
      <trkpt lat="45.85945" lon="4.7094">
        <ele>197</ele>
        <time>2018-08-24T08:59:41Z</time>
      </trkpt>
      <trkpt lat="45.85947" lon="4.70933">
        <ele>197</ele>
        <time>2018-08-24T08:59:42Z</time>
      </trkpt>
      <trkpt lat="45.8595" lon="4.70927">
        <ele>197</ele>
        <time>2018-08-24T08:59:43Z</time>
      </trkpt>
      <trkpt lat="45.85951" lon="4.7092">
        <ele>197</ele>
        <time>2018-08-24T08:59:44Z</time>
      </trkpt>
      <trkpt lat="45.85952" lon="4.70913">
        <ele>197</ele>
        <time>2018-08-24T08:59:45Z</time>
      </trkpt>
      <trkpt lat="45.85953" lon="4.70905">
        <ele>197</ele>
        <time>2018-08-24T08:59:46Z</time>
      </trkpt>
      <trkpt lat="45.85958" lon="4.70898">
        <ele>197</ele>
        <time>2018-08-24T08:59:47Z</time>
      </trkpt>
      <trkpt lat="45.85958" lon="4.70891">
        <ele>197</ele>
        <time>2018-08-24T08:59:48Z</time>
      </trkpt>
      <trkpt lat="45.85961" lon="4.70883">
        <ele>197</ele>
        <time>2018-08-24T08:59:49Z</time>
      </trkpt>
      <trkpt lat="45.85962" lon="4.70876">
        <ele>197</ele>
        <time>2018-08-24T08:59:50Z</time>
      </trkpt>
      <trkpt lat="45.85964" lon="4.70865">
        <ele>196</ele>
        <time>2018-08-24T08:59:52Z</time>
      </trkpt>
      <trkpt lat="45.85965" lon="4.70859">
        <ele>196</ele>
        <time>2018-08-24T08:59:53Z</time>
      </trkpt>
      <trkpt lat="45.85966" lon="4.70852">
        <ele>196</ele>
        <time>2018-08-24T08:59:54Z</time>
      </trkpt>
      <trkpt lat="45.85966" lon="4.70845">
        <ele>196</ele>
        <time>2018-08-24T08:59:55Z</time>
      </trkpt>
      <trkpt lat="45.85967" lon="4.70832">
        <ele>196</ele>
        <time>2018-08-24T08:59:57Z</time>
      </trkpt>
      <trkpt lat="45.85967" lon="4.70825">
        <ele>196</ele>
        <time>2018-08-24T08:59:58Z</time>
      </trkpt>
      <trkpt lat="45.85974" lon="4.70819">
        <ele>196</ele>
        <time>2018-08-24T08:59:59Z</time>
      </trkpt>
      <trkpt lat="45.85971" lon="4.7081">
        <ele>195</ele>
        <time>2018-08-24T09:00:00Z</time>
      </trkpt>
      <trkpt lat="45.85965" lon="4.70791">
        <ele>195</ele>
        <time>2018-08-24T09:00:03Z</time>
      </trkpt>
      <trkpt lat="45.85969" lon="4.70781">
        <ele>195</ele>
        <time>2018-08-24T09:00:05Z</time>
      </trkpt>
      <trkpt lat="45.85967" lon="4.70776">
        <ele>195</ele>
        <time>2018-08-24T09:00:06Z</time>
      </trkpt>
      <trkpt lat="45.85967" lon="4.70768">
        <ele>195</ele>
        <time>2018-08-24T09:00:07Z</time>
      </trkpt>
      <trkpt lat="45.85968" lon="4.7076">
        <ele>195</ele>
        <time>2018-08-24T09:00:08Z</time>
      </trkpt>
      <trkpt lat="45.8597" lon="4.70753">
        <ele>195</ele>
        <time>2018-08-24T09:00:09Z</time>
      </trkpt>
      <trkpt lat="45.8597" lon="4.70745">
        <ele>194</ele>
        <time>2018-08-24T09:00:10Z</time>
      </trkpt>
      <trkpt lat="45.85971" lon="4.70739">
        <ele>194</ele>
        <time>2018-08-24T09:00:11Z</time>
      </trkpt>
      <trkpt lat="45.85969" lon="4.7073">
        <ele>194</ele>
        <time>2018-08-24T09:00:12Z</time>
      </trkpt>
      <trkpt lat="45.85968" lon="4.70724">
        <ele>194</ele>
        <time>2018-08-24T09:00:13Z</time>
      </trkpt>
      <trkpt lat="45.85968" lon="4.70716">
        <ele>194</ele>
        <time>2018-08-24T09:00:14Z</time>
      </trkpt>
      <trkpt lat="45.8597" lon="4.70709">
        <ele>194</ele>
        <time>2018-08-24T09:00:15Z</time>
      </trkpt>
      <trkpt lat="45.8597" lon="4.70701">
        <ele>194</ele>
        <time>2018-08-24T09:00:16Z</time>
      </trkpt>
      <trkpt lat="45.85971" lon="4.70695">
        <ele>194</ele>
        <time>2018-08-24T09:00:17Z</time>
      </trkpt>
      <trkpt lat="45.85969" lon="4.70688">
        <ele>194</ele>
        <time>2018-08-24T09:00:18Z</time>
      </trkpt>
      <trkpt lat="45.85968" lon="4.70682">
        <ele>194</ele>
        <time>2018-08-24T09:00:19Z</time>
      </trkpt>
      <trkpt lat="45.85962" lon="4.70674">
        <ele>194</ele>
        <time>2018-08-24T09:00:20Z</time>
      </trkpt>
      <trkpt lat="45.85957" lon="4.70669">
        <ele>194</ele>
        <time>2018-08-24T09:00:21Z</time>
      </trkpt>
      <trkpt lat="45.85954" lon="4.70663">
        <ele>194</ele>
        <time>2018-08-24T09:00:22Z</time>
      </trkpt>
      <trkpt lat="45.85949" lon="4.70653">
        <ele>194</ele>
        <time>2018-08-24T09:00:24Z</time>
      </trkpt>
      <trkpt lat="45.85945" lon="4.70647">
        <ele>194</ele>
        <time>2018-08-24T09:00:25Z</time>
      </trkpt>
      <trkpt lat="45.85941" lon="4.70642">
        <ele>194</ele>
        <time>2018-08-24T09:00:26Z</time>
      </trkpt>
      <trkpt lat="45.85937" lon="4.70636">
        <ele>194</ele>
        <time>2018-08-24T09:00:27Z</time>
      </trkpt>
      <trkpt lat="45.85934" lon="4.7063">
        <ele>194</ele>
        <time>2018-08-24T09:00:28Z</time>
      </trkpt>
      <trkpt lat="45.8593" lon="4.70625">
        <ele>194</ele>
        <time>2018-08-24T09:00:29Z</time>
      </trkpt>
      <trkpt lat="45.85925" lon="4.70619">
        <ele>194</ele>
        <time>2018-08-24T09:00:30Z</time>
      </trkpt>
      <trkpt lat="45.85922" lon="4.70614">
        <ele>194</ele>
        <time>2018-08-24T09:00:31Z</time>
      </trkpt>
      <trkpt lat="45.85918" lon="4.70608">
        <ele>194</ele>
        <time>2018-08-24T09:00:32Z</time>
      </trkpt>
      <trkpt lat="45.85915" lon="4.70603">
        <ele>195</ele>
        <time>2018-08-24T09:00:33Z</time>
      </trkpt>
      <trkpt lat="45.8591" lon="4.70599">
        <ele>195</ele>
        <time>2018-08-24T09:00:34Z</time>
      </trkpt>
      <trkpt lat="45.85908" lon="4.70595">
        <ele>195</ele>
        <time>2018-08-24T09:00:35Z</time>
      </trkpt>
      <trkpt lat="45.85908" lon="4.70589">
        <ele>195</ele>
        <time>2018-08-24T09:00:36Z</time>
      </trkpt>
      <trkpt lat="45.85902" lon="4.70585">
        <ele>195</ele>
        <time>2018-08-24T09:00:37Z</time>
      </trkpt>
      <trkpt lat="45.85895" lon="4.70581">
        <ele>195</ele>
        <time>2018-08-24T09:00:38Z</time>
      </trkpt>
      <trkpt lat="45.85893" lon="4.70579">
        <ele>195</ele>
        <time>2018-08-24T09:00:39Z</time>
      </trkpt>
      <trkpt lat="45.85885" lon="4.70576">
        <ele>195</ele>
        <time>2018-08-24T09:00:41Z</time>
      </trkpt>
      <trkpt lat="45.85879" lon="4.70574">
        <ele>195</ele>
        <time>2018-08-24T09:00:42Z</time>
      </trkpt>
      <trkpt lat="45.85871" lon="4.7057">
        <ele>195</ele>
        <time>2018-08-24T09:00:44Z</time>
      </trkpt>
      <trkpt lat="45.85865" lon="4.70568">
        <ele>195</ele>
        <time>2018-08-24T09:00:45Z</time>
      </trkpt>
      <trkpt lat="45.85861" lon="4.70566">
        <ele>195</ele>
        <time>2018-08-24T09:00:46Z</time>
      </trkpt>
      <trkpt lat="45.85854" lon="4.70564">
        <ele>195</ele>
        <time>2018-08-24T09:00:47Z</time>
      </trkpt>
      <trkpt lat="45.85847" lon="4.7056">
        <ele>195</ele>
        <time>2018-08-24T09:00:49Z</time>
      </trkpt>
      <trkpt lat="45.85843" lon="4.70555">
        <ele>195</ele>
        <time>2018-08-24T09:00:50Z</time>
      </trkpt>
      <trkpt lat="45.85836" lon="4.70553">
        <ele>195</ele>
        <time>2018-08-24T09:00:51Z</time>
      </trkpt>
      <trkpt lat="45.85831" lon="4.70551">
        <ele>195</ele>
        <time>2018-08-24T09:00:52Z</time>
      </trkpt>
      <trkpt lat="45.85824" lon="4.70551">
        <ele>195</ele>
        <time>2018-08-24T09:00:53Z</time>
      </trkpt>
      <trkpt lat="45.85819" lon="4.70549">
        <ele>195</ele>
        <time>2018-08-24T09:00:54Z</time>
      </trkpt>
      <trkpt lat="45.85815" lon="4.70547">
        <ele>195</ele>
        <time>2018-08-24T09:00:55Z</time>
      </trkpt>
      <trkpt lat="45.8581" lon="4.70545">
        <ele>195</ele>
        <time>2018-08-24T09:00:56Z</time>
      </trkpt>
      <trkpt lat="45.85802" lon="4.70542">
        <ele>195</ele>
        <time>2018-08-24T09:00:58Z</time>
      </trkpt>
      <trkpt lat="45.85799" lon="4.70541">
        <ele>195</ele>
        <time>2018-08-24T09:00:59Z</time>
      </trkpt>
      <trkpt lat="45.85791" lon="4.70536">
        <ele>196</ele>
        <time>2018-08-24T09:01:03Z</time>
      </trkpt>
      <trkpt lat="45.85789" lon="4.70534">
        <ele>196</ele>
        <time>2018-08-24T09:01:04Z</time>
      </trkpt>
      <trkpt lat="45.85781" lon="4.7053">
        <ele>196</ele>
        <time>2018-08-24T09:01:07Z</time>
      </trkpt>
      <trkpt lat="45.85779" lon="4.70527">
        <ele>196</ele>
        <time>2018-08-24T09:01:08Z</time>
      </trkpt>
      <trkpt lat="45.85772" lon="4.70521">
        <ele>196</ele>
        <time>2018-08-24T09:01:09Z</time>
      </trkpt>
      <trkpt lat="45.85769" lon="4.70518">
        <ele>196</ele>
        <time>2018-08-24T09:01:10Z</time>
      </trkpt>
      <trkpt lat="45.85761" lon="4.70513">
        <ele>196</ele>
        <time>2018-08-24T09:01:12Z</time>
      </trkpt>
      <trkpt lat="45.85759" lon="4.70512">
        <ele>196</ele>
        <time>2018-08-24T09:01:13Z</time>
      </trkpt>
      <trkpt lat="45.85754" lon="4.70509">
        <ele>196</ele>
        <time>2018-08-24T09:01:14Z</time>
      </trkpt>
      <trkpt lat="45.85751" lon="4.70507">
        <ele>196</ele>
        <time>2018-08-24T09:01:15Z</time>
      </trkpt>
      <trkpt lat="45.85746" lon="4.70496">
        <ele>196</ele>
        <time>2018-08-24T09:01:17Z</time>
      </trkpt>
      <trkpt lat="45.85742" lon="4.7049">
        <ele>196</ele>
        <time>2018-08-24T09:01:18Z</time>
      </trkpt>
      <trkpt lat="45.8574" lon="4.7048">
        <ele>196</ele>
        <time>2018-08-24T09:01:20Z</time>
      </trkpt>
      <trkpt lat="45.85739" lon="4.70472">
        <ele>196</ele>
        <time>2018-08-24T09:01:21Z</time>
      </trkpt>
      <trkpt lat="45.85739" lon="4.70465">
        <ele>196</ele>
        <time>2018-08-24T09:01:22Z</time>
      </trkpt>
      <trkpt lat="45.85739" lon="4.70458">
        <ele>196</ele>
        <time>2018-08-24T09:01:23Z</time>
      </trkpt>
      <trkpt lat="45.85739" lon="4.70451">
        <ele>196</ele>
        <time>2018-08-24T09:01:24Z</time>
      </trkpt>
      <trkpt lat="45.85738" lon="4.70445">
        <ele>196</ele>
        <time>2018-08-24T09:01:25Z</time>
      </trkpt>
      <trkpt lat="45.85737" lon="4.70438">
        <ele>196</ele>
        <time>2018-08-24T09:01:26Z</time>
      </trkpt>
      <trkpt lat="45.85734" lon="4.70432">
        <ele>196</ele>
        <time>2018-08-24T09:01:27Z</time>
      </trkpt>
      <trkpt lat="45.85733" lon="4.70425">
        <ele>197</ele>
        <time>2018-08-24T09:01:28Z</time>
      </trkpt>
      <trkpt lat="45.85731" lon="4.70418">
        <ele>197</ele>
        <time>2018-08-24T09:01:29Z</time>
      </trkpt>
      <trkpt lat="45.85732" lon="4.70412">
        <ele>197</ele>
        <time>2018-08-24T09:01:30Z</time>
      </trkpt>
      <trkpt lat="45.85729" lon="4.70405">
        <ele>196</ele>
        <time>2018-08-24T09:01:31Z</time>
      </trkpt>
      <trkpt lat="45.85728" lon="4.70398">
        <ele>196</ele>
        <time>2018-08-24T09:01:32Z</time>
      </trkpt>
      <trkpt lat="45.85725" lon="4.70391">
        <ele>196</ele>
        <time>2018-08-24T09:01:33Z</time>
      </trkpt>
      <trkpt lat="45.85723" lon="4.70384">
        <ele>196</ele>
        <time>2018-08-24T09:01:34Z</time>
      </trkpt>
      <trkpt lat="45.85722" lon="4.70376">
        <ele>196</ele>
        <time>2018-08-24T09:01:35Z</time>
      </trkpt>
      <trkpt lat="45.85721" lon="4.70368">
        <ele>196</ele>
        <time>2018-08-24T09:01:36Z</time>
      </trkpt>
      <trkpt lat="45.85721" lon="4.70361">
        <ele>196</ele>
        <time>2018-08-24T09:01:37Z</time>
      </trkpt>
      <trkpt lat="45.8572" lon="4.70354">
        <ele>196</ele>
        <time>2018-08-24T09:01:38Z</time>
      </trkpt>
      <trkpt lat="45.85719" lon="4.70347">
        <ele>196</ele>
        <time>2018-08-24T09:01:39Z</time>
      </trkpt>
      <trkpt lat="45.85717" lon="4.70341">
        <ele>196</ele>
        <time>2018-08-24T09:01:40Z</time>
      </trkpt>
      <trkpt lat="45.85716" lon="4.70335">
        <ele>196</ele>
        <time>2018-08-24T09:01:41Z</time>
      </trkpt>
      <trkpt lat="45.85716" lon="4.70329">
        <ele>197</ele>
        <time>2018-08-24T09:01:42Z</time>
      </trkpt>
      <trkpt lat="45.85716" lon="4.70321">
        <ele>197</ele>
        <time>2018-08-24T09:01:43Z</time>
      </trkpt>
      <trkpt lat="45.85715" lon="4.70314">
        <ele>197</ele>
        <time>2018-08-24T09:01:44Z</time>
      </trkpt>
      <trkpt lat="45.85714" lon="4.70307">
        <ele>197</ele>
        <time>2018-08-24T09:01:45Z</time>
      </trkpt>
      <trkpt lat="45.85713" lon="4.703">
        <ele>197</ele>
        <time>2018-08-24T09:01:46Z</time>
      </trkpt>
      <trkpt lat="45.85713" lon="4.70293">
        <ele>197</ele>
        <time>2018-08-24T09:01:47Z</time>
      </trkpt>
      <trkpt lat="45.85711" lon="4.70284">
        <ele>197</ele>
        <time>2018-08-24T09:01:48Z</time>
      </trkpt>
      <trkpt lat="45.85708" lon="4.70277">
        <ele>197</ele>
        <time>2018-08-24T09:01:49Z</time>
      </trkpt>
      <trkpt lat="45.85708" lon="4.70269">
        <ele>197</ele>
        <time>2018-08-24T09:01:50Z</time>
      </trkpt>
      <trkpt lat="45.85707" lon="4.70261">
        <ele>197</ele>
        <time>2018-08-24T09:01:51Z</time>
      </trkpt>
      <trkpt lat="45.85706" lon="4.70255">
        <ele>197</ele>
        <time>2018-08-24T09:01:52Z</time>
      </trkpt>
      <trkpt lat="45.85705" lon="4.70248">
        <ele>197</ele>
        <time>2018-08-24T09:01:53Z</time>
      </trkpt>
      <trkpt lat="45.85705" lon="4.70241">
        <ele>197</ele>
        <time>2018-08-24T09:01:54Z</time>
      </trkpt>
      <trkpt lat="45.85706" lon="4.70234">
        <ele>197</ele>
        <time>2018-08-24T09:01:55Z</time>
      </trkpt>
      <trkpt lat="45.85704" lon="4.70222">
        <ele>197</ele>
        <time>2018-08-24T09:01:57Z</time>
      </trkpt>
      <trkpt lat="45.85703" lon="4.70215">
        <ele>197</ele>
        <time>2018-08-24T09:01:58Z</time>
      </trkpt>
      <trkpt lat="45.85699" lon="4.70206">
        <ele>197</ele>
        <time>2018-08-24T09:01:59Z</time>
      </trkpt>
      <trkpt lat="45.85698" lon="4.70198">
        <ele>197</ele>
        <time>2018-08-24T09:02:00Z</time>
      </trkpt>
      <trkpt lat="45.85696" lon="4.7019">
        <ele>197</ele>
        <time>2018-08-24T09:02:01Z</time>
      </trkpt>
      <trkpt lat="45.85695" lon="4.70184">
        <ele>197</ele>
        <time>2018-08-24T09:02:02Z</time>
      </trkpt>
      <trkpt lat="45.85691" lon="4.70175">
        <ele>197</ele>
        <time>2018-08-24T09:02:03Z</time>
      </trkpt>
      <trkpt lat="45.8569" lon="4.70167">
        <ele>197</ele>
        <time>2018-08-24T09:02:04Z</time>
      </trkpt>
      <trkpt lat="45.85688" lon="4.7016">
        <ele>197</ele>
        <time>2018-08-24T09:02:05Z</time>
      </trkpt>
      <trkpt lat="45.85689" lon="4.70153">
        <ele>197</ele>
        <time>2018-08-24T09:02:06Z</time>
      </trkpt>
      <trkpt lat="45.85688" lon="4.70145">
        <ele>197</ele>
        <time>2018-08-24T09:02:07Z</time>
      </trkpt>
      <trkpt lat="45.85687" lon="4.70138">
        <ele>197</ele>
        <time>2018-08-24T09:02:08Z</time>
      </trkpt>
      <trkpt lat="45.85684" lon="4.7013">
        <ele>197</ele>
        <time>2018-08-24T09:02:09Z</time>
      </trkpt>
      <trkpt lat="45.85683" lon="4.70123">
        <ele>197</ele>
        <time>2018-08-24T09:02:10Z</time>
      </trkpt>
      <trkpt lat="45.85683" lon="4.70114">
        <ele>197</ele>
        <time>2018-08-24T09:02:11Z</time>
      </trkpt>
      <trkpt lat="45.85682" lon="4.70105">
        <ele>196</ele>
        <time>2018-08-24T09:02:12Z</time>
      </trkpt>
      <trkpt lat="45.85683" lon="4.70097">
        <ele>196</ele>
        <time>2018-08-24T09:02:13Z</time>
      </trkpt>
      <trkpt lat="45.85682" lon="4.70089">
        <ele>196</ele>
        <time>2018-08-24T09:02:14Z</time>
      </trkpt>
      <trkpt lat="45.85683" lon="4.70081">
        <ele>196</ele>
        <time>2018-08-24T09:02:15Z</time>
      </trkpt>
      <trkpt lat="45.85681" lon="4.70074">
        <ele>196</ele>
        <time>2018-08-24T09:02:16Z</time>
      </trkpt>
      <trkpt lat="45.85683" lon="4.7007">
        <ele>196</ele>
        <time>2018-08-24T09:02:17Z</time>
      </trkpt>
      <trkpt lat="45.85685" lon="4.70062">
        <ele>196</ele>
        <time>2018-08-24T09:02:18Z</time>
      </trkpt>
      <trkpt lat="45.85686" lon="4.70056">
        <ele>195</ele>
        <time>2018-08-24T09:02:19Z</time>
      </trkpt>
      <trkpt lat="45.85688" lon="4.7005">
        <ele>195</ele>
        <time>2018-08-24T09:02:20Z</time>
      </trkpt>
      <trkpt lat="45.85688" lon="4.70044">
        <ele>195</ele>
        <time>2018-08-24T09:02:21Z</time>
      </trkpt>
      <trkpt lat="45.8569" lon="4.70037">
        <ele>195</ele>
        <time>2018-08-24T09:02:22Z</time>
      </trkpt>
      <trkpt lat="45.85693" lon="4.70034">
        <ele>195</ele>
        <time>2018-08-24T09:02:23Z</time>
      </trkpt>
      <trkpt lat="45.85696" lon="4.70026">
        <ele>195</ele>
        <time>2018-08-24T09:02:24Z</time>
      </trkpt>
      <trkpt lat="45.85696" lon="4.70015">
        <ele>195</ele>
        <time>2018-08-24T09:02:26Z</time>
      </trkpt>
      <trkpt lat="45.85697" lon="4.70009">
        <ele>195</ele>
        <time>2018-08-24T09:02:27Z</time>
      </trkpt>
      <trkpt lat="45.85698" lon="4.70002">
        <ele>195</ele>
        <time>2018-08-24T09:02:28Z</time>
      </trkpt>
      <trkpt lat="45.85698" lon="4.69995">
        <ele>195</ele>
        <time>2018-08-24T09:02:29Z</time>
      </trkpt>
      <trkpt lat="45.85696" lon="4.69987">
        <ele>195</ele>
        <time>2018-08-24T09:02:30Z</time>
      </trkpt>
      <trkpt lat="45.85695" lon="4.69979">
        <ele>195</ele>
        <time>2018-08-24T09:02:31Z</time>
      </trkpt>
      <trkpt lat="45.85694" lon="4.6997">
        <ele>195</ele>
        <time>2018-08-24T09:02:32Z</time>
      </trkpt>
      <trkpt lat="45.85692" lon="4.69961">
        <ele>195</ele>
        <time>2018-08-24T09:02:33Z</time>
      </trkpt>
      <trkpt lat="45.8569" lon="4.69953">
        <ele>195</ele>
        <time>2018-08-24T09:02:34Z</time>
      </trkpt>
      <trkpt lat="45.85687" lon="4.69945">
        <ele>195</ele>
        <time>2018-08-24T09:02:35Z</time>
      </trkpt>
      <trkpt lat="45.85684" lon="4.69937">
        <ele>195</ele>
        <time>2018-08-24T09:02:36Z</time>
      </trkpt>
      <trkpt lat="45.85682" lon="4.69929">
        <ele>195</ele>
        <time>2018-08-24T09:02:37Z</time>
      </trkpt>
      <trkpt lat="45.85679" lon="4.6992">
        <ele>195</ele>
        <time>2018-08-24T09:02:38Z</time>
      </trkpt>
      <trkpt lat="45.85676" lon="4.69912">
        <ele>195</ele>
        <time>2018-08-24T09:02:39Z</time>
      </trkpt>
      <trkpt lat="45.85674" lon="4.69903">
        <ele>195</ele>
        <time>2018-08-24T09:02:40Z</time>
      </trkpt>
      <trkpt lat="45.85672" lon="4.69894">
        <ele>195</ele>
        <time>2018-08-24T09:02:41Z</time>
      </trkpt>
      <trkpt lat="45.85672" lon="4.69885">
        <ele>195</ele>
        <time>2018-08-24T09:02:42Z</time>
      </trkpt>
      <trkpt lat="45.8567" lon="4.69877">
        <ele>195</ele>
        <time>2018-08-24T09:02:43Z</time>
      </trkpt>
      <trkpt lat="45.85669" lon="4.6987">
        <ele>195</ele>
        <time>2018-08-24T09:02:44Z</time>
      </trkpt>
      <trkpt lat="45.85667" lon="4.69863">
        <ele>195</ele>
        <time>2018-08-24T09:02:45Z</time>
      </trkpt>
      <trkpt lat="45.85667" lon="4.69856">
        <ele>195</ele>
        <time>2018-08-24T09:02:46Z</time>
      </trkpt>
      <trkpt lat="45.85666" lon="4.69848">
        <ele>195</ele>
        <time>2018-08-24T09:02:47Z</time>
      </trkpt>
      <trkpt lat="45.85665" lon="4.69842">
        <ele>195</ele>
        <time>2018-08-24T09:02:48Z</time>
      </trkpt>
      <trkpt lat="45.85663" lon="4.69834">
        <ele>195</ele>
        <time>2018-08-24T09:02:49Z</time>
      </trkpt>
      <trkpt lat="45.85664" lon="4.69827">
        <ele>195</ele>
        <time>2018-08-24T09:02:50Z</time>
      </trkpt>
      <trkpt lat="45.85662" lon="4.69819">
        <ele>195</ele>
        <time>2018-08-24T09:02:51Z</time>
      </trkpt>
      <trkpt lat="45.85661" lon="4.69812">
        <ele>195</ele>
        <time>2018-08-24T09:02:52Z</time>
      </trkpt>
      <trkpt lat="45.8566" lon="4.69804">
        <ele>195</ele>
        <time>2018-08-24T09:02:53Z</time>
      </trkpt>
      <trkpt lat="45.85659" lon="4.69798">
        <ele>195</ele>
        <time>2018-08-24T09:02:54Z</time>
      </trkpt>
      <trkpt lat="45.85659" lon="4.6979">
        <ele>195</ele>
        <time>2018-08-24T09:02:55Z</time>
      </trkpt>
      <trkpt lat="45.85658" lon="4.69782">
        <ele>195</ele>
        <time>2018-08-24T09:02:56Z</time>
      </trkpt>
      <trkpt lat="45.85658" lon="4.69773">
        <ele>195</ele>
        <time>2018-08-24T09:02:57Z</time>
      </trkpt>
      <trkpt lat="45.85656" lon="4.69765">
        <ele>195</ele>
        <time>2018-08-24T09:02:58Z</time>
      </trkpt>
      <trkpt lat="45.85656" lon="4.69756">
        <ele>195</ele>
        <time>2018-08-24T09:02:59Z</time>
      </trkpt>
      <trkpt lat="45.85655" lon="4.69746">
        <ele>195</ele>
        <time>2018-08-24T09:03:00Z</time>
      </trkpt>
      <trkpt lat="45.85654" lon="4.69739">
        <ele>195</ele>
        <time>2018-08-24T09:03:01Z</time>
      </trkpt>
      <trkpt lat="45.85653" lon="4.69732">
        <ele>195</ele>
        <time>2018-08-24T09:03:02Z</time>
      </trkpt>
      <trkpt lat="45.85654" lon="4.69723">
        <ele>195</ele>
        <time>2018-08-24T09:03:03Z</time>
      </trkpt>
      <trkpt lat="45.85653" lon="4.69716">
        <ele>196</ele>
        <time>2018-08-24T09:03:04Z</time>
      </trkpt>
      <trkpt lat="45.85652" lon="4.69708">
        <ele>196</ele>
        <time>2018-08-24T09:03:05Z</time>
      </trkpt>
      <trkpt lat="45.8565" lon="4.69702">
        <ele>196</ele>
        <time>2018-08-24T09:03:06Z</time>
      </trkpt>
      <trkpt lat="45.8565" lon="4.69694">
        <ele>196</ele>
        <time>2018-08-24T09:03:07Z</time>
      </trkpt>
      <trkpt lat="45.85649" lon="4.69686">
        <ele>196</ele>
        <time>2018-08-24T09:03:08Z</time>
      </trkpt>
      <trkpt lat="45.85649" lon="4.6968">
        <ele>196</ele>
        <time>2018-08-24T09:03:09Z</time>
      </trkpt>
      <trkpt lat="45.85648" lon="4.69672">
        <ele>196</ele>
        <time>2018-08-24T09:03:10Z</time>
      </trkpt>
      <trkpt lat="45.85647" lon="4.69665">
        <ele>197</ele>
        <time>2018-08-24T09:03:11Z</time>
      </trkpt>
      <trkpt lat="45.85647" lon="4.69657">
        <ele>197</ele>
        <time>2018-08-24T09:03:12Z</time>
      </trkpt>
      <trkpt lat="45.85646" lon="4.69649">
        <ele>197</ele>
        <time>2018-08-24T09:03:13Z</time>
      </trkpt>
      <trkpt lat="45.85646" lon="4.69641">
        <ele>197</ele>
        <time>2018-08-24T09:03:14Z</time>
      </trkpt>
      <trkpt lat="45.85645" lon="4.69632">
        <ele>197</ele>
        <time>2018-08-24T09:03:15Z</time>
      </trkpt>
      <trkpt lat="45.85645" lon="4.69623">
        <ele>197</ele>
        <time>2018-08-24T09:03:16Z</time>
      </trkpt>
      <trkpt lat="45.85644" lon="4.69616">
        <ele>197</ele>
        <time>2018-08-24T09:03:17Z</time>
      </trkpt>
      <trkpt lat="45.85643" lon="4.69609">
        <ele>197</ele>
        <time>2018-08-24T09:03:18Z</time>
      </trkpt>
      <trkpt lat="45.85643" lon="4.69602">
        <ele>197</ele>
        <time>2018-08-24T09:03:19Z</time>
      </trkpt>
      <trkpt lat="45.85643" lon="4.69595">
        <ele>197</ele>
        <time>2018-08-24T09:03:20Z</time>
      </trkpt>
      <trkpt lat="45.85642" lon="4.69588">
        <ele>197</ele>
        <time>2018-08-24T09:03:21Z</time>
      </trkpt>
      <trkpt lat="45.85641" lon="4.69581">
        <ele>198</ele>
        <time>2018-08-24T09:03:22Z</time>
      </trkpt>
      <trkpt lat="45.85641" lon="4.69575">
        <ele>198</ele>
        <time>2018-08-24T09:03:23Z</time>
      </trkpt>
      <trkpt lat="45.8564" lon="4.69567">
        <ele>198</ele>
        <time>2018-08-24T09:03:24Z</time>
      </trkpt>
      <trkpt lat="45.85639" lon="4.6956">
        <ele>198</ele>
        <time>2018-08-24T09:03:25Z</time>
      </trkpt>
      <trkpt lat="45.85639" lon="4.69548">
        <ele>198</ele>
        <time>2018-08-24T09:03:27Z</time>
      </trkpt>
      <trkpt lat="45.85639" lon="4.69541">
        <ele>198</ele>
        <time>2018-08-24T09:03:28Z</time>
      </trkpt>
      <trkpt lat="45.85638" lon="4.69532">
        <ele>198</ele>
        <time>2018-08-24T09:03:29Z</time>
      </trkpt>
      <trkpt lat="45.85637" lon="4.69524">
        <ele>198</ele>
        <time>2018-08-24T09:03:30Z</time>
      </trkpt>
      <trkpt lat="45.85638" lon="4.69518">
        <ele>198</ele>
        <time>2018-08-24T09:03:31Z</time>
      </trkpt>
      <trkpt lat="45.85637" lon="4.6951">
        <ele>198</ele>
        <time>2018-08-24T09:03:32Z</time>
      </trkpt>
      <trkpt lat="45.85636" lon="4.69502">
        <ele>198</ele>
        <time>2018-08-24T09:03:33Z</time>
      </trkpt>
      <trkpt lat="45.85636" lon="4.69495">
        <ele>198</ele>
        <time>2018-08-24T09:03:34Z</time>
      </trkpt>
      <trkpt lat="45.85635" lon="4.69483">
        <ele>198</ele>
        <time>2018-08-24T09:03:36Z</time>
      </trkpt>
      <trkpt lat="45.85634" lon="4.69475">
        <ele>198</ele>
        <time>2018-08-24T09:03:37Z</time>
      </trkpt>
      <trkpt lat="45.85634" lon="4.69466">
        <ele>198</ele>
        <time>2018-08-24T09:03:38Z</time>
      </trkpt>
      <trkpt lat="45.85633" lon="4.69458">
        <ele>198</ele>
        <time>2018-08-24T09:03:39Z</time>
      </trkpt>
      <trkpt lat="45.85632" lon="4.69446">
        <ele>198</ele>
        <time>2018-08-24T09:03:41Z</time>
      </trkpt>
      <trkpt lat="45.85631" lon="4.69439">
        <ele>198</ele>
        <time>2018-08-24T09:03:42Z</time>
      </trkpt>
      <trkpt lat="45.85631" lon="4.69432">
        <ele>198</ele>
        <time>2018-08-24T09:03:43Z</time>
      </trkpt>
      <trkpt lat="45.8563" lon="4.69426">
        <ele>198</ele>
        <time>2018-08-24T09:03:44Z</time>
      </trkpt>
      <trkpt lat="45.85629" lon="4.69418">
        <ele>198</ele>
        <time>2018-08-24T09:03:45Z</time>
      </trkpt>
      <trkpt lat="45.85627" lon="4.69411">
        <ele>198</ele>
        <time>2018-08-24T09:03:46Z</time>
      </trkpt>
      <trkpt lat="45.85627" lon="4.69405">
        <ele>198</ele>
        <time>2018-08-24T09:03:47Z</time>
      </trkpt>
      <trkpt lat="45.85626" lon="4.69398">
        <ele>198</ele>
        <time>2018-08-24T09:03:48Z</time>
      </trkpt>
      <trkpt lat="45.85626" lon="4.69389">
        <ele>198</ele>
        <time>2018-08-24T09:03:49Z</time>
      </trkpt>
      <trkpt lat="45.85624" lon="4.69382">
        <ele>198</ele>
        <time>2018-08-24T09:03:50Z</time>
      </trkpt>
      <trkpt lat="45.85624" lon="4.69375">
        <ele>198</ele>
        <time>2018-08-24T09:03:51Z</time>
      </trkpt>
      <trkpt lat="45.85623" lon="4.69367">
        <ele>198</ele>
        <time>2018-08-24T09:03:52Z</time>
      </trkpt>
      <trkpt lat="45.85622" lon="4.69355">
        <ele>198</ele>
        <time>2018-08-24T09:03:54Z</time>
      </trkpt>
      <trkpt lat="45.85622" lon="4.69349">
        <ele>198</ele>
        <time>2018-08-24T09:03:55Z</time>
      </trkpt>
      <trkpt lat="45.85621" lon="4.69341">
        <ele>198</ele>
        <time>2018-08-24T09:03:56Z</time>
      </trkpt>
      <trkpt lat="45.85619" lon="4.69333">
        <ele>198</ele>
        <time>2018-08-24T09:03:57Z</time>
      </trkpt>
      <trkpt lat="45.85618" lon="4.69325">
        <ele>198</ele>
        <time>2018-08-24T09:03:58Z</time>
      </trkpt>
      <trkpt lat="45.85618" lon="4.69318">
        <ele>198</ele>
        <time>2018-08-24T09:03:59Z</time>
      </trkpt>
      <trkpt lat="45.85616" lon="4.69311">
        <ele>198</ele>
        <time>2018-08-24T09:04:00Z</time>
      </trkpt>
      <trkpt lat="45.85615" lon="4.69306">
        <ele>198</ele>
        <time>2018-08-24T09:04:01Z</time>
      </trkpt>
      <trkpt lat="45.85613" lon="4.69293">
        <ele>198</ele>
        <time>2018-08-24T09:04:03Z</time>
      </trkpt>
      <trkpt lat="45.85614" lon="4.69287">
        <ele>198</ele>
        <time>2018-08-24T09:04:04Z</time>
      </trkpt>
      <trkpt lat="45.85615" lon="4.69276">
        <ele>198</ele>
        <time>2018-08-24T09:04:06Z</time>
      </trkpt>
      <trkpt lat="45.85615" lon="4.6927">
        <ele>198</ele>
        <time>2018-08-24T09:04:07Z</time>
      </trkpt>
      <trkpt lat="45.85615" lon="4.69263">
        <ele>198</ele>
        <time>2018-08-24T09:04:08Z</time>
      </trkpt>
      <trkpt lat="45.85614" lon="4.69255">
        <ele>198</ele>
        <time>2018-08-24T09:04:09Z</time>
      </trkpt>
      <trkpt lat="45.85612" lon="4.69249">
        <ele>199</ele>
        <time>2018-08-24T09:04:10Z</time>
      </trkpt>
      <trkpt lat="45.85611" lon="4.69242">
        <ele>199</ele>
        <time>2018-08-24T09:04:11Z</time>
      </trkpt>
      <trkpt lat="45.85609" lon="4.69235">
        <ele>199</ele>
        <time>2018-08-24T09:04:12Z</time>
      </trkpt>
      <trkpt lat="45.85608" lon="4.69229">
        <ele>199</ele>
        <time>2018-08-24T09:04:13Z</time>
      </trkpt>
      <trkpt lat="45.85607" lon="4.69222">
        <ele>199</ele>
        <time>2018-08-24T09:04:14Z</time>
      </trkpt>
      <trkpt lat="45.85607" lon="4.69215">
        <ele>199</ele>
        <time>2018-08-24T09:04:15Z</time>
      </trkpt>
      <trkpt lat="45.85607" lon="4.69206">
        <ele>199</ele>
        <time>2018-08-24T09:04:16Z</time>
      </trkpt>
      <trkpt lat="45.85606" lon="4.69199">
        <ele>199</ele>
        <time>2018-08-24T09:04:17Z</time>
      </trkpt>
      <trkpt lat="45.85606" lon="4.69192">
        <ele>199</ele>
        <time>2018-08-24T09:04:18Z</time>
      </trkpt>
      <trkpt lat="45.85605" lon="4.69184">
        <ele>199</ele>
        <time>2018-08-24T09:04:19Z</time>
      </trkpt>
      <trkpt lat="45.85605" lon="4.69177">
        <ele>199</ele>
        <time>2018-08-24T09:04:20Z</time>
      </trkpt>
      <trkpt lat="45.85604" lon="4.69169">
        <ele>199</ele>
        <time>2018-08-24T09:04:21Z</time>
      </trkpt>
      <trkpt lat="45.85603" lon="4.69162">
        <ele>199</ele>
        <time>2018-08-24T09:04:22Z</time>
      </trkpt>
      <trkpt lat="45.85602" lon="4.69153">
        <ele>199</ele>
        <time>2018-08-24T09:04:23Z</time>
      </trkpt>
      <trkpt lat="45.85603" lon="4.69147">
        <ele>199</ele>
        <time>2018-08-24T09:04:24Z</time>
      </trkpt>
      <trkpt lat="45.85602" lon="4.69139">
        <ele>198</ele>
        <time>2018-08-24T09:04:25Z</time>
      </trkpt>
      <trkpt lat="45.85602" lon="4.69132">
        <ele>198</ele>
        <time>2018-08-24T09:04:26Z</time>
      </trkpt>
      <trkpt lat="45.85601" lon="4.69125">
        <ele>198</ele>
        <time>2018-08-24T09:04:27Z</time>
      </trkpt>
      <trkpt lat="45.85601" lon="4.69118">
        <ele>198</ele>
        <time>2018-08-24T09:04:28Z</time>
      </trkpt>
      <trkpt lat="45.856" lon="4.69112">
        <ele>198</ele>
        <time>2018-08-24T09:04:29Z</time>
      </trkpt>
      <trkpt lat="45.85599" lon="4.69103">
        <ele>199</ele>
        <time>2018-08-24T09:04:30Z</time>
      </trkpt>
      <trkpt lat="45.85597" lon="4.69095">
        <ele>199</ele>
        <time>2018-08-24T09:04:31Z</time>
      </trkpt>
      <trkpt lat="45.85596" lon="4.69087">
        <ele>199</ele>
        <time>2018-08-24T09:04:32Z</time>
      </trkpt>
      <trkpt lat="45.85595" lon="4.69078">
        <ele>199</ele>
        <time>2018-08-24T09:04:33Z</time>
      </trkpt>
      <trkpt lat="45.85594" lon="4.69071">
        <ele>199</ele>
        <time>2018-08-24T09:04:34Z</time>
      </trkpt>
      <trkpt lat="45.85593" lon="4.69063">
        <ele>199</ele>
        <time>2018-08-24T09:04:35Z</time>
      </trkpt>
      <trkpt lat="45.85592" lon="4.69056">
        <ele>199</ele>
        <time>2018-08-24T09:04:36Z</time>
      </trkpt>
      <trkpt lat="45.85592" lon="4.69049">
        <ele>199</ele>
        <time>2018-08-24T09:04:37Z</time>
      </trkpt>
      <trkpt lat="45.85591" lon="4.69041">
        <ele>199</ele>
        <time>2018-08-24T09:04:38Z</time>
      </trkpt>
      <trkpt lat="45.8559" lon="4.69033">
        <ele>199</ele>
        <time>2018-08-24T09:04:39Z</time>
      </trkpt>
      <trkpt lat="45.85591" lon="4.69027">
        <ele>199</ele>
        <time>2018-08-24T09:04:40Z</time>
      </trkpt>
      <trkpt lat="45.85591" lon="4.6902">
        <ele>199</ele>
        <time>2018-08-24T09:04:41Z</time>
      </trkpt>
      <trkpt lat="45.8559" lon="4.69011">
        <ele>200</ele>
        <time>2018-08-24T09:04:42Z</time>
      </trkpt>
      <trkpt lat="45.85589" lon="4.69005">
        <ele>200</ele>
        <time>2018-08-24T09:04:43Z</time>
      </trkpt>
      <trkpt lat="45.85587" lon="4.68996">
        <ele>200</ele>
        <time>2018-08-24T09:04:44Z</time>
      </trkpt>
      <trkpt lat="45.85585" lon="4.68988">
        <ele>200</ele>
        <time>2018-08-24T09:04:45Z</time>
      </trkpt>
      <trkpt lat="45.85585" lon="4.68981">
        <ele>200</ele>
        <time>2018-08-24T09:04:46Z</time>
      </trkpt>
      <trkpt lat="45.85583" lon="4.68973">
        <ele>200</ele>
        <time>2018-08-24T09:04:47Z</time>
      </trkpt>
      <trkpt lat="45.85582" lon="4.68965">
        <ele>200</ele>
        <time>2018-08-24T09:04:48Z</time>
      </trkpt>
      <trkpt lat="45.85582" lon="4.68956">
        <ele>200</ele>
        <time>2018-08-24T09:04:49Z</time>
      </trkpt>
      <trkpt lat="45.85582" lon="4.68948">
        <ele>200</ele>
        <time>2018-08-24T09:04:50Z</time>
      </trkpt>
      <trkpt lat="45.85583" lon="4.6894">
        <ele>200</ele>
        <time>2018-08-24T09:04:51Z</time>
      </trkpt>
      <trkpt lat="45.85581" lon="4.68931">
        <ele>200</ele>
        <time>2018-08-24T09:04:52Z</time>
      </trkpt>
      <trkpt lat="45.8558" lon="4.68922">
        <ele>200</ele>
        <time>2018-08-24T09:04:53Z</time>
      </trkpt>
      <trkpt lat="45.8558" lon="4.68914">
        <ele>200</ele>
        <time>2018-08-24T09:04:54Z</time>
      </trkpt>
      <trkpt lat="45.8558" lon="4.68906">
        <ele>200</ele>
        <time>2018-08-24T09:04:55Z</time>
      </trkpt>
      <trkpt lat="45.85578" lon="4.68898">
        <ele>200</ele>
        <time>2018-08-24T09:04:56Z</time>
      </trkpt>
      <trkpt lat="45.85578" lon="4.68889">
        <ele>200</ele>
        <time>2018-08-24T09:04:57Z</time>
      </trkpt>
      <trkpt lat="45.85577" lon="4.6888">
        <ele>200</ele>
        <time>2018-08-24T09:04:58Z</time>
      </trkpt>
      <trkpt lat="45.85577" lon="4.68873">
        <ele>200</ele>
        <time>2018-08-24T09:04:59Z</time>
      </trkpt>
      <trkpt lat="45.85578" lon="4.68866">
        <ele>200</ele>
        <time>2018-08-24T09:05:00Z</time>
      </trkpt>
      <trkpt lat="45.85577" lon="4.68857">
        <ele>200</ele>
        <time>2018-08-24T09:05:01Z</time>
      </trkpt>
      <trkpt lat="45.85576" lon="4.68849">
        <ele>200</ele>
        <time>2018-08-24T09:05:02Z</time>
      </trkpt>
      <trkpt lat="45.85574" lon="4.68842">
        <ele>200</ele>
        <time>2018-08-24T09:05:03Z</time>
      </trkpt>
      <trkpt lat="45.85573" lon="4.68832">
        <ele>200</ele>
        <time>2018-08-24T09:05:04Z</time>
      </trkpt>
      <trkpt lat="45.85572" lon="4.68822">
        <ele>200</ele>
        <time>2018-08-24T09:05:05Z</time>
      </trkpt>
      <trkpt lat="45.85571" lon="4.68812">
        <ele>200</ele>
        <time>2018-08-24T09:05:06Z</time>
      </trkpt>
      <trkpt lat="45.85571" lon="4.68804">
        <ele>200</ele>
        <time>2018-08-24T09:05:07Z</time>
      </trkpt>
      <trkpt lat="45.8557" lon="4.68792">
        <ele>200</ele>
        <time>2018-08-24T09:05:08Z</time>
      </trkpt>
      <trkpt lat="45.8557" lon="4.68783">
        <ele>200</ele>
        <time>2018-08-24T09:05:09Z</time>
      </trkpt>
      <trkpt lat="45.85569" lon="4.68775">
        <ele>200</ele>
        <time>2018-08-24T09:05:10Z</time>
      </trkpt>
      <trkpt lat="45.85571" lon="4.68767">
        <ele>200</ele>
        <time>2018-08-24T09:05:11Z</time>
      </trkpt>
      <trkpt lat="45.8557" lon="4.6876">
        <ele>200</ele>
        <time>2018-08-24T09:05:12Z</time>
      </trkpt>
      <trkpt lat="45.85569" lon="4.68752">
        <ele>200</ele>
        <time>2018-08-24T09:05:13Z</time>
      </trkpt>
      <trkpt lat="45.85567" lon="4.68744">
        <ele>200</ele>
        <time>2018-08-24T09:05:14Z</time>
      </trkpt>
      <trkpt lat="45.85566" lon="4.68737">
        <ele>200</ele>
        <time>2018-08-24T09:05:15Z</time>
      </trkpt>
      <trkpt lat="45.85565" lon="4.68731">
        <ele>200</ele>
        <time>2018-08-24T09:05:16Z</time>
      </trkpt>
      <trkpt lat="45.85564" lon="4.68724">
        <ele>200</ele>
        <time>2018-08-24T09:05:17Z</time>
      </trkpt>
      <trkpt lat="45.85563" lon="4.68716">
        <ele>200</ele>
        <time>2018-08-24T09:05:18Z</time>
      </trkpt>
      <trkpt lat="45.85562" lon="4.68708">
        <ele>200</ele>
        <time>2018-08-24T09:05:19Z</time>
      </trkpt>
      <trkpt lat="45.85561" lon="4.68701">
        <ele>200</ele>
        <time>2018-08-24T09:05:20Z</time>
      </trkpt>
      <trkpt lat="45.85559" lon="4.68694">
        <ele>200</ele>
        <time>2018-08-24T09:05:21Z</time>
      </trkpt>
      <trkpt lat="45.85559" lon="4.68687">
        <ele>200</ele>
        <time>2018-08-24T09:05:22Z</time>
      </trkpt>
      <trkpt lat="45.85558" lon="4.6868">
        <ele>200</ele>
        <time>2018-08-24T09:05:23Z</time>
      </trkpt>
      <trkpt lat="45.85557" lon="4.68672">
        <ele>200</ele>
        <time>2018-08-24T09:05:24Z</time>
      </trkpt>
      <trkpt lat="45.85556" lon="4.68664">
        <ele>200</ele>
        <time>2018-08-24T09:05:25Z</time>
      </trkpt>
      <trkpt lat="45.85555" lon="4.68655">
        <ele>200</ele>
        <time>2018-08-24T09:05:26Z</time>
      </trkpt>
      <trkpt lat="45.85554" lon="4.68647">
        <ele>201</ele>
        <time>2018-08-24T09:05:27Z</time>
      </trkpt>
      <trkpt lat="45.85552" lon="4.68639">
        <ele>201</ele>
        <time>2018-08-24T09:05:28Z</time>
      </trkpt>
      <trkpt lat="45.85551" lon="4.68631">
        <ele>201</ele>
        <time>2018-08-24T09:05:29Z</time>
      </trkpt>
      <trkpt lat="45.85554" lon="4.68621">
        <ele>201</ele>
        <time>2018-08-24T09:05:30Z</time>
      </trkpt>
      <trkpt lat="45.85553" lon="4.68614">
        <ele>201</ele>
        <time>2018-08-24T09:05:31Z</time>
      </trkpt>
      <trkpt lat="45.85551" lon="4.68602">
        <ele>201</ele>
        <time>2018-08-24T09:05:33Z</time>
      </trkpt>
      <trkpt lat="45.85551" lon="4.68594">
        <ele>201</ele>
        <time>2018-08-24T09:05:34Z</time>
      </trkpt>
      <trkpt lat="45.85551" lon="4.68585">
        <ele>201</ele>
        <time>2018-08-24T09:05:35Z</time>
      </trkpt>
      <trkpt lat="45.85549" lon="4.68579">
        <ele>201</ele>
        <time>2018-08-24T09:05:36Z</time>
      </trkpt>
      <trkpt lat="45.85547" lon="4.68569">
        <ele>201</ele>
        <time>2018-08-24T09:05:37Z</time>
      </trkpt>
      <trkpt lat="45.85547" lon="4.68561">
        <ele>201</ele>
        <time>2018-08-24T09:05:38Z</time>
      </trkpt>
      <trkpt lat="45.85547" lon="4.68548">
        <ele>201</ele>
        <time>2018-08-24T09:05:40Z</time>
      </trkpt>
      <trkpt lat="45.85546" lon="4.68541">
        <ele>201</ele>
        <time>2018-08-24T09:05:41Z</time>
      </trkpt>
      <trkpt lat="45.85545" lon="4.68531">
        <ele>201</ele>
        <time>2018-08-24T09:05:42Z</time>
      </trkpt>
      <trkpt lat="45.85545" lon="4.68524">
        <ele>201</ele>
        <time>2018-08-24T09:05:43Z</time>
      </trkpt>
      <trkpt lat="45.85543" lon="4.68517">
        <ele>201</ele>
        <time>2018-08-24T09:05:44Z</time>
      </trkpt>
      <trkpt lat="45.85543" lon="4.6851">
        <ele>201</ele>
        <time>2018-08-24T09:05:45Z</time>
      </trkpt>
      <trkpt lat="45.85542" lon="4.68498">
        <ele>200</ele>
        <time>2018-08-24T09:05:47Z</time>
      </trkpt>
      <trkpt lat="45.85542" lon="4.68493">
        <ele>200</ele>
        <time>2018-08-24T09:05:48Z</time>
      </trkpt>
      <trkpt lat="45.85541" lon="4.68486">
        <ele>200</ele>
        <time>2018-08-24T09:05:49Z</time>
      </trkpt>
      <trkpt lat="45.85541" lon="4.68474">
        <ele>200</ele>
        <time>2018-08-24T09:05:50Z</time>
      </trkpt>
      <trkpt lat="45.8554" lon="4.68466">
        <ele>200</ele>
        <time>2018-08-24T09:05:51Z</time>
      </trkpt>
      <trkpt lat="45.85539" lon="4.68457">
        <ele>200</ele>
        <time>2018-08-24T09:05:52Z</time>
      </trkpt>
      <trkpt lat="45.85538" lon="4.68448">
        <ele>200</ele>
        <time>2018-08-24T09:05:53Z</time>
      </trkpt>
      <trkpt lat="45.85536" lon="4.68441">
        <ele>200</ele>
        <time>2018-08-24T09:05:54Z</time>
      </trkpt>
      <trkpt lat="45.85535" lon="4.68432">
        <ele>200</ele>
        <time>2018-08-24T09:05:55Z</time>
      </trkpt>
      <trkpt lat="45.85534" lon="4.68422">
        <ele>200</ele>
        <time>2018-08-24T09:05:56Z</time>
      </trkpt>
      <trkpt lat="45.85534" lon="4.68413">
        <ele>200</ele>
        <time>2018-08-24T09:05:57Z</time>
      </trkpt>
      <trkpt lat="45.85534" lon="4.68404">
        <ele>200</ele>
        <time>2018-08-24T09:05:58Z</time>
      </trkpt>
      <trkpt lat="45.85533" lon="4.68397">
        <ele>200</ele>
        <time>2018-08-24T09:05:59Z</time>
      </trkpt>
      <trkpt lat="45.85532" lon="4.68389">
        <ele>200</ele>
        <time>2018-08-24T09:06:00Z</time>
      </trkpt>
      <trkpt lat="45.85531" lon="4.68381">
        <ele>200</ele>
        <time>2018-08-24T09:06:01Z</time>
      </trkpt>
      <trkpt lat="45.8553" lon="4.68374">
        <ele>201</ele>
        <time>2018-08-24T09:06:02Z</time>
      </trkpt>
      <trkpt lat="45.85531" lon="4.68364">
        <ele>201</ele>
        <time>2018-08-24T09:06:03Z</time>
      </trkpt>
      <trkpt lat="45.85529" lon="4.68358">
        <ele>201</ele>
        <time>2018-08-24T09:06:04Z</time>
      </trkpt>
      <trkpt lat="45.85528" lon="4.68351">
        <ele>201</ele>
        <time>2018-08-24T09:06:05Z</time>
      </trkpt>
      <trkpt lat="45.85527" lon="4.68343">
        <ele>201</ele>
        <time>2018-08-24T09:06:06Z</time>
      </trkpt>
      <trkpt lat="45.85527" lon="4.68334">
        <ele>201</ele>
        <time>2018-08-24T09:06:07Z</time>
      </trkpt>
      <trkpt lat="45.85528" lon="4.68329">
        <ele>202</ele>
        <time>2018-08-24T09:06:08Z</time>
      </trkpt>
      <trkpt lat="45.85528" lon="4.68321">
        <ele>202</ele>
        <time>2018-08-24T09:06:09Z</time>
      </trkpt>
      <trkpt lat="45.85527" lon="4.68314">
        <ele>202</ele>
        <time>2018-08-24T09:06:10Z</time>
      </trkpt>
      <trkpt lat="45.85526" lon="4.68306">
        <ele>202</ele>
        <time>2018-08-24T09:06:11Z</time>
      </trkpt>
      <trkpt lat="45.85524" lon="4.68298">
        <ele>202</ele>
        <time>2018-08-24T09:06:12Z</time>
      </trkpt>
      <trkpt lat="45.85523" lon="4.6829">
        <ele>202</ele>
        <time>2018-08-24T09:06:13Z</time>
      </trkpt>
      <trkpt lat="45.85524" lon="4.68283">
        <ele>202</ele>
        <time>2018-08-24T09:06:14Z</time>
      </trkpt>
      <trkpt lat="45.85522" lon="4.6827">
        <ele>202</ele>
        <time>2018-08-24T09:06:16Z</time>
      </trkpt>
      <trkpt lat="45.85522" lon="4.68268">
        <ele>202</ele>
        <time>2018-08-24T09:06:17Z</time>
      </trkpt>
      <trkpt lat="45.85519" lon="4.68258">
        <ele>202</ele>
        <time>2018-08-24T09:06:18Z</time>
      </trkpt>
      <trkpt lat="45.85519" lon="4.68253">
        <ele>202</ele>
        <time>2018-08-24T09:06:19Z</time>
      </trkpt>
      <trkpt lat="45.85518" lon="4.68247">
        <ele>203</ele>
        <time>2018-08-24T09:06:20Z</time>
      </trkpt>
      <trkpt lat="45.85518" lon="4.6824">
        <ele>203</ele>
        <time>2018-08-24T09:06:21Z</time>
      </trkpt>
      <trkpt lat="45.85515" lon="4.68234">
        <ele>203</ele>
        <time>2018-08-24T09:06:22Z</time>
      </trkpt>
      <trkpt lat="45.85515" lon="4.68228">
        <ele>203</ele>
        <time>2018-08-24T09:06:23Z</time>
      </trkpt>
      <trkpt lat="45.85515" lon="4.6822">
        <ele>203</ele>
        <time>2018-08-24T09:06:24Z</time>
      </trkpt>
      <trkpt lat="45.85514" lon="4.68214">
        <ele>203</ele>
        <time>2018-08-24T09:06:25Z</time>
      </trkpt>
      <trkpt lat="45.85514" lon="4.68201">
        <ele>203</ele>
        <time>2018-08-24T09:06:27Z</time>
      </trkpt>
      <trkpt lat="45.85513" lon="4.68195">
        <ele>203</ele>
        <time>2018-08-24T09:06:28Z</time>
      </trkpt>
      <trkpt lat="45.85513" lon="4.68188">
        <ele>203</ele>
        <time>2018-08-24T09:06:29Z</time>
      </trkpt>
      <trkpt lat="45.85511" lon="4.68182">
        <ele>203</ele>
        <time>2018-08-24T09:06:30Z</time>
      </trkpt>
      <trkpt lat="45.8551" lon="4.68176">
        <ele>204</ele>
        <time>2018-08-24T09:06:31Z</time>
      </trkpt>
      <trkpt lat="45.8551" lon="4.68166">
        <ele>204</ele>
        <time>2018-08-24T09:06:32Z</time>
      </trkpt>
      <trkpt lat="45.85509" lon="4.6816">
        <ele>204</ele>
        <time>2018-08-24T09:06:33Z</time>
      </trkpt>
      <trkpt lat="45.8551" lon="4.68152">
        <ele>203</ele>
        <time>2018-08-24T09:06:34Z</time>
      </trkpt>
      <trkpt lat="45.8551" lon="4.68144">
        <ele>203</ele>
        <time>2018-08-24T09:06:35Z</time>
      </trkpt>
      <trkpt lat="45.8551" lon="4.68138">
        <ele>203</ele>
        <time>2018-08-24T09:06:36Z</time>
      </trkpt>
      <trkpt lat="45.8551" lon="4.68132">
        <ele>203</ele>
        <time>2018-08-24T09:06:37Z</time>
      </trkpt>
      <trkpt lat="45.85507" lon="4.68125">
        <ele>203</ele>
        <time>2018-08-24T09:06:38Z</time>
      </trkpt>
      <trkpt lat="45.85505" lon="4.68113">
        <ele>203</ele>
        <time>2018-08-24T09:06:40Z</time>
      </trkpt>
      <trkpt lat="45.85506" lon="4.68108">
        <ele>203</ele>
        <time>2018-08-24T09:06:41Z</time>
      </trkpt>
      <trkpt lat="45.85505" lon="4.68101">
        <ele>203</ele>
        <time>2018-08-24T09:06:42Z</time>
      </trkpt>
      <trkpt lat="45.85503" lon="4.68095">
        <ele>203</ele>
        <time>2018-08-24T09:06:43Z</time>
      </trkpt>
      <trkpt lat="45.85503" lon="4.68087">
        <ele>204</ele>
        <time>2018-08-24T09:06:44Z</time>
      </trkpt>
      <trkpt lat="45.85503" lon="4.68081">
        <ele>204</ele>
        <time>2018-08-24T09:06:45Z</time>
      </trkpt>
      <trkpt lat="45.85504" lon="4.6807">
        <ele>203</ele>
        <time>2018-08-24T09:06:47Z</time>
      </trkpt>
      <trkpt lat="45.85505" lon="4.68064">
        <ele>203</ele>
        <time>2018-08-24T09:06:48Z</time>
      </trkpt>
      <trkpt lat="45.85505" lon="4.68057">
        <ele>203</ele>
        <time>2018-08-24T09:06:49Z</time>
      </trkpt>
      <trkpt lat="45.85503" lon="4.68051">
        <ele>203</ele>
        <time>2018-08-24T09:06:50Z</time>
      </trkpt>
      <trkpt lat="45.85501" lon="4.6804">
        <ele>203</ele>
        <time>2018-08-24T09:06:53Z</time>
      </trkpt>
      <trkpt lat="45.855" lon="4.68036">
        <ele>204</ele>
        <time>2018-08-24T09:06:54Z</time>
      </trkpt>
      <trkpt lat="45.855" lon="4.68033">
        <ele>207</ele>
        <time>2018-08-24T09:06:55Z</time>
      </trkpt>
      <trkpt lat="45.85498" lon="4.68021">
        <ele>207</ele>
        <time>2018-08-24T09:06:56Z</time>
      </trkpt>
      <trkpt lat="45.85499" lon="4.68009">
        <ele>206</ele>
        <time>2018-08-24T09:06:58Z</time>
      </trkpt>
      <trkpt lat="45.85499" lon="4.68004">
        <ele>206</ele>
        <time>2018-08-24T09:06:59Z</time>
      </trkpt>
      <trkpt lat="45.85505" lon="4.67998">
        <ele>206</ele>
        <time>2018-08-24T09:07:00Z</time>
      </trkpt>
      <trkpt lat="45.85507" lon="4.67994">
        <ele>206</ele>
        <time>2018-08-24T09:07:01Z</time>
      </trkpt>
      <trkpt lat="45.85513" lon="4.67988">
        <ele>206</ele>
        <time>2018-08-24T09:07:03Z</time>
      </trkpt>
      <trkpt lat="45.85516" lon="4.67982">
        <ele>206</ele>
        <time>2018-08-24T09:07:04Z</time>
      </trkpt>
      <trkpt lat="45.85521" lon="4.6798">
        <ele>206</ele>
        <time>2018-08-24T09:07:05Z</time>
      </trkpt>
      <trkpt lat="45.85524" lon="4.67976">
        <ele>205</ele>
        <time>2018-08-24T09:07:06Z</time>
      </trkpt>
      <trkpt lat="45.85528" lon="4.67971">
        <ele>205</ele>
        <time>2018-08-24T09:07:07Z</time>
      </trkpt>
      <trkpt lat="45.85533" lon="4.67966">
        <ele>205</ele>
        <time>2018-08-24T09:07:08Z</time>
      </trkpt>
      <trkpt lat="45.85537" lon="4.67964">
        <ele>205</ele>
        <time>2018-08-24T09:07:09Z</time>
      </trkpt>
      <trkpt lat="45.85542" lon="4.67961">
        <ele>205</ele>
        <time>2018-08-24T09:07:10Z</time>
      </trkpt>
      <trkpt lat="45.85545" lon="4.67956">
        <ele>205</ele>
        <time>2018-08-24T09:07:11Z</time>
      </trkpt>
      <trkpt lat="45.8555" lon="4.67951">
        <ele>205</ele>
        <time>2018-08-24T09:07:12Z</time>
      </trkpt>
      <trkpt lat="45.85554" lon="4.67947">
        <ele>205</ele>
        <time>2018-08-24T09:07:13Z</time>
      </trkpt>
      <trkpt lat="45.85558" lon="4.67942">
        <ele>205</ele>
        <time>2018-08-24T09:07:14Z</time>
      </trkpt>
      <trkpt lat="45.85565" lon="4.67936">
        <ele>205</ele>
        <time>2018-08-24T09:07:16Z</time>
      </trkpt>
      <trkpt lat="45.85566" lon="4.67934">
        <ele>205</ele>
        <time>2018-08-24T09:07:17Z</time>
      </trkpt>
      <trkpt lat="45.85573" lon="4.67933">
        <ele>205</ele>
        <time>2018-08-24T09:07:18Z</time>
      </trkpt>
      <trkpt lat="45.85576" lon="4.67936">
        <ele>205</ele>
        <time>2018-08-24T09:07:19Z</time>
      </trkpt>
      <trkpt lat="45.85581" lon="4.67946">
        <ele>204</ele>
        <time>2018-08-24T09:07:21Z</time>
      </trkpt>
      <trkpt lat="45.85584" lon="4.67954">
        <ele>203</ele>
        <time>2018-08-24T09:07:22Z</time>
      </trkpt>
      <trkpt lat="45.85587" lon="4.67961">
        <ele>203</ele>
        <time>2018-08-24T09:07:23Z</time>
      </trkpt>
      <trkpt lat="45.85589" lon="4.67968">
        <ele>203</ele>
        <time>2018-08-24T09:07:24Z</time>
      </trkpt>
      <trkpt lat="45.85593" lon="4.67976">
        <ele>203</ele>
        <time>2018-08-24T09:07:25Z</time>
      </trkpt>
      <trkpt lat="45.85595" lon="4.67982">
        <ele>203</ele>
        <time>2018-08-24T09:07:26Z</time>
      </trkpt>
      <trkpt lat="45.85597" lon="4.67989">
        <ele>202</ele>
        <time>2018-08-24T09:07:27Z</time>
      </trkpt>
      <trkpt lat="45.856" lon="4.67997">
        <ele>202</ele>
        <time>2018-08-24T09:07:28Z</time>
      </trkpt>
      <trkpt lat="45.85603" lon="4.68003">
        <ele>201</ele>
        <time>2018-08-24T09:07:29Z</time>
      </trkpt>
      <trkpt lat="45.85606" lon="4.6801">
        <ele>201</ele>
        <time>2018-08-24T09:07:30Z</time>
      </trkpt>
      <trkpt lat="45.85609" lon="4.68016">
        <ele>201</ele>
        <time>2018-08-24T09:07:31Z</time>
      </trkpt>
      <trkpt lat="45.85612" lon="4.6802">
        <ele>201</ele>
        <time>2018-08-24T09:07:32Z</time>
      </trkpt>
      <trkpt lat="45.85616" lon="4.68027">
        <ele>201</ele>
        <time>2018-08-24T09:07:33Z</time>
      </trkpt>
      <trkpt lat="45.85617" lon="4.68032">
        <ele>201</ele>
        <time>2018-08-24T09:07:34Z</time>
      </trkpt>
      <trkpt lat="45.85621" lon="4.68043">
        <ele>200</ele>
        <time>2018-08-24T09:07:38Z</time>
      </trkpt>
      <trkpt lat="45.85622" lon="4.68045">
        <ele>200</ele>
        <time>2018-08-24T09:07:39Z</time>
      </trkpt>
      <trkpt lat="45.85628" lon="4.68055">
        <ele>200</ele>
        <time>2018-08-24T09:07:49Z</time>
      </trkpt>
      <trkpt lat="45.85628" lon="4.68055">
        <ele>200</ele>
        <time>2018-08-24T09:07:50Z</time>
      </trkpt>
      <trkpt lat="45.85624" lon="4.68066">
        <ele>200</ele>
        <time>2018-08-24T09:15:36.745Z</time>
      </trkpt>
      <trkpt lat="45.85625" lon="4.68067">
        <ele>200</ele>
        <time>2018-08-24T09:15:37.745Z</time>
      </trkpt>
      <trkpt lat="45.85631" lon="4.68059">
        <ele>200</ele>
        <time>2018-08-24T09:19:49Z</time>
      </trkpt>
      <trkpt lat="45.85632" lon="4.68059">
        <ele>200</ele>
        <time>2018-08-24T09:19:50Z</time>
      </trkpt>
      <trkpt lat="45.85638" lon="4.68064">
        <ele>200</ele>
        <time>2018-08-24T09:20:03Z</time>
      </trkpt>
      <trkpt lat="45.8564" lon="4.68066">
        <ele>200</ele>
        <time>2018-08-24T09:20:04Z</time>
      </trkpt>
      <trkpt lat="45.85646" lon="4.68073">
        <ele>200</ele>
        <time>2018-08-24T09:20:07Z</time>
      </trkpt>
      <trkpt lat="45.85648" lon="4.68076">
        <ele>200</ele>
        <time>2018-08-24T09:20:08Z</time>
      </trkpt>
      <trkpt lat="45.85653" lon="4.68083">
        <ele>200</ele>
        <time>2018-08-24T09:20:10Z</time>
      </trkpt>
      <trkpt lat="45.85655" lon="4.68086">
        <ele>200</ele>
        <time>2018-08-24T09:20:11Z</time>
      </trkpt>
      <trkpt lat="45.85661" lon="4.68096">
        <ele>200</ele>
        <time>2018-08-24T09:20:12Z</time>
      </trkpt>
      <trkpt lat="45.85667" lon="4.68103">
        <ele>200</ele>
        <time>2018-08-24T09:20:14Z</time>
      </trkpt>
      <trkpt lat="45.8567" lon="4.68107">
        <ele>200</ele>
        <time>2018-08-24T09:20:15Z</time>
      </trkpt>
      <trkpt lat="45.85675" lon="4.68112">
        <ele>200</ele>
        <time>2018-08-24T09:20:16Z</time>
      </trkpt>
      <trkpt lat="45.85679" lon="4.68115">
        <ele>200</ele>
        <time>2018-08-24T09:20:17Z</time>
      </trkpt>
      <trkpt lat="45.85684" lon="4.68123">
        <ele>200</ele>
        <time>2018-08-24T09:20:19Z</time>
      </trkpt>
      <trkpt lat="45.85688" lon="4.68127">
        <ele>200</ele>
        <time>2018-08-24T09:20:20Z</time>
      </trkpt>
      <trkpt lat="45.85692" lon="4.68134">
        <ele>200</ele>
        <time>2018-08-24T09:20:22Z</time>
      </trkpt>
      <trkpt lat="45.85699" lon="4.68141">
        <ele>200</ele>
        <time>2018-08-24T09:20:23Z</time>
      </trkpt>
      <trkpt lat="45.85705" lon="4.68147">
        <ele>200</ele>
        <time>2018-08-24T09:20:25Z</time>
      </trkpt>
      <trkpt lat="45.85708" lon="4.68151">
        <ele>200</ele>
        <time>2018-08-24T09:20:26Z</time>
      </trkpt>
      <trkpt lat="45.85714" lon="4.6816">
        <ele>200</ele>
        <time>2018-08-24T09:20:28Z</time>
      </trkpt>
      <trkpt lat="45.85718" lon="4.68164">
        <ele>200</ele>
        <time>2018-08-24T09:20:29Z</time>
      </trkpt>
      <trkpt lat="45.85722" lon="4.68167">
        <ele>199</ele>
        <time>2018-08-24T09:20:30Z</time>
      </trkpt>
      <trkpt lat="45.85726" lon="4.68172">
        <ele>199</ele>
        <time>2018-08-24T09:20:31Z</time>
      </trkpt>
      <trkpt lat="45.8573" lon="4.68177">
        <ele>199</ele>
        <time>2018-08-24T09:20:32Z</time>
      </trkpt>
      <trkpt lat="45.85734" lon="4.68183">
        <ele>199</ele>
        <time>2018-08-24T09:20:33Z</time>
      </trkpt>
      <trkpt lat="45.85737" lon="4.68188">
        <ele>199</ele>
        <time>2018-08-24T09:20:34Z</time>
      </trkpt>
      <trkpt lat="45.85742" lon="4.68193">
        <ele>199</ele>
        <time>2018-08-24T09:20:35Z</time>
      </trkpt>
      <trkpt lat="45.85748" lon="4.68202">
        <ele>199</ele>
        <time>2018-08-24T09:20:37Z</time>
      </trkpt>
      <trkpt lat="45.85752" lon="4.68208">
        <ele>202</ele>
        <time>2018-08-24T09:20:38Z</time>
      </trkpt>
      <trkpt lat="45.85757" lon="4.68212">
        <ele>202</ele>
        <time>2018-08-24T09:20:39Z</time>
      </trkpt>
      <trkpt lat="45.8576" lon="4.68217">
        <ele>202</ele>
        <time>2018-08-24T09:20:40Z</time>
      </trkpt>
      <trkpt lat="45.85763" lon="4.68221">
        <ele>201</ele>
        <time>2018-08-24T09:20:41Z</time>
      </trkpt>
      <trkpt lat="45.85766" lon="4.68226">
        <ele>201</ele>
        <time>2018-08-24T09:20:42Z</time>
      </trkpt>
      <trkpt lat="45.85772" lon="4.6823">
        <ele>201</ele>
        <time>2018-08-24T09:20:43Z</time>
      </trkpt>
      <trkpt lat="45.85775" lon="4.68235">
        <ele>201</ele>
        <time>2018-08-24T09:20:44Z</time>
      </trkpt>
      <trkpt lat="45.85778" lon="4.6824">
        <ele>201</ele>
        <time>2018-08-24T09:20:45Z</time>
      </trkpt>
      <trkpt lat="45.85782" lon="4.68244">
        <ele>202</ele>
        <time>2018-08-24T09:20:46Z</time>
      </trkpt>
      <trkpt lat="45.85786" lon="4.68249">
        <ele>202</ele>
        <time>2018-08-24T09:20:47Z</time>
      </trkpt>
      <trkpt lat="45.8579" lon="4.68255">
        <ele>200</ele>
        <time>2018-08-24T09:20:48Z</time>
      </trkpt>
      <trkpt lat="45.85794" lon="4.6826">
        <ele>201</ele>
        <time>2018-08-24T09:20:49Z</time>
      </trkpt>
      <trkpt lat="45.85798" lon="4.68266">
        <ele>201</ele>
        <time>2018-08-24T09:20:50Z</time>
      </trkpt>
      <trkpt lat="45.85803" lon="4.6827">
        <ele>201</ele>
        <time>2018-08-24T09:20:51Z</time>
      </trkpt>
      <trkpt lat="45.85807" lon="4.68275">
        <ele>201</ele>
        <time>2018-08-24T09:20:52Z</time>
      </trkpt>
      <trkpt lat="45.85809" lon="4.68279">
        <ele>201</ele>
        <time>2018-08-24T09:20:53Z</time>
      </trkpt>
      <trkpt lat="45.85814" lon="4.68285">
        <ele>201</ele>
        <time>2018-08-24T09:20:54Z</time>
      </trkpt>
      <trkpt lat="45.85817" lon="4.68289">
        <ele>201</ele>
        <time>2018-08-24T09:20:55Z</time>
      </trkpt>
      <trkpt lat="45.85821" lon="4.68294">
        <ele>201</ele>
        <time>2018-08-24T09:20:56Z</time>
      </trkpt>
      <trkpt lat="45.85826" lon="4.68304">
        <ele>201</ele>
        <time>2018-08-24T09:20:58Z</time>
      </trkpt>
      <trkpt lat="45.8583" lon="4.6831">
        <ele>200</ele>
        <time>2018-08-24T09:20:59Z</time>
      </trkpt>
      <trkpt lat="45.85832" lon="4.68315">
        <ele>200</ele>
        <time>2018-08-24T09:21:00Z</time>
      </trkpt>
      <trkpt lat="45.85838" lon="4.68321">
        <ele>202</ele>
        <time>2018-08-24T09:21:01Z</time>
      </trkpt>
      <trkpt lat="45.8584" lon="4.68326">
        <ele>201</ele>
        <time>2018-08-24T09:21:02Z</time>
      </trkpt>
      <trkpt lat="45.85843" lon="4.68333">
        <ele>201</ele>
        <time>2018-08-24T09:21:03Z</time>
      </trkpt>
      <trkpt lat="45.85845" lon="4.68339">
        <ele>201</ele>
        <time>2018-08-24T09:21:04Z</time>
      </trkpt>
      <trkpt lat="45.85851" lon="4.68347">
        <ele>201</ele>
        <time>2018-08-24T09:21:05Z</time>
      </trkpt>
      <trkpt lat="45.85854" lon="4.68354">
        <ele>201</ele>
        <time>2018-08-24T09:21:06Z</time>
      </trkpt>
      <trkpt lat="45.85858" lon="4.6836">
        <ele>201</ele>
        <time>2018-08-24T09:21:07Z</time>
      </trkpt>
      <trkpt lat="45.85862" lon="4.6837">
        <ele>201</ele>
        <time>2018-08-24T09:21:08Z</time>
      </trkpt>
      <trkpt lat="45.85867" lon="4.68382">
        <ele>201</ele>
        <time>2018-08-24T09:21:09Z</time>
      </trkpt>
      <trkpt lat="45.85868" lon="4.68388">
        <ele>201</ele>
        <time>2018-08-24T09:21:10Z</time>
      </trkpt>
      <trkpt lat="45.8587" lon="4.68397">
        <ele>201</ele>
        <time>2018-08-24T09:21:11Z</time>
      </trkpt>
      <trkpt lat="45.8587" lon="4.68404">
        <ele>201</ele>
        <time>2018-08-24T09:21:12Z</time>
      </trkpt>
      <trkpt lat="45.85872" lon="4.68412">
        <ele>201</ele>
        <time>2018-08-24T09:21:13Z</time>
      </trkpt>
      <trkpt lat="45.85874" lon="4.6842">
        <ele>200</ele>
        <time>2018-08-24T09:21:14Z</time>
      </trkpt>
      <trkpt lat="45.85871" lon="4.68426">
        <ele>200</ele>
        <time>2018-08-24T09:21:15Z</time>
      </trkpt>
      <trkpt lat="45.85872" lon="4.68433">
        <ele>200</ele>
        <time>2018-08-24T09:21:16Z</time>
      </trkpt>
      <trkpt lat="45.85874" lon="4.6844">
        <ele>200</ele>
        <time>2018-08-24T09:21:17Z</time>
      </trkpt>
      <trkpt lat="45.85875" lon="4.68449">
        <ele>200</ele>
        <time>2018-08-24T09:21:18Z</time>
      </trkpt>
      <trkpt lat="45.85875" lon="4.68455">
        <ele>200</ele>
        <time>2018-08-24T09:21:19Z</time>
      </trkpt>
      <trkpt lat="45.85877" lon="4.68462">
        <ele>201</ele>
        <time>2018-08-24T09:21:20Z</time>
      </trkpt>
      <trkpt lat="45.85878" lon="4.6847">
        <ele>201</ele>
        <time>2018-08-24T09:21:21Z</time>
      </trkpt>
      <trkpt lat="45.85883" lon="4.68477">
        <ele>201</ele>
        <time>2018-08-24T09:21:22Z</time>
      </trkpt>
      <trkpt lat="45.85884" lon="4.68485">
        <ele>201</ele>
        <time>2018-08-24T09:21:23Z</time>
      </trkpt>
      <trkpt lat="45.85884" lon="4.68493">
        <ele>201</ele>
        <time>2018-08-24T09:21:24Z</time>
      </trkpt>
      <trkpt lat="45.85885" lon="4.68501">
        <ele>200</ele>
        <time>2018-08-24T09:21:25Z</time>
      </trkpt>
      <trkpt lat="45.85886" lon="4.68511">
        <ele>200</ele>
        <time>2018-08-24T09:21:26Z</time>
      </trkpt>
      <trkpt lat="45.85887" lon="4.68519">
        <ele>200</ele>
        <time>2018-08-24T09:21:27Z</time>
      </trkpt>
      <trkpt lat="45.85888" lon="4.68527">
        <ele>200</ele>
        <time>2018-08-24T09:21:28Z</time>
      </trkpt>
      <trkpt lat="45.8589" lon="4.68536">
        <ele>200</ele>
        <time>2018-08-24T09:21:29Z</time>
      </trkpt>
      <trkpt lat="45.85891" lon="4.68544">
        <ele>200</ele>
        <time>2018-08-24T09:21:30Z</time>
      </trkpt>
      <trkpt lat="45.85893" lon="4.68552">
        <ele>200</ele>
        <time>2018-08-24T09:21:31Z</time>
      </trkpt>
      <trkpt lat="45.85894" lon="4.6856">
        <ele>200</ele>
        <time>2018-08-24T09:21:32Z</time>
      </trkpt>
      <trkpt lat="45.85895" lon="4.68569">
        <ele>199</ele>
        <time>2018-08-24T09:21:33Z</time>
      </trkpt>
      <trkpt lat="45.85895" lon="4.68577">
        <ele>199</ele>
        <time>2018-08-24T09:21:34Z</time>
      </trkpt>
      <trkpt lat="45.85895" lon="4.68585">
        <ele>199</ele>
        <time>2018-08-24T09:21:35Z</time>
      </trkpt>
      <trkpt lat="45.85897" lon="4.68592">
        <ele>199</ele>
        <time>2018-08-24T09:21:36Z</time>
      </trkpt>
      <trkpt lat="45.85897" lon="4.68601">
        <ele>199</ele>
        <time>2018-08-24T09:21:37Z</time>
      </trkpt>
      <trkpt lat="45.85898" lon="4.6861">
        <ele>199</ele>
        <time>2018-08-24T09:21:38Z</time>
      </trkpt>
      <trkpt lat="45.85899" lon="4.68619">
        <ele>199</ele>
        <time>2018-08-24T09:21:39Z</time>
      </trkpt>
      <trkpt lat="45.85899" lon="4.68625">
        <ele>198</ele>
        <time>2018-08-24T09:21:40Z</time>
      </trkpt>
      <trkpt lat="45.85898" lon="4.68634">
        <ele>198</ele>
        <time>2018-08-24T09:21:41Z</time>
      </trkpt>
      <trkpt lat="45.85898" lon="4.68642">
        <ele>198</ele>
        <time>2018-08-24T09:21:42Z</time>
      </trkpt>
      <trkpt lat="45.859" lon="4.68652">
        <ele>198</ele>
        <time>2018-08-24T09:21:43Z</time>
      </trkpt>
      <trkpt lat="45.85899" lon="4.6866">
        <ele>198</ele>
        <time>2018-08-24T09:21:44Z</time>
      </trkpt>
      <trkpt lat="45.85898" lon="4.68667">
        <ele>198</ele>
        <time>2018-08-24T09:21:45Z</time>
      </trkpt>
      <trkpt lat="45.85898" lon="4.68675">
        <ele>198</ele>
        <time>2018-08-24T09:21:46Z</time>
      </trkpt>
      <trkpt lat="45.85897" lon="4.68684">
        <ele>198</ele>
        <time>2018-08-24T09:21:47Z</time>
      </trkpt>
      <trkpt lat="45.85896" lon="4.68691">
        <ele>198</ele>
        <time>2018-08-24T09:21:48Z</time>
      </trkpt>
      <trkpt lat="45.85895" lon="4.68698">
        <ele>198</ele>
        <time>2018-08-24T09:21:49Z</time>
      </trkpt>
      <trkpt lat="45.85893" lon="4.68704">
        <ele>198</ele>
        <time>2018-08-24T09:21:50Z</time>
      </trkpt>
      <trkpt lat="45.85891" lon="4.68711">
        <ele>198</ele>
        <time>2018-08-24T09:21:51Z</time>
      </trkpt>
      <trkpt lat="45.85891" lon="4.6872">
        <ele>198</ele>
        <time>2018-08-24T09:21:52Z</time>
      </trkpt>
      <trkpt lat="45.8589" lon="4.68726">
        <ele>198</ele>
        <time>2018-08-24T09:21:53Z</time>
      </trkpt>
      <trkpt lat="45.85888" lon="4.68732">
        <ele>198</ele>
        <time>2018-08-24T09:21:54Z</time>
      </trkpt>
      <trkpt lat="45.85888" lon="4.68742">
        <ele>198</ele>
        <time>2018-08-24T09:21:55Z</time>
      </trkpt>
      <trkpt lat="45.85886" lon="4.68749">
        <ele>198</ele>
        <time>2018-08-24T09:21:56Z</time>
      </trkpt>
      <trkpt lat="45.85884" lon="4.68756">
        <ele>198</ele>
        <time>2018-08-24T09:21:57Z</time>
      </trkpt>
      <trkpt lat="45.85883" lon="4.68762">
        <ele>198</ele>
        <time>2018-08-24T09:21:58Z</time>
      </trkpt>
      <trkpt lat="45.85881" lon="4.6877">
        <ele>198</ele>
        <time>2018-08-24T09:21:59Z</time>
      </trkpt>
      <trkpt lat="45.85881" lon="4.68778">
        <ele>198</ele>
        <time>2018-08-24T09:22:00Z</time>
      </trkpt>
      <trkpt lat="45.8588" lon="4.68787">
        <ele>198</ele>
        <time>2018-08-24T09:22:01Z</time>
      </trkpt>
      <trkpt lat="45.85878" lon="4.68794">
        <ele>198</ele>
        <time>2018-08-24T09:22:02Z</time>
      </trkpt>
      <trkpt lat="45.85877" lon="4.68803">
        <ele>198</ele>
        <time>2018-08-24T09:22:03Z</time>
      </trkpt>
      <trkpt lat="45.85875" lon="4.6881">
        <ele>198</ele>
        <time>2018-08-24T09:22:04Z</time>
      </trkpt>
      <trkpt lat="45.85873" lon="4.68818">
        <ele>198</ele>
        <time>2018-08-24T09:22:05Z</time>
      </trkpt>
      <trkpt lat="45.85874" lon="4.68828">
        <ele>198</ele>
        <time>2018-08-24T09:22:06Z</time>
      </trkpt>
      <trkpt lat="45.85872" lon="4.68835">
        <ele>198</ele>
        <time>2018-08-24T09:22:07Z</time>
      </trkpt>
      <trkpt lat="45.85872" lon="4.68844">
        <ele>198</ele>
        <time>2018-08-24T09:22:08Z</time>
      </trkpt>
      <trkpt lat="45.85872" lon="4.68851">
        <ele>198</ele>
        <time>2018-08-24T09:22:09Z</time>
      </trkpt>
      <trkpt lat="45.8587" lon="4.68858">
        <ele>198</ele>
        <time>2018-08-24T09:22:10Z</time>
      </trkpt>
      <trkpt lat="45.85868" lon="4.68864">
        <ele>198</ele>
        <time>2018-08-24T09:22:11Z</time>
      </trkpt>
      <trkpt lat="45.85867" lon="4.68872">
        <ele>198</ele>
        <time>2018-08-24T09:22:12Z</time>
      </trkpt>
      <trkpt lat="45.85867" lon="4.68879">
        <ele>197</ele>
        <time>2018-08-24T09:22:13Z</time>
      </trkpt>
      <trkpt lat="45.85866" lon="4.68888">
        <ele>197</ele>
        <time>2018-08-24T09:22:14Z</time>
      </trkpt>
      <trkpt lat="45.85866" lon="4.68896">
        <ele>197</ele>
        <time>2018-08-24T09:22:15Z</time>
      </trkpt>
      <trkpt lat="45.85865" lon="4.68904">
        <ele>197</ele>
        <time>2018-08-24T09:22:16Z</time>
      </trkpt>
      <trkpt lat="45.85866" lon="4.68912">
        <ele>197</ele>
        <time>2018-08-24T09:22:17Z</time>
      </trkpt>
      <trkpt lat="45.85865" lon="4.6892">
        <ele>197</ele>
        <time>2018-08-24T09:22:18Z</time>
      </trkpt>
      <trkpt lat="45.85865" lon="4.68928">
        <ele>197</ele>
        <time>2018-08-24T09:22:19Z</time>
      </trkpt>
      <trkpt lat="45.85867" lon="4.68937">
        <ele>197</ele>
        <time>2018-08-24T09:22:20Z</time>
      </trkpt>
      <trkpt lat="45.85868" lon="4.68945">
        <ele>197</ele>
        <time>2018-08-24T09:22:21Z</time>
      </trkpt>
      <trkpt lat="45.85868" lon="4.68953">
        <ele>197</ele>
        <time>2018-08-24T09:22:22Z</time>
      </trkpt>
      <trkpt lat="45.8587" lon="4.68962">
        <ele>197</ele>
        <time>2018-08-24T09:22:23Z</time>
      </trkpt>
      <trkpt lat="45.85871" lon="4.68969">
        <ele>197</ele>
        <time>2018-08-24T09:22:24Z</time>
      </trkpt>
      <trkpt lat="45.85871" lon="4.68976">
        <ele>197</ele>
        <time>2018-08-24T09:22:25Z</time>
      </trkpt>
      <trkpt lat="45.85872" lon="4.68986">
        <ele>197</ele>
        <time>2018-08-24T09:22:26Z</time>
      </trkpt>
      <trkpt lat="45.85872" lon="4.68993">
        <ele>197</ele>
        <time>2018-08-24T09:22:27Z</time>
      </trkpt>
      <trkpt lat="45.85873" lon="4.69">
        <ele>197</ele>
        <time>2018-08-24T09:22:28Z</time>
      </trkpt>
      <trkpt lat="45.85877" lon="4.69007">
        <ele>198</ele>
        <time>2018-08-24T09:22:29Z</time>
      </trkpt>
      <trkpt lat="45.85878" lon="4.69014">
        <ele>198</ele>
        <time>2018-08-24T09:22:30Z</time>
      </trkpt>
      <trkpt lat="45.85879" lon="4.69021">
        <ele>198</ele>
        <time>2018-08-24T09:22:31Z</time>
      </trkpt>
      <trkpt lat="45.85882" lon="4.69028">
        <ele>198</ele>
        <time>2018-08-24T09:22:32Z</time>
      </trkpt>
      <trkpt lat="45.85884" lon="4.69035">
        <ele>198</ele>
        <time>2018-08-24T09:22:33Z</time>
      </trkpt>
      <trkpt lat="45.85887" lon="4.69042">
        <ele>198</ele>
        <time>2018-08-24T09:22:34Z</time>
      </trkpt>
      <trkpt lat="45.85892" lon="4.6905">
        <ele>198</ele>
        <time>2018-08-24T09:22:35Z</time>
      </trkpt>
      <trkpt lat="45.85896" lon="4.69056">
        <ele>198</ele>
        <time>2018-08-24T09:22:36Z</time>
      </trkpt>
      <trkpt lat="45.85899" lon="4.69062">
        <ele>198</ele>
        <time>2018-08-24T09:22:37Z</time>
      </trkpt>
      <trkpt lat="45.85902" lon="4.69067">
        <ele>198</ele>
        <time>2018-08-24T09:22:38Z</time>
      </trkpt>
      <trkpt lat="45.85908" lon="4.69071">
        <ele>198</ele>
        <time>2018-08-24T09:22:39Z</time>
      </trkpt>
      <trkpt lat="45.85911" lon="4.69075">
        <ele>198</ele>
        <time>2018-08-24T09:22:40Z</time>
      </trkpt>
      <trkpt lat="45.85916" lon="4.69079">
        <ele>198</ele>
        <time>2018-08-24T09:22:41Z</time>
      </trkpt>
      <trkpt lat="45.8592" lon="4.69081">
        <ele>198</ele>
        <time>2018-08-24T09:22:42Z</time>
      </trkpt>
      <trkpt lat="45.85926" lon="4.69083">
        <ele>198</ele>
        <time>2018-08-24T09:22:43Z</time>
      </trkpt>
      <trkpt lat="45.85931" lon="4.69083">
        <ele>198</ele>
        <time>2018-08-24T09:22:44Z</time>
      </trkpt>
      <trkpt lat="45.85937" lon="4.69086">
        <ele>197</ele>
        <time>2018-08-24T09:22:45Z</time>
      </trkpt>
      <trkpt lat="45.85942" lon="4.69088">
        <ele>197</ele>
        <time>2018-08-24T09:22:46Z</time>
      </trkpt>
      <trkpt lat="45.85948" lon="4.69088">
        <ele>197</ele>
        <time>2018-08-24T09:22:47Z</time>
      </trkpt>
      <trkpt lat="45.85953" lon="4.69089">
        <ele>197</ele>
        <time>2018-08-24T09:22:48Z</time>
      </trkpt>
      <trkpt lat="45.85958" lon="4.6909">
        <ele>197</ele>
        <time>2018-08-24T09:22:49Z</time>
      </trkpt>
      <trkpt lat="45.85963" lon="4.69091">
        <ele>197</ele>
        <time>2018-08-24T09:22:50Z</time>
      </trkpt>
      <trkpt lat="45.85968" lon="4.69092">
        <ele>197</ele>
        <time>2018-08-24T09:22:51Z</time>
      </trkpt>
      <trkpt lat="45.85974" lon="4.69092">
        <ele>197</ele>
        <time>2018-08-24T09:22:52Z</time>
      </trkpt>
      <trkpt lat="45.85979" lon="4.69091">
        <ele>197</ele>
        <time>2018-08-24T09:22:53Z</time>
      </trkpt>
      <trkpt lat="45.85983" lon="4.69089">
        <ele>197</ele>
        <time>2018-08-24T09:22:54Z</time>
      </trkpt>
      <trkpt lat="45.85988" lon="4.69089">
        <ele>196</ele>
        <time>2018-08-24T09:22:55Z</time>
      </trkpt>
      <trkpt lat="45.85993" lon="4.69088">
        <ele>196</ele>
        <time>2018-08-24T09:22:56Z</time>
      </trkpt>
      <trkpt lat="45.85998" lon="4.69088">
        <ele>196</ele>
        <time>2018-08-24T09:22:57Z</time>
      </trkpt>
      <trkpt lat="45.86003" lon="4.69087">
        <ele>196</ele>
        <time>2018-08-24T09:22:58Z</time>
      </trkpt>
      <trkpt lat="45.86008" lon="4.69087">
        <ele>196</ele>
        <time>2018-08-24T09:22:59Z</time>
      </trkpt>
      <trkpt lat="45.86014" lon="4.69087">
        <ele>197</ele>
        <time>2018-08-24T09:23:00Z</time>
      </trkpt>
      <trkpt lat="45.86019" lon="4.69085">
        <ele>197</ele>
        <time>2018-08-24T09:23:01Z</time>
      </trkpt>
      <trkpt lat="45.86023" lon="4.69085">
        <ele>197</ele>
        <time>2018-08-24T09:23:02Z</time>
      </trkpt>
      <trkpt lat="45.86028" lon="4.69088">
        <ele>197</ele>
        <time>2018-08-24T09:23:03Z</time>
      </trkpt>
      <trkpt lat="45.86029" lon="4.69088">
        <ele>197</ele>
        <time>2018-08-24T09:23:04Z</time>
      </trkpt>
      <trkpt lat="45.86038" lon="4.69089">
        <ele>197</ele>
        <time>2018-08-24T09:23:06Z</time>
      </trkpt>
      <trkpt lat="45.86045" lon="4.69089">
        <ele>197</ele>
        <time>2018-08-24T09:23:07Z</time>
      </trkpt>
      <trkpt lat="45.8605" lon="4.69087">
        <ele>197</ele>
        <time>2018-08-24T09:23:08Z</time>
      </trkpt>
      <trkpt lat="45.86057" lon="4.69087">
        <ele>197</ele>
        <time>2018-08-24T09:23:09Z</time>
      </trkpt>
      <trkpt lat="45.86063" lon="4.69087">
        <ele>198</ele>
        <time>2018-08-24T09:23:10Z</time>
      </trkpt>
      <trkpt lat="45.86068" lon="4.69086">
        <ele>198</ele>
        <time>2018-08-24T09:23:11Z</time>
      </trkpt>
      <trkpt lat="45.86074" lon="4.69085">
        <ele>198</ele>
        <time>2018-08-24T09:23:12Z</time>
      </trkpt>
      <trkpt lat="45.86079" lon="4.69086">
        <ele>198</ele>
        <time>2018-08-24T09:23:13Z</time>
      </trkpt>
      <trkpt lat="45.86084" lon="4.69085">
        <ele>198</ele>
        <time>2018-08-24T09:23:14Z</time>
      </trkpt>
      <trkpt lat="45.8609" lon="4.69085">
        <ele>199</ele>
        <time>2018-08-24T09:23:15Z</time>
      </trkpt>
      <trkpt lat="45.86095" lon="4.69085">
        <ele>199</ele>
        <time>2018-08-24T09:23:16Z</time>
      </trkpt>
      <trkpt lat="45.86104" lon="4.69085">
        <ele>200</ele>
        <time>2018-08-24T09:23:18Z</time>
      </trkpt>
      <trkpt lat="45.86108" lon="4.69086">
        <ele>200</ele>
        <time>2018-08-24T09:23:19Z</time>
      </trkpt>
      <trkpt lat="45.86114" lon="4.69083">
        <ele>201</ele>
        <time>2018-08-24T09:23:20Z</time>
      </trkpt>
      <trkpt lat="45.86119" lon="4.69082">
        <ele>202</ele>
        <time>2018-08-24T09:23:21Z</time>
      </trkpt>
      <trkpt lat="45.86127" lon="4.69084">
        <ele>201</ele>
        <time>2018-08-24T09:23:23Z</time>
      </trkpt>
      <trkpt lat="45.8613" lon="4.69085">
        <ele>202</ele>
        <time>2018-08-24T09:23:24Z</time>
      </trkpt>
      <trkpt lat="45.86136" lon="4.69088">
        <ele>202</ele>
        <time>2018-08-24T09:23:26Z</time>
      </trkpt>
      <trkpt lat="45.8614" lon="4.69088">
        <ele>202</ele>
        <time>2018-08-24T09:23:27Z</time>
      </trkpt>
      <trkpt lat="45.86145" lon="4.69087">
        <ele>203</ele>
        <time>2018-08-24T09:23:28Z</time>
      </trkpt>
      <trkpt lat="45.86148" lon="4.69082">
        <ele>204</ele>
        <time>2018-08-24T09:23:29Z</time>
      </trkpt>
      <trkpt lat="45.86154" lon="4.69078">
        <ele>204</ele>
        <time>2018-08-24T09:23:31Z</time>
      </trkpt>
      <trkpt lat="45.86157" lon="4.69077">
        <ele>204</ele>
        <time>2018-08-24T09:23:32Z</time>
      </trkpt>
      <trkpt lat="45.86163" lon="4.69075">
        <ele>205</ele>
        <time>2018-08-24T09:23:34Z</time>
      </trkpt>
      <trkpt lat="45.86167" lon="4.69074">
        <ele>207</ele>
        <time>2018-08-24T09:23:35Z</time>
      </trkpt>
      <trkpt lat="45.86174" lon="4.69072">
        <ele>207</ele>
        <time>2018-08-24T09:23:37Z</time>
      </trkpt>
      <trkpt lat="45.86176" lon="4.69073">
        <ele>207</ele>
        <time>2018-08-24T09:23:38Z</time>
      </trkpt>
      <trkpt lat="45.86185" lon="4.69073">
        <ele>208</ele>
        <time>2018-08-24T09:23:41Z</time>
      </trkpt>
      <trkpt lat="45.86188" lon="4.69073">
        <ele>208</ele>
        <time>2018-08-24T09:23:42Z</time>
      </trkpt>
      <trkpt lat="45.86198" lon="4.69072">
        <ele>209</ele>
        <time>2018-08-24T09:23:43Z</time>
      </trkpt>
      <trkpt lat="45.86205" lon="4.69073">
        <ele>210</ele>
        <time>2018-08-24T09:23:47Z</time>
      </trkpt>
      <trkpt lat="45.86207" lon="4.69074">
        <ele>210</ele>
        <time>2018-08-24T09:23:48Z</time>
      </trkpt>
      <trkpt lat="45.86215" lon="4.69078">
        <ele>210</ele>
        <time>2018-08-24T09:23:52Z</time>
      </trkpt>
      <trkpt lat="45.86218" lon="4.69078">
        <ele>210</ele>
        <time>2018-08-24T09:23:53Z</time>
      </trkpt>
      <trkpt lat="45.86226" lon="4.69079">
        <ele>210</ele>
        <time>2018-08-24T09:23:56Z</time>
      </trkpt>
      <trkpt lat="45.86229" lon="4.69079">
        <ele>210</ele>
        <time>2018-08-24T09:23:57Z</time>
      </trkpt>
      <trkpt lat="45.86237" lon="4.69079">
        <ele>211</ele>
        <time>2018-08-24T09:24:00Z</time>
      </trkpt>
      <trkpt lat="45.8624" lon="4.69079">
        <ele>211</ele>
        <time>2018-08-24T09:24:01Z</time>
      </trkpt>
      <trkpt lat="45.86248" lon="4.6908">
        <ele>211</ele>
        <time>2018-08-24T09:24:04Z</time>
      </trkpt>
      <trkpt lat="45.86251" lon="4.6908">
        <ele>211</ele>
        <time>2018-08-24T09:24:05Z</time>
      </trkpt>
      <trkpt lat="45.8626" lon="4.69082">
        <ele>212</ele>
        <time>2018-08-24T09:24:08Z</time>
      </trkpt>
      <trkpt lat="45.86262" lon="4.69083">
        <ele>212</ele>
        <time>2018-08-24T09:24:09Z</time>
      </trkpt>
      <trkpt lat="45.86265" lon="4.69084">
        <ele>212</ele>
        <time>2018-08-24T09:24:10Z</time>
      </trkpt>
      <trkpt lat="45.86273" lon="4.69088">
        <ele>213</ele>
        <time>2018-08-24T09:24:11Z</time>
      </trkpt>
      <trkpt lat="45.86281" lon="4.69093">
        <ele>213</ele>
        <time>2018-08-24T09:24:15Z</time>
      </trkpt>
      <trkpt lat="45.86284" lon="4.69094">
        <ele>213</ele>
        <time>2018-08-24T09:24:16Z</time>
      </trkpt>
      <trkpt lat="45.86291" lon="4.69099">
        <ele>214</ele>
        <time>2018-08-24T09:24:19Z</time>
      </trkpt>
      <trkpt lat="45.86293" lon="4.691">
        <ele>214</ele>
        <time>2018-08-24T09:24:20Z</time>
      </trkpt>
      <trkpt lat="45.863" lon="4.69105">
        <ele>214</ele>
        <time>2018-08-24T09:24:23Z</time>
      </trkpt>
      <trkpt lat="45.86303" lon="4.69107">
        <ele>214</ele>
        <time>2018-08-24T09:24:24Z</time>
      </trkpt>
      <trkpt lat="45.86308" lon="4.69112">
        <ele>214</ele>
        <time>2018-08-24T09:24:26Z</time>
      </trkpt>
      <trkpt lat="45.86311" lon="4.69114">
        <ele>214</ele>
        <time>2018-08-24T09:24:27Z</time>
      </trkpt>
      <trkpt lat="45.86316" lon="4.69119">
        <ele>214</ele>
        <time>2018-08-24T09:24:29Z</time>
      </trkpt>
      <trkpt lat="45.86318" lon="4.69122">
        <ele>214</ele>
        <time>2018-08-24T09:24:30Z</time>
      </trkpt>
      <trkpt lat="45.86325" lon="4.6913">
        <ele>215</ele>
        <time>2018-08-24T09:24:33Z</time>
      </trkpt>
      <trkpt lat="45.86327" lon="4.69132">
        <ele>215</ele>
        <time>2018-08-24T09:24:34Z</time>
      </trkpt>
      <trkpt lat="45.86333" lon="4.6914">
        <ele>215</ele>
        <time>2018-08-24T09:24:37Z</time>
      </trkpt>
      <trkpt lat="45.86335" lon="4.69142">
        <ele>217</ele>
        <time>2018-08-24T09:24:38Z</time>
      </trkpt>
      <trkpt lat="45.8634" lon="4.6915">
        <ele>217</ele>
        <time>2018-08-24T09:24:41Z</time>
      </trkpt>
      <trkpt lat="45.86342" lon="4.69153">
        <ele>217</ele>
        <time>2018-08-24T09:24:42Z</time>
      </trkpt>
      <trkpt lat="45.86345" lon="4.69159">
        <ele>217</ele>
        <time>2018-08-24T09:24:44Z</time>
      </trkpt>
      <trkpt lat="45.86347" lon="4.69163">
        <ele>217</ele>
        <time>2018-08-24T09:24:45Z</time>
      </trkpt>
      <trkpt lat="45.86351" lon="4.69171">
        <ele>218</ele>
        <time>2018-08-24T09:24:47Z</time>
      </trkpt>
      <trkpt lat="45.86353" lon="4.69175">
        <ele>218</ele>
        <time>2018-08-24T09:24:48Z</time>
      </trkpt>
      <trkpt lat="45.86357" lon="4.69184">
        <ele>218</ele>
        <time>2018-08-24T09:24:51Z</time>
      </trkpt>
      <trkpt lat="45.86358" lon="4.69187">
        <ele>218</ele>
        <time>2018-08-24T09:24:52Z</time>
      </trkpt>
      <trkpt lat="45.86363" lon="4.69197">
        <ele>219</ele>
        <time>2018-08-24T09:24:55Z</time>
      </trkpt>
      <trkpt lat="45.86364" lon="4.692">
        <ele>219</ele>
        <time>2018-08-24T09:24:56Z</time>
      </trkpt>
      <trkpt lat="45.86367" lon="4.69208">
        <ele>219</ele>
        <time>2018-08-24T09:24:58Z</time>
      </trkpt>
      <trkpt lat="45.86369" lon="4.69212">
        <ele>219</ele>
        <time>2018-08-24T09:24:59Z</time>
      </trkpt>
      <trkpt lat="45.86372" lon="4.69219">
        <ele>219</ele>
        <time>2018-08-24T09:25:01Z</time>
      </trkpt>
      <trkpt lat="45.86373" lon="4.69223">
        <ele>219</ele>
        <time>2018-08-24T09:25:02Z</time>
      </trkpt>
      <trkpt lat="45.86377" lon="4.69231">
        <ele>219</ele>
        <time>2018-08-24T09:25:04Z</time>
      </trkpt>
      <trkpt lat="45.86379" lon="4.69235">
        <ele>219</ele>
        <time>2018-08-24T09:25:05Z</time>
      </trkpt>
      <trkpt lat="45.86385" lon="4.69247">
        <ele>219</ele>
        <time>2018-08-24T09:25:06Z</time>
      </trkpt>
      <trkpt lat="45.86388" lon="4.69255">
        <ele>219</ele>
        <time>2018-08-24T09:25:09Z</time>
      </trkpt>
      <trkpt lat="45.8639" lon="4.69258">
        <ele>219</ele>
        <time>2018-08-24T09:25:10Z</time>
      </trkpt>
      <trkpt lat="45.86391" lon="4.69261">
        <ele>219</ele>
        <time>2018-08-24T09:25:11Z</time>
      </trkpt>
      <trkpt lat="45.86396" lon="4.69272">
        <ele>219</ele>
        <time>2018-08-24T09:25:12Z</time>
      </trkpt>
      <trkpt lat="45.864" lon="4.69282">
        <ele>219</ele>
        <time>2018-08-24T09:25:14Z</time>
      </trkpt>
      <trkpt lat="45.86403" lon="4.69288">
        <ele>219</ele>
        <time>2018-08-24T09:25:15Z</time>
      </trkpt>
      <trkpt lat="45.86406" lon="4.69294">
        <ele>219</ele>
        <time>2018-08-24T09:25:16Z</time>
      </trkpt>
      <trkpt lat="45.86408" lon="4.69299">
        <ele>219</ele>
        <time>2018-08-24T09:25:17Z</time>
      </trkpt>
      <trkpt lat="45.86411" lon="4.69305">
        <ele>219</ele>
        <time>2018-08-24T09:25:18Z</time>
      </trkpt>
      <trkpt lat="45.86414" lon="4.69311">
        <ele>219</ele>
        <time>2018-08-24T09:25:19Z</time>
      </trkpt>
      <trkpt lat="45.86419" lon="4.69321">
        <ele>219</ele>
        <time>2018-08-24T09:25:21Z</time>
      </trkpt>
      <trkpt lat="45.86422" lon="4.69327">
        <ele>219</ele>
        <time>2018-08-24T09:25:22Z</time>
      </trkpt>
      <trkpt lat="45.86424" lon="4.69333">
        <ele>219</ele>
        <time>2018-08-24T09:25:23Z</time>
      </trkpt>
      <trkpt lat="45.86428" lon="4.6934">
        <ele>219</ele>
        <time>2018-08-24T09:25:24Z</time>
      </trkpt>
      <trkpt lat="45.8643" lon="4.69345">
        <ele>219</ele>
        <time>2018-08-24T09:25:25Z</time>
      </trkpt>
      <trkpt lat="45.86435" lon="4.69352">
        <ele>219</ele>
        <time>2018-08-24T09:25:26Z</time>
      </trkpt>
      <trkpt lat="45.86439" lon="4.69361">
        <ele>219</ele>
        <time>2018-08-24T09:25:28Z</time>
      </trkpt>
      <trkpt lat="45.8644" lon="4.69365">
        <ele>219</ele>
        <time>2018-08-24T09:25:29Z</time>
      </trkpt>
      <trkpt lat="45.86443" lon="4.69372">
        <ele>219</ele>
        <time>2018-08-24T09:25:30Z</time>
      </trkpt>
      <trkpt lat="45.86445" lon="4.69377">
        <ele>219</ele>
        <time>2018-08-24T09:25:31Z</time>
      </trkpt>
      <trkpt lat="45.86447" lon="4.69383">
        <ele>219</ele>
        <time>2018-08-24T09:25:32Z</time>
      </trkpt>
      <trkpt lat="45.86451" lon="4.69387">
        <ele>219</ele>
        <time>2018-08-24T09:25:33Z</time>
      </trkpt>
      <trkpt lat="45.86457" lon="4.69395">
        <ele>219</ele>
        <time>2018-08-24T09:25:35Z</time>
      </trkpt>
      <trkpt lat="45.86461" lon="4.694">
        <ele>219</ele>
        <time>2018-08-24T09:25:36Z</time>
      </trkpt>
      <trkpt lat="45.86465" lon="4.6941">
        <ele>219</ele>
        <time>2018-08-24T09:25:38Z</time>
      </trkpt>
      <trkpt lat="45.86468" lon="4.69415">
        <ele>219</ele>
        <time>2018-08-24T09:25:39Z</time>
      </trkpt>
      <trkpt lat="45.86471" lon="4.69421">
        <ele>218</ele>
        <time>2018-08-24T09:25:40Z</time>
      </trkpt>
      <trkpt lat="45.86476" lon="4.69426">
        <ele>218</ele>
        <time>2018-08-24T09:25:41Z</time>
      </trkpt>
      <trkpt lat="45.86479" lon="4.69432">
        <ele>218</ele>
        <time>2018-08-24T09:25:42Z</time>
      </trkpt>
      <trkpt lat="45.86483" lon="4.69438">
        <ele>218</ele>
        <time>2018-08-24T09:25:43Z</time>
      </trkpt>
      <trkpt lat="45.86487" lon="4.69444">
        <ele>218</ele>
        <time>2018-08-24T09:25:44Z</time>
      </trkpt>
      <trkpt lat="45.8649" lon="4.6945">
        <ele>218</ele>
        <time>2018-08-24T09:25:45Z</time>
      </trkpt>
      <trkpt lat="45.86494" lon="4.69456">
        <ele>218</ele>
        <time>2018-08-24T09:25:46Z</time>
      </trkpt>
      <trkpt lat="45.86498" lon="4.69462">
        <ele>218</ele>
        <time>2018-08-24T09:25:47Z</time>
      </trkpt>
      <trkpt lat="45.86502" lon="4.69469">
        <ele>219</ele>
        <time>2018-08-24T09:25:48Z</time>
      </trkpt>
      <trkpt lat="45.86505" lon="4.69474">
        <ele>219</ele>
        <time>2018-08-24T09:25:49Z</time>
      </trkpt>
      <trkpt lat="45.8651" lon="4.6948">
        <ele>219</ele>
        <time>2018-08-24T09:25:50Z</time>
      </trkpt>
      <trkpt lat="45.86514" lon="4.69485">
        <ele>219</ele>
        <time>2018-08-24T09:25:51Z</time>
      </trkpt>
      <trkpt lat="45.86519" lon="4.69494">
        <ele>219</ele>
        <time>2018-08-24T09:25:53Z</time>
      </trkpt>
      <trkpt lat="45.86525" lon="4.69499">
        <ele>219</ele>
        <time>2018-08-24T09:25:54Z</time>
      </trkpt>
      <trkpt lat="45.86528" lon="4.69504">
        <ele>219</ele>
        <time>2018-08-24T09:25:55Z</time>
      </trkpt>
      <trkpt lat="45.86532" lon="4.69511">
        <ele>219</ele>
        <time>2018-08-24T09:25:56Z</time>
      </trkpt>
      <trkpt lat="45.86536" lon="4.69517">
        <ele>219</ele>
        <time>2018-08-24T09:25:57Z</time>
      </trkpt>
      <trkpt lat="45.8654" lon="4.69523">
        <ele>219</ele>
        <time>2018-08-24T09:25:58Z</time>
      </trkpt>
      <trkpt lat="45.86544" lon="4.69529">
        <ele>219</ele>
        <time>2018-08-24T09:25:59Z</time>
      </trkpt>
      <trkpt lat="45.86547" lon="4.69536">
        <ele>219</ele>
        <time>2018-08-24T09:26:00Z</time>
      </trkpt>
      <trkpt lat="45.86551" lon="4.69542">
        <ele>219</ele>
        <time>2018-08-24T09:26:01Z</time>
      </trkpt>
      <trkpt lat="45.86555" lon="4.69548">
        <ele>219</ele>
        <time>2018-08-24T09:26:02Z</time>
      </trkpt>
      <trkpt lat="45.86558" lon="4.69554">
        <ele>219</ele>
        <time>2018-08-24T09:26:03Z</time>
      </trkpt>
      <trkpt lat="45.86561" lon="4.69557">
        <ele>219</ele>
        <time>2018-08-24T09:26:04Z</time>
      </trkpt>
      <trkpt lat="45.86565" lon="4.69563">
        <ele>219</ele>
        <time>2018-08-24T09:26:05Z</time>
      </trkpt>
      <trkpt lat="45.86568" lon="4.69568">
        <ele>219</ele>
        <time>2018-08-24T09:26:06Z</time>
      </trkpt>
      <trkpt lat="45.86574" lon="4.69578">
        <ele>219</ele>
        <time>2018-08-24T09:26:08Z</time>
      </trkpt>
      <trkpt lat="45.86576" lon="4.69579">
        <ele>219</ele>
        <time>2018-08-24T09:26:09Z</time>
      </trkpt>
      <trkpt lat="45.86579" lon="4.69585">
        <ele>219</ele>
        <time>2018-08-24T09:26:10Z</time>
      </trkpt>
      <trkpt lat="45.86583" lon="4.6959">
        <ele>219</ele>
        <time>2018-08-24T09:26:11Z</time>
      </trkpt>
      <trkpt lat="45.86587" lon="4.69596">
        <ele>219</ele>
        <time>2018-08-24T09:26:12Z</time>
      </trkpt>
      <trkpt lat="45.8659" lon="4.69602">
        <ele>219</ele>
        <time>2018-08-24T09:26:13Z</time>
      </trkpt>
      <trkpt lat="45.86595" lon="4.69608">
        <ele>219</ele>
        <time>2018-08-24T09:26:14Z</time>
      </trkpt>
      <trkpt lat="45.86599" lon="4.69614">
        <ele>219</ele>
        <time>2018-08-24T09:26:15Z</time>
      </trkpt>
      <trkpt lat="45.86603" lon="4.6962">
        <ele>219</ele>
        <time>2018-08-24T09:26:16Z</time>
      </trkpt>
      <trkpt lat="45.86607" lon="4.69626">
        <ele>219</ele>
        <time>2018-08-24T09:26:17Z</time>
      </trkpt>
      <trkpt lat="45.8661" lon="4.69632">
        <ele>219</ele>
        <time>2018-08-24T09:26:18Z</time>
      </trkpt>
      <trkpt lat="45.86613" lon="4.69638">
        <ele>219</ele>
        <time>2018-08-24T09:26:19Z</time>
      </trkpt>
      <trkpt lat="45.86617" lon="4.69644">
        <ele>219</ele>
        <time>2018-08-24T09:26:20Z</time>
      </trkpt>
      <trkpt lat="45.86621" lon="4.6965">
        <ele>219</ele>
        <time>2018-08-24T09:26:21Z</time>
      </trkpt>
      <trkpt lat="45.86626" lon="4.69656">
        <ele>218</ele>
        <time>2018-08-24T09:26:22Z</time>
      </trkpt>
      <trkpt lat="45.86631" lon="4.69661">
        <ele>218</ele>
        <time>2018-08-24T09:26:23Z</time>
      </trkpt>
      <trkpt lat="45.86636" lon="4.69666">
        <ele>218</ele>
        <time>2018-08-24T09:26:24Z</time>
      </trkpt>
      <trkpt lat="45.8664" lon="4.69672">
        <ele>218</ele>
        <time>2018-08-24T09:26:25Z</time>
      </trkpt>
      <trkpt lat="45.86646" lon="4.69678">
        <ele>218</ele>
        <time>2018-08-24T09:26:26Z</time>
      </trkpt>
      <trkpt lat="45.8665" lon="4.69684">
        <ele>218</ele>
        <time>2018-08-24T09:26:27Z</time>
      </trkpt>
      <trkpt lat="45.86655" lon="4.69689">
        <ele>218</ele>
        <time>2018-08-24T09:26:28Z</time>
      </trkpt>
      <trkpt lat="45.8666" lon="4.69694">
        <ele>218</ele>
        <time>2018-08-24T09:26:29Z</time>
      </trkpt>
      <trkpt lat="45.86664" lon="4.69699">
        <ele>218</ele>
        <time>2018-08-24T09:26:30Z</time>
      </trkpt>
      <trkpt lat="45.86668" lon="4.69704">
        <ele>217</ele>
        <time>2018-08-24T09:26:31Z</time>
      </trkpt>
      <trkpt lat="45.86673" lon="4.69709">
        <ele>217</ele>
        <time>2018-08-24T09:26:32Z</time>
      </trkpt>
      <trkpt lat="45.86677" lon="4.69713">
        <ele>217</ele>
        <time>2018-08-24T09:26:33Z</time>
      </trkpt>
      <trkpt lat="45.86684" lon="4.6972">
        <ele>217</ele>
        <time>2018-08-24T09:26:34Z</time>
      </trkpt>
      <trkpt lat="45.86688" lon="4.69725">
        <ele>217</ele>
        <time>2018-08-24T09:26:35Z</time>
      </trkpt>
      <trkpt lat="45.86693" lon="4.69732">
        <ele>217</ele>
        <time>2018-08-24T09:26:36Z</time>
      </trkpt>
      <trkpt lat="45.86697" lon="4.69736">
        <ele>217</ele>
        <time>2018-08-24T09:26:37Z</time>
      </trkpt>
      <trkpt lat="45.86702" lon="4.69741">
        <ele>217</ele>
        <time>2018-08-24T09:26:38Z</time>
      </trkpt>
      <trkpt lat="45.86706" lon="4.69745">
        <ele>217</ele>
        <time>2018-08-24T09:26:39Z</time>
      </trkpt>
      <trkpt lat="45.86714" lon="4.69747">
        <ele>217</ele>
        <time>2018-08-24T09:26:40Z</time>
      </trkpt>
      <trkpt lat="45.86719" lon="4.6975">
        <ele>217</ele>
        <time>2018-08-24T09:26:41Z</time>
      </trkpt>
      <trkpt lat="45.86724" lon="4.69754">
        <ele>217</ele>
        <time>2018-08-24T09:26:42Z</time>
      </trkpt>
      <trkpt lat="45.86727" lon="4.69761">
        <ele>217</ele>
        <time>2018-08-24T09:26:43Z</time>
      </trkpt>
      <trkpt lat="45.86732" lon="4.69763">
        <ele>217</ele>
        <time>2018-08-24T09:26:44Z</time>
      </trkpt>
      <trkpt lat="45.86737" lon="4.69768">
        <ele>217</ele>
        <time>2018-08-24T09:26:45Z</time>
      </trkpt>
      <trkpt lat="45.86742" lon="4.69773">
        <ele>217</ele>
        <time>2018-08-24T09:26:46Z</time>
      </trkpt>
      <trkpt lat="45.86747" lon="4.69779">
        <ele>217</ele>
        <time>2018-08-24T09:26:47Z</time>
      </trkpt>
      <trkpt lat="45.86751" lon="4.69784">
        <ele>217</ele>
        <time>2018-08-24T09:26:48Z</time>
      </trkpt>
      <trkpt lat="45.86755" lon="4.69788">
        <ele>217</ele>
        <time>2018-08-24T09:26:49Z</time>
      </trkpt>
      <trkpt lat="45.86761" lon="4.69793">
        <ele>217</ele>
        <time>2018-08-24T09:26:50Z</time>
      </trkpt>
      <trkpt lat="45.86766" lon="4.69798">
        <ele>217</ele>
        <time>2018-08-24T09:26:51Z</time>
      </trkpt>
      <trkpt lat="45.86771" lon="4.69803">
        <ele>217</ele>
        <time>2018-08-24T09:26:52Z</time>
      </trkpt>
      <trkpt lat="45.86775" lon="4.69808">
        <ele>217</ele>
        <time>2018-08-24T09:26:53Z</time>
      </trkpt>
      <trkpt lat="45.8678" lon="4.6981">
        <ele>217</ele>
        <time>2018-08-24T09:26:54Z</time>
      </trkpt>
      <trkpt lat="45.86785" lon="4.69813">
        <ele>217</ele>
        <time>2018-08-24T09:26:55Z</time>
      </trkpt>
      <trkpt lat="45.8679" lon="4.69818">
        <ele>217</ele>
        <time>2018-08-24T09:26:56Z</time>
      </trkpt>
      <trkpt lat="45.86794" lon="4.69822">
        <ele>217</ele>
        <time>2018-08-24T09:26:57Z</time>
      </trkpt>
      <trkpt lat="45.86798" lon="4.69826">
        <ele>217</ele>
        <time>2018-08-24T09:26:58Z</time>
      </trkpt>
      <trkpt lat="45.86803" lon="4.6983">
        <ele>217</ele>
        <time>2018-08-24T09:26:59Z</time>
      </trkpt>
      <trkpt lat="45.86809" lon="4.69834">
        <ele>217</ele>
        <time>2018-08-24T09:27:00Z</time>
      </trkpt>
      <trkpt lat="45.86814" lon="4.69838">
        <ele>217</ele>
        <time>2018-08-24T09:27:01Z</time>
      </trkpt>
      <trkpt lat="45.86823" lon="4.69847">
        <ele>217</ele>
        <time>2018-08-24T09:27:02Z</time>
      </trkpt>
      <trkpt lat="45.86827" lon="4.69852">
        <ele>217</ele>
        <time>2018-08-24T09:27:03Z</time>
      </trkpt>
      <trkpt lat="45.86832" lon="4.69856">
        <ele>217</ele>
        <time>2018-08-24T09:27:04Z</time>
      </trkpt>
      <trkpt lat="45.86838" lon="4.69861">
        <ele>217</ele>
        <time>2018-08-24T09:27:05Z</time>
      </trkpt>
      <trkpt lat="45.86842" lon="4.69865">
        <ele>217</ele>
        <time>2018-08-24T09:27:06Z</time>
      </trkpt>
      <trkpt lat="45.86846" lon="4.69868">
        <ele>217</ele>
        <time>2018-08-24T09:27:07Z</time>
      </trkpt>
      <trkpt lat="45.86851" lon="4.69872">
        <ele>217</ele>
        <time>2018-08-24T09:27:08Z</time>
      </trkpt>
      <trkpt lat="45.86856" lon="4.69875">
        <ele>217</ele>
        <time>2018-08-24T09:27:09Z</time>
      </trkpt>
      <trkpt lat="45.86861" lon="4.69878">
        <ele>217</ele>
        <time>2018-08-24T09:27:10Z</time>
      </trkpt>
      <trkpt lat="45.86865" lon="4.69882">
        <ele>217</ele>
        <time>2018-08-24T09:27:11Z</time>
      </trkpt>
      <trkpt lat="45.86869" lon="4.69885">
        <ele>217</ele>
        <time>2018-08-24T09:27:12Z</time>
      </trkpt>
      <trkpt lat="45.86873" lon="4.6989">
        <ele>217</ele>
        <time>2018-08-24T09:27:13Z</time>
      </trkpt>
      <trkpt lat="45.86877" lon="4.69892">
        <ele>217</ele>
        <time>2018-08-24T09:27:14Z</time>
      </trkpt>
      <trkpt lat="45.86881" lon="4.69895">
        <ele>217</ele>
        <time>2018-08-24T09:27:15Z</time>
      </trkpt>
      <trkpt lat="45.86887" lon="4.69899">
        <ele>217</ele>
        <time>2018-08-24T09:27:16Z</time>
      </trkpt>
      <trkpt lat="45.86892" lon="4.69904">
        <ele>217</ele>
        <time>2018-08-24T09:27:17Z</time>
      </trkpt>
      <trkpt lat="45.86896" lon="4.69909">
        <ele>217</ele>
        <time>2018-08-24T09:27:18Z</time>
      </trkpt>
      <trkpt lat="45.86901" lon="4.69913">
        <ele>217</ele>
        <time>2018-08-24T09:27:19Z</time>
      </trkpt>
      <trkpt lat="45.86908" lon="4.69917">
        <ele>217</ele>
        <time>2018-08-24T09:27:20Z</time>
      </trkpt>
      <trkpt lat="45.86913" lon="4.69921">
        <ele>217</ele>
        <time>2018-08-24T09:27:21Z</time>
      </trkpt>
      <trkpt lat="45.86917" lon="4.69926">
        <ele>217</ele>
        <time>2018-08-24T09:27:22Z</time>
      </trkpt>
      <trkpt lat="45.86923" lon="4.69931">
        <ele>217</ele>
        <time>2018-08-24T09:27:23Z</time>
      </trkpt>
      <trkpt lat="45.86928" lon="4.69935">
        <ele>217</ele>
        <time>2018-08-24T09:27:24Z</time>
      </trkpt>
      <trkpt lat="45.86932" lon="4.69939">
        <ele>217</ele>
        <time>2018-08-24T09:27:25Z</time>
      </trkpt>
      <trkpt lat="45.86937" lon="4.69943">
        <ele>217</ele>
        <time>2018-08-24T09:27:26Z</time>
      </trkpt>
      <trkpt lat="45.86942" lon="4.69948">
        <ele>217</ele>
        <time>2018-08-24T09:27:27Z</time>
      </trkpt>
      <trkpt lat="45.86948" lon="4.69955">
        <ele>217</ele>
        <time>2018-08-24T09:27:28Z</time>
      </trkpt>
      <trkpt lat="45.86953" lon="4.69959">
        <ele>217</ele>
        <time>2018-08-24T09:27:29Z</time>
      </trkpt>
      <trkpt lat="45.86957" lon="4.69963">
        <ele>217</ele>
        <time>2018-08-24T09:27:30Z</time>
      </trkpt>
      <trkpt lat="45.86961" lon="4.69966">
        <ele>217</ele>
        <time>2018-08-24T09:27:31Z</time>
      </trkpt>
      <trkpt lat="45.86965" lon="4.6997">
        <ele>217</ele>
        <time>2018-08-24T09:27:32Z</time>
      </trkpt>
      <trkpt lat="45.86969" lon="4.69974">
        <ele>217</ele>
        <time>2018-08-24T09:27:33Z</time>
      </trkpt>
      <trkpt lat="45.86972" lon="4.69978">
        <ele>217</ele>
        <time>2018-08-24T09:27:34Z</time>
      </trkpt>
      <trkpt lat="45.86976" lon="4.69989">
        <ele>217</ele>
        <time>2018-08-24T09:27:36Z</time>
      </trkpt>
      <trkpt lat="45.86979" lon="4.69995">
        <ele>217</ele>
        <time>2018-08-24T09:27:37Z</time>
      </trkpt>
      <trkpt lat="45.86983" lon="4.7">
        <ele>217</ele>
        <time>2018-08-24T09:27:38Z</time>
      </trkpt>
      <trkpt lat="45.86989" lon="4.70003">
        <ele>217</ele>
        <time>2018-08-24T09:27:39Z</time>
      </trkpt>
      <trkpt lat="45.86994" lon="4.70003">
        <ele>217</ele>
        <time>2018-08-24T09:27:40Z</time>
      </trkpt>
      <trkpt lat="45.86999" lon="4.70003">
        <ele>217</ele>
        <time>2018-08-24T09:27:41Z</time>
      </trkpt>
      <trkpt lat="45.87005" lon="4.70003">
        <ele>217</ele>
        <time>2018-08-24T09:27:42Z</time>
      </trkpt>
      <trkpt lat="45.87013" lon="4.70004">
        <ele>217</ele>
        <time>2018-08-24T09:27:43Z</time>
      </trkpt>
      <trkpt lat="45.87018" lon="4.70008">
        <ele>217</ele>
        <time>2018-08-24T09:27:44Z</time>
      </trkpt>
      <trkpt lat="45.87023" lon="4.70012">
        <ele>217</ele>
        <time>2018-08-24T09:27:45Z</time>
      </trkpt>
      <trkpt lat="45.87028" lon="4.70017">
        <ele>217</ele>
        <time>2018-08-24T09:27:46Z</time>
      </trkpt>
      <trkpt lat="45.87032" lon="4.7002">
        <ele>217</ele>
        <time>2018-08-24T09:27:47Z</time>
      </trkpt>
      <trkpt lat="45.87036" lon="4.70024">
        <ele>217</ele>
        <time>2018-08-24T09:27:48Z</time>
      </trkpt>
      <trkpt lat="45.87039" lon="4.70031">
        <ele>217</ele>
        <time>2018-08-24T09:27:49Z</time>
      </trkpt>
      <trkpt lat="45.87044" lon="4.70035">
        <ele>217</ele>
        <time>2018-08-24T09:27:50Z</time>
      </trkpt>
      <trkpt lat="45.87047" lon="4.70042">
        <ele>217</ele>
        <time>2018-08-24T09:27:51Z</time>
      </trkpt>
      <trkpt lat="45.8705" lon="4.70049">
        <ele>217</ele>
        <time>2018-08-24T09:27:52Z</time>
      </trkpt>
      <trkpt lat="45.87054" lon="4.70057">
        <ele>217</ele>
        <time>2018-08-24T09:27:53Z</time>
      </trkpt>
      <trkpt lat="45.87057" lon="4.70065">
        <ele>217</ele>
        <time>2018-08-24T09:27:54Z</time>
      </trkpt>
      <trkpt lat="45.8706" lon="4.70072">
        <ele>217</ele>
        <time>2018-08-24T09:27:55Z</time>
      </trkpt>
      <trkpt lat="45.87064" lon="4.7008">
        <ele>217</ele>
        <time>2018-08-24T09:27:56Z</time>
      </trkpt>
      <trkpt lat="45.87068" lon="4.70087">
        <ele>217</ele>
        <time>2018-08-24T09:27:57Z</time>
      </trkpt>
      <trkpt lat="45.87072" lon="4.70095">
        <ele>217</ele>
        <time>2018-08-24T09:27:58Z</time>
      </trkpt>
      <trkpt lat="45.87077" lon="4.70101">
        <ele>217</ele>
        <time>2018-08-24T09:27:59Z</time>
      </trkpt>
      <trkpt lat="45.87078" lon="4.70106">
        <ele>217</ele>
        <time>2018-08-24T09:28:00Z</time>
      </trkpt>
      <trkpt lat="45.87081" lon="4.70114">
        <ele>217</ele>
        <time>2018-08-24T09:28:01Z</time>
      </trkpt>
      <trkpt lat="45.87084" lon="4.7012">
        <ele>217</ele>
        <time>2018-08-24T09:28:02Z</time>
      </trkpt>
      <trkpt lat="45.87087" lon="4.70126">
        <ele>217</ele>
        <time>2018-08-24T09:28:03Z</time>
      </trkpt>
      <trkpt lat="45.87092" lon="4.70133">
        <ele>217</ele>
        <time>2018-08-24T09:28:04Z</time>
      </trkpt>
      <trkpt lat="45.87096" lon="4.70141">
        <ele>217</ele>
        <time>2018-08-24T09:28:05Z</time>
      </trkpt>
      <trkpt lat="45.87099" lon="4.70147">
        <ele>217</ele>
        <time>2018-08-24T09:28:06Z</time>
      </trkpt>
      <trkpt lat="45.87103" lon="4.70154">
        <ele>217</ele>
        <time>2018-08-24T09:28:07Z</time>
      </trkpt>
      <trkpt lat="45.87108" lon="4.70161">
        <ele>217</ele>
        <time>2018-08-24T09:28:08Z</time>
      </trkpt>
      <trkpt lat="45.87113" lon="4.70167">
        <ele>216</ele>
        <time>2018-08-24T09:28:09Z</time>
      </trkpt>
      <trkpt lat="45.87117" lon="4.70174">
        <ele>216</ele>
        <time>2018-08-24T09:28:10Z</time>
      </trkpt>
      <trkpt lat="45.87123" lon="4.70179">
        <ele>216</ele>
        <time>2018-08-24T09:28:11Z</time>
      </trkpt>
      <trkpt lat="45.87127" lon="4.7019">
        <ele>216</ele>
        <time>2018-08-24T09:28:12Z</time>
      </trkpt>
      <trkpt lat="45.87131" lon="4.70196">
        <ele>216</ele>
        <time>2018-08-24T09:28:13Z</time>
      </trkpt>
      <trkpt lat="45.87135" lon="4.70203">
        <ele>216</ele>
        <time>2018-08-24T09:28:14Z</time>
      </trkpt>
      <trkpt lat="45.87139" lon="4.7021">
        <ele>216</ele>
        <time>2018-08-24T09:28:15Z</time>
      </trkpt>
      <trkpt lat="45.87144" lon="4.70218">
        <ele>216</ele>
        <time>2018-08-24T09:28:16Z</time>
      </trkpt>
      <trkpt lat="45.87148" lon="4.70224">
        <ele>216</ele>
        <time>2018-08-24T09:28:17Z</time>
      </trkpt>
      <trkpt lat="45.87152" lon="4.7023">
        <ele>216</ele>
        <time>2018-08-24T09:28:18Z</time>
      </trkpt>
      <trkpt lat="45.87157" lon="4.70235">
        <ele>216</ele>
        <time>2018-08-24T09:28:19Z</time>
      </trkpt>
      <trkpt lat="45.87161" lon="4.70241">
        <ele>216</ele>
        <time>2018-08-24T09:28:20Z</time>
      </trkpt>
      <trkpt lat="45.87166" lon="4.70248">
        <ele>216</ele>
        <time>2018-08-24T09:28:21Z</time>
      </trkpt>
      <trkpt lat="45.8717" lon="4.70255">
        <ele>216</ele>
        <time>2018-08-24T09:28:22Z</time>
      </trkpt>
      <trkpt lat="45.87175" lon="4.70261">
        <ele>216</ele>
        <time>2018-08-24T09:28:23Z</time>
      </trkpt>
      <trkpt lat="45.8718" lon="4.70268">
        <ele>216</ele>
        <time>2018-08-24T09:28:24Z</time>
      </trkpt>
      <trkpt lat="45.87184" lon="4.70275">
        <ele>217</ele>
        <time>2018-08-24T09:28:25Z</time>
      </trkpt>
      <trkpt lat="45.8719" lon="4.70278">
        <ele>217</ele>
        <time>2018-08-24T09:28:26Z</time>
      </trkpt>
      <trkpt lat="45.87194" lon="4.70286">
        <ele>217</ele>
        <time>2018-08-24T09:28:27Z</time>
      </trkpt>
      <trkpt lat="45.87199" lon="4.70291">
        <ele>217</ele>
        <time>2018-08-24T09:28:28Z</time>
      </trkpt>
      <trkpt lat="45.87204" lon="4.70296">
        <ele>217</ele>
        <time>2018-08-24T09:28:29Z</time>
      </trkpt>
      <trkpt lat="45.87208" lon="4.70303">
        <ele>217</ele>
        <time>2018-08-24T09:28:30Z</time>
      </trkpt>
      <trkpt lat="45.87212" lon="4.70308">
        <ele>217</ele>
        <time>2018-08-24T09:28:31Z</time>
      </trkpt>
      <trkpt lat="45.87217" lon="4.70314">
        <ele>217</ele>
        <time>2018-08-24T09:28:32Z</time>
      </trkpt>
      <trkpt lat="45.87221" lon="4.7032">
        <ele>217</ele>
        <time>2018-08-24T09:28:33Z</time>
      </trkpt>
      <trkpt lat="45.87227" lon="4.70325">
        <ele>217</ele>
        <time>2018-08-24T09:28:34Z</time>
      </trkpt>
      <trkpt lat="45.87232" lon="4.7033">
        <ele>217</ele>
        <time>2018-08-24T09:28:35Z</time>
      </trkpt>
      <trkpt lat="45.87237" lon="4.70337">
        <ele>217</ele>
        <time>2018-08-24T09:28:36Z</time>
      </trkpt>
      <trkpt lat="45.87242" lon="4.70344">
        <ele>217</ele>
        <time>2018-08-24T09:28:37Z</time>
      </trkpt>
      <trkpt lat="45.87246" lon="4.70349">
        <ele>217</ele>
        <time>2018-08-24T09:28:38Z</time>
      </trkpt>
      <trkpt lat="45.87249" lon="4.70356">
        <ele>217</ele>
        <time>2018-08-24T09:28:39Z</time>
      </trkpt>
      <trkpt lat="45.87254" lon="4.70361">
        <ele>216</ele>
        <time>2018-08-24T09:28:40Z</time>
      </trkpt>
      <trkpt lat="45.87257" lon="4.70365">
        <ele>216</ele>
        <time>2018-08-24T09:28:41Z</time>
      </trkpt>
      <trkpt lat="45.87261" lon="4.70372">
        <ele>216</ele>
        <time>2018-08-24T09:28:42Z</time>
      </trkpt>
      <trkpt lat="45.87267" lon="4.7038">
        <ele>216</ele>
        <time>2018-08-24T09:28:43Z</time>
      </trkpt>
      <trkpt lat="45.87268" lon="4.70385">
        <ele>216</ele>
        <time>2018-08-24T09:28:44Z</time>
      </trkpt>
      <trkpt lat="45.87273" lon="4.70393">
        <ele>216</ele>
        <time>2018-08-24T09:28:45Z</time>
      </trkpt>
      <trkpt lat="45.87275" lon="4.70399">
        <ele>216</ele>
        <time>2018-08-24T09:28:46Z</time>
      </trkpt>
      <trkpt lat="45.87279" lon="4.70404">
        <ele>216</ele>
        <time>2018-08-24T09:28:47Z</time>
      </trkpt>
      <trkpt lat="45.87284" lon="4.70408">
        <ele>216</ele>
        <time>2018-08-24T09:28:48Z</time>
      </trkpt>
      <trkpt lat="45.8729" lon="4.70413">
        <ele>216</ele>
        <time>2018-08-24T09:28:49Z</time>
      </trkpt>
      <trkpt lat="45.87294" lon="4.7042">
        <ele>214</ele>
        <time>2018-08-24T09:28:50Z</time>
      </trkpt>
      <trkpt lat="45.873" lon="4.70426">
        <ele>214</ele>
        <time>2018-08-24T09:28:51Z</time>
      </trkpt>
      <trkpt lat="45.87304" lon="4.70433">
        <ele>214</ele>
        <time>2018-08-24T09:28:52Z</time>
      </trkpt>
      <trkpt lat="45.87308" lon="4.70441">
        <ele>214</ele>
        <time>2018-08-24T09:28:53Z</time>
      </trkpt>
      <trkpt lat="45.87312" lon="4.70447">
        <ele>214</ele>
        <time>2018-08-24T09:28:54Z</time>
      </trkpt>
      <trkpt lat="45.87317" lon="4.70455">
        <ele>214</ele>
        <time>2018-08-24T09:28:55Z</time>
      </trkpt>
      <trkpt lat="45.8732" lon="4.70459">
        <ele>214</ele>
        <time>2018-08-24T09:28:56Z</time>
      </trkpt>
      <trkpt lat="45.87325" lon="4.70466">
        <ele>214</ele>
        <time>2018-08-24T09:28:57Z</time>
      </trkpt>
      <trkpt lat="45.87328" lon="4.70473">
        <ele>214</ele>
        <time>2018-08-24T09:28:58Z</time>
      </trkpt>
      <trkpt lat="45.87331" lon="4.7048">
        <ele>214</ele>
        <time>2018-08-24T09:28:59Z</time>
      </trkpt>
      <trkpt lat="45.87337" lon="4.70489">
        <ele>213</ele>
        <time>2018-08-24T09:29:00Z</time>
      </trkpt>
      <trkpt lat="45.87341" lon="4.70497">
        <ele>213</ele>
        <time>2018-08-24T09:29:01Z</time>
      </trkpt>
      <trkpt lat="45.87347" lon="4.70504">
        <ele>212</ele>
        <time>2018-08-24T09:29:02Z</time>
      </trkpt>
      <trkpt lat="45.87352" lon="4.70512">
        <ele>212</ele>
        <time>2018-08-24T09:29:03Z</time>
      </trkpt>
      <trkpt lat="45.87357" lon="4.7052">
        <ele>212</ele>
        <time>2018-08-24T09:29:04Z</time>
      </trkpt>
      <trkpt lat="45.87363" lon="4.70529">
        <ele>212</ele>
        <time>2018-08-24T09:29:05Z</time>
      </trkpt>
      <trkpt lat="45.87368" lon="4.70536">
        <ele>212</ele>
        <time>2018-08-24T09:29:06Z</time>
      </trkpt>
      <trkpt lat="45.87376" lon="4.70546">
        <ele>212</ele>
        <time>2018-08-24T09:29:07Z</time>
      </trkpt>
      <trkpt lat="45.87382" lon="4.70553">
        <ele>212</ele>
        <time>2018-08-24T09:29:08Z</time>
      </trkpt>
      <trkpt lat="45.87387" lon="4.70562">
        <ele>211</ele>
        <time>2018-08-24T09:29:09Z</time>
      </trkpt>
      <trkpt lat="45.87393" lon="4.7057">
        <ele>211</ele>
        <time>2018-08-24T09:29:10Z</time>
      </trkpt>
      <trkpt lat="45.87399" lon="4.70579">
        <ele>211</ele>
        <time>2018-08-24T09:29:11Z</time>
      </trkpt>
      <trkpt lat="45.87405" lon="4.70589">
        <ele>210</ele>
        <time>2018-08-24T09:29:12Z</time>
      </trkpt>
      <trkpt lat="45.87409" lon="4.70598">
        <ele>210</ele>
        <time>2018-08-24T09:29:13Z</time>
      </trkpt>
      <trkpt lat="45.87413" lon="4.70608">
        <ele>210</ele>
        <time>2018-08-24T09:29:14Z</time>
      </trkpt>
      <trkpt lat="45.87415" lon="4.7062">
        <ele>209</ele>
        <time>2018-08-24T09:29:15Z</time>
      </trkpt>
      <trkpt lat="45.87416" lon="4.70633">
        <ele>209</ele>
        <time>2018-08-24T09:29:16Z</time>
      </trkpt>
      <trkpt lat="45.87417" lon="4.70642">
        <ele>209</ele>
        <time>2018-08-24T09:29:17Z</time>
      </trkpt>
      <trkpt lat="45.87418" lon="4.70652">
        <ele>208</ele>
        <time>2018-08-24T09:29:18Z</time>
      </trkpt>
      <trkpt lat="45.87419" lon="4.70661">
        <ele>208</ele>
        <time>2018-08-24T09:29:19Z</time>
      </trkpt>
      <trkpt lat="45.8742" lon="4.70669">
        <ele>207</ele>
        <time>2018-08-24T09:29:20Z</time>
      </trkpt>
      <trkpt lat="45.87421" lon="4.70678">
        <ele>208</ele>
        <time>2018-08-24T09:29:21Z</time>
      </trkpt>
      <trkpt lat="45.87423" lon="4.70687">
        <ele>209</ele>
        <time>2018-08-24T09:29:22Z</time>
      </trkpt>
      <trkpt lat="45.87424" lon="4.70696">
        <ele>209</ele>
        <time>2018-08-24T09:29:23Z</time>
      </trkpt>
      <trkpt lat="45.87425" lon="4.70704">
        <ele>209</ele>
        <time>2018-08-24T09:29:24Z</time>
      </trkpt>
      <trkpt lat="45.87427" lon="4.70712">
        <ele>209</ele>
        <time>2018-08-24T09:29:25Z</time>
      </trkpt>
      <trkpt lat="45.87429" lon="4.70719">
        <ele>209</ele>
        <time>2018-08-24T09:29:26Z</time>
      </trkpt>
      <trkpt lat="45.8743" lon="4.70726">
        <ele>209</ele>
        <time>2018-08-24T09:29:27Z</time>
      </trkpt>
      <trkpt lat="45.87431" lon="4.70733">
        <ele>209</ele>
        <time>2018-08-24T09:29:28Z</time>
      </trkpt>
      <trkpt lat="45.87432" lon="4.70741">
        <ele>209</ele>
        <time>2018-08-24T09:29:29Z</time>
      </trkpt>
      <trkpt lat="45.87434" lon="4.70748">
        <ele>209</ele>
        <time>2018-08-24T09:29:30Z</time>
      </trkpt>
      <trkpt lat="45.87435" lon="4.70756">
        <ele>209</ele>
        <time>2018-08-24T09:29:31Z</time>
      </trkpt>
      <trkpt lat="45.87437" lon="4.70763">
        <ele>210</ele>
        <time>2018-08-24T09:29:32Z</time>
      </trkpt>
      <trkpt lat="45.87439" lon="4.70769">
        <ele>210</ele>
        <time>2018-08-24T09:29:33Z</time>
      </trkpt>
      <trkpt lat="45.8744" lon="4.70776">
        <ele>210</ele>
        <time>2018-08-24T09:29:34Z</time>
      </trkpt>
      <trkpt lat="45.87441" lon="4.70782">
        <ele>210</ele>
        <time>2018-08-24T09:29:35Z</time>
      </trkpt>
      <trkpt lat="45.87445" lon="4.70791">
        <ele>211</ele>
        <time>2018-08-24T09:29:36Z</time>
      </trkpt>
      <trkpt lat="45.87448" lon="4.70798">
        <ele>211</ele>
        <time>2018-08-24T09:29:37Z</time>
      </trkpt>
      <trkpt lat="45.8745" lon="4.70803">
        <ele>211</ele>
        <time>2018-08-24T09:29:38Z</time>
      </trkpt>
      <trkpt lat="45.87453" lon="4.70814">
        <ele>211</ele>
        <time>2018-08-24T09:29:40Z</time>
      </trkpt>
      <trkpt lat="45.87455" lon="4.70819">
        <ele>211</ele>
        <time>2018-08-24T09:29:41Z</time>
      </trkpt>
      <trkpt lat="45.87457" lon="4.7083">
        <ele>211</ele>
        <time>2018-08-24T09:29:44Z</time>
      </trkpt>
      <trkpt lat="45.87458" lon="4.70833">
        <ele>211</ele>
        <time>2018-08-24T09:29:45Z</time>
      </trkpt>
      <trkpt lat="45.8746" lon="4.70844">
        <ele>213</ele>
        <time>2018-08-24T09:29:46Z</time>
      </trkpt>
      <trkpt lat="45.8746" lon="4.7085">
        <ele>213</ele>
        <time>2018-08-24T09:29:47Z</time>
      </trkpt>
      <trkpt lat="45.87463" lon="4.70859">
        <ele>213</ele>
        <time>2018-08-24T09:29:48Z</time>
      </trkpt>
      <trkpt lat="45.87466" lon="4.70867">
        <ele>213</ele>
        <time>2018-08-24T09:29:49Z</time>
      </trkpt>
      <trkpt lat="45.87468" lon="4.70875">
        <ele>213</ele>
        <time>2018-08-24T09:29:50Z</time>
      </trkpt>
      <trkpt lat="45.8747" lon="4.70883">
        <ele>214</ele>
        <time>2018-08-24T09:29:51Z</time>
      </trkpt>
      <trkpt lat="45.87472" lon="4.70895">
        <ele>214</ele>
        <time>2018-08-24T09:29:53Z</time>
      </trkpt>
      <trkpt lat="45.87473" lon="4.70902">
        <ele>214</ele>
        <time>2018-08-24T09:29:54Z</time>
      </trkpt>
      <trkpt lat="45.87478" lon="4.70912">
        <ele>214</ele>
        <time>2018-08-24T09:29:56Z</time>
      </trkpt>
      <trkpt lat="45.8748" lon="4.70922">
        <ele>215</ele>
        <time>2018-08-24T09:29:57Z</time>
      </trkpt>
      <trkpt lat="45.87483" lon="4.70928">
        <ele>215</ele>
        <time>2018-08-24T09:29:58Z</time>
      </trkpt>
      <trkpt lat="45.87483" lon="4.70934">
        <ele>215</ele>
        <time>2018-08-24T09:29:59Z</time>
      </trkpt>
      <trkpt lat="45.87486" lon="4.70945">
        <ele>215</ele>
        <time>2018-08-24T09:30:01Z</time>
      </trkpt>
      <trkpt lat="45.87488" lon="4.70951">
        <ele>215</ele>
        <time>2018-08-24T09:30:02Z</time>
      </trkpt>
      <trkpt lat="45.87491" lon="4.70961">
        <ele>215</ele>
        <time>2018-08-24T09:30:04Z</time>
      </trkpt>
      <trkpt lat="45.87492" lon="4.70967">
        <ele>215</ele>
        <time>2018-08-24T09:30:05Z</time>
      </trkpt>
      <trkpt lat="45.87498" lon="4.70975">
        <ele>215</ele>
        <time>2018-08-24T09:30:06Z</time>
      </trkpt>
      <trkpt lat="45.87499" lon="4.7098">
        <ele>215</ele>
        <time>2018-08-24T09:30:07Z</time>
      </trkpt>
      <trkpt lat="45.87504" lon="4.70989">
        <ele>214</ele>
        <time>2018-08-24T09:30:09Z</time>
      </trkpt>
      <trkpt lat="45.87506" lon="4.70994">
        <ele>214</ele>
        <time>2018-08-24T09:30:10Z</time>
      </trkpt>
      <trkpt lat="45.87508" lon="4.70997">
        <ele>214</ele>
        <time>2018-08-24T09:30:11Z</time>
      </trkpt>
      <trkpt lat="45.87512" lon="4.71003">
        <ele>214</ele>
        <time>2018-08-24T09:30:12Z</time>
      </trkpt>
      <trkpt lat="45.87515" lon="4.71009">
        <ele>215</ele>
        <time>2018-08-24T09:30:13Z</time>
      </trkpt>
      <trkpt lat="45.87517" lon="4.71015">
        <ele>215</ele>
        <time>2018-08-24T09:30:14Z</time>
      </trkpt>
      <trkpt lat="45.87519" lon="4.71018">
        <ele>215</ele>
        <time>2018-08-24T09:30:15Z</time>
      </trkpt>
      <trkpt lat="45.87523" lon="4.71024">
        <ele>215</ele>
        <time>2018-08-24T09:30:16Z</time>
      </trkpt>
      <trkpt lat="45.87527" lon="4.71032">
        <ele>215</ele>
        <time>2018-08-24T09:30:18Z</time>
      </trkpt>
      <trkpt lat="45.8753" lon="4.71037">
        <ele>215</ele>
        <time>2018-08-24T09:30:19Z</time>
      </trkpt>
      <trkpt lat="45.87533" lon="4.71041">
        <ele>215</ele>
        <time>2018-08-24T09:30:20Z</time>
      </trkpt>
      <trkpt lat="45.87535" lon="4.71048">
        <ele>215</ele>
        <time>2018-08-24T09:30:21Z</time>
      </trkpt>
      <trkpt lat="45.87538" lon="4.71051">
        <ele>215</ele>
        <time>2018-08-24T09:30:23Z</time>
      </trkpt>
      <trkpt lat="45.87542" lon="4.71057">
        <ele>215</ele>
        <time>2018-08-24T09:30:24Z</time>
      </trkpt>
      <trkpt lat="45.87548" lon="4.71065">
        <ele>216</ele>
        <time>2018-08-24T09:30:28Z</time>
      </trkpt>
      <trkpt lat="45.8755" lon="4.71066">
        <ele>216</ele>
        <time>2018-08-24T09:30:29Z</time>
      </trkpt>
      <trkpt lat="45.87557" lon="4.71073">
        <ele>216</ele>
        <time>2018-08-24T09:30:33Z</time>
      </trkpt>
      <trkpt lat="45.87558" lon="4.71075">
        <ele>216</ele>
        <time>2018-08-24T09:30:34Z</time>
      </trkpt>
      <trkpt lat="45.87565" lon="4.71081">
        <ele>216</ele>
        <time>2018-08-24T09:31:46Z</time>
      </trkpt>
      <trkpt lat="45.87567" lon="4.71084">
        <ele>218</ele>
        <time>2018-08-24T09:31:47Z</time>
      </trkpt>
      <trkpt lat="45.87574" lon="4.7109">
        <ele>217</ele>
        <time>2018-08-24T09:31:50Z</time>
      </trkpt>
      <trkpt lat="45.87577" lon="4.71091">
        <ele>217</ele>
        <time>2018-08-24T09:31:51Z</time>
      </trkpt>
      <trkpt lat="45.87586" lon="4.71093">
        <ele>218</ele>
        <time>2018-08-24T09:31:52Z</time>
      </trkpt>
      <trkpt lat="45.8759" lon="4.71092">
        <ele>218</ele>
        <time>2018-08-24T09:31:54Z</time>
      </trkpt>
      <trkpt lat="45.87597" lon="4.7109">
        <ele>219</ele>
        <time>2018-08-24T09:31:55Z</time>
      </trkpt>
      <trkpt lat="45.87603" lon="4.71087">
        <ele>219</ele>
        <time>2018-08-24T09:31:56Z</time>
      </trkpt>
      <trkpt lat="45.87607" lon="4.71084">
        <ele>219</ele>
        <time>2018-08-24T09:31:57Z</time>
      </trkpt>
      <trkpt lat="45.87612" lon="4.71081">
        <ele>217</ele>
        <time>2018-08-24T09:31:58Z</time>
      </trkpt>
      <trkpt lat="45.87617" lon="4.7108">
        <ele>217</ele>
        <time>2018-08-24T09:31:59Z</time>
      </trkpt>
      <trkpt lat="45.87621" lon="4.71077">
        <ele>217</ele>
        <time>2018-08-24T09:32:00Z</time>
      </trkpt>
      <trkpt lat="45.87626" lon="4.71076">
        <ele>218</ele>
        <time>2018-08-24T09:32:01Z</time>
      </trkpt>
      <trkpt lat="45.8763" lon="4.71072">
        <ele>218</ele>
        <time>2018-08-24T09:32:02Z</time>
      </trkpt>
      <trkpt lat="45.87635" lon="4.71072">
        <ele>218</ele>
        <time>2018-08-24T09:32:03Z</time>
      </trkpt>
      <trkpt lat="45.87643" lon="4.71068">
        <ele>218</ele>
        <time>2018-08-24T09:32:05Z</time>
      </trkpt>
      <trkpt lat="45.87648" lon="4.71069">
        <ele>218</ele>
        <time>2018-08-24T09:32:06Z</time>
      </trkpt>
      <trkpt lat="45.87657" lon="4.71065">
        <ele>218</ele>
        <time>2018-08-24T09:32:08Z</time>
      </trkpt>
      <trkpt lat="45.87663" lon="4.71064">
        <ele>218</ele>
        <time>2018-08-24T09:32:09Z</time>
      </trkpt>
      <trkpt lat="45.87668" lon="4.71062">
        <ele>220</ele>
        <time>2018-08-24T09:32:10Z</time>
      </trkpt>
      <trkpt lat="45.87673" lon="4.71061">
        <ele>220</ele>
        <time>2018-08-24T09:32:11Z</time>
      </trkpt>
      <trkpt lat="45.8768" lon="4.71057">
        <ele>220</ele>
        <time>2018-08-24T09:32:13Z</time>
      </trkpt>
      <trkpt lat="45.87685" lon="4.71056">
        <ele>220</ele>
        <time>2018-08-24T09:32:14Z</time>
      </trkpt>
      <trkpt lat="45.8769" lon="4.71053">
        <ele>220</ele>
        <time>2018-08-24T09:32:16Z</time>
      </trkpt>
      <trkpt lat="45.87694" lon="4.71053">
        <ele>220</ele>
        <time>2018-08-24T09:32:17Z</time>
      </trkpt>
      <trkpt lat="45.87699" lon="4.71051">
        <ele>220</ele>
        <time>2018-08-24T09:32:19Z</time>
      </trkpt>
      <trkpt lat="45.87707" lon="4.71043">
        <ele>220</ele>
        <time>2018-08-24T09:32:20Z</time>
      </trkpt>
      <trkpt lat="45.87715" lon="4.7104">
        <ele>220</ele>
        <time>2018-08-24T09:32:22Z</time>
      </trkpt>
      <trkpt lat="45.87718" lon="4.7104">
        <ele>220</ele>
        <time>2018-08-24T09:32:23Z</time>
      </trkpt>
      <trkpt lat="45.87727" lon="4.71038">
        <ele>220</ele>
        <time>2018-08-24T09:32:25Z</time>
      </trkpt>
      <trkpt lat="45.87732" lon="4.71032">
        <ele>220</ele>
        <time>2018-08-24T09:32:26Z</time>
      </trkpt>
      <trkpt lat="45.8774" lon="4.71031">
        <ele>220</ele>
        <time>2018-08-24T09:32:28Z</time>
      </trkpt>
      <trkpt lat="45.87744" lon="4.7103">
        <ele>220</ele>
        <time>2018-08-24T09:32:29Z</time>
      </trkpt>
      <trkpt lat="45.87747" lon="4.71029">
        <ele>220</ele>
        <time>2018-08-24T09:32:30Z</time>
      </trkpt>
      <trkpt lat="45.87752" lon="4.71025">
        <ele>222</ele>
        <time>2018-08-24T09:32:31Z</time>
      </trkpt>
      <trkpt lat="45.8776" lon="4.71022">
        <ele>222</ele>
        <time>2018-08-24T09:32:33Z</time>
      </trkpt>
      <trkpt lat="45.87764" lon="4.71021">
        <ele>222</ele>
        <time>2018-08-24T09:32:34Z</time>
      </trkpt>
      <trkpt lat="45.87772" lon="4.71018">
        <ele>222</ele>
        <time>2018-08-24T09:32:36Z</time>
      </trkpt>
      <trkpt lat="45.87777" lon="4.71016">
        <ele>222</ele>
        <time>2018-08-24T09:32:37Z</time>
      </trkpt>
      <trkpt lat="45.87785" lon="4.71013">
        <ele>222</ele>
        <time>2018-08-24T09:32:39Z</time>
      </trkpt>
      <trkpt lat="45.87789" lon="4.71011">
        <ele>223</ele>
        <time>2018-08-24T09:32:40Z</time>
      </trkpt>
      <trkpt lat="45.87797" lon="4.71008">
        <ele>223</ele>
        <time>2018-08-24T09:32:42Z</time>
      </trkpt>
      <trkpt lat="45.878" lon="4.71007">
        <ele>223</ele>
        <time>2018-08-24T09:32:43Z</time>
      </trkpt>
      <trkpt lat="45.87805" lon="4.71005">
        <ele>223</ele>
        <time>2018-08-24T09:32:44Z</time>
      </trkpt>
      <trkpt lat="45.87809" lon="4.71003">
        <ele>223</ele>
        <time>2018-08-24T09:32:45Z</time>
      </trkpt>
      <trkpt lat="45.87817" lon="4.70998">
        <ele>223</ele>
        <time>2018-08-24T09:32:47Z</time>
      </trkpt>
      <trkpt lat="45.87821" lon="4.70997">
        <ele>223</ele>
        <time>2018-08-24T09:32:48Z</time>
      </trkpt>
      <trkpt lat="45.87828" lon="4.70994">
        <ele>223</ele>
        <time>2018-08-24T09:32:50Z</time>
      </trkpt>
      <trkpt lat="45.87832" lon="4.70992">
        <ele>223</ele>
        <time>2018-08-24T09:32:51Z</time>
      </trkpt>
      <trkpt lat="45.87838" lon="4.7099">
        <ele>224</ele>
        <time>2018-08-24T09:32:53Z</time>
      </trkpt>
      <trkpt lat="45.87843" lon="4.70988">
        <ele>224</ele>
        <time>2018-08-24T09:32:54Z</time>
      </trkpt>
      <trkpt lat="45.87851" lon="4.70983">
        <ele>224</ele>
        <time>2018-08-24T09:32:56Z</time>
      </trkpt>
      <trkpt lat="45.87853" lon="4.70982">
        <ele>224</ele>
        <time>2018-08-24T09:32:57Z</time>
      </trkpt>
      <trkpt lat="45.87858" lon="4.70979">
        <ele>224</ele>
        <time>2018-08-24T09:32:58Z</time>
      </trkpt>
      <trkpt lat="45.87862" lon="4.70977">
        <ele>224</ele>
        <time>2018-08-24T09:32:59Z</time>
      </trkpt>
      <trkpt lat="45.87868" lon="4.70973">
        <ele>225</ele>
        <time>2018-08-24T09:33:01Z</time>
      </trkpt>
      <trkpt lat="45.87872" lon="4.70971">
        <ele>225</ele>
        <time>2018-08-24T09:33:02Z</time>
      </trkpt>
      <trkpt lat="45.87879" lon="4.70967">
        <ele>225</ele>
        <time>2018-08-24T09:33:04Z</time>
      </trkpt>
      <trkpt lat="45.87883" lon="4.70965">
        <ele>225</ele>
        <time>2018-08-24T09:33:05Z</time>
      </trkpt>
      <trkpt lat="45.8789" lon="4.70962">
        <ele>225</ele>
        <time>2018-08-24T09:33:07Z</time>
      </trkpt>
      <trkpt lat="45.87894" lon="4.7096">
        <ele>225</ele>
        <time>2018-08-24T09:33:08Z</time>
      </trkpt>
      <trkpt lat="45.87898" lon="4.70957">
        <ele>225</ele>
        <time>2018-08-24T09:33:09Z</time>
      </trkpt>
      <trkpt lat="45.87903" lon="4.70952">
        <ele>225</ele>
        <time>2018-08-24T09:33:10Z</time>
      </trkpt>
      <trkpt lat="45.87908" lon="4.70949">
        <ele>225</ele>
        <time>2018-08-24T09:33:12Z</time>
      </trkpt>
      <trkpt lat="45.87913" lon="4.70945">
        <ele>224</ele>
        <time>2018-08-24T09:33:13Z</time>
      </trkpt>
      <trkpt lat="45.8792" lon="4.70938">
        <ele>225</ele>
        <time>2018-08-24T09:33:15Z</time>
      </trkpt>
      <trkpt lat="45.87924" lon="4.70934">
        <ele>225</ele>
        <time>2018-08-24T09:33:16Z</time>
      </trkpt>
      <trkpt lat="45.87932" lon="4.70934">
        <ele>225</ele>
        <time>2018-08-24T09:33:19Z</time>
      </trkpt>
      <trkpt lat="45.87934" lon="4.70933">
        <ele>225</ele>
        <time>2018-08-24T09:33:20Z</time>
      </trkpt>
      <trkpt lat="45.87941" lon="4.70927">
        <ele>225</ele>
        <time>2018-08-24T09:33:21Z</time>
      </trkpt>
      <trkpt lat="45.87944" lon="4.70925">
        <ele>225</ele>
        <time>2018-08-24T09:33:22Z</time>
      </trkpt>
      <trkpt lat="45.87948" lon="4.70921">
        <ele>225</ele>
        <time>2018-08-24T09:33:23Z</time>
      </trkpt>
      <trkpt lat="45.87952" lon="4.70917">
        <ele>225</ele>
        <time>2018-08-24T09:33:24Z</time>
      </trkpt>
      <trkpt lat="45.87959" lon="4.70912">
        <ele>225</ele>
        <time>2018-08-24T09:33:26Z</time>
      </trkpt>
      <trkpt lat="45.87963" lon="4.7091">
        <ele>225</ele>
        <time>2018-08-24T09:33:27Z</time>
      </trkpt>
      <trkpt lat="45.8797" lon="4.70908">
        <ele>225</ele>
        <time>2018-08-24T09:33:29Z</time>
      </trkpt>
      <trkpt lat="45.87973" lon="4.70906">
        <ele>225</ele>
        <time>2018-08-24T09:33:30Z</time>
      </trkpt>
      <trkpt lat="45.8798" lon="4.70902">
        <ele>225</ele>
        <time>2018-08-24T09:33:32Z</time>
      </trkpt>
      <trkpt lat="45.87984" lon="4.709">
        <ele>225</ele>
        <time>2018-08-24T09:33:33Z</time>
      </trkpt>
      <trkpt lat="45.8799" lon="4.70894">
        <ele>225</ele>
        <time>2018-08-24T09:33:35Z</time>
      </trkpt>
      <trkpt lat="45.87993" lon="4.70891">
        <ele>225</ele>
        <time>2018-08-24T09:33:36Z</time>
      </trkpt>
      <trkpt lat="45.88" lon="4.70885">
        <ele>226</ele>
        <time>2018-08-24T09:33:38Z</time>
      </trkpt>
      <trkpt lat="45.88003" lon="4.70881">
        <ele>226</ele>
        <time>2018-08-24T09:33:39Z</time>
      </trkpt>
      <trkpt lat="45.8801" lon="4.70875">
        <ele>226</ele>
        <time>2018-08-24T09:33:41Z</time>
      </trkpt>
      <trkpt lat="45.88013" lon="4.70872">
        <ele>226</ele>
        <time>2018-08-24T09:33:42Z</time>
      </trkpt>
      <trkpt lat="45.88021" lon="4.70868">
        <ele>226</ele>
        <time>2018-08-24T09:33:44Z</time>
      </trkpt>
      <trkpt lat="45.88022" lon="4.70868">
        <ele>226</ele>
        <time>2018-08-24T09:33:45Z</time>
      </trkpt>
      <trkpt lat="45.88031" lon="4.70864">
        <ele>226</ele>
        <time>2018-08-24T09:33:47Z</time>
      </trkpt>
      <trkpt lat="45.88034" lon="4.70861">
        <ele>226</ele>
        <time>2018-08-24T09:33:48Z</time>
      </trkpt>
      <trkpt lat="45.88041" lon="4.70858">
        <ele>227</ele>
        <time>2018-08-24T09:33:51Z</time>
      </trkpt>
      <trkpt lat="45.88048" lon="4.70855">
        <ele>227</ele>
        <time>2018-08-24T09:33:52Z</time>
      </trkpt>
      <trkpt lat="45.88056" lon="4.70851">
        <ele>227</ele>
        <time>2018-08-24T09:33:54Z</time>
      </trkpt>
      <trkpt lat="45.88058" lon="4.7085">
        <ele>227</ele>
        <time>2018-08-24T09:33:55Z</time>
      </trkpt>
      <trkpt lat="45.88064" lon="4.70846">
        <ele>227</ele>
        <time>2018-08-24T09:33:57Z</time>
      </trkpt>
      <trkpt lat="45.88069" lon="4.70842">
        <ele>228</ele>
        <time>2018-08-24T09:33:58Z</time>
      </trkpt>
      <trkpt lat="45.88075" lon="4.70839">
        <ele>228</ele>
        <time>2018-08-24T09:34:00Z</time>
      </trkpt>
      <trkpt lat="45.8808" lon="4.70838">
        <ele>228</ele>
        <time>2018-08-24T09:34:01Z</time>
      </trkpt>
      <trkpt lat="45.88088" lon="4.70843">
        <ele>229</ele>
        <time>2018-08-24T09:34:03Z</time>
      </trkpt>
      <trkpt lat="45.88091" lon="4.70847">
        <ele>229</ele>
        <time>2018-08-24T09:34:04Z</time>
      </trkpt>
      <trkpt lat="45.88096" lon="4.70847">
        <ele>229</ele>
        <time>2018-08-24T09:34:05Z</time>
      </trkpt>
      <trkpt lat="45.88101" lon="4.70848">
        <ele>229</ele>
        <time>2018-08-24T09:34:06Z</time>
      </trkpt>
      <trkpt lat="45.88107" lon="4.70845">
        <ele>229</ele>
        <time>2018-08-24T09:34:08Z</time>
      </trkpt>
      <trkpt lat="45.88111" lon="4.70837">
        <ele>229</ele>
        <time>2018-08-24T09:34:09Z</time>
      </trkpt>
      <trkpt lat="45.88116" lon="4.70827">
        <ele>230</ele>
        <time>2018-08-24T09:34:13Z</time>
      </trkpt>
      <trkpt lat="45.88118" lon="4.70824">
        <ele>230</ele>
        <time>2018-08-24T09:34:14Z</time>
      </trkpt>
      <trkpt lat="45.88124" lon="4.70814">
        <ele>230</ele>
        <time>2018-08-24T09:34:15Z</time>
      </trkpt>
      <trkpt lat="45.88125" lon="4.70813">
        <ele>230</ele>
        <time>2018-08-24T09:34:16Z</time>
      </trkpt>
      <trkpt lat="45.88131" lon="4.70805">
        <ele>231</ele>
        <time>2018-08-24T09:34:18Z</time>
      </trkpt>
      <trkpt lat="45.88135" lon="4.70802">
        <ele>231</ele>
        <time>2018-08-24T09:34:19Z</time>
      </trkpt>
      <trkpt lat="45.88138" lon="4.70799">
        <ele>231</ele>
        <time>2018-08-24T09:34:21Z</time>
      </trkpt>
      <trkpt lat="45.88144" lon="4.70793">
        <ele>231</ele>
        <time>2018-08-24T09:34:22Z</time>
      </trkpt>
      <trkpt lat="45.88151" lon="4.70785">
        <ele>231</ele>
        <time>2018-08-24T09:34:24Z</time>
      </trkpt>
      <trkpt lat="45.88154" lon="4.70783">
        <ele>231</ele>
        <time>2018-08-24T09:34:25Z</time>
      </trkpt>
      <trkpt lat="45.88161" lon="4.70778">
        <ele>231</ele>
        <time>2018-08-24T09:34:27Z</time>
      </trkpt>
      <trkpt lat="45.88165" lon="4.70775">
        <ele>231</ele>
        <time>2018-08-24T09:34:28Z</time>
      </trkpt>
      <trkpt lat="45.88172" lon="4.7077">
        <ele>232</ele>
        <time>2018-08-24T09:34:30Z</time>
      </trkpt>
      <trkpt lat="45.88176" lon="4.70767">
        <ele>232</ele>
        <time>2018-08-24T09:34:31Z</time>
      </trkpt>
      <trkpt lat="45.88185" lon="4.70763">
        <ele>232</ele>
        <time>2018-08-24T09:34:34Z</time>
      </trkpt>
      <trkpt lat="45.88186" lon="4.70763">
        <ele>232</ele>
        <time>2018-08-24T09:34:35Z</time>
      </trkpt>
      <trkpt lat="45.88193" lon="4.70755">
        <ele>232</ele>
        <time>2018-08-24T09:34:36Z</time>
      </trkpt>
      <trkpt lat="45.88197" lon="4.70753">
        <ele>232</ele>
        <time>2018-08-24T09:34:37Z</time>
      </trkpt>
      <trkpt lat="45.88204" lon="4.70747">
        <ele>235</ele>
        <time>2018-08-24T09:34:39Z</time>
      </trkpt>
      <trkpt lat="45.88208" lon="4.70743">
        <ele>235</ele>
        <time>2018-08-24T09:34:40Z</time>
      </trkpt>
      <trkpt lat="45.88216" lon="4.70738">
        <ele>235</ele>
        <time>2018-08-24T09:34:42Z</time>
      </trkpt>
      <trkpt lat="45.88219" lon="4.70734">
        <ele>235</ele>
        <time>2018-08-24T09:34:43Z</time>
      </trkpt>
      <trkpt lat="45.88226" lon="4.70729">
        <ele>235</ele>
        <time>2018-08-24T09:34:45Z</time>
      </trkpt>
      <trkpt lat="45.8823" lon="4.70726">
        <ele>235</ele>
        <time>2018-08-24T09:34:46Z</time>
      </trkpt>
      <trkpt lat="45.88233" lon="4.70722">
        <ele>235</ele>
        <time>2018-08-24T09:34:47Z</time>
      </trkpt>
      <trkpt lat="45.88237" lon="4.70719">
        <ele>235</ele>
        <time>2018-08-24T09:34:48Z</time>
      </trkpt>
      <trkpt lat="45.88242" lon="4.70714">
        <ele>236</ele>
        <time>2018-08-24T09:34:49Z</time>
      </trkpt>
      <trkpt lat="45.88247" lon="4.70712">
        <ele>236</ele>
        <time>2018-08-24T09:34:50Z</time>
      </trkpt>
      <trkpt lat="45.88255" lon="4.7071">
        <ele>235</ele>
        <time>2018-08-24T09:34:52Z</time>
      </trkpt>
      <trkpt lat="45.88259" lon="4.70707">
        <ele>235</ele>
        <time>2018-08-24T09:34:53Z</time>
      </trkpt>
      <trkpt lat="45.88262" lon="4.70703">
        <ele>235</ele>
        <time>2018-08-24T09:34:54Z</time>
      </trkpt>
      <trkpt lat="45.88267" lon="4.70701">
        <ele>235</ele>
        <time>2018-08-24T09:34:55Z</time>
      </trkpt>
      <trkpt lat="45.88275" lon="4.70697">
        <ele>235</ele>
        <time>2018-08-24T09:34:57Z</time>
      </trkpt>
      <trkpt lat="45.88279" lon="4.70691">
        <ele>235</ele>
        <time>2018-08-24T09:34:58Z</time>
      </trkpt>
      <trkpt lat="45.88285" lon="4.7069">
        <ele>235</ele>
        <time>2018-08-24T09:35:00Z</time>
      </trkpt>
      <trkpt lat="45.88289" lon="4.70685">
        <ele>235</ele>
        <time>2018-08-24T09:35:01Z</time>
      </trkpt>
      <trkpt lat="45.88292" lon="4.70681">
        <ele>235</ele>
        <time>2018-08-24T09:35:02Z</time>
      </trkpt>
      <trkpt lat="45.88297" lon="4.70677">
        <ele>235</ele>
        <time>2018-08-24T09:35:03Z</time>
      </trkpt>
      <trkpt lat="45.88304" lon="4.70673">
        <ele>235</ele>
        <time>2018-08-24T09:35:05Z</time>
      </trkpt>
      <trkpt lat="45.88307" lon="4.7067">
        <ele>235</ele>
        <time>2018-08-24T09:35:06Z</time>
      </trkpt>
      <trkpt lat="45.88315" lon="4.70664">
        <ele>237</ele>
        <time>2018-08-24T09:35:08Z</time>
      </trkpt>
      <trkpt lat="45.88319" lon="4.70661">
        <ele>237</ele>
        <time>2018-08-24T09:35:09Z</time>
      </trkpt>
      <trkpt lat="45.88326" lon="4.70656">
        <ele>237</ele>
        <time>2018-08-24T09:35:11Z</time>
      </trkpt>
      <trkpt lat="45.8833" lon="4.70654">
        <ele>237</ele>
        <time>2018-08-24T09:35:12Z</time>
      </trkpt>
      <trkpt lat="45.88337" lon="4.7065">
        <ele>235</ele>
        <time>2018-08-24T09:35:14Z</time>
      </trkpt>
      <trkpt lat="45.8834" lon="4.70646">
        <ele>235</ele>
        <time>2018-08-24T09:35:15Z</time>
      </trkpt>
      <trkpt lat="45.88345" lon="4.7064">
        <ele>235</ele>
        <time>2018-08-24T09:35:16Z</time>
      </trkpt>
      <trkpt lat="45.8835" lon="4.70641">
        <ele>235</ele>
        <time>2018-08-24T09:35:17Z</time>
      </trkpt>
      <trkpt lat="45.88354" lon="4.70639">
        <ele>235</ele>
        <time>2018-08-24T09:35:18Z</time>
      </trkpt>
      <trkpt lat="45.88358" lon="4.70635">
        <ele>235</ele>
        <time>2018-08-24T09:35:19Z</time>
      </trkpt>
      <trkpt lat="45.88362" lon="4.7063">
        <ele>235</ele>
        <time>2018-08-24T09:35:20Z</time>
      </trkpt>
      <trkpt lat="45.88366" lon="4.70627">
        <ele>235</ele>
        <time>2018-08-24T09:35:21Z</time>
      </trkpt>
      <trkpt lat="45.88372" lon="4.70623">
        <ele>235</ele>
        <time>2018-08-24T09:35:22Z</time>
      </trkpt>
      <trkpt lat="45.88377" lon="4.70619">
        <ele>235</ele>
        <time>2018-08-24T09:35:23Z</time>
      </trkpt>
      <trkpt lat="45.88381" lon="4.70614">
        <ele>235</ele>
        <time>2018-08-24T09:35:24Z</time>
      </trkpt>
      <trkpt lat="45.88387" lon="4.70609">
        <ele>235</ele>
        <time>2018-08-24T09:35:25Z</time>
      </trkpt>
      <trkpt lat="45.88392" lon="4.70603">
        <ele>235</ele>
        <time>2018-08-24T09:35:26Z</time>
      </trkpt>
      <trkpt lat="45.88397" lon="4.70597">
        <ele>235</ele>
        <time>2018-08-24T09:35:27Z</time>
      </trkpt>
      <trkpt lat="45.88402" lon="4.70592">
        <ele>235</ele>
        <time>2018-08-24T09:35:28Z</time>
      </trkpt>
      <trkpt lat="45.88408" lon="4.70589">
        <ele>235</ele>
        <time>2018-08-24T09:35:29Z</time>
      </trkpt>
      <trkpt lat="45.88414" lon="4.70585">
        <ele>235</ele>
        <time>2018-08-24T09:35:30Z</time>
      </trkpt>
      <trkpt lat="45.88419" lon="4.7058">
        <ele>235</ele>
        <time>2018-08-24T09:35:31Z</time>
      </trkpt>
      <trkpt lat="45.88424" lon="4.70575">
        <ele>235</ele>
        <time>2018-08-24T09:35:32Z</time>
      </trkpt>
      <trkpt lat="45.88429" lon="4.70571">
        <ele>235</ele>
        <time>2018-08-24T09:35:33Z</time>
      </trkpt>
      <trkpt lat="45.88434" lon="4.70567">
        <ele>235</ele>
        <time>2018-08-24T09:35:34Z</time>
      </trkpt>
      <trkpt lat="45.88438" lon="4.70563">
        <ele>234</ele>
        <time>2018-08-24T09:35:35Z</time>
      </trkpt>
      <trkpt lat="45.88442" lon="4.70562">
        <ele>234</ele>
        <time>2018-08-24T09:35:36Z</time>
      </trkpt>
      <trkpt lat="45.88446" lon="4.70557">
        <ele>234</ele>
        <time>2018-08-24T09:35:37Z</time>
      </trkpt>
      <trkpt lat="45.88451" lon="4.70552">
        <ele>234</ele>
        <time>2018-08-24T09:35:38Z</time>
      </trkpt>
      <trkpt lat="45.88456" lon="4.70548">
        <ele>234</ele>
        <time>2018-08-24T09:35:39Z</time>
      </trkpt>
      <trkpt lat="45.88462" lon="4.70541">
        <ele>234</ele>
        <time>2018-08-24T09:35:40Z</time>
      </trkpt>
      <trkpt lat="45.88466" lon="4.70539">
        <ele>234</ele>
        <time>2018-08-24T09:35:41Z</time>
      </trkpt>
      <trkpt lat="45.88474" lon="4.70536">
        <ele>234</ele>
        <time>2018-08-24T09:35:43Z</time>
      </trkpt>
      <trkpt lat="45.88479" lon="4.70531">
        <ele>234</ele>
        <time>2018-08-24T09:35:44Z</time>
      </trkpt>
      <trkpt lat="45.88484" lon="4.70529">
        <ele>234</ele>
        <time>2018-08-24T09:35:45Z</time>
      </trkpt>
      <trkpt lat="45.88488" lon="4.70524">
        <ele>234</ele>
        <time>2018-08-24T09:35:46Z</time>
      </trkpt>
      <trkpt lat="45.88494" lon="4.70518">
        <ele>234</ele>
        <time>2018-08-24T09:35:47Z</time>
      </trkpt>
      <trkpt lat="45.88499" lon="4.70518">
        <ele>233</ele>
        <time>2018-08-24T09:35:48Z</time>
      </trkpt>
      <trkpt lat="45.88504" lon="4.70515">
        <ele>231</ele>
        <time>2018-08-24T09:35:49Z</time>
      </trkpt>
      <trkpt lat="45.88509" lon="4.7051">
        <ele>231</ele>
        <time>2018-08-24T09:35:50Z</time>
      </trkpt>
      <trkpt lat="45.88514" lon="4.70507">
        <ele>231</ele>
        <time>2018-08-24T09:35:51Z</time>
      </trkpt>
      <trkpt lat="45.88519" lon="4.70504">
        <ele>230</ele>
        <time>2018-08-24T09:35:52Z</time>
      </trkpt>
      <trkpt lat="45.88524" lon="4.70501">
        <ele>230</ele>
        <time>2018-08-24T09:35:53Z</time>
      </trkpt>
      <trkpt lat="45.88529" lon="4.70498">
        <ele>232</ele>
        <time>2018-08-24T09:35:54Z</time>
      </trkpt>
      <trkpt lat="45.88534" lon="4.70495">
        <ele>232</ele>
        <time>2018-08-24T09:35:55Z</time>
      </trkpt>
      <trkpt lat="45.88539" lon="4.70492">
        <ele>232</ele>
        <time>2018-08-24T09:35:56Z</time>
      </trkpt>
      <trkpt lat="45.88544" lon="4.70487">
        <ele>232</ele>
        <time>2018-08-24T09:35:57Z</time>
      </trkpt>
      <trkpt lat="45.88548" lon="4.70482">
        <ele>232</ele>
        <time>2018-08-24T09:35:58Z</time>
      </trkpt>
      <trkpt lat="45.88553" lon="4.70478">
        <ele>231</ele>
        <time>2018-08-24T09:35:59Z</time>
      </trkpt>
      <trkpt lat="45.88558" lon="4.70472">
        <ele>231</ele>
        <time>2018-08-24T09:36:00Z</time>
      </trkpt>
      <trkpt lat="45.88563" lon="4.70468">
        <ele>231</ele>
        <time>2018-08-24T09:36:01Z</time>
      </trkpt>
      <trkpt lat="45.88568" lon="4.70465">
        <ele>231</ele>
        <time>2018-08-24T09:36:02Z</time>
      </trkpt>
      <trkpt lat="45.88572" lon="4.70463">
        <ele>231</ele>
        <time>2018-08-24T09:36:03Z</time>
      </trkpt>
      <trkpt lat="45.88577" lon="4.70458">
        <ele>231</ele>
        <time>2018-08-24T09:36:04Z</time>
      </trkpt>
      <trkpt lat="45.88581" lon="4.70456">
        <ele>231</ele>
        <time>2018-08-24T09:36:05Z</time>
      </trkpt>
      <trkpt lat="45.88585" lon="4.70452">
        <ele>228</ele>
        <time>2018-08-24T09:36:06Z</time>
      </trkpt>
      <trkpt lat="45.88591" lon="4.70448">
        <ele>228</ele>
        <time>2018-08-24T09:36:07Z</time>
      </trkpt>
      <trkpt lat="45.88596" lon="4.70443">
        <ele>229</ele>
        <time>2018-08-24T09:36:08Z</time>
      </trkpt>
      <trkpt lat="45.886" lon="4.7044">
        <ele>229</ele>
        <time>2018-08-24T09:36:09Z</time>
      </trkpt>
      <trkpt lat="45.88604" lon="4.70437">
        <ele>228</ele>
        <time>2018-08-24T09:36:10Z</time>
      </trkpt>
      <trkpt lat="45.88609" lon="4.70433">
        <ele>228</ele>
        <time>2018-08-24T09:36:11Z</time>
      </trkpt>
      <trkpt lat="45.88614" lon="4.7043">
        <ele>228</ele>
        <time>2018-08-24T09:36:12Z</time>
      </trkpt>
      <trkpt lat="45.88619" lon="4.70426">
        <ele>228</ele>
        <time>2018-08-24T09:36:13Z</time>
      </trkpt>
      <trkpt lat="45.88623" lon="4.70424">
        <ele>228</ele>
        <time>2018-08-24T09:36:14Z</time>
      </trkpt>
      <trkpt lat="45.88628" lon="4.70421">
        <ele>228</ele>
        <time>2018-08-24T09:36:15Z</time>
      </trkpt>
      <trkpt lat="45.88633" lon="4.70416">
        <ele>230</ele>
        <time>2018-08-24T09:36:16Z</time>
      </trkpt>
      <trkpt lat="45.88637" lon="4.7041">
        <ele>230</ele>
        <time>2018-08-24T09:36:17Z</time>
      </trkpt>
      <trkpt lat="45.88642" lon="4.70406">
        <ele>230</ele>
        <time>2018-08-24T09:36:18Z</time>
      </trkpt>
      <trkpt lat="45.88647" lon="4.70402">
        <ele>230</ele>
        <time>2018-08-24T09:36:19Z</time>
      </trkpt>
      <trkpt lat="45.88651" lon="4.70401">
        <ele>229</ele>
        <time>2018-08-24T09:36:20Z</time>
      </trkpt>
      <trkpt lat="45.88655" lon="4.70396">
        <ele>230</ele>
        <time>2018-08-24T09:36:21Z</time>
      </trkpt>
      <trkpt lat="45.88661" lon="4.70392">
        <ele>230</ele>
        <time>2018-08-24T09:36:22Z</time>
      </trkpt>
      <trkpt lat="45.88666" lon="4.70387">
        <ele>230</ele>
        <time>2018-08-24T09:36:23Z</time>
      </trkpt>
      <trkpt lat="45.88672" lon="4.7038">
        <ele>228</ele>
        <time>2018-08-24T09:36:24Z</time>
      </trkpt>
      <trkpt lat="45.88676" lon="4.70378">
        <ele>228</ele>
        <time>2018-08-24T09:36:25Z</time>
      </trkpt>
      <trkpt lat="45.88681" lon="4.70373">
        <ele>229</ele>
        <time>2018-08-24T09:36:26Z</time>
      </trkpt>
      <trkpt lat="45.88687" lon="4.7037">
        <ele>229</ele>
        <time>2018-08-24T09:36:27Z</time>
      </trkpt>
      <trkpt lat="45.88691" lon="4.70366">
        <ele>229</ele>
        <time>2018-08-24T09:36:28Z</time>
      </trkpt>
      <trkpt lat="45.88697" lon="4.7036">
        <ele>229</ele>
        <time>2018-08-24T09:36:29Z</time>
      </trkpt>
      <trkpt lat="45.88701" lon="4.70358">
        <ele>229</ele>
        <time>2018-08-24T09:36:30Z</time>
      </trkpt>
      <trkpt lat="45.88706" lon="4.70356">
        <ele>229</ele>
        <time>2018-08-24T09:36:31Z</time>
      </trkpt>
      <trkpt lat="45.8871" lon="4.70353">
        <ele>229</ele>
        <time>2018-08-24T09:36:32Z</time>
      </trkpt>
      <trkpt lat="45.88715" lon="4.70345">
        <ele>229</ele>
        <time>2018-08-24T09:36:33Z</time>
      </trkpt>
      <trkpt lat="45.8872" lon="4.7034">
        <ele>229</ele>
        <time>2018-08-24T09:36:34Z</time>
      </trkpt>
      <trkpt lat="45.88725" lon="4.70337">
        <ele>229</ele>
        <time>2018-08-24T09:36:35Z</time>
      </trkpt>
      <trkpt lat="45.8873" lon="4.70334">
        <ele>229</ele>
        <time>2018-08-24T09:36:36Z</time>
      </trkpt>
      <trkpt lat="45.88735" lon="4.70329">
        <ele>232</ele>
        <time>2018-08-24T09:36:37Z</time>
      </trkpt>
      <trkpt lat="45.88741" lon="4.7032">
        <ele>232</ele>
        <time>2018-08-24T09:36:38Z</time>
      </trkpt>
      <trkpt lat="45.88746" lon="4.70317">
        <ele>232</ele>
        <time>2018-08-24T09:36:39Z</time>
      </trkpt>
      <trkpt lat="45.88753" lon="4.70311">
        <ele>232</ele>
        <time>2018-08-24T09:36:40Z</time>
      </trkpt>
      <trkpt lat="45.88757" lon="4.70307">
        <ele>232</ele>
        <time>2018-08-24T09:36:41Z</time>
      </trkpt>
      <trkpt lat="45.88761" lon="4.70305">
        <ele>233</ele>
        <time>2018-08-24T09:36:42Z</time>
      </trkpt>
      <trkpt lat="45.88767" lon="4.70301">
        <ele>233</ele>
        <time>2018-08-24T09:36:43Z</time>
      </trkpt>
      <trkpt lat="45.88772" lon="4.70297">
        <ele>233</ele>
        <time>2018-08-24T09:36:44Z</time>
      </trkpt>
      <trkpt lat="45.88775" lon="4.70294">
        <ele>234</ele>
        <time>2018-08-24T09:36:45Z</time>
      </trkpt>
      <trkpt lat="45.88782" lon="4.70286">
        <ele>234</ele>
        <time>2018-08-24T09:36:46Z</time>
      </trkpt>
      <trkpt lat="45.88786" lon="4.70281">
        <ele>234</ele>
        <time>2018-08-24T09:36:47Z</time>
      </trkpt>
      <trkpt lat="45.88791" lon="4.70277">
        <ele>234</ele>
        <time>2018-08-24T09:36:48Z</time>
      </trkpt>
      <trkpt lat="45.88795" lon="4.70273">
        <ele>235</ele>
        <time>2018-08-24T09:36:49Z</time>
      </trkpt>
      <trkpt lat="45.888" lon="4.70269">
        <ele>235</ele>
        <time>2018-08-24T09:36:50Z</time>
      </trkpt>
      <trkpt lat="45.88809" lon="4.70266">
        <ele>235</ele>
        <time>2018-08-24T09:36:52Z</time>
      </trkpt>
      <trkpt lat="45.88814" lon="4.70263">
        <ele>235</ele>
        <time>2018-08-24T09:36:53Z</time>
      </trkpt>
      <trkpt lat="45.88818" lon="4.7026">
        <ele>235</ele>
        <time>2018-08-24T09:36:54Z</time>
      </trkpt>
      <trkpt lat="45.88823" lon="4.70254">
        <ele>236</ele>
        <time>2018-08-24T09:36:55Z</time>
      </trkpt>
      <trkpt lat="45.88827" lon="4.70251">
        <ele>236</ele>
        <time>2018-08-24T09:36:56Z</time>
      </trkpt>
      <trkpt lat="45.88832" lon="4.70249">
        <ele>237</ele>
        <time>2018-08-24T09:36:57Z</time>
      </trkpt>
      <trkpt lat="45.88836" lon="4.70246">
        <ele>237</ele>
        <time>2018-08-24T09:36:58Z</time>
      </trkpt>
      <trkpt lat="45.8884" lon="4.70245">
        <ele>238</ele>
        <time>2018-08-24T09:36:59Z</time>
      </trkpt>
      <trkpt lat="45.88849" lon="4.70241">
        <ele>238</ele>
        <time>2018-08-24T09:37:01Z</time>
      </trkpt>
      <trkpt lat="45.88854" lon="4.70237">
        <ele>238</ele>
        <time>2018-08-24T09:37:02Z</time>
      </trkpt>
      <trkpt lat="45.88858" lon="4.70232">
        <ele>238</ele>
        <time>2018-08-24T09:37:03Z</time>
      </trkpt>
      <trkpt lat="45.88863" lon="4.70233">
        <ele>238</ele>
        <time>2018-08-24T09:37:04Z</time>
      </trkpt>
      <trkpt lat="45.88868" lon="4.7023">
        <ele>238</ele>
        <time>2018-08-24T09:37:05Z</time>
      </trkpt>
      <trkpt lat="45.88874" lon="4.70225">
        <ele>238</ele>
        <time>2018-08-24T09:37:06Z</time>
      </trkpt>
      <trkpt lat="45.88878" lon="4.70219">
        <ele>239</ele>
        <time>2018-08-24T09:37:07Z</time>
      </trkpt>
      <trkpt lat="45.88884" lon="4.70213">
        <ele>239</ele>
        <time>2018-08-24T09:37:08Z</time>
      </trkpt>
      <trkpt lat="45.88889" lon="4.7021">
        <ele>239</ele>
        <time>2018-08-24T09:37:09Z</time>
      </trkpt>
      <trkpt lat="45.88894" lon="4.70203">
        <ele>239</ele>
        <time>2018-08-24T09:37:10Z</time>
      </trkpt>
      <trkpt lat="45.889" lon="4.70202">
        <ele>239</ele>
        <time>2018-08-24T09:37:11Z</time>
      </trkpt>
      <trkpt lat="45.88905" lon="4.702">
        <ele>239</ele>
        <time>2018-08-24T09:37:12Z</time>
      </trkpt>
      <trkpt lat="45.88909" lon="4.70198">
        <ele>239</ele>
        <time>2018-08-24T09:37:13Z</time>
      </trkpt>
      <trkpt lat="45.88913" lon="4.70195">
        <ele>240</ele>
        <time>2018-08-24T09:37:14Z</time>
      </trkpt>
      <trkpt lat="45.8892" lon="4.70195">
        <ele>236</ele>
        <time>2018-08-24T09:37:16Z</time>
      </trkpt>
      <trkpt lat="45.88926" lon="4.70193">
        <ele>236</ele>
        <time>2018-08-24T09:37:17Z</time>
      </trkpt>
      <trkpt lat="45.8893" lon="4.70191">
        <ele>236</ele>
        <time>2018-08-24T09:37:18Z</time>
      </trkpt>
      <trkpt lat="45.88935" lon="4.70189">
        <ele>236</ele>
        <time>2018-08-24T09:37:19Z</time>
      </trkpt>
      <trkpt lat="45.88939" lon="4.70188">
        <ele>235</ele>
        <time>2018-08-24T09:37:20Z</time>
      </trkpt>
      <trkpt lat="45.88944" lon="4.70185">
        <ele>235</ele>
        <time>2018-08-24T09:37:21Z</time>
      </trkpt>
      <trkpt lat="45.88949" lon="4.70183">
        <ele>235</ele>
        <time>2018-08-24T09:37:22Z</time>
      </trkpt>
      <trkpt lat="45.88954" lon="4.70179">
        <ele>234</ele>
        <time>2018-08-24T09:37:23Z</time>
      </trkpt>
      <trkpt lat="45.8896" lon="4.70176">
        <ele>234</ele>
        <time>2018-08-24T09:37:24Z</time>
      </trkpt>
      <trkpt lat="45.88965" lon="4.70174">
        <ele>234</ele>
        <time>2018-08-24T09:37:25Z</time>
      </trkpt>
      <trkpt lat="45.8897" lon="4.7017">
        <ele>233</ele>
        <time>2018-08-24T09:37:26Z</time>
      </trkpt>
      <trkpt lat="45.88975" lon="4.70168">
        <ele>233</ele>
        <time>2018-08-24T09:37:27Z</time>
      </trkpt>
      <trkpt lat="45.88979" lon="4.70166">
        <ele>236</ele>
        <time>2018-08-24T09:37:28Z</time>
      </trkpt>
      <trkpt lat="45.88985" lon="4.70161">
        <ele>235</ele>
        <time>2018-08-24T09:37:29Z</time>
      </trkpt>
      <trkpt lat="45.88991" lon="4.70159">
        <ele>234</ele>
        <time>2018-08-24T09:37:30Z</time>
      </trkpt>
      <trkpt lat="45.88996" lon="4.70154">
        <ele>235</ele>
        <time>2018-08-24T09:37:31Z</time>
      </trkpt>
      <trkpt lat="45.89002" lon="4.70149">
        <ele>232</ele>
        <time>2018-08-24T09:37:32Z</time>
      </trkpt>
      <trkpt lat="45.89006" lon="4.70146">
        <ele>232</ele>
        <time>2018-08-24T09:37:33Z</time>
      </trkpt>
      <trkpt lat="45.8901" lon="4.70146">
        <ele>232</ele>
        <time>2018-08-24T09:37:34Z</time>
      </trkpt>
      <trkpt lat="45.89015" lon="4.70143">
        <ele>232</ele>
        <time>2018-08-24T09:37:35Z</time>
      </trkpt>
      <trkpt lat="45.89019" lon="4.70141">
        <ele>231</ele>
        <time>2018-08-24T09:37:36Z</time>
      </trkpt>
      <trkpt lat="45.89024" lon="4.70139">
        <ele>231</ele>
        <time>2018-08-24T09:37:37Z</time>
      </trkpt>
      <trkpt lat="45.89029" lon="4.70136">
        <ele>231</ele>
        <time>2018-08-24T09:37:38Z</time>
      </trkpt>
      <trkpt lat="45.89034" lon="4.70128">
        <ele>231</ele>
        <time>2018-08-24T09:37:39Z</time>
      </trkpt>
      <trkpt lat="45.89039" lon="4.70126">
        <ele>231</ele>
        <time>2018-08-24T09:37:40Z</time>
      </trkpt>
      <trkpt lat="45.89044" lon="4.70124">
        <ele>231</ele>
        <time>2018-08-24T09:37:41Z</time>
      </trkpt>
      <trkpt lat="45.89049" lon="4.70119">
        <ele>231</ele>
        <time>2018-08-24T09:37:42Z</time>
      </trkpt>
      <trkpt lat="45.89054" lon="4.70115">
        <ele>231</ele>
        <time>2018-08-24T09:37:43Z</time>
      </trkpt>
      <trkpt lat="45.89058" lon="4.70112">
        <ele>231</ele>
        <time>2018-08-24T09:37:44Z</time>
      </trkpt>
      <trkpt lat="45.89064" lon="4.70109">
        <ele>231</ele>
        <time>2018-08-24T09:37:45Z</time>
      </trkpt>
      <trkpt lat="45.89068" lon="4.70107">
        <ele>230</ele>
        <time>2018-08-24T09:37:46Z</time>
      </trkpt>
      <trkpt lat="45.89074" lon="4.70102">
        <ele>230</ele>
        <time>2018-08-24T09:37:47Z</time>
      </trkpt>
      <trkpt lat="45.89079" lon="4.70099">
        <ele>230</ele>
        <time>2018-08-24T09:37:48Z</time>
      </trkpt>
      <trkpt lat="45.89085" lon="4.70094">
        <ele>229</ele>
        <time>2018-08-24T09:37:49Z</time>
      </trkpt>
      <trkpt lat="45.89089" lon="4.70091">
        <ele>229</ele>
        <time>2018-08-24T09:37:50Z</time>
      </trkpt>
      <trkpt lat="45.89094" lon="4.70088">
        <ele>229</ele>
        <time>2018-08-24T09:37:51Z</time>
      </trkpt>
      <trkpt lat="45.891" lon="4.70085">
        <ele>228</ele>
        <time>2018-08-24T09:37:52Z</time>
      </trkpt>
      <trkpt lat="45.89105" lon="4.70082">
        <ele>231</ele>
        <time>2018-08-24T09:37:53Z</time>
      </trkpt>
      <trkpt lat="45.89109" lon="4.70079">
        <ele>231</ele>
        <time>2018-08-24T09:37:54Z</time>
      </trkpt>
      <trkpt lat="45.89114" lon="4.70076">
        <ele>231</ele>
        <time>2018-08-24T09:37:55Z</time>
      </trkpt>
      <trkpt lat="45.89118" lon="4.70073">
        <ele>231</ele>
        <time>2018-08-24T09:37:56Z</time>
      </trkpt>
      <trkpt lat="45.89123" lon="4.70072">
        <ele>231</ele>
        <time>2018-08-24T09:37:57Z</time>
      </trkpt>
      <trkpt lat="45.89129" lon="4.70067">
        <ele>231</ele>
        <time>2018-08-24T09:37:58Z</time>
      </trkpt>
      <trkpt lat="45.89134" lon="4.70065">
        <ele>231</ele>
        <time>2018-08-24T09:37:59Z</time>
      </trkpt>
      <trkpt lat="45.89139" lon="4.70063">
        <ele>231</ele>
        <time>2018-08-24T09:38:00Z</time>
      </trkpt>
      <trkpt lat="45.89143" lon="4.7006">
        <ele>231</ele>
        <time>2018-08-24T09:38:01Z</time>
      </trkpt>
      <trkpt lat="45.89148" lon="4.70059">
        <ele>231</ele>
        <time>2018-08-24T09:38:02Z</time>
      </trkpt>
      <trkpt lat="45.89154" lon="4.70056">
        <ele>231</ele>
        <time>2018-08-24T09:38:03Z</time>
      </trkpt>
      <trkpt lat="45.89159" lon="4.70054">
        <ele>231</ele>
        <time>2018-08-24T09:38:04Z</time>
      </trkpt>
      <trkpt lat="45.89166" lon="4.70049">
        <ele>231</ele>
        <time>2018-08-24T09:38:05Z</time>
      </trkpt>
      <trkpt lat="45.89171" lon="4.70048">
        <ele>229</ele>
        <time>2018-08-24T09:38:06Z</time>
      </trkpt>
      <trkpt lat="45.89177" lon="4.70045">
        <ele>229</ele>
        <time>2018-08-24T09:38:07Z</time>
      </trkpt>
      <trkpt lat="45.89183" lon="4.70043">
        <ele>229</ele>
        <time>2018-08-24T09:38:08Z</time>
      </trkpt>
      <trkpt lat="45.89188" lon="4.7004">
        <ele>229</ele>
        <time>2018-08-24T09:38:09Z</time>
      </trkpt>
      <trkpt lat="45.89194" lon="4.70038">
        <ele>229</ele>
        <time>2018-08-24T09:38:10Z</time>
      </trkpt>
      <trkpt lat="45.89199" lon="4.70036">
        <ele>229</ele>
        <time>2018-08-24T09:38:11Z</time>
      </trkpt>
      <trkpt lat="45.89204" lon="4.70032">
        <ele>229</ele>
        <time>2018-08-24T09:38:12Z</time>
      </trkpt>
      <trkpt lat="45.8921" lon="4.70031">
        <ele>229</ele>
        <time>2018-08-24T09:38:13Z</time>
      </trkpt>
      <trkpt lat="45.89215" lon="4.70029">
        <ele>229</ele>
        <time>2018-08-24T09:38:14Z</time>
      </trkpt>
      <trkpt lat="45.89221" lon="4.70027">
        <ele>229</ele>
        <time>2018-08-24T09:38:15Z</time>
      </trkpt>
      <trkpt lat="45.89226" lon="4.70025">
        <ele>229</ele>
        <time>2018-08-24T09:38:16Z</time>
      </trkpt>
      <trkpt lat="45.89233" lon="4.70023">
        <ele>229</ele>
        <time>2018-08-24T09:38:17Z</time>
      </trkpt>
      <trkpt lat="45.89239" lon="4.70019">
        <ele>229</ele>
        <time>2018-08-24T09:38:18Z</time>
      </trkpt>
      <trkpt lat="45.89244" lon="4.7002">
        <ele>229</ele>
        <time>2018-08-24T09:38:19Z</time>
      </trkpt>
      <trkpt lat="45.89251" lon="4.70018">
        <ele>227</ele>
        <time>2018-08-24T09:38:20Z</time>
      </trkpt>
      <trkpt lat="45.89256" lon="4.70017">
        <ele>227</ele>
        <time>2018-08-24T09:38:21Z</time>
      </trkpt>
      <trkpt lat="45.89262" lon="4.70014">
        <ele>227</ele>
        <time>2018-08-24T09:38:22Z</time>
      </trkpt>
      <trkpt lat="45.89268" lon="4.70012">
        <ele>227</ele>
        <time>2018-08-24T09:38:23Z</time>
      </trkpt>
      <trkpt lat="45.89273" lon="4.70011">
        <ele>227</ele>
        <time>2018-08-24T09:38:24Z</time>
      </trkpt>
      <trkpt lat="45.89278" lon="4.70009">
        <ele>226</ele>
        <time>2018-08-24T09:38:25Z</time>
      </trkpt>
      <trkpt lat="45.89283" lon="4.70007">
        <ele>226</ele>
        <time>2018-08-24T09:38:26Z</time>
      </trkpt>
      <trkpt lat="45.89288" lon="4.70005">
        <ele>226</ele>
        <time>2018-08-24T09:38:27Z</time>
      </trkpt>
      <trkpt lat="45.89293" lon="4.70004">
        <ele>226</ele>
        <time>2018-08-24T09:38:28Z</time>
      </trkpt>
      <trkpt lat="45.89298" lon="4.70003">
        <ele>226</ele>
        <time>2018-08-24T09:38:29Z</time>
      </trkpt>
      <trkpt lat="45.89304" lon="4.69999">
        <ele>229</ele>
        <time>2018-08-24T09:38:30Z</time>
      </trkpt>
      <trkpt lat="45.8931" lon="4.69998">
        <ele>228</ele>
        <time>2018-08-24T09:38:31Z</time>
      </trkpt>
      <trkpt lat="45.89316" lon="4.69997">
        <ele>228</ele>
        <time>2018-08-24T09:38:32Z</time>
      </trkpt>
      <trkpt lat="45.89322" lon="4.69996">
        <ele>228</ele>
        <time>2018-08-24T09:38:33Z</time>
      </trkpt>
      <trkpt lat="45.89328" lon="4.69994">
        <ele>227</ele>
        <time>2018-08-24T09:38:34Z</time>
      </trkpt>
      <trkpt lat="45.89336" lon="4.69991">
        <ele>227</ele>
        <time>2018-08-24T09:38:35Z</time>
      </trkpt>
      <trkpt lat="45.89342" lon="4.6999">
        <ele>227</ele>
        <time>2018-08-24T09:38:36Z</time>
      </trkpt>
      <trkpt lat="45.89348" lon="4.6999">
        <ele>227</ele>
        <time>2018-08-24T09:38:37Z</time>
      </trkpt>
      <trkpt lat="45.89354" lon="4.69992">
        <ele>227</ele>
        <time>2018-08-24T09:38:38Z</time>
      </trkpt>
      <trkpt lat="45.8936" lon="4.69993">
        <ele>227</ele>
        <time>2018-08-24T09:38:39Z</time>
      </trkpt>
      <trkpt lat="45.89366" lon="4.69995">
        <ele>227</ele>
        <time>2018-08-24T09:38:40Z</time>
      </trkpt>
      <trkpt lat="45.89372" lon="4.69994">
        <ele>227</ele>
        <time>2018-08-24T09:38:41Z</time>
      </trkpt>
      <trkpt lat="45.89378" lon="4.69995">
        <ele>227</ele>
        <time>2018-08-24T09:38:42Z</time>
      </trkpt>
      <trkpt lat="45.89384" lon="4.69996">
        <ele>227</ele>
        <time>2018-08-24T09:38:43Z</time>
      </trkpt>
      <trkpt lat="45.8939" lon="4.69997">
        <ele>227</ele>
        <time>2018-08-24T09:38:44Z</time>
      </trkpt>
      <trkpt lat="45.89396" lon="4.69998">
        <ele>227</ele>
        <time>2018-08-24T09:38:45Z</time>
      </trkpt>
      <trkpt lat="45.89403" lon="4.70002">
        <ele>226</ele>
        <time>2018-08-24T09:38:46Z</time>
      </trkpt>
      <trkpt lat="45.89411" lon="4.70002">
        <ele>227</ele>
        <time>2018-08-24T09:38:47Z</time>
      </trkpt>
      <trkpt lat="45.89415" lon="4.70005">
        <ele>227</ele>
        <time>2018-08-24T09:38:48Z</time>
      </trkpt>
      <trkpt lat="45.89422" lon="4.70007">
        <ele>226</ele>
        <time>2018-08-24T09:38:49Z</time>
      </trkpt>
      <trkpt lat="45.89428" lon="4.70009">
        <ele>226</ele>
        <time>2018-08-24T09:38:50Z</time>
      </trkpt>
      <trkpt lat="45.89435" lon="4.70011">
        <ele>225</ele>
        <time>2018-08-24T09:38:51Z</time>
      </trkpt>
      <trkpt lat="45.89442" lon="4.70012">
        <ele>225</ele>
        <time>2018-08-24T09:38:52Z</time>
      </trkpt>
      <trkpt lat="45.89448" lon="4.70014">
        <ele>225</ele>
        <time>2018-08-24T09:38:53Z</time>
      </trkpt>
      <trkpt lat="45.89454" lon="4.70015">
        <ele>225</ele>
        <time>2018-08-24T09:38:54Z</time>
      </trkpt>
      <trkpt lat="45.89461" lon="4.70016">
        <ele>225</ele>
        <time>2018-08-24T09:38:55Z</time>
      </trkpt>
      <trkpt lat="45.89468" lon="4.70017">
        <ele>225</ele>
        <time>2018-08-24T09:38:56Z</time>
      </trkpt>
      <trkpt lat="45.89476" lon="4.70017">
        <ele>225</ele>
        <time>2018-08-24T09:38:57Z</time>
      </trkpt>
      <trkpt lat="45.89482" lon="4.70017">
        <ele>225</ele>
        <time>2018-08-24T09:38:58Z</time>
      </trkpt>
      <trkpt lat="45.89489" lon="4.70018">
        <ele>224</ele>
        <time>2018-08-24T09:38:59Z</time>
      </trkpt>
      <trkpt lat="45.89495" lon="4.7002">
        <ele>224</ele>
        <time>2018-08-24T09:39:00Z</time>
      </trkpt>
      <trkpt lat="45.89502" lon="4.70022">
        <ele>223</ele>
        <time>2018-08-24T09:39:01Z</time>
      </trkpt>
      <trkpt lat="45.89509" lon="4.70024">
        <ele>223</ele>
        <time>2018-08-24T09:39:02Z</time>
      </trkpt>
      <trkpt lat="45.89515" lon="4.70024">
        <ele>223</ele>
        <time>2018-08-24T09:39:03Z</time>
      </trkpt>
      <trkpt lat="45.89523" lon="4.70025">
        <ele>223</ele>
        <time>2018-08-24T09:39:04Z</time>
      </trkpt>
      <trkpt lat="45.8953" lon="4.70025">
        <ele>223</ele>
        <time>2018-08-24T09:39:05Z</time>
      </trkpt>
      <trkpt lat="45.89536" lon="4.70026">
        <ele>223</ele>
        <time>2018-08-24T09:39:06Z</time>
      </trkpt>
      <trkpt lat="45.89543" lon="4.70026">
        <ele>223</ele>
        <time>2018-08-24T09:39:07Z</time>
      </trkpt>
      <trkpt lat="45.8955" lon="4.70026">
        <ele>222</ele>
        <time>2018-08-24T09:39:08Z</time>
      </trkpt>
      <trkpt lat="45.89556" lon="4.70027">
        <ele>222</ele>
        <time>2018-08-24T09:39:09Z</time>
      </trkpt>
      <trkpt lat="45.89562" lon="4.70029">
        <ele>222</ele>
        <time>2018-08-24T09:39:10Z</time>
      </trkpt>
      <trkpt lat="45.89568" lon="4.70032">
        <ele>222</ele>
        <time>2018-08-24T09:39:11Z</time>
      </trkpt>
      <trkpt lat="45.89576" lon="4.70033">
        <ele>222</ele>
        <time>2018-08-24T09:39:12Z</time>
      </trkpt>
      <trkpt lat="45.89583" lon="4.70034">
        <ele>222</ele>
        <time>2018-08-24T09:39:13Z</time>
      </trkpt>
      <trkpt lat="45.8959" lon="4.70037">
        <ele>222</ele>
        <time>2018-08-24T09:39:14Z</time>
      </trkpt>
      <trkpt lat="45.89597" lon="4.70037">
        <ele>222</ele>
        <time>2018-08-24T09:39:15Z</time>
      </trkpt>
      <trkpt lat="45.89606" lon="4.7004">
        <ele>222</ele>
        <time>2018-08-24T09:39:16Z</time>
      </trkpt>
      <trkpt lat="45.89612" lon="4.70042">
        <ele>222</ele>
        <time>2018-08-24T09:39:17Z</time>
      </trkpt>
      <trkpt lat="45.89619" lon="4.70042">
        <ele>222</ele>
        <time>2018-08-24T09:39:18Z</time>
      </trkpt>
      <trkpt lat="45.89626" lon="4.7004">
        <ele>222</ele>
        <time>2018-08-24T09:39:19Z</time>
      </trkpt>
      <trkpt lat="45.89633" lon="4.70041">
        <ele>222</ele>
        <time>2018-08-24T09:39:20Z</time>
      </trkpt>
      <trkpt lat="45.89639" lon="4.70042">
        <ele>222</ele>
        <time>2018-08-24T09:39:21Z</time>
      </trkpt>
      <trkpt lat="45.89645" lon="4.70045">
        <ele>222</ele>
        <time>2018-08-24T09:39:22Z</time>
      </trkpt>
      <trkpt lat="45.89652" lon="4.70046">
        <ele>222</ele>
        <time>2018-08-24T09:39:23Z</time>
      </trkpt>
      <trkpt lat="45.89659" lon="4.70048">
        <ele>222</ele>
        <time>2018-08-24T09:39:24Z</time>
      </trkpt>
      <trkpt lat="45.89666" lon="4.7005">
        <ele>222</ele>
        <time>2018-08-24T09:39:25Z</time>
      </trkpt>
      <trkpt lat="45.89672" lon="4.70051">
        <ele>222</ele>
        <time>2018-08-24T09:39:26Z</time>
      </trkpt>
      <trkpt lat="45.89679" lon="4.70052">
        <ele>222</ele>
        <time>2018-08-24T09:39:27Z</time>
      </trkpt>
      <trkpt lat="45.89686" lon="4.70054">
        <ele>222</ele>
        <time>2018-08-24T09:39:28Z</time>
      </trkpt>
      <trkpt lat="45.89692" lon="4.70057">
        <ele>222</ele>
        <time>2018-08-24T09:39:29Z</time>
      </trkpt>
      <trkpt lat="45.89698" lon="4.70059">
        <ele>222</ele>
        <time>2018-08-24T09:39:30Z</time>
      </trkpt>
      <trkpt lat="45.89704" lon="4.7006">
        <ele>221</ele>
        <time>2018-08-24T09:39:31Z</time>
      </trkpt>
      <trkpt lat="45.89709" lon="4.7006">
        <ele>221</ele>
        <time>2018-08-24T09:39:32Z</time>
      </trkpt>
      <trkpt lat="45.89715" lon="4.70061">
        <ele>221</ele>
        <time>2018-08-24T09:39:33Z</time>
      </trkpt>
      <trkpt lat="45.89718" lon="4.70063">
        <ele>221</ele>
        <time>2018-08-24T09:39:34Z</time>
      </trkpt>
      <trkpt lat="45.89724" lon="4.70064">
        <ele>221</ele>
        <time>2018-08-24T09:39:35Z</time>
      </trkpt>
      <trkpt lat="45.89732" lon="4.70067">
        <ele>221</ele>
        <time>2018-08-24T09:39:37Z</time>
      </trkpt>
      <trkpt lat="45.89737" lon="4.70069">
        <ele>221</ele>
        <time>2018-08-24T09:39:38Z</time>
      </trkpt>
      <trkpt lat="45.89746" lon="4.7007">
        <ele>220</ele>
        <time>2018-08-24T09:39:41Z</time>
      </trkpt>
      <trkpt lat="45.89748" lon="4.7007">
        <ele>220</ele>
        <time>2018-08-24T09:39:42Z</time>
      </trkpt>
      <trkpt lat="45.89757" lon="4.70071">
        <ele>220</ele>
        <time>2018-08-24T09:40:01Z</time>
      </trkpt>
      <trkpt lat="45.89764" lon="4.70073">
        <ele>220</ele>
        <time>2018-08-24T09:40:02Z</time>
      </trkpt>
      <trkpt lat="45.8977" lon="4.70072">
        <ele>220</ele>
        <time>2018-08-24T09:40:04Z</time>
      </trkpt>
      <trkpt lat="45.89774" lon="4.70071">
        <ele>220</ele>
        <time>2018-08-24T09:40:05Z</time>
      </trkpt>
      <trkpt lat="45.89776" lon="4.70072">
        <ele>220</ele>
        <time>2018-08-24T09:40:06Z</time>
      </trkpt>
      <trkpt lat="45.89784" lon="4.70073">
        <ele>221</ele>
        <time>2018-08-24T09:40:07Z</time>
      </trkpt>
      <trkpt lat="45.8979" lon="4.70073">
        <ele>221</ele>
        <time>2018-08-24T09:40:08Z</time>
      </trkpt>
      <trkpt lat="45.89796" lon="4.70071">
        <ele>221</ele>
        <time>2018-08-24T09:40:09Z</time>
      </trkpt>
      <trkpt lat="45.89802" lon="4.70071">
        <ele>221</ele>
        <time>2018-08-24T09:40:10Z</time>
      </trkpt>
      <trkpt lat="45.89811" lon="4.70077">
        <ele>221</ele>
        <time>2018-08-24T09:40:11Z</time>
      </trkpt>
      <trkpt lat="45.89819" lon="4.70077">
        <ele>221</ele>
        <time>2018-08-24T09:40:13Z</time>
      </trkpt>
      <trkpt lat="45.89824" lon="4.70078">
        <ele>220</ele>
        <time>2018-08-24T09:40:14Z</time>
      </trkpt>
      <trkpt lat="45.8983" lon="4.70079">
        <ele>220</ele>
        <time>2018-08-24T09:40:15Z</time>
      </trkpt>
      <trkpt lat="45.89835" lon="4.70079">
        <ele>220</ele>
        <time>2018-08-24T09:40:16Z</time>
      </trkpt>
      <trkpt lat="45.89841" lon="4.7008">
        <ele>220</ele>
        <time>2018-08-24T09:40:17Z</time>
      </trkpt>
      <trkpt lat="45.89845" lon="4.70081">
        <ele>221</ele>
        <time>2018-08-24T09:40:18Z</time>
      </trkpt>
      <trkpt lat="45.89851" lon="4.70082">
        <ele>221</ele>
        <time>2018-08-24T09:40:19Z</time>
      </trkpt>
      <trkpt lat="45.89855" lon="4.70081">
        <ele>221</ele>
        <time>2018-08-24T09:40:20Z</time>
      </trkpt>
      <trkpt lat="45.89864" lon="4.70081">
        <ele>221</ele>
        <time>2018-08-24T09:40:22Z</time>
      </trkpt>
      <trkpt lat="45.89868" lon="4.70083">
        <ele>221</ele>
        <time>2018-08-24T09:40:23Z</time>
      </trkpt>
      <trkpt lat="45.89874" lon="4.70082">
        <ele>221</ele>
        <time>2018-08-24T09:40:24Z</time>
      </trkpt>
      <trkpt lat="45.89878" lon="4.70083">
        <ele>221</ele>
        <time>2018-08-24T09:40:25Z</time>
      </trkpt>
      <trkpt lat="45.89884" lon="4.70083">
        <ele>221</ele>
        <time>2018-08-24T09:40:26Z</time>
      </trkpt>
      <trkpt lat="45.89889" lon="4.70083">
        <ele>221</ele>
        <time>2018-08-24T09:40:27Z</time>
      </trkpt>
      <trkpt lat="45.89894" lon="4.70083">
        <ele>221</ele>
        <time>2018-08-24T09:40:28Z</time>
      </trkpt>
      <trkpt lat="45.899" lon="4.70084">
        <ele>220</ele>
        <time>2018-08-24T09:40:29Z</time>
      </trkpt>
      <trkpt lat="45.89908" lon="4.70085">
        <ele>221</ele>
        <time>2018-08-24T09:40:31Z</time>
      </trkpt>
      <trkpt lat="45.89912" lon="4.70083">
        <ele>221</ele>
        <time>2018-08-24T09:40:32Z</time>
      </trkpt>
      <trkpt lat="45.8992" lon="4.7008">
        <ele>221</ele>
        <time>2018-08-24T09:40:34Z</time>
      </trkpt>
      <trkpt lat="45.89925" lon="4.7008">
        <ele>222</ele>
        <time>2018-08-24T09:40:35Z</time>
      </trkpt>
      <trkpt lat="45.89931" lon="4.70082">
        <ele>222</ele>
        <time>2018-08-24T09:40:36Z</time>
      </trkpt>
      <trkpt lat="45.89936" lon="4.70081">
        <ele>222</ele>
        <time>2018-08-24T09:40:37Z</time>
      </trkpt>
      <trkpt lat="45.89943" lon="4.70082">
        <ele>222</ele>
        <time>2018-08-24T09:40:39Z</time>
      </trkpt>
      <trkpt lat="45.89949" lon="4.70082">
        <ele>222</ele>
        <time>2018-08-24T09:40:40Z</time>
      </trkpt>
      <trkpt lat="45.89953" lon="4.70082">
        <ele>223</ele>
        <time>2018-08-24T09:40:41Z</time>
      </trkpt>
      <trkpt lat="45.89958" lon="4.70082">
        <ele>223</ele>
        <time>2018-08-24T09:40:42Z</time>
      </trkpt>
      <trkpt lat="45.89963" lon="4.70082">
        <ele>223</ele>
        <time>2018-08-24T09:40:43Z</time>
      </trkpt>
      <trkpt lat="45.89968" lon="4.70083">
        <ele>223</ele>
        <time>2018-08-24T09:40:44Z</time>
      </trkpt>
      <trkpt lat="45.89973" lon="4.70083">
        <ele>223</ele>
        <time>2018-08-24T09:40:45Z</time>
      </trkpt>
      <trkpt lat="45.89978" lon="4.70083">
        <ele>223</ele>
        <time>2018-08-24T09:40:46Z</time>
      </trkpt>
      <trkpt lat="45.89983" lon="4.70083">
        <ele>223</ele>
        <time>2018-08-24T09:40:47Z</time>
      </trkpt>
      <trkpt lat="45.89989" lon="4.70081">
        <ele>222</ele>
        <time>2018-08-24T09:40:48Z</time>
      </trkpt>
      <trkpt lat="45.89994" lon="4.7008">
        <ele>222</ele>
        <time>2018-08-24T09:40:49Z</time>
      </trkpt>
      <trkpt lat="45.89999" lon="4.70081">
        <ele>222</ele>
        <time>2018-08-24T09:40:50Z</time>
      </trkpt>
      <trkpt lat="45.90004" lon="4.70083">
        <ele>223</ele>
        <time>2018-08-24T09:40:51Z</time>
      </trkpt>
      <trkpt lat="45.90009" lon="4.70083">
        <ele>222</ele>
        <time>2018-08-24T09:40:52Z</time>
      </trkpt>
      <trkpt lat="45.90014" lon="4.70084">
        <ele>222</ele>
        <time>2018-08-24T09:40:53Z</time>
      </trkpt>
      <trkpt lat="45.90018" lon="4.70083">
        <ele>224</ele>
        <time>2018-08-24T09:40:54Z</time>
      </trkpt>
      <trkpt lat="45.90027" lon="4.70084">
        <ele>222</ele>
        <time>2018-08-24T09:40:56Z</time>
      </trkpt>
      <trkpt lat="45.90032" lon="4.70085">
        <ele>222</ele>
        <time>2018-08-24T09:40:57Z</time>
      </trkpt>
      <trkpt lat="45.90037" lon="4.70084">
        <ele>222</ele>
        <time>2018-08-24T09:40:58Z</time>
      </trkpt>
      <trkpt lat="45.90042" lon="4.70085">
        <ele>222</ele>
        <time>2018-08-24T09:40:59Z</time>
      </trkpt>
      <trkpt lat="45.90047" lon="4.70087">
        <ele>222</ele>
        <time>2018-08-24T09:41:00Z</time>
      </trkpt>
      <trkpt lat="45.90051" lon="4.70086">
        <ele>222</ele>
        <time>2018-08-24T09:41:01Z</time>
      </trkpt>
      <trkpt lat="45.90056" lon="4.70087">
        <ele>223</ele>
        <time>2018-08-24T09:41:02Z</time>
      </trkpt>
      <trkpt lat="45.90061" lon="4.70088">
        <ele>223</ele>
        <time>2018-08-24T09:41:03Z</time>
      </trkpt>
      <trkpt lat="45.90066" lon="4.70087">
        <ele>223</ele>
        <time>2018-08-24T09:41:04Z</time>
      </trkpt>
      <trkpt lat="45.9007" lon="4.70086">
        <ele>223</ele>
        <time>2018-08-24T09:41:05Z</time>
      </trkpt>
      <trkpt lat="45.90075" lon="4.70086">
        <ele>223</ele>
        <time>2018-08-24T09:41:06Z</time>
      </trkpt>
      <trkpt lat="45.90079" lon="4.70086">
        <ele>224</ele>
        <time>2018-08-24T09:41:07Z</time>
      </trkpt>
      <trkpt lat="45.90088" lon="4.70086">
        <ele>224</ele>
        <time>2018-08-24T09:41:09Z</time>
      </trkpt>
      <trkpt lat="45.90093" lon="4.70085">
        <ele>224</ele>
        <time>2018-08-24T09:41:10Z</time>
      </trkpt>
      <trkpt lat="45.90098" lon="4.70085">
        <ele>224</ele>
        <time>2018-08-24T09:41:11Z</time>
      </trkpt>
      <trkpt lat="45.90103" lon="4.70084">
        <ele>223</ele>
        <time>2018-08-24T09:41:12Z</time>
      </trkpt>
      <trkpt lat="45.90111" lon="4.70082">
        <ele>226</ele>
        <time>2018-08-24T09:41:14Z</time>
      </trkpt>
      <trkpt lat="45.90116" lon="4.70079">
        <ele>226</ele>
        <time>2018-08-24T09:41:15Z</time>
      </trkpt>
      <trkpt lat="45.90123" lon="4.70075">
        <ele>226</ele>
        <time>2018-08-24T09:41:17Z</time>
      </trkpt>
      <trkpt lat="45.90128" lon="4.70076">
        <ele>226</ele>
        <time>2018-08-24T09:41:18Z</time>
      </trkpt>
      <trkpt lat="45.90137" lon="4.70076">
        <ele>226</ele>
        <time>2018-08-24T09:41:20Z</time>
      </trkpt>
      <trkpt lat="45.90141" lon="4.70076">
        <ele>226</ele>
        <time>2018-08-24T09:41:21Z</time>
      </trkpt>
      <trkpt lat="45.90149" lon="4.70075">
        <ele>226</ele>
        <time>2018-08-24T09:41:23Z</time>
      </trkpt>
      <trkpt lat="45.90154" lon="4.70072">
        <ele>226</ele>
        <time>2018-08-24T09:41:24Z</time>
      </trkpt>
      <trkpt lat="45.90158" lon="4.70071">
        <ele>226</ele>
        <time>2018-08-24T09:41:25Z</time>
      </trkpt>
      <trkpt lat="45.90163" lon="4.70068">
        <ele>226</ele>
        <time>2018-08-24T09:41:26Z</time>
      </trkpt>
      <trkpt lat="45.90168" lon="4.70066">
        <ele>226</ele>
        <time>2018-08-24T09:41:27Z</time>
      </trkpt>
      <trkpt lat="45.90173" lon="4.70065">
        <ele>226</ele>
        <time>2018-08-24T09:41:28Z</time>
      </trkpt>
      <trkpt lat="45.90177" lon="4.70064">
        <ele>226</ele>
        <time>2018-08-24T09:41:29Z</time>
      </trkpt>
      <trkpt lat="45.90182" lon="4.70063">
        <ele>226</ele>
        <time>2018-08-24T09:41:30Z</time>
      </trkpt>
      <trkpt lat="45.90187" lon="4.70063">
        <ele>226</ele>
        <time>2018-08-24T09:41:31Z</time>
      </trkpt>
      <trkpt lat="45.90193" lon="4.70062">
        <ele>226</ele>
        <time>2018-08-24T09:41:32Z</time>
      </trkpt>
      <trkpt lat="45.90198" lon="4.7006">
        <ele>226</ele>
        <time>2018-08-24T09:41:33Z</time>
      </trkpt>
      <trkpt lat="45.90204" lon="4.70053">
        <ele>226</ele>
        <time>2018-08-24T09:41:34Z</time>
      </trkpt>
      <trkpt lat="45.90213" lon="4.70053">
        <ele>226</ele>
        <time>2018-08-24T09:41:36Z</time>
      </trkpt>
      <trkpt lat="45.90218" lon="4.70052">
        <ele>226</ele>
        <time>2018-08-24T09:41:37Z</time>
      </trkpt>
      <trkpt lat="45.90225" lon="4.70052">
        <ele>226</ele>
        <time>2018-08-24T09:41:38Z</time>
      </trkpt>
      <trkpt lat="45.9023" lon="4.70053">
        <ele>226</ele>
        <time>2018-08-24T09:41:39Z</time>
      </trkpt>
      <trkpt lat="45.90235" lon="4.70052">
        <ele>226</ele>
        <time>2018-08-24T09:41:40Z</time>
      </trkpt>
      <trkpt lat="45.9024" lon="4.70051">
        <ele>226</ele>
        <time>2018-08-24T09:41:41Z</time>
      </trkpt>
      <trkpt lat="45.90245" lon="4.7005">
        <ele>226</ele>
        <time>2018-08-24T09:41:42Z</time>
      </trkpt>
      <trkpt lat="45.9025" lon="4.70049">
        <ele>226</ele>
        <time>2018-08-24T09:41:43Z</time>
      </trkpt>
      <trkpt lat="45.90254" lon="4.70051">
        <ele>224</ele>
        <time>2018-08-24T09:41:45Z</time>
      </trkpt>
      <trkpt lat="45.9026" lon="4.7005">
        <ele>224</ele>
        <time>2018-08-24T09:41:46Z</time>
      </trkpt>
      <trkpt lat="45.90266" lon="4.70046">
        <ele>225</ele>
        <time>2018-08-24T09:41:47Z</time>
      </trkpt>
      <trkpt lat="45.90271" lon="4.70047">
        <ele>225</ele>
        <time>2018-08-24T09:41:48Z</time>
      </trkpt>
      <trkpt lat="45.90275" lon="4.70047">
        <ele>225</ele>
        <time>2018-08-24T09:41:49Z</time>
      </trkpt>
      <trkpt lat="45.90281" lon="4.70045">
        <ele>225</ele>
        <time>2018-08-24T09:41:50Z</time>
      </trkpt>
      <trkpt lat="45.90287" lon="4.70043">
        <ele>225</ele>
        <time>2018-08-24T09:41:51Z</time>
      </trkpt>
      <trkpt lat="45.90292" lon="4.70041">
        <ele>225</ele>
        <time>2018-08-24T09:41:52Z</time>
      </trkpt>
      <trkpt lat="45.90296" lon="4.7004">
        <ele>224</ele>
        <time>2018-08-24T09:41:53Z</time>
      </trkpt>
      <trkpt lat="45.90301" lon="4.7004">
        <ele>224</ele>
        <time>2018-08-24T09:41:54Z</time>
      </trkpt>
      <trkpt lat="45.90307" lon="4.7004">
        <ele>224</ele>
        <time>2018-08-24T09:41:55Z</time>
      </trkpt>
      <trkpt lat="45.90311" lon="4.7004">
        <ele>224</ele>
        <time>2018-08-24T09:41:56Z</time>
      </trkpt>
      <trkpt lat="45.90316" lon="4.70039">
        <ele>224</ele>
        <time>2018-08-24T09:41:57Z</time>
      </trkpt>
      <trkpt lat="45.90321" lon="4.70038">
        <ele>224</ele>
        <time>2018-08-24T09:41:58Z</time>
      </trkpt>
      <trkpt lat="45.90326" lon="4.70037">
        <ele>224</ele>
        <time>2018-08-24T09:41:59Z</time>
      </trkpt>
      <trkpt lat="45.90331" lon="4.70037">
        <ele>224</ele>
        <time>2018-08-24T09:42:00Z</time>
      </trkpt>
      <trkpt lat="45.90336" lon="4.70032">
        <ele>224</ele>
        <time>2018-08-24T09:42:01Z</time>
      </trkpt>
      <trkpt lat="45.90342" lon="4.70031">
        <ele>224</ele>
        <time>2018-08-24T09:42:02Z</time>
      </trkpt>
      <trkpt lat="45.9035" lon="4.70029">
        <ele>225</ele>
        <time>2018-08-24T09:42:04Z</time>
      </trkpt>
      <trkpt lat="45.90354" lon="4.70028">
        <ele>225</ele>
        <time>2018-08-24T09:42:05Z</time>
      </trkpt>
      <trkpt lat="45.90359" lon="4.70027">
        <ele>225</ele>
        <time>2018-08-24T09:42:06Z</time>
      </trkpt>
      <trkpt lat="45.90364" lon="4.70026">
        <ele>225</ele>
        <time>2018-08-24T09:42:07Z</time>
      </trkpt>
      <trkpt lat="45.90373" lon="4.70026">
        <ele>225</ele>
        <time>2018-08-24T09:42:09Z</time>
      </trkpt>
      <trkpt lat="45.90377" lon="4.70024">
        <ele>225</ele>
        <time>2018-08-24T09:42:10Z</time>
      </trkpt>
      <trkpt lat="45.90385" lon="4.70024">
        <ele>225</ele>
        <time>2018-08-24T09:42:12Z</time>
      </trkpt>
      <trkpt lat="45.90388" lon="4.70022">
        <ele>225</ele>
        <time>2018-08-24T09:42:13Z</time>
      </trkpt>
      <trkpt lat="45.90394" lon="4.70022">
        <ele>225</ele>
        <time>2018-08-24T09:42:14Z</time>
      </trkpt>
      <trkpt lat="45.90399" lon="4.70022">
        <ele>225</ele>
        <time>2018-08-24T09:42:15Z</time>
      </trkpt>
      <trkpt lat="45.90405" lon="4.70016">
        <ele>226</ele>
        <time>2018-08-24T09:42:16Z</time>
      </trkpt>
      <trkpt lat="45.90411" lon="4.70016">
        <ele>226</ele>
        <time>2018-08-24T09:42:17Z</time>
      </trkpt>
      <trkpt lat="45.90418" lon="4.70009">
        <ele>227</ele>
        <time>2018-08-24T09:42:18Z</time>
      </trkpt>
      <trkpt lat="45.90424" lon="4.70009">
        <ele>227</ele>
        <time>2018-08-24T09:42:19Z</time>
      </trkpt>
      <trkpt lat="45.9043" lon="4.7001">
        <ele>226</ele>
        <time>2018-08-24T09:42:20Z</time>
      </trkpt>
      <trkpt lat="45.90436" lon="4.70009">
        <ele>226</ele>
        <time>2018-08-24T09:42:21Z</time>
      </trkpt>
      <trkpt lat="45.90439" lon="4.7001">
        <ele>226</ele>
        <time>2018-08-24T09:42:22Z</time>
      </trkpt>
      <trkpt lat="45.90444" lon="4.70011">
        <ele>226</ele>
        <time>2018-08-24T09:42:23Z</time>
      </trkpt>
      <trkpt lat="45.90453" lon="4.70015">
        <ele>225</ele>
        <time>2018-08-24T09:42:25Z</time>
      </trkpt>
      <trkpt lat="45.90456" lon="4.70018">
        <ele>225</ele>
        <time>2018-08-24T09:42:26Z</time>
      </trkpt>
      <trkpt lat="45.90461" lon="4.70019">
        <ele>225</ele>
        <time>2018-08-24T09:42:27Z</time>
      </trkpt>
      <trkpt lat="45.90466" lon="4.70021">
        <ele>225</ele>
        <time>2018-08-24T09:42:28Z</time>
      </trkpt>
      <trkpt lat="45.90471" lon="4.70021">
        <ele>225</ele>
        <time>2018-08-24T09:42:29Z</time>
      </trkpt>
      <trkpt lat="45.90477" lon="4.70022">
        <ele>225</ele>
        <time>2018-08-24T09:42:30Z</time>
      </trkpt>
      <trkpt lat="45.90482" lon="4.70023">
        <ele>225</ele>
        <time>2018-08-24T09:42:31Z</time>
      </trkpt>
      <trkpt lat="45.90488" lon="4.70024">
        <ele>225</ele>
        <time>2018-08-24T09:42:32Z</time>
      </trkpt>
      <trkpt lat="45.90496" lon="4.70026">
        <ele>225</ele>
        <time>2018-08-24T09:42:34Z</time>
      </trkpt>
      <trkpt lat="45.90501" lon="4.70027">
        <ele>225</ele>
        <time>2018-08-24T09:42:35Z</time>
      </trkpt>
      <trkpt lat="45.90506" lon="4.70028">
        <ele>225</ele>
        <time>2018-08-24T09:42:36Z</time>
      </trkpt>
      <trkpt lat="45.90512" lon="4.70026">
        <ele>225</ele>
        <time>2018-08-24T09:42:37Z</time>
      </trkpt>
      <trkpt lat="45.90516" lon="4.70027">
        <ele>225</ele>
        <time>2018-08-24T09:42:38Z</time>
      </trkpt>
      <trkpt lat="45.90523" lon="4.7003">
        <ele>224</ele>
        <time>2018-08-24T09:42:39Z</time>
      </trkpt>
      <trkpt lat="45.90528" lon="4.70032">
        <ele>224</ele>
        <time>2018-08-24T09:42:40Z</time>
      </trkpt>
      <trkpt lat="45.90535" lon="4.70034">
        <ele>224</ele>
        <time>2018-08-24T09:42:41Z</time>
      </trkpt>
      <trkpt lat="45.90541" lon="4.70036">
        <ele>224</ele>
        <time>2018-08-24T09:42:42Z</time>
      </trkpt>
      <trkpt lat="45.90547" lon="4.70038">
        <ele>224</ele>
        <time>2018-08-24T09:42:43Z</time>
      </trkpt>
      <trkpt lat="45.90553" lon="4.70043">
        <ele>224</ele>
        <time>2018-08-24T09:42:44Z</time>
      </trkpt>
      <trkpt lat="45.90558" lon="4.70047">
        <ele>224</ele>
        <time>2018-08-24T09:42:45Z</time>
      </trkpt>
      <trkpt lat="45.90564" lon="4.7005">
        <ele>224</ele>
        <time>2018-08-24T09:42:46Z</time>
      </trkpt>
      <trkpt lat="45.90571" lon="4.70053">
        <ele>223</ele>
        <time>2018-08-24T09:42:47Z</time>
      </trkpt>
      <trkpt lat="45.90576" lon="4.70056">
        <ele>223</ele>
        <time>2018-08-24T09:42:48Z</time>
      </trkpt>
      <trkpt lat="45.9058" lon="4.7006">
        <ele>223</ele>
        <time>2018-08-24T09:42:49Z</time>
      </trkpt>
      <trkpt lat="45.90586" lon="4.70063">
        <ele>223</ele>
        <time>2018-08-24T09:42:50Z</time>
      </trkpt>
      <trkpt lat="45.9059" lon="4.70063">
        <ele>223</ele>
        <time>2018-08-24T09:42:51Z</time>
      </trkpt>
      <trkpt lat="45.90596" lon="4.70065">
        <ele>223</ele>
        <time>2018-08-24T09:42:52Z</time>
      </trkpt>
      <trkpt lat="45.90602" lon="4.70068">
        <ele>223</ele>
        <time>2018-08-24T09:42:53Z</time>
      </trkpt>
      <trkpt lat="45.90607" lon="4.70073">
        <ele>223</ele>
        <time>2018-08-24T09:42:54Z</time>
      </trkpt>
      <trkpt lat="45.90612" lon="4.70078">
        <ele>224</ele>
        <time>2018-08-24T09:42:55Z</time>
      </trkpt>
      <trkpt lat="45.90617" lon="4.70079">
        <ele>224</ele>
        <time>2018-08-24T09:42:56Z</time>
      </trkpt>
      <trkpt lat="45.90622" lon="4.70083">
        <ele>224</ele>
        <time>2018-08-24T09:42:57Z</time>
      </trkpt>
      <trkpt lat="45.90627" lon="4.70086">
        <ele>221</ele>
        <time>2018-08-24T09:42:58Z</time>
      </trkpt>
      <trkpt lat="45.90633" lon="4.70088">
        <ele>221</ele>
        <time>2018-08-24T09:42:59Z</time>
      </trkpt>
      <trkpt lat="45.90638" lon="4.70091">
        <ele>221</ele>
        <time>2018-08-24T09:43:00Z</time>
      </trkpt>
      <trkpt lat="45.90643" lon="4.70094">
        <ele>221</ele>
        <time>2018-08-24T09:43:01Z</time>
      </trkpt>
      <trkpt lat="45.90648" lon="4.70096">
        <ele>222</ele>
        <time>2018-08-24T09:43:02Z</time>
      </trkpt>
      <trkpt lat="45.90653" lon="4.701">
        <ele>222</ele>
        <time>2018-08-24T09:43:03Z</time>
      </trkpt>
      <trkpt lat="45.90659" lon="4.70103">
        <ele>222</ele>
        <time>2018-08-24T09:43:04Z</time>
      </trkpt>
      <trkpt lat="45.90664" lon="4.70107">
        <ele>222</ele>
        <time>2018-08-24T09:43:05Z</time>
      </trkpt>
      <trkpt lat="45.90669" lon="4.7011">
        <ele>222</ele>
        <time>2018-08-24T09:43:06Z</time>
      </trkpt>
      <trkpt lat="45.90674" lon="4.70116">
        <ele>222</ele>
        <time>2018-08-24T09:43:07Z</time>
      </trkpt>
      <trkpt lat="45.90678" lon="4.70117">
        <ele>221</ele>
        <time>2018-08-24T09:43:08Z</time>
      </trkpt>
      <trkpt lat="45.90683" lon="4.70124">
        <ele>221</ele>
        <time>2018-08-24T09:43:09Z</time>
      </trkpt>
      <trkpt lat="45.90687" lon="4.7013">
        <ele>221</ele>
        <time>2018-08-24T09:43:10Z</time>
      </trkpt>
      <trkpt lat="45.90694" lon="4.70134">
        <ele>221</ele>
        <time>2018-08-24T09:43:11Z</time>
      </trkpt>
      <trkpt lat="45.90699" lon="4.70136">
        <ele>221</ele>
        <time>2018-08-24T09:43:12Z</time>
      </trkpt>
      <trkpt lat="45.90706" lon="4.70138">
        <ele>221</ele>
        <time>2018-08-24T09:43:13Z</time>
      </trkpt>
      <trkpt lat="45.9071" lon="4.70134">
        <ele>221</ele>
        <time>2018-08-24T09:43:14Z</time>
      </trkpt>
      <trkpt lat="45.90717" lon="4.70134">
        <ele>221</ele>
        <time>2018-08-24T09:43:15Z</time>
      </trkpt>
      <trkpt lat="45.9072" lon="4.70133">
        <ele>221</ele>
        <time>2018-08-24T09:43:16Z</time>
      </trkpt>
      <trkpt lat="45.90726" lon="4.70133">
        <ele>221</ele>
        <time>2018-08-24T09:43:17Z</time>
      </trkpt>
      <trkpt lat="45.90733" lon="4.70134">
        <ele>220</ele>
        <time>2018-08-24T09:43:18Z</time>
      </trkpt>
      <trkpt lat="45.90738" lon="4.70135">
        <ele>220</ele>
        <time>2018-08-24T09:43:19Z</time>
      </trkpt>
      <trkpt lat="45.90744" lon="4.70136">
        <ele>220</ele>
        <time>2018-08-24T09:43:20Z</time>
      </trkpt>
      <trkpt lat="45.90751" lon="4.70136">
        <ele>219</ele>
        <time>2018-08-24T09:43:21Z</time>
      </trkpt>
      <trkpt lat="45.90757" lon="4.70136">
        <ele>219</ele>
        <time>2018-08-24T09:43:22Z</time>
      </trkpt>
      <trkpt lat="45.90764" lon="4.70137">
        <ele>219</ele>
        <time>2018-08-24T09:43:23Z</time>
      </trkpt>
      <trkpt lat="45.9077" lon="4.70138">
        <ele>219</ele>
        <time>2018-08-24T09:43:24Z</time>
      </trkpt>
      <trkpt lat="45.90775" lon="4.70137">
        <ele>219</ele>
        <time>2018-08-24T09:43:25Z</time>
      </trkpt>
      <trkpt lat="45.90782" lon="4.70138">
        <ele>219</ele>
        <time>2018-08-24T09:43:26Z</time>
      </trkpt>
      <trkpt lat="45.90789" lon="4.70137">
        <ele>219</ele>
        <time>2018-08-24T09:43:27Z</time>
      </trkpt>
      <trkpt lat="45.90796" lon="4.70138">
        <ele>219</ele>
        <time>2018-08-24T09:43:28Z</time>
      </trkpt>
      <trkpt lat="45.90802" lon="4.70138">
        <ele>219</ele>
        <time>2018-08-24T09:43:29Z</time>
      </trkpt>
      <trkpt lat="45.90809" lon="4.70139">
        <ele>219</ele>
        <time>2018-08-24T09:43:30Z</time>
      </trkpt>
      <trkpt lat="45.90817" lon="4.70137">
        <ele>219</ele>
        <time>2018-08-24T09:43:31Z</time>
      </trkpt>
      <trkpt lat="45.90822" lon="4.70135">
        <ele>219</ele>
        <time>2018-08-24T09:43:32Z</time>
      </trkpt>
      <trkpt lat="45.90829" lon="4.70134">
        <ele>219</ele>
        <time>2018-08-24T09:43:33Z</time>
      </trkpt>
      <trkpt lat="45.90836" lon="4.70133">
        <ele>218</ele>
        <time>2018-08-24T09:43:34Z</time>
      </trkpt>
      <trkpt lat="45.90842" lon="4.70132">
        <ele>218</ele>
        <time>2018-08-24T09:43:35Z</time>
      </trkpt>
      <trkpt lat="45.90849" lon="4.70131">
        <ele>218</ele>
        <time>2018-08-24T09:43:36Z</time>
      </trkpt>
      <trkpt lat="45.90856" lon="4.70132">
        <ele>218</ele>
        <time>2018-08-24T09:43:37Z</time>
      </trkpt>
      <trkpt lat="45.90863" lon="4.70132">
        <ele>218</ele>
        <time>2018-08-24T09:43:38Z</time>
      </trkpt>
      <trkpt lat="45.90871" lon="4.70129">
        <ele>219</ele>
        <time>2018-08-24T09:43:39Z</time>
      </trkpt>
      <trkpt lat="45.90878" lon="4.70128">
        <ele>219</ele>
        <time>2018-08-24T09:43:40Z</time>
      </trkpt>
      <trkpt lat="45.90885" lon="4.70127">
        <ele>219</ele>
        <time>2018-08-24T09:43:41Z</time>
      </trkpt>
      <trkpt lat="45.90892" lon="4.70127">
        <ele>219</ele>
        <time>2018-08-24T09:43:42Z</time>
      </trkpt>
      <trkpt lat="45.90899" lon="4.70126">
        <ele>219</ele>
        <time>2018-08-24T09:43:43Z</time>
      </trkpt>
      <trkpt lat="45.90905" lon="4.70125">
        <ele>219</ele>
        <time>2018-08-24T09:43:44Z</time>
      </trkpt>
      <trkpt lat="45.90911" lon="4.70126">
        <ele>219</ele>
        <time>2018-08-24T09:43:45Z</time>
      </trkpt>
      <trkpt lat="45.90917" lon="4.70124">
        <ele>219</ele>
        <time>2018-08-24T09:43:46Z</time>
      </trkpt>
      <trkpt lat="45.90923" lon="4.70122">
        <ele>219</ele>
        <time>2018-08-24T09:43:47Z</time>
      </trkpt>
      <trkpt lat="45.90929" lon="4.70123">
        <ele>219</ele>
        <time>2018-08-24T09:43:48Z</time>
      </trkpt>
      <trkpt lat="45.90935" lon="4.70124">
        <ele>219</ele>
        <time>2018-08-24T09:43:49Z</time>
      </trkpt>
      <trkpt lat="45.9094" lon="4.70128">
        <ele>219</ele>
        <time>2018-08-24T09:43:50Z</time>
      </trkpt>
      <trkpt lat="45.90946" lon="4.70131">
        <ele>219</ele>
        <time>2018-08-24T09:43:51Z</time>
      </trkpt>
      <trkpt lat="45.90952" lon="4.70134">
        <ele>219</ele>
        <time>2018-08-24T09:43:52Z</time>
      </trkpt>
      <trkpt lat="45.90959" lon="4.70137">
        <ele>219</ele>
        <time>2018-08-24T09:43:53Z</time>
      </trkpt>
      <trkpt lat="45.90965" lon="4.70139">
        <ele>218</ele>
        <time>2018-08-24T09:43:54Z</time>
      </trkpt>
      <trkpt lat="45.90973" lon="4.70139">
        <ele>218</ele>
        <time>2018-08-24T09:43:55Z</time>
      </trkpt>
      <trkpt lat="45.9098" lon="4.7014">
        <ele>218</ele>
        <time>2018-08-24T09:43:56Z</time>
      </trkpt>
      <trkpt lat="45.90986" lon="4.70142">
        <ele>218</ele>
        <time>2018-08-24T09:43:57Z</time>
      </trkpt>
      <trkpt lat="45.90993" lon="4.70144">
        <ele>218</ele>
        <time>2018-08-24T09:43:58Z</time>
      </trkpt>
      <trkpt lat="45.90998" lon="4.70145">
        <ele>218</ele>
        <time>2018-08-24T09:43:59Z</time>
      </trkpt>
      <trkpt lat="45.91005" lon="4.70148">
        <ele>218</ele>
        <time>2018-08-24T09:44:00Z</time>
      </trkpt>
      <trkpt lat="45.91011" lon="4.7015">
        <ele>218</ele>
        <time>2018-08-24T09:44:01Z</time>
      </trkpt>
      <trkpt lat="45.91017" lon="4.70152">
        <ele>218</ele>
        <time>2018-08-24T09:44:02Z</time>
      </trkpt>
      <trkpt lat="45.91023" lon="4.70153">
        <ele>218</ele>
        <time>2018-08-24T09:44:03Z</time>
      </trkpt>
      <trkpt lat="45.9103" lon="4.70154">
        <ele>218</ele>
        <time>2018-08-24T09:44:04Z</time>
      </trkpt>
      <trkpt lat="45.91037" lon="4.70155">
        <ele>218</ele>
        <time>2018-08-24T09:44:05Z</time>
      </trkpt>
      <trkpt lat="45.91044" lon="4.70154">
        <ele>218</ele>
        <time>2018-08-24T09:44:06Z</time>
      </trkpt>
      <trkpt lat="45.9105" lon="4.70155">
        <ele>218</ele>
        <time>2018-08-24T09:44:07Z</time>
      </trkpt>
      <trkpt lat="45.91056" lon="4.70157">
        <ele>218</ele>
        <time>2018-08-24T09:44:08Z</time>
      </trkpt>
      <trkpt lat="45.91062" lon="4.7016">
        <ele>218</ele>
        <time>2018-08-24T09:44:09Z</time>
      </trkpt>
      <trkpt lat="45.91069" lon="4.70163">
        <ele>218</ele>
        <time>2018-08-24T09:44:10Z</time>
      </trkpt>
      <trkpt lat="45.91078" lon="4.70165">
        <ele>217</ele>
        <time>2018-08-24T09:44:11Z</time>
      </trkpt>
      <trkpt lat="45.91085" lon="4.7017">
        <ele>217</ele>
        <time>2018-08-24T09:44:12Z</time>
      </trkpt>
      <trkpt lat="45.91092" lon="4.70176">
        <ele>216</ele>
        <time>2018-08-24T09:44:13Z</time>
      </trkpt>
      <trkpt lat="45.911" lon="4.70178">
        <ele>216</ele>
        <time>2018-08-24T09:44:14Z</time>
      </trkpt>
      <trkpt lat="45.91108" lon="4.70181">
        <ele>215</ele>
        <time>2018-08-24T09:44:15Z</time>
      </trkpt>
      <trkpt lat="45.91116" lon="4.70186">
        <ele>215</ele>
        <time>2018-08-24T09:44:16Z</time>
      </trkpt>
      <trkpt lat="45.91124" lon="4.70187">
        <ele>215</ele>
        <time>2018-08-24T09:44:17Z</time>
      </trkpt>
      <trkpt lat="45.91132" lon="4.70191">
        <ele>215</ele>
        <time>2018-08-24T09:44:18Z</time>
      </trkpt>
      <trkpt lat="45.91139" lon="4.70194">
        <ele>215</ele>
        <time>2018-08-24T09:44:19Z</time>
      </trkpt>
      <trkpt lat="45.91147" lon="4.70196">
        <ele>215</ele>
        <time>2018-08-24T09:44:20Z</time>
      </trkpt>
      <trkpt lat="45.91154" lon="4.702">
        <ele>215</ele>
        <time>2018-08-24T09:44:21Z</time>
      </trkpt>
      <trkpt lat="45.91162" lon="4.70202">
        <ele>215</ele>
        <time>2018-08-24T09:44:22Z</time>
      </trkpt>
      <trkpt lat="45.9117" lon="4.70208">
        <ele>214</ele>
        <time>2018-08-24T09:44:23Z</time>
      </trkpt>
      <trkpt lat="45.91178" lon="4.70212">
        <ele>214</ele>
        <time>2018-08-24T09:44:24Z</time>
      </trkpt>
      <trkpt lat="45.91186" lon="4.70215">
        <ele>214</ele>
        <time>2018-08-24T09:44:25Z</time>
      </trkpt>
      <trkpt lat="45.91194" lon="4.70217">
        <ele>214</ele>
        <time>2018-08-24T09:44:26Z</time>
      </trkpt>
      <trkpt lat="45.91202" lon="4.7022">
        <ele>214</ele>
        <time>2018-08-24T09:44:27Z</time>
      </trkpt>
      <trkpt lat="45.91209" lon="4.70223">
        <ele>213</ele>
        <time>2018-08-24T09:44:28Z</time>
      </trkpt>
      <trkpt lat="45.91215" lon="4.70227">
        <ele>213</ele>
        <time>2018-08-24T09:44:29Z</time>
      </trkpt>
      <trkpt lat="45.91225" lon="4.70224">
        <ele>213</ele>
        <time>2018-08-24T09:44:30Z</time>
      </trkpt>
      <trkpt lat="45.91231" lon="4.70231">
        <ele>213</ele>
        <time>2018-08-24T09:44:31Z</time>
      </trkpt>
      <trkpt lat="45.91238" lon="4.70233">
        <ele>213</ele>
        <time>2018-08-24T09:44:32Z</time>
      </trkpt>
      <trkpt lat="45.91245" lon="4.70236">
        <ele>212</ele>
        <time>2018-08-24T09:44:33Z</time>
      </trkpt>
      <trkpt lat="45.91253" lon="4.70238">
        <ele>212</ele>
        <time>2018-08-24T09:44:34Z</time>
      </trkpt>
      <trkpt lat="45.91262" lon="4.70239">
        <ele>213</ele>
        <time>2018-08-24T09:44:35Z</time>
      </trkpt>
      <trkpt lat="45.91271" lon="4.70241">
        <ele>213</ele>
        <time>2018-08-24T09:44:36Z</time>
      </trkpt>
      <trkpt lat="45.9128" lon="4.7024">
        <ele>213</ele>
        <time>2018-08-24T09:44:37Z</time>
      </trkpt>
      <trkpt lat="45.91286" lon="4.70246">
        <ele>213</ele>
        <time>2018-08-24T09:44:38Z</time>
      </trkpt>
      <trkpt lat="45.91293" lon="4.7025">
        <ele>214</ele>
        <time>2018-08-24T09:44:39Z</time>
      </trkpt>
      <trkpt lat="45.91298" lon="4.7025">
        <ele>210</ele>
        <time>2018-08-24T09:44:40Z</time>
      </trkpt>
      <trkpt lat="45.91305" lon="4.70254">
        <ele>210</ele>
        <time>2018-08-24T09:44:41Z</time>
      </trkpt>
      <trkpt lat="45.91312" lon="4.70254">
        <ele>210</ele>
        <time>2018-08-24T09:44:42Z</time>
      </trkpt>
      <trkpt lat="45.9132" lon="4.70261">
        <ele>211</ele>
        <time>2018-08-24T09:44:43Z</time>
      </trkpt>
      <trkpt lat="45.91324" lon="4.70264">
        <ele>211</ele>
        <time>2018-08-24T09:44:44Z</time>
      </trkpt>
      <trkpt lat="45.91331" lon="4.70269">
        <ele>210</ele>
        <time>2018-08-24T09:44:45Z</time>
      </trkpt>
      <trkpt lat="45.91337" lon="4.70273">
        <ele>210</ele>
        <time>2018-08-24T09:44:46Z</time>
      </trkpt>
      <trkpt lat="45.91343" lon="4.70277">
        <ele>210</ele>
        <time>2018-08-24T09:44:47Z</time>
      </trkpt>
      <trkpt lat="45.91349" lon="4.70281">
        <ele>210</ele>
        <time>2018-08-24T09:44:48Z</time>
      </trkpt>
      <trkpt lat="45.91355" lon="4.70285">
        <ele>210</ele>
        <time>2018-08-24T09:44:49Z</time>
      </trkpt>
      <trkpt lat="45.91361" lon="4.70287">
        <ele>210</ele>
        <time>2018-08-24T09:44:50Z</time>
      </trkpt>
      <trkpt lat="45.91366" lon="4.70293">
        <ele>209</ele>
        <time>2018-08-24T09:44:51Z</time>
      </trkpt>
      <trkpt lat="45.91372" lon="4.703">
        <ele>209</ele>
        <time>2018-08-24T09:44:52Z</time>
      </trkpt>
      <trkpt lat="45.91379" lon="4.70304">
        <ele>209</ele>
        <time>2018-08-24T09:44:53Z</time>
      </trkpt>
      <trkpt lat="45.91385" lon="4.7031">
        <ele>209</ele>
        <time>2018-08-24T09:44:54Z</time>
      </trkpt>
      <trkpt lat="45.9139" lon="4.70314">
        <ele>209</ele>
        <time>2018-08-24T09:44:55Z</time>
      </trkpt>
      <trkpt lat="45.91397" lon="4.7032">
        <ele>209</ele>
        <time>2018-08-24T09:44:56Z</time>
      </trkpt>
      <trkpt lat="45.91404" lon="4.70323">
        <ele>209</ele>
        <time>2018-08-24T09:44:57Z</time>
      </trkpt>
      <trkpt lat="45.91412" lon="4.70329">
        <ele>208</ele>
        <time>2018-08-24T09:44:58Z</time>
      </trkpt>
      <trkpt lat="45.91417" lon="4.70333">
        <ele>208</ele>
        <time>2018-08-24T09:44:59Z</time>
      </trkpt>
      <trkpt lat="45.91424" lon="4.70339">
        <ele>207</ele>
        <time>2018-08-24T09:45:00Z</time>
      </trkpt>
      <trkpt lat="45.91431" lon="4.70346">
        <ele>207</ele>
        <time>2018-08-24T09:45:01Z</time>
      </trkpt>
      <trkpt lat="45.91438" lon="4.70354">
        <ele>207</ele>
        <time>2018-08-24T09:45:02Z</time>
      </trkpt>
      <trkpt lat="45.91445" lon="4.7036">
        <ele>206</ele>
        <time>2018-08-24T09:45:03Z</time>
      </trkpt>
      <trkpt lat="45.91451" lon="4.70366">
        <ele>206</ele>
        <time>2018-08-24T09:45:04Z</time>
      </trkpt>
      <trkpt lat="45.91458" lon="4.70374">
        <ele>206</ele>
        <time>2018-08-24T09:45:05Z</time>
      </trkpt>
      <trkpt lat="45.91465" lon="4.70377">
        <ele>206</ele>
        <time>2018-08-24T09:45:06Z</time>
      </trkpt>
      <trkpt lat="45.91473" lon="4.70381">
        <ele>206</ele>
        <time>2018-08-24T09:45:07Z</time>
      </trkpt>
      <trkpt lat="45.9148" lon="4.70386">
        <ele>206</ele>
        <time>2018-08-24T09:45:08Z</time>
      </trkpt>
      <trkpt lat="45.91487" lon="4.70392">
        <ele>205</ele>
        <time>2018-08-24T09:45:09Z</time>
      </trkpt>
      <trkpt lat="45.91493" lon="4.70397">
        <ele>205</ele>
        <time>2018-08-24T09:45:10Z</time>
      </trkpt>
      <trkpt lat="45.915" lon="4.70403">
        <ele>205</ele>
        <time>2018-08-24T09:45:11Z</time>
      </trkpt>
      <trkpt lat="45.91507" lon="4.70407">
        <ele>205</ele>
        <time>2018-08-24T09:45:12Z</time>
      </trkpt>
      <trkpt lat="45.91515" lon="4.70412">
        <ele>205</ele>
        <time>2018-08-24T09:45:13Z</time>
      </trkpt>
      <trkpt lat="45.91521" lon="4.70418">
        <ele>203</ele>
        <time>2018-08-24T09:45:14Z</time>
      </trkpt>
      <trkpt lat="45.91527" lon="4.70423">
        <ele>203</ele>
        <time>2018-08-24T09:45:15Z</time>
      </trkpt>
      <trkpt lat="45.91534" lon="4.70428">
        <ele>203</ele>
        <time>2018-08-24T09:45:16Z</time>
      </trkpt>
      <trkpt lat="45.91541" lon="4.70435">
        <ele>203</ele>
        <time>2018-08-24T09:45:17Z</time>
      </trkpt>
      <trkpt lat="45.91547" lon="4.70438">
        <ele>203</ele>
        <time>2018-08-24T09:45:18Z</time>
      </trkpt>
      <trkpt lat="45.91553" lon="4.70444">
        <ele>203</ele>
        <time>2018-08-24T09:45:19Z</time>
      </trkpt>
      <trkpt lat="45.9156" lon="4.70449">
        <ele>203</ele>
        <time>2018-08-24T09:45:20Z</time>
      </trkpt>
      <trkpt lat="45.91566" lon="4.70453">
        <ele>203</ele>
        <time>2018-08-24T09:45:21Z</time>
      </trkpt>
      <trkpt lat="45.91572" lon="4.70459">
        <ele>203</ele>
        <time>2018-08-24T09:45:22Z</time>
      </trkpt>
      <trkpt lat="45.91578" lon="4.70465">
        <ele>203</ele>
        <time>2018-08-24T09:45:23Z</time>
      </trkpt>
      <trkpt lat="45.91585" lon="4.70468">
        <ele>203</ele>
        <time>2018-08-24T09:45:24Z</time>
      </trkpt>
      <trkpt lat="45.91592" lon="4.70475">
        <ele>202</ele>
        <time>2018-08-24T09:45:25Z</time>
      </trkpt>
      <trkpt lat="45.91598" lon="4.70481">
        <ele>202</ele>
        <time>2018-08-24T09:45:26Z</time>
      </trkpt>
      <trkpt lat="45.91604" lon="4.70487">
        <ele>202</ele>
        <time>2018-08-24T09:45:27Z</time>
      </trkpt>
      <trkpt lat="45.91611" lon="4.70492">
        <ele>202</ele>
        <time>2018-08-24T09:45:28Z</time>
      </trkpt>
      <trkpt lat="45.91617" lon="4.70498">
        <ele>202</ele>
        <time>2018-08-24T09:45:29Z</time>
      </trkpt>
      <trkpt lat="45.91624" lon="4.70504">
        <ele>199</ele>
        <time>2018-08-24T09:45:30Z</time>
      </trkpt>
      <trkpt lat="45.9163" lon="4.70511">
        <ele>199</ele>
        <time>2018-08-24T09:45:31Z</time>
      </trkpt>
      <trkpt lat="45.91637" lon="4.70515">
        <ele>199</ele>
        <time>2018-08-24T09:45:32Z</time>
      </trkpt>
      <trkpt lat="45.91644" lon="4.7052">
        <ele>199</ele>
        <time>2018-08-24T09:45:33Z</time>
      </trkpt>
      <trkpt lat="45.9165" lon="4.70525">
        <ele>199</ele>
        <time>2018-08-24T09:45:34Z</time>
      </trkpt>
      <trkpt lat="45.91657" lon="4.70531">
        <ele>198</ele>
        <time>2018-08-24T09:45:35Z</time>
      </trkpt>
      <trkpt lat="45.91663" lon="4.70537">
        <ele>198</ele>
        <time>2018-08-24T09:45:36Z</time>
      </trkpt>
      <trkpt lat="45.9167" lon="4.70541">
        <ele>198</ele>
        <time>2018-08-24T09:45:37Z</time>
      </trkpt>
      <trkpt lat="45.91676" lon="4.70547">
        <ele>198</ele>
        <time>2018-08-24T09:45:38Z</time>
      </trkpt>
      <trkpt lat="45.91682" lon="4.70551">
        <ele>198</ele>
        <time>2018-08-24T09:45:39Z</time>
      </trkpt>
      <trkpt lat="45.91689" lon="4.70557">
        <ele>198</ele>
        <time>2018-08-24T09:45:40Z</time>
      </trkpt>
      <trkpt lat="45.91695" lon="4.70561">
        <ele>198</ele>
        <time>2018-08-24T09:45:41Z</time>
      </trkpt>
      <trkpt lat="45.91699" lon="4.70572">
        <ele>197</ele>
        <time>2018-08-24T09:45:42Z</time>
      </trkpt>
      <trkpt lat="45.91703" lon="4.7058">
        <ele>197</ele>
        <time>2018-08-24T09:45:43Z</time>
      </trkpt>
      <trkpt lat="45.91706" lon="4.70586">
        <ele>196</ele>
        <time>2018-08-24T09:45:44Z</time>
      </trkpt>
      <trkpt lat="45.9171" lon="4.70591">
        <ele>196</ele>
        <time>2018-08-24T09:45:45Z</time>
      </trkpt>
      <trkpt lat="45.91715" lon="4.70594">
        <ele>195</ele>
        <time>2018-08-24T09:45:46Z</time>
      </trkpt>
      <trkpt lat="45.91721" lon="4.70596">
        <ele>195</ele>
        <time>2018-08-24T09:45:47Z</time>
      </trkpt>
      <trkpt lat="45.9173" lon="4.70591">
        <ele>196</ele>
        <time>2018-08-24T09:45:48Z</time>
      </trkpt>
      <trkpt lat="45.91736" lon="4.70592">
        <ele>196</ele>
        <time>2018-08-24T09:45:49Z</time>
      </trkpt>
      <trkpt lat="45.91742" lon="4.70596">
        <ele>196</ele>
        <time>2018-08-24T09:45:50Z</time>
      </trkpt>
      <trkpt lat="45.91748" lon="4.70599">
        <ele>196</ele>
        <time>2018-08-24T09:45:51Z</time>
      </trkpt>
      <trkpt lat="45.91755" lon="4.70602">
        <ele>195</ele>
        <time>2018-08-24T09:45:52Z</time>
      </trkpt>
      <trkpt lat="45.91761" lon="4.70605">
        <ele>195</ele>
        <time>2018-08-24T09:45:53Z</time>
      </trkpt>
      <trkpt lat="45.91768" lon="4.70608">
        <ele>195</ele>
        <time>2018-08-24T09:45:54Z</time>
      </trkpt>
      <trkpt lat="45.91774" lon="4.7061">
        <ele>195</ele>
        <time>2018-08-24T09:45:55Z</time>
      </trkpt>
      <trkpt lat="45.9178" lon="4.70611">
        <ele>195</ele>
        <time>2018-08-24T09:45:56Z</time>
      </trkpt>
      <trkpt lat="45.91787" lon="4.70612">
        <ele>194</ele>
        <time>2018-08-24T09:45:57Z</time>
      </trkpt>
      <trkpt lat="45.91792" lon="4.70613">
        <ele>194</ele>
        <time>2018-08-24T09:45:58Z</time>
      </trkpt>
      <trkpt lat="45.91798" lon="4.70614">
        <ele>194</ele>
        <time>2018-08-24T09:45:59Z</time>
      </trkpt>
      <trkpt lat="45.91805" lon="4.70617">
        <ele>194</ele>
        <time>2018-08-24T09:46:00Z</time>
      </trkpt>
      <trkpt lat="45.91812" lon="4.70617">
        <ele>194</ele>
        <time>2018-08-24T09:46:01Z</time>
      </trkpt>
      <trkpt lat="45.91819" lon="4.70617">
        <ele>194</ele>
        <time>2018-08-24T09:46:02Z</time>
      </trkpt>
      <trkpt lat="45.91826" lon="4.70613">
        <ele>194</ele>
        <time>2018-08-24T09:46:03Z</time>
      </trkpt>
      <trkpt lat="45.91833" lon="4.70612">
        <ele>194</ele>
        <time>2018-08-24T09:46:04Z</time>
      </trkpt>
      <trkpt lat="45.9184" lon="4.70612">
        <ele>194</ele>
        <time>2018-08-24T09:46:05Z</time>
      </trkpt>
      <trkpt lat="45.91849" lon="4.7061">
        <ele>194</ele>
        <time>2018-08-24T09:46:06Z</time>
      </trkpt>
      <trkpt lat="45.91856" lon="4.70609">
        <ele>194</ele>
        <time>2018-08-24T09:46:07Z</time>
      </trkpt>
      <trkpt lat="45.91862" lon="4.70608">
        <ele>194</ele>
        <time>2018-08-24T09:46:08Z</time>
      </trkpt>
      <trkpt lat="45.9187" lon="4.70609">
        <ele>194</ele>
        <time>2018-08-24T09:46:09Z</time>
      </trkpt>
      <trkpt lat="45.91877" lon="4.70607">
        <ele>194</ele>
        <time>2018-08-24T09:46:10Z</time>
      </trkpt>
      <trkpt lat="45.91884" lon="4.70605">
        <ele>194</ele>
        <time>2018-08-24T09:46:11Z</time>
      </trkpt>
      <trkpt lat="45.91892" lon="4.70604">
        <ele>194</ele>
        <time>2018-08-24T09:46:12Z</time>
      </trkpt>
      <trkpt lat="45.91899" lon="4.70603">
        <ele>195</ele>
        <time>2018-08-24T09:46:13Z</time>
      </trkpt>
      <trkpt lat="45.91905" lon="4.70603">
        <ele>195</ele>
        <time>2018-08-24T09:46:14Z</time>
      </trkpt>
      <trkpt lat="45.91912" lon="4.70601">
        <ele>195</ele>
        <time>2018-08-24T09:46:15Z</time>
      </trkpt>
      <trkpt lat="45.91919" lon="4.706">
        <ele>195</ele>
        <time>2018-08-24T09:46:16Z</time>
      </trkpt>
      <trkpt lat="45.91925" lon="4.70598">
        <ele>195</ele>
        <time>2018-08-24T09:46:17Z</time>
      </trkpt>
      <trkpt lat="45.91932" lon="4.70597">
        <ele>195</ele>
        <time>2018-08-24T09:46:18Z</time>
      </trkpt>
      <trkpt lat="45.91939" lon="4.70596">
        <ele>195</ele>
        <time>2018-08-24T09:46:19Z</time>
      </trkpt>
      <trkpt lat="45.91946" lon="4.70595">
        <ele>195</ele>
        <time>2018-08-24T09:46:20Z</time>
      </trkpt>
      <trkpt lat="45.91952" lon="4.70594">
        <ele>195</ele>
        <time>2018-08-24T09:46:21Z</time>
      </trkpt>
      <trkpt lat="45.91959" lon="4.70592">
        <ele>195</ele>
        <time>2018-08-24T09:46:22Z</time>
      </trkpt>
      <trkpt lat="45.91963" lon="4.70591">
        <ele>194</ele>
        <time>2018-08-24T09:46:23Z</time>
      </trkpt>
      <trkpt lat="45.91969" lon="4.7059">
        <ele>194</ele>
        <time>2018-08-24T09:46:24Z</time>
      </trkpt>
      <trkpt lat="45.91975" lon="4.70592">
        <ele>194</ele>
        <time>2018-08-24T09:46:25Z</time>
      </trkpt>
      <trkpt lat="45.9198" lon="4.70592">
        <ele>194</ele>
        <time>2018-08-24T09:46:26Z</time>
      </trkpt>
      <trkpt lat="45.91987" lon="4.70593">
        <ele>195</ele>
        <time>2018-08-24T09:46:27Z</time>
      </trkpt>
      <trkpt lat="45.91994" lon="4.70592">
        <ele>195</ele>
        <time>2018-08-24T09:46:28Z</time>
      </trkpt>
      <trkpt lat="45.92" lon="4.70591">
        <ele>194</ele>
        <time>2018-08-24T09:46:29Z</time>
      </trkpt>
      <trkpt lat="45.92007" lon="4.7059">
        <ele>194</ele>
        <time>2018-08-24T09:46:30Z</time>
      </trkpt>
      <trkpt lat="45.92014" lon="4.7059">
        <ele>194</ele>
        <time>2018-08-24T09:46:31Z</time>
      </trkpt>
      <trkpt lat="45.9202" lon="4.7059">
        <ele>194</ele>
        <time>2018-08-24T09:46:32Z</time>
      </trkpt>
      <trkpt lat="45.92027" lon="4.7059">
        <ele>194</ele>
        <time>2018-08-24T09:46:33Z</time>
      </trkpt>
      <trkpt lat="45.92032" lon="4.70591">
        <ele>194</ele>
        <time>2018-08-24T09:46:34Z</time>
      </trkpt>
      <trkpt lat="45.92039" lon="4.7059">
        <ele>194</ele>
        <time>2018-08-24T09:46:35Z</time>
      </trkpt>
      <trkpt lat="45.92045" lon="4.70591">
        <ele>193</ele>
        <time>2018-08-24T09:46:36Z</time>
      </trkpt>
      <trkpt lat="45.92052" lon="4.70591">
        <ele>193</ele>
        <time>2018-08-24T09:46:37Z</time>
      </trkpt>
      <trkpt lat="45.9206" lon="4.70587">
        <ele>194</ele>
        <time>2018-08-24T09:46:38Z</time>
      </trkpt>
      <trkpt lat="45.92066" lon="4.70586">
        <ele>194</ele>
        <time>2018-08-24T09:46:39Z</time>
      </trkpt>
      <trkpt lat="45.92073" lon="4.70588">
        <ele>194</ele>
        <time>2018-08-24T09:46:40Z</time>
      </trkpt>
      <trkpt lat="45.9208" lon="4.70589">
        <ele>194</ele>
        <time>2018-08-24T09:46:41Z</time>
      </trkpt>
      <trkpt lat="45.92086" lon="4.70588">
        <ele>193</ele>
        <time>2018-08-24T09:46:42Z</time>
      </trkpt>
      <trkpt lat="45.92093" lon="4.70586">
        <ele>193</ele>
        <time>2018-08-24T09:46:43Z</time>
      </trkpt>
      <trkpt lat="45.92098" lon="4.70587">
        <ele>193</ele>
        <time>2018-08-24T09:46:44Z</time>
      </trkpt>
      <trkpt lat="45.92103" lon="4.70587">
        <ele>192</ele>
        <time>2018-08-24T09:46:45Z</time>
      </trkpt>
      <trkpt lat="45.92109" lon="4.70586">
        <ele>192</ele>
        <time>2018-08-24T09:46:46Z</time>
      </trkpt>
      <trkpt lat="45.92116" lon="4.70586">
        <ele>192</ele>
        <time>2018-08-24T09:46:47Z</time>
      </trkpt>
      <trkpt lat="45.92122" lon="4.70584">
        <ele>191</ele>
        <time>2018-08-24T09:46:48Z</time>
      </trkpt>
      <trkpt lat="45.92129" lon="4.70585">
        <ele>191</ele>
        <time>2018-08-24T09:46:49Z</time>
      </trkpt>
      <trkpt lat="45.92135" lon="4.70586">
        <ele>191</ele>
        <time>2018-08-24T09:46:50Z</time>
      </trkpt>
      <trkpt lat="45.92142" lon="4.70584">
        <ele>191</ele>
        <time>2018-08-24T09:46:51Z</time>
      </trkpt>
      <trkpt lat="45.92149" lon="4.70585">
        <ele>190</ele>
        <time>2018-08-24T09:46:52Z</time>
      </trkpt>
      <trkpt lat="45.92157" lon="4.70586">
        <ele>190</ele>
        <time>2018-08-24T09:46:53Z</time>
      </trkpt>
      <trkpt lat="45.92163" lon="4.70589">
        <ele>190</ele>
        <time>2018-08-24T09:46:54Z</time>
      </trkpt>
      <trkpt lat="45.92169" lon="4.7059">
        <ele>191</ele>
        <time>2018-08-24T09:46:55Z</time>
      </trkpt>
      <trkpt lat="45.92174" lon="4.7059">
        <ele>191</ele>
        <time>2018-08-24T09:46:56Z</time>
      </trkpt>
      <trkpt lat="45.92182" lon="4.7058">
        <ele>193</ele>
        <time>2018-08-24T09:46:57Z</time>
      </trkpt>
      <trkpt lat="45.92188" lon="4.7058">
        <ele>193</ele>
        <time>2018-08-24T09:46:58Z</time>
      </trkpt>
      <trkpt lat="45.92194" lon="4.70579">
        <ele>194</ele>
        <time>2018-08-24T09:46:59Z</time>
      </trkpt>
      <trkpt lat="45.922" lon="4.70579">
        <ele>194</ele>
        <time>2018-08-24T09:47:00Z</time>
      </trkpt>
      <trkpt lat="45.92205" lon="4.7058">
        <ele>194</ele>
        <time>2018-08-24T09:47:01Z</time>
      </trkpt>
      <trkpt lat="45.92211" lon="4.70581">
        <ele>195</ele>
        <time>2018-08-24T09:47:02Z</time>
      </trkpt>
      <trkpt lat="45.92216" lon="4.70588">
        <ele>193</ele>
        <time>2018-08-24T09:47:03Z</time>
      </trkpt>
      <trkpt lat="45.9222" lon="4.7059">
        <ele>193</ele>
        <time>2018-08-24T09:47:04Z</time>
      </trkpt>
      <trkpt lat="45.92227" lon="4.70596">
        <ele>194</ele>
        <time>2018-08-24T09:47:05Z</time>
      </trkpt>
      <trkpt lat="45.92233" lon="4.70598">
        <ele>194</ele>
        <time>2018-08-24T09:47:06Z</time>
      </trkpt>
      <trkpt lat="45.92238" lon="4.70601">
        <ele>194</ele>
        <time>2018-08-24T09:47:07Z</time>
      </trkpt>
      <trkpt lat="45.92243" lon="4.70603">
        <ele>194</ele>
        <time>2018-08-24T09:47:08Z</time>
      </trkpt>
      <trkpt lat="45.92251" lon="4.70606">
        <ele>196</ele>
        <time>2018-08-24T09:47:09Z</time>
      </trkpt>
      <trkpt lat="45.92257" lon="4.70606">
        <ele>196</ele>
        <time>2018-08-24T09:47:10Z</time>
      </trkpt>
      <trkpt lat="45.92263" lon="4.70607">
        <ele>196</ele>
        <time>2018-08-24T09:47:11Z</time>
      </trkpt>
      <trkpt lat="45.92269" lon="4.70607">
        <ele>196</ele>
        <time>2018-08-24T09:47:12Z</time>
      </trkpt>
      <trkpt lat="45.92275" lon="4.7061">
        <ele>196</ele>
        <time>2018-08-24T09:47:13Z</time>
      </trkpt>
      <trkpt lat="45.92281" lon="4.70612">
        <ele>196</ele>
        <time>2018-08-24T09:47:14Z</time>
      </trkpt>
      <trkpt lat="45.92287" lon="4.70617">
        <ele>196</ele>
        <time>2018-08-24T09:47:15Z</time>
      </trkpt>
      <trkpt lat="45.92293" lon="4.7062">
        <ele>196</ele>
        <time>2018-08-24T09:47:16Z</time>
      </trkpt>
      <trkpt lat="45.92299" lon="4.70626">
        <ele>196</ele>
        <time>2018-08-24T09:47:17Z</time>
      </trkpt>
      <trkpt lat="45.92305" lon="4.70632">
        <ele>196</ele>
        <time>2018-08-24T09:47:18Z</time>
      </trkpt>
      <trkpt lat="45.92311" lon="4.70636">
        <ele>196</ele>
        <time>2018-08-24T09:47:19Z</time>
      </trkpt>
      <trkpt lat="45.92318" lon="4.70636">
        <ele>196</ele>
        <time>2018-08-24T09:47:20Z</time>
      </trkpt>
      <trkpt lat="45.92323" lon="4.70639">
        <ele>196</ele>
        <time>2018-08-24T09:47:21Z</time>
      </trkpt>
      <trkpt lat="45.92329" lon="4.70643">
        <ele>196</ele>
        <time>2018-08-24T09:47:22Z</time>
      </trkpt>
      <trkpt lat="45.92335" lon="4.70646">
        <ele>196</ele>
        <time>2018-08-24T09:47:23Z</time>
      </trkpt>
      <trkpt lat="45.92342" lon="4.70648">
        <ele>196</ele>
        <time>2018-08-24T09:47:24Z</time>
      </trkpt>
      <trkpt lat="45.92348" lon="4.70652">
        <ele>196</ele>
        <time>2018-08-24T09:47:25Z</time>
      </trkpt>
      <trkpt lat="45.92354" lon="4.70656">
        <ele>196</ele>
        <time>2018-08-24T09:47:26Z</time>
      </trkpt>
      <trkpt lat="45.9236" lon="4.7066">
        <ele>196</ele>
        <time>2018-08-24T09:47:27Z</time>
      </trkpt>
      <trkpt lat="45.92366" lon="4.70662">
        <ele>196</ele>
        <time>2018-08-24T09:47:28Z</time>
      </trkpt>
      <trkpt lat="45.92371" lon="4.70668">
        <ele>194</ele>
        <time>2018-08-24T09:47:29Z</time>
      </trkpt>
      <trkpt lat="45.92376" lon="4.70666">
        <ele>196</ele>
        <time>2018-08-24T09:47:30Z</time>
      </trkpt>
      <trkpt lat="45.92382" lon="4.7067">
        <ele>194</ele>
        <time>2018-08-24T09:47:31Z</time>
      </trkpt>
      <trkpt lat="45.92387" lon="4.70674">
        <ele>194</ele>
        <time>2018-08-24T09:47:32Z</time>
      </trkpt>
      <trkpt lat="45.92392" lon="4.70677">
        <ele>194</ele>
        <time>2018-08-24T09:47:33Z</time>
      </trkpt>
      <trkpt lat="45.92398" lon="4.7068">
        <ele>195</ele>
        <time>2018-08-24T09:47:34Z</time>
      </trkpt>
      <trkpt lat="45.92404" lon="4.70683">
        <ele>195</ele>
        <time>2018-08-24T09:47:35Z</time>
      </trkpt>
      <trkpt lat="45.92409" lon="4.70686">
        <ele>195</ele>
        <time>2018-08-24T09:47:36Z</time>
      </trkpt>
      <trkpt lat="45.92416" lon="4.7069">
        <ele>194</ele>
        <time>2018-08-24T09:47:37Z</time>
      </trkpt>
      <trkpt lat="45.92422" lon="4.70693">
        <ele>195</ele>
        <time>2018-08-24T09:47:38Z</time>
      </trkpt>
      <trkpt lat="45.92427" lon="4.70696">
        <ele>195</ele>
        <time>2018-08-24T09:47:39Z</time>
      </trkpt>
      <trkpt lat="45.92434" lon="4.70699">
        <ele>195</ele>
        <time>2018-08-24T09:47:40Z</time>
      </trkpt>
      <trkpt lat="45.92441" lon="4.70702">
        <ele>195</ele>
        <time>2018-08-24T09:47:41Z</time>
      </trkpt>
      <trkpt lat="45.92448" lon="4.70705">
        <ele>194</ele>
        <time>2018-08-24T09:47:42Z</time>
      </trkpt>
      <trkpt lat="45.92453" lon="4.7071">
        <ele>194</ele>
        <time>2018-08-24T09:47:43Z</time>
      </trkpt>
      <trkpt lat="45.92459" lon="4.70711">
        <ele>194</ele>
        <time>2018-08-24T09:47:44Z</time>
      </trkpt>
      <trkpt lat="45.92466" lon="4.70713">
        <ele>194</ele>
        <time>2018-08-24T09:47:45Z</time>
      </trkpt>
      <trkpt lat="45.92471" lon="4.70716">
        <ele>194</ele>
        <time>2018-08-24T09:47:46Z</time>
      </trkpt>
      <trkpt lat="45.92477" lon="4.7072">
        <ele>194</ele>
        <time>2018-08-24T09:47:47Z</time>
      </trkpt>
      <trkpt lat="45.92482" lon="4.70723">
        <ele>194</ele>
        <time>2018-08-24T09:47:48Z</time>
      </trkpt>
      <trkpt lat="45.92488" lon="4.70726">
        <ele>194</ele>
        <time>2018-08-24T09:47:49Z</time>
      </trkpt>
      <trkpt lat="45.92494" lon="4.70731">
        <ele>194</ele>
        <time>2018-08-24T09:47:50Z</time>
      </trkpt>
      <trkpt lat="45.92499" lon="4.70734">
        <ele>194</ele>
        <time>2018-08-24T09:47:51Z</time>
      </trkpt>
      <trkpt lat="45.92504" lon="4.70738">
        <ele>195</ele>
        <time>2018-08-24T09:47:52Z</time>
      </trkpt>
      <trkpt lat="45.9251" lon="4.70741">
        <ele>195</ele>
        <time>2018-08-24T09:47:53Z</time>
      </trkpt>
      <trkpt lat="45.92516" lon="4.70743">
        <ele>196</ele>
        <time>2018-08-24T09:47:54Z</time>
      </trkpt>
      <trkpt lat="45.92521" lon="4.70747">
        <ele>196</ele>
        <time>2018-08-24T09:47:55Z</time>
      </trkpt>
      <trkpt lat="45.92527" lon="4.70752">
        <ele>195</ele>
        <time>2018-08-24T09:47:56Z</time>
      </trkpt>
      <trkpt lat="45.92533" lon="4.70753">
        <ele>195</ele>
        <time>2018-08-24T09:47:57Z</time>
      </trkpt>
      <trkpt lat="45.92538" lon="4.70755">
        <ele>195</ele>
        <time>2018-08-24T09:47:58Z</time>
      </trkpt>
      <trkpt lat="45.92542" lon="4.70759">
        <ele>195</ele>
        <time>2018-08-24T09:47:59Z</time>
      </trkpt>
      <trkpt lat="45.92547" lon="4.70763">
        <ele>195</ele>
        <time>2018-08-24T09:48:00Z</time>
      </trkpt>
      <trkpt lat="45.92552" lon="4.70766">
        <ele>196</ele>
        <time>2018-08-24T09:48:01Z</time>
      </trkpt>
      <trkpt lat="45.92561" lon="4.70768">
        <ele>196</ele>
        <time>2018-08-24T09:48:03Z</time>
      </trkpt>
      <trkpt lat="45.92566" lon="4.7077">
        <ele>196</ele>
        <time>2018-08-24T09:48:04Z</time>
      </trkpt>
      <trkpt lat="45.9257" lon="4.70773">
        <ele>196</ele>
        <time>2018-08-24T09:48:05Z</time>
      </trkpt>
      <trkpt lat="45.92575" lon="4.70776">
        <ele>196</ele>
        <time>2018-08-24T09:48:06Z</time>
      </trkpt>
      <trkpt lat="45.92579" lon="4.70782">
        <ele>196</ele>
        <time>2018-08-24T09:48:07Z</time>
      </trkpt>
      <trkpt lat="45.92583" lon="4.70786">
        <ele>196</ele>
        <time>2018-08-24T09:48:08Z</time>
      </trkpt>
      <trkpt lat="45.92588" lon="4.70788">
        <ele>198</ele>
        <time>2018-08-24T09:48:09Z</time>
      </trkpt>
      <trkpt lat="45.92593" lon="4.70793">
        <ele>198</ele>
        <time>2018-08-24T09:48:10Z</time>
      </trkpt>
      <trkpt lat="45.92597" lon="4.70797">
        <ele>198</ele>
        <time>2018-08-24T09:48:11Z</time>
      </trkpt>
      <trkpt lat="45.92601" lon="4.70801">
        <ele>198</ele>
        <time>2018-08-24T09:48:12Z</time>
      </trkpt>
      <trkpt lat="45.92608" lon="4.70809">
        <ele>199</ele>
        <time>2018-08-24T09:48:14Z</time>
      </trkpt>
      <trkpt lat="45.92612" lon="4.70814">
        <ele>199</ele>
        <time>2018-08-24T09:48:15Z</time>
      </trkpt>
      <trkpt lat="45.92616" lon="4.70818">
        <ele>199</ele>
        <time>2018-08-24T09:48:16Z</time>
      </trkpt>
      <trkpt lat="45.92619" lon="4.70824">
        <ele>199</ele>
        <time>2018-08-24T09:48:17Z</time>
      </trkpt>
      <trkpt lat="45.92623" lon="4.70829">
        <ele>199</ele>
        <time>2018-08-24T09:48:18Z</time>
      </trkpt>
      <trkpt lat="45.92629" lon="4.70833">
        <ele>199</ele>
        <time>2018-08-24T09:48:19Z</time>
      </trkpt>
      <trkpt lat="45.92634" lon="4.70838">
        <ele>198</ele>
        <time>2018-08-24T09:48:20Z</time>
      </trkpt>
      <trkpt lat="45.92638" lon="4.70841">
        <ele>198</ele>
        <time>2018-08-24T09:48:21Z</time>
      </trkpt>
      <trkpt lat="45.92642" lon="4.70846">
        <ele>198</ele>
        <time>2018-08-24T09:48:22Z</time>
      </trkpt>
      <trkpt lat="45.92646" lon="4.7085">
        <ele>198</ele>
        <time>2018-08-24T09:48:23Z</time>
      </trkpt>
      <trkpt lat="45.92651" lon="4.70854">
        <ele>198</ele>
        <time>2018-08-24T09:48:24Z</time>
      </trkpt>
      <trkpt lat="45.92654" lon="4.70861">
        <ele>198</ele>
        <time>2018-08-24T09:48:25Z</time>
      </trkpt>
      <trkpt lat="45.92659" lon="4.70866">
        <ele>198</ele>
        <time>2018-08-24T09:48:26Z</time>
      </trkpt>
      <trkpt lat="45.92663" lon="4.70871">
        <ele>198</ele>
        <time>2018-08-24T09:48:27Z</time>
      </trkpt>
      <trkpt lat="45.92668" lon="4.70876">
        <ele>198</ele>
        <time>2018-08-24T09:48:28Z</time>
      </trkpt>
      <trkpt lat="45.92673" lon="4.70878">
        <ele>198</ele>
        <time>2018-08-24T09:48:29Z</time>
      </trkpt>
      <trkpt lat="45.92677" lon="4.70883">
        <ele>198</ele>
        <time>2018-08-24T09:48:30Z</time>
      </trkpt>
      <trkpt lat="45.92682" lon="4.70887">
        <ele>198</ele>
        <time>2018-08-24T09:48:31Z</time>
      </trkpt>
      <trkpt lat="45.92689" lon="4.70891">
        <ele>198</ele>
        <time>2018-08-24T09:48:33Z</time>
      </trkpt>
      <trkpt lat="45.92696" lon="4.70897">
        <ele>197</ele>
        <time>2018-08-24T09:48:34Z</time>
      </trkpt>
      <trkpt lat="45.92702" lon="4.709">
        <ele>197</ele>
        <time>2018-08-24T09:48:35Z</time>
      </trkpt>
      <trkpt lat="45.92707" lon="4.70904">
        <ele>197</ele>
        <time>2018-08-24T09:48:36Z</time>
      </trkpt>
      <trkpt lat="45.92712" lon="4.70907">
        <ele>197</ele>
        <time>2018-08-24T09:48:37Z</time>
      </trkpt>
      <trkpt lat="45.92718" lon="4.70911">
        <ele>197</ele>
        <time>2018-08-24T09:48:38Z</time>
      </trkpt>
      <trkpt lat="45.92724" lon="4.70911">
        <ele>197</ele>
        <time>2018-08-24T09:48:39Z</time>
      </trkpt>
      <trkpt lat="45.9273" lon="4.70914">
        <ele>197</ele>
        <time>2018-08-24T09:48:40Z</time>
      </trkpt>
      <trkpt lat="45.92735" lon="4.70916">
        <ele>197</ele>
        <time>2018-08-24T09:48:41Z</time>
      </trkpt>
      <trkpt lat="45.92742" lon="4.70919">
        <ele>195</ele>
        <time>2018-08-24T09:48:42Z</time>
      </trkpt>
      <trkpt lat="45.92746" lon="4.70919">
        <ele>196</ele>
        <time>2018-08-24T09:48:43Z</time>
      </trkpt>
      <trkpt lat="45.92752" lon="4.70922">
        <ele>196</ele>
        <time>2018-08-24T09:48:44Z</time>
      </trkpt>
      <trkpt lat="45.92757" lon="4.70924">
        <ele>196</ele>
        <time>2018-08-24T09:48:45Z</time>
      </trkpt>
      <trkpt lat="45.92761" lon="4.70919">
        <ele>196</ele>
        <time>2018-08-24T09:48:46Z</time>
      </trkpt>
      <trkpt lat="45.92766" lon="4.7092">
        <ele>196</ele>
        <time>2018-08-24T09:48:47Z</time>
      </trkpt>
      <trkpt lat="45.92772" lon="4.70919">
        <ele>196</ele>
        <time>2018-08-24T09:48:48Z</time>
      </trkpt>
      <trkpt lat="45.92776" lon="4.70917">
        <ele>196</ele>
        <time>2018-08-24T09:48:49Z</time>
      </trkpt>
      <trkpt lat="45.92781" lon="4.70918">
        <ele>196</ele>
        <time>2018-08-24T09:48:50Z</time>
      </trkpt>
      <trkpt lat="45.92789" lon="4.70918">
        <ele>196</ele>
        <time>2018-08-24T09:48:52Z</time>
      </trkpt>
      <trkpt lat="45.92793" lon="4.7092">
        <ele>196</ele>
        <time>2018-08-24T09:48:53Z</time>
      </trkpt>
      <trkpt lat="45.92798" lon="4.70924">
        <ele>196</ele>
        <time>2018-08-24T09:48:54Z</time>
      </trkpt>
      <trkpt lat="45.92802" lon="4.70927">
        <ele>197</ele>
        <time>2018-08-24T09:48:55Z</time>
      </trkpt>
      <trkpt lat="45.92807" lon="4.7093">
        <ele>197</ele>
        <time>2018-08-24T09:48:56Z</time>
      </trkpt>
      <trkpt lat="45.92813" lon="4.70936">
        <ele>197</ele>
        <time>2018-08-24T09:48:57Z</time>
      </trkpt>
      <trkpt lat="45.92818" lon="4.70938">
        <ele>197</ele>
        <time>2018-08-24T09:48:58Z</time>
      </trkpt>
      <trkpt lat="45.92823" lon="4.70939">
        <ele>197</ele>
        <time>2018-08-24T09:48:59Z</time>
      </trkpt>
      <trkpt lat="45.92829" lon="4.70937">
        <ele>197</ele>
        <time>2018-08-24T09:49:00Z</time>
      </trkpt>
      <trkpt lat="45.92833" lon="4.70936">
        <ele>197</ele>
        <time>2018-08-24T09:49:01Z</time>
      </trkpt>
      <trkpt lat="45.92837" lon="4.70933">
        <ele>198</ele>
        <time>2018-08-24T09:49:02Z</time>
      </trkpt>
      <trkpt lat="45.92843" lon="4.70933">
        <ele>198</ele>
        <time>2018-08-24T09:49:03Z</time>
      </trkpt>
      <trkpt lat="45.92848" lon="4.70933">
        <ele>198</ele>
        <time>2018-08-24T09:49:04Z</time>
      </trkpt>
      <trkpt lat="45.92854" lon="4.70935">
        <ele>198</ele>
        <time>2018-08-24T09:49:05Z</time>
      </trkpt>
      <trkpt lat="45.92859" lon="4.70936">
        <ele>198</ele>
        <time>2018-08-24T09:49:06Z</time>
      </trkpt>
      <trkpt lat="45.92865" lon="4.70936">
        <ele>198</ele>
        <time>2018-08-24T09:49:07Z</time>
      </trkpt>
      <trkpt lat="45.9287" lon="4.70938">
        <ele>198</ele>
        <time>2018-08-24T09:49:08Z</time>
      </trkpt>
      <trkpt lat="45.92876" lon="4.7094">
        <ele>198</ele>
        <time>2018-08-24T09:49:09Z</time>
      </trkpt>
      <trkpt lat="45.92882" lon="4.7094">
        <ele>198</ele>
        <time>2018-08-24T09:49:10Z</time>
      </trkpt>
      <trkpt lat="45.92888" lon="4.7094">
        <ele>198</ele>
        <time>2018-08-24T09:49:11Z</time>
      </trkpt>
      <trkpt lat="45.92893" lon="4.70939">
        <ele>198</ele>
        <time>2018-08-24T09:49:12Z</time>
      </trkpt>
      <trkpt lat="45.92899" lon="4.70941">
        <ele>198</ele>
        <time>2018-08-24T09:49:13Z</time>
      </trkpt>
      <trkpt lat="45.92905" lon="4.70941">
        <ele>198</ele>
        <time>2018-08-24T09:49:14Z</time>
      </trkpt>
      <trkpt lat="45.92911" lon="4.70943">
        <ele>198</ele>
        <time>2018-08-24T09:49:15Z</time>
      </trkpt>
      <trkpt lat="45.92915" lon="4.70947">
        <ele>198</ele>
        <time>2018-08-24T09:49:16Z</time>
      </trkpt>
      <trkpt lat="45.92921" lon="4.70949">
        <ele>198</ele>
        <time>2018-08-24T09:49:17Z</time>
      </trkpt>
      <trkpt lat="45.92927" lon="4.70954">
        <ele>198</ele>
        <time>2018-08-24T09:49:18Z</time>
      </trkpt>
      <trkpt lat="45.92934" lon="4.70957">
        <ele>198</ele>
        <time>2018-08-24T09:49:19Z</time>
      </trkpt>
      <trkpt lat="45.92941" lon="4.70958">
        <ele>198</ele>
        <time>2018-08-24T09:49:20Z</time>
      </trkpt>
      <trkpt lat="45.92947" lon="4.7096">
        <ele>198</ele>
        <time>2018-08-24T09:49:21Z</time>
      </trkpt>
      <trkpt lat="45.92952" lon="4.70959">
        <ele>198</ele>
        <time>2018-08-24T09:49:22Z</time>
      </trkpt>
      <trkpt lat="45.92959" lon="4.7096">
        <ele>198</ele>
        <time>2018-08-24T09:49:23Z</time>
      </trkpt>
      <trkpt lat="45.92966" lon="4.70964">
        <ele>198</ele>
        <time>2018-08-24T09:49:24Z</time>
      </trkpt>
      <trkpt lat="45.92972" lon="4.70964">
        <ele>198</ele>
        <time>2018-08-24T09:49:25Z</time>
      </trkpt>
      <trkpt lat="45.92978" lon="4.70967">
        <ele>198</ele>
        <time>2018-08-24T09:49:26Z</time>
      </trkpt>
      <trkpt lat="45.92985" lon="4.70969">
        <ele>198</ele>
        <time>2018-08-24T09:49:27Z</time>
      </trkpt>
      <trkpt lat="45.92992" lon="4.70973">
        <ele>198</ele>
        <time>2018-08-24T09:49:28Z</time>
      </trkpt>
      <trkpt lat="45.92999" lon="4.70974">
        <ele>198</ele>
        <time>2018-08-24T09:49:29Z</time>
      </trkpt>
      <trkpt lat="45.93005" lon="4.70977">
        <ele>198</ele>
        <time>2018-08-24T09:49:30Z</time>
      </trkpt>
      <trkpt lat="45.93012" lon="4.70981">
        <ele>198</ele>
        <time>2018-08-24T09:49:31Z</time>
      </trkpt>
      <trkpt lat="45.93018" lon="4.70984">
        <ele>198</ele>
        <time>2018-08-24T09:49:32Z</time>
      </trkpt>
      <trkpt lat="45.93025" lon="4.70988">
        <ele>198</ele>
        <time>2018-08-24T09:49:33Z</time>
      </trkpt>
      <trkpt lat="45.93031" lon="4.70993">
        <ele>198</ele>
        <time>2018-08-24T09:49:34Z</time>
      </trkpt>
      <trkpt lat="45.93036" lon="4.70995">
        <ele>198</ele>
        <time>2018-08-24T09:49:35Z</time>
      </trkpt>
      <trkpt lat="45.93043" lon="4.71">
        <ele>198</ele>
        <time>2018-08-24T09:49:36Z</time>
      </trkpt>
      <trkpt lat="45.93051" lon="4.71005">
        <ele>197</ele>
        <time>2018-08-24T09:49:37Z</time>
      </trkpt>
      <trkpt lat="45.93056" lon="4.71012">
        <ele>197</ele>
        <time>2018-08-24T09:49:38Z</time>
      </trkpt>
      <trkpt lat="45.93063" lon="4.71019">
        <ele>197</ele>
        <time>2018-08-24T09:49:39Z</time>
      </trkpt>
      <trkpt lat="45.93067" lon="4.71025">
        <ele>197</ele>
        <time>2018-08-24T09:49:40Z</time>
      </trkpt>
      <trkpt lat="45.93073" lon="4.71032">
        <ele>197</ele>
        <time>2018-08-24T09:49:41Z</time>
      </trkpt>
      <trkpt lat="45.9308" lon="4.71039">
        <ele>196</ele>
        <time>2018-08-24T09:49:42Z</time>
      </trkpt>
      <trkpt lat="45.93087" lon="4.71049">
        <ele>196</ele>
        <time>2018-08-24T09:49:43Z</time>
      </trkpt>
      <trkpt lat="45.93092" lon="4.71055">
        <ele>195</ele>
        <time>2018-08-24T09:49:44Z</time>
      </trkpt>
      <trkpt lat="45.93098" lon="4.71063">
        <ele>195</ele>
        <time>2018-08-24T09:49:45Z</time>
      </trkpt>
      <trkpt lat="45.93102" lon="4.71069">
        <ele>195</ele>
        <time>2018-08-24T09:49:46Z</time>
      </trkpt>
      <trkpt lat="45.93108" lon="4.71077">
        <ele>195</ele>
        <time>2018-08-24T09:49:47Z</time>
      </trkpt>
      <trkpt lat="45.93113" lon="4.71086">
        <ele>193</ele>
        <time>2018-08-24T09:49:48Z</time>
      </trkpt>
      <trkpt lat="45.93118" lon="4.71095">
        <ele>193</ele>
        <time>2018-08-24T09:49:49Z</time>
      </trkpt>
      <trkpt lat="45.93123" lon="4.71103">
        <ele>192</ele>
        <time>2018-08-24T09:49:50Z</time>
      </trkpt>
      <trkpt lat="45.93127" lon="4.71113">
        <ele>192</ele>
        <time>2018-08-24T09:49:51Z</time>
      </trkpt>
      <trkpt lat="45.93131" lon="4.71123">
        <ele>192</ele>
        <time>2018-08-24T09:49:52Z</time>
      </trkpt>
      <trkpt lat="45.93135" lon="4.71132">
        <ele>192</ele>
        <time>2018-08-24T09:49:53Z</time>
      </trkpt>
      <trkpt lat="45.9314" lon="4.71144">
        <ele>191</ele>
        <time>2018-08-24T09:49:54Z</time>
      </trkpt>
      <trkpt lat="45.93145" lon="4.71152">
        <ele>191</ele>
        <time>2018-08-24T09:49:55Z</time>
      </trkpt>
      <trkpt lat="45.93149" lon="4.71162">
        <ele>191</ele>
        <time>2018-08-24T09:49:56Z</time>
      </trkpt>
      <trkpt lat="45.93153" lon="4.7117">
        <ele>190</ele>
        <time>2018-08-24T09:49:57Z</time>
      </trkpt>
      <trkpt lat="45.93157" lon="4.71181">
        <ele>190</ele>
        <time>2018-08-24T09:49:58Z</time>
      </trkpt>
      <trkpt lat="45.93161" lon="4.71191">
        <ele>190</ele>
        <time>2018-08-24T09:49:59Z</time>
      </trkpt>
      <trkpt lat="45.93166" lon="4.71201">
        <ele>190</ele>
        <time>2018-08-24T09:50:00Z</time>
      </trkpt>
      <trkpt lat="45.93173" lon="4.71213">
        <ele>190</ele>
        <time>2018-08-24T09:50:01Z</time>
      </trkpt>
      <trkpt lat="45.93179" lon="4.71224">
        <ele>190</ele>
        <time>2018-08-24T09:50:02Z</time>
      </trkpt>
      <trkpt lat="45.93183" lon="4.71235">
        <ele>190</ele>
        <time>2018-08-24T09:50:03Z</time>
      </trkpt>
      <trkpt lat="45.93188" lon="4.71244">
        <ele>190</ele>
        <time>2018-08-24T09:50:04Z</time>
      </trkpt>
      <trkpt lat="45.93192" lon="4.71253">
        <ele>189</ele>
        <time>2018-08-24T09:50:05Z</time>
      </trkpt>
      <trkpt lat="45.93197" lon="4.71262">
        <ele>189</ele>
        <time>2018-08-24T09:50:06Z</time>
      </trkpt>
      <trkpt lat="45.93202" lon="4.71272">
        <ele>188</ele>
        <time>2018-08-24T09:50:07Z</time>
      </trkpt>
      <trkpt lat="45.93207" lon="4.71281">
        <ele>188</ele>
        <time>2018-08-24T09:50:08Z</time>
      </trkpt>
      <trkpt lat="45.93212" lon="4.71293">
        <ele>188</ele>
        <time>2018-08-24T09:50:09Z</time>
      </trkpt>
      <trkpt lat="45.93216" lon="4.71302">
        <ele>188</ele>
        <time>2018-08-24T09:50:10Z</time>
      </trkpt>
      <trkpt lat="45.93221" lon="4.71313">
        <ele>188</ele>
        <time>2018-08-24T09:50:11Z</time>
      </trkpt>
      <trkpt lat="45.93225" lon="4.71322">
        <ele>187</ele>
        <time>2018-08-24T09:50:12Z</time>
      </trkpt>
      <trkpt lat="45.93229" lon="4.71332">
        <ele>187</ele>
        <time>2018-08-24T09:50:13Z</time>
      </trkpt>
      <trkpt lat="45.93233" lon="4.71342">
        <ele>186</ele>
        <time>2018-08-24T09:50:14Z</time>
      </trkpt>
      <trkpt lat="45.93237" lon="4.71351">
        <ele>186</ele>
        <time>2018-08-24T09:50:15Z</time>
      </trkpt>
      <trkpt lat="45.93243" lon="4.71361">
        <ele>186</ele>
        <time>2018-08-24T09:50:16Z</time>
      </trkpt>
      <trkpt lat="45.93246" lon="4.71368">
        <ele>186</ele>
        <time>2018-08-24T09:50:17Z</time>
      </trkpt>
      <trkpt lat="45.93251" lon="4.71379">
        <ele>186</ele>
        <time>2018-08-24T09:50:18Z</time>
      </trkpt>
      <trkpt lat="45.93254" lon="4.71388">
        <ele>186</ele>
        <time>2018-08-24T09:50:19Z</time>
      </trkpt>
      <trkpt lat="45.93258" lon="4.71397">
        <ele>186</ele>
        <time>2018-08-24T09:50:20Z</time>
      </trkpt>
      <trkpt lat="45.93262" lon="4.71407">
        <ele>186</ele>
        <time>2018-08-24T09:50:21Z</time>
      </trkpt>
      <trkpt lat="45.93265" lon="4.71416">
        <ele>186</ele>
        <time>2018-08-24T09:50:22Z</time>
      </trkpt>
      <trkpt lat="45.93268" lon="4.71425">
        <ele>185</ele>
        <time>2018-08-24T09:50:23Z</time>
      </trkpt>
      <trkpt lat="45.93272" lon="4.71434">
        <ele>185</ele>
        <time>2018-08-24T09:50:24Z</time>
      </trkpt>
      <trkpt lat="45.93275" lon="4.71443">
        <ele>185</ele>
        <time>2018-08-24T09:50:25Z</time>
      </trkpt>
      <trkpt lat="45.93277" lon="4.71451">
        <ele>185</ele>
        <time>2018-08-24T09:50:26Z</time>
      </trkpt>
      <trkpt lat="45.93281" lon="4.71461">
        <ele>185</ele>
        <time>2018-08-24T09:50:27Z</time>
      </trkpt>
      <trkpt lat="45.93284" lon="4.71468">
        <ele>185</ele>
        <time>2018-08-24T09:50:28Z</time>
      </trkpt>
      <trkpt lat="45.93288" lon="4.71476">
        <ele>185</ele>
        <time>2018-08-24T09:50:29Z</time>
      </trkpt>
      <trkpt lat="45.93292" lon="4.71485">
        <ele>185</ele>
        <time>2018-08-24T09:50:30Z</time>
      </trkpt>
      <trkpt lat="45.93295" lon="4.71492">
        <ele>185</ele>
        <time>2018-08-24T09:50:31Z</time>
      </trkpt>
      <trkpt lat="45.93298" lon="4.715">
        <ele>184</ele>
        <time>2018-08-24T09:50:32Z</time>
      </trkpt>
      <trkpt lat="45.93301" lon="4.71507">
        <ele>184</ele>
        <time>2018-08-24T09:50:33Z</time>
      </trkpt>
      <trkpt lat="45.93304" lon="4.71516">
        <ele>184</ele>
        <time>2018-08-24T09:50:34Z</time>
      </trkpt>
      <trkpt lat="45.93308" lon="4.71522">
        <ele>184</ele>
        <time>2018-08-24T09:50:35Z</time>
      </trkpt>
      <trkpt lat="45.93312" lon="4.71528">
        <ele>184</ele>
        <time>2018-08-24T09:50:36Z</time>
      </trkpt>
      <trkpt lat="45.93313" lon="4.71535">
        <ele>184</ele>
        <time>2018-08-24T09:50:37Z</time>
      </trkpt>
      <trkpt lat="45.93316" lon="4.71542">
        <ele>184</ele>
        <time>2018-08-24T09:50:38Z</time>
      </trkpt>
      <trkpt lat="45.93319" lon="4.71548">
        <ele>184</ele>
        <time>2018-08-24T09:50:39Z</time>
      </trkpt>
      <trkpt lat="45.93323" lon="4.71556">
        <ele>184</ele>
        <time>2018-08-24T09:50:40Z</time>
      </trkpt>
      <trkpt lat="45.93326" lon="4.71564">
        <ele>185</ele>
        <time>2018-08-24T09:50:41Z</time>
      </trkpt>
      <trkpt lat="45.93329" lon="4.71571">
        <ele>185</ele>
        <time>2018-08-24T09:50:42Z</time>
      </trkpt>
      <trkpt lat="45.93332" lon="4.71579">
        <ele>185</ele>
        <time>2018-08-24T09:50:43Z</time>
      </trkpt>
      <trkpt lat="45.93335" lon="4.71587">
        <ele>185</ele>
        <time>2018-08-24T09:50:44Z</time>
      </trkpt>
      <trkpt lat="45.93339" lon="4.71596">
        <ele>185</ele>
        <time>2018-08-24T09:50:45Z</time>
      </trkpt>
      <trkpt lat="45.93343" lon="4.71604">
        <ele>185</ele>
        <time>2018-08-24T09:50:46Z</time>
      </trkpt>
      <trkpt lat="45.93346" lon="4.71611">
        <ele>185</ele>
        <time>2018-08-24T09:50:47Z</time>
      </trkpt>
      <trkpt lat="45.93354" lon="4.71622">
        <ele>185</ele>
        <time>2018-08-24T09:50:48Z</time>
      </trkpt>
      <trkpt lat="45.93358" lon="4.71631">
        <ele>185</ele>
        <time>2018-08-24T09:50:49Z</time>
      </trkpt>
      <trkpt lat="45.93359" lon="4.71638">
        <ele>185</ele>
        <time>2018-08-24T09:50:50Z</time>
      </trkpt>
      <trkpt lat="45.93363" lon="4.71644">
        <ele>185</ele>
        <time>2018-08-24T09:50:51Z</time>
      </trkpt>
      <trkpt lat="45.93367" lon="4.71651">
        <ele>185</ele>
        <time>2018-08-24T09:50:52Z</time>
      </trkpt>
      <trkpt lat="45.9337" lon="4.71659">
        <ele>185</ele>
        <time>2018-08-24T09:50:53Z</time>
      </trkpt>
      <trkpt lat="45.93374" lon="4.71668">
        <ele>185</ele>
        <time>2018-08-24T09:50:54Z</time>
      </trkpt>
      <trkpt lat="45.93378" lon="4.71677">
        <ele>185</ele>
        <time>2018-08-24T09:50:55Z</time>
      </trkpt>
      <trkpt lat="45.93383" lon="4.71684">
        <ele>185</ele>
        <time>2018-08-24T09:50:56Z</time>
      </trkpt>
      <trkpt lat="45.93386" lon="4.71694">
        <ele>184</ele>
        <time>2018-08-24T09:50:57Z</time>
      </trkpt>
      <trkpt lat="45.9339" lon="4.71705">
        <ele>184</ele>
        <time>2018-08-24T09:50:58Z</time>
      </trkpt>
      <trkpt lat="45.93393" lon="4.71714">
        <ele>184</ele>
        <time>2018-08-24T09:50:59Z</time>
      </trkpt>
      <trkpt lat="45.93398" lon="4.71725">
        <ele>184</ele>
        <time>2018-08-24T09:51:00Z</time>
      </trkpt>
      <trkpt lat="45.93399" lon="4.71735">
        <ele>184</ele>
        <time>2018-08-24T09:51:01Z</time>
      </trkpt>
      <trkpt lat="45.93404" lon="4.71742">
        <ele>184</ele>
        <time>2018-08-24T09:51:02Z</time>
      </trkpt>
      <trkpt lat="45.9341" lon="4.71749">
        <ele>183</ele>
        <time>2018-08-24T09:51:03Z</time>
      </trkpt>
      <trkpt lat="45.93414" lon="4.71759">
        <ele>183</ele>
        <time>2018-08-24T09:51:04Z</time>
      </trkpt>
      <trkpt lat="45.93417" lon="4.71769">
        <ele>182</ele>
        <time>2018-08-24T09:51:05Z</time>
      </trkpt>
      <trkpt lat="45.9342" lon="4.71777">
        <ele>182</ele>
        <time>2018-08-24T09:51:06Z</time>
      </trkpt>
      <trkpt lat="45.93426" lon="4.71787">
        <ele>182</ele>
        <time>2018-08-24T09:51:07Z</time>
      </trkpt>
      <trkpt lat="45.93429" lon="4.71796">
        <ele>182</ele>
        <time>2018-08-24T09:51:08Z</time>
      </trkpt>
      <trkpt lat="45.93434" lon="4.71806">
        <ele>182</ele>
        <time>2018-08-24T09:51:09Z</time>
      </trkpt>
      <trkpt lat="45.93439" lon="4.71816">
        <ele>182</ele>
        <time>2018-08-24T09:51:10Z</time>
      </trkpt>
      <trkpt lat="45.93443" lon="4.71824">
        <ele>182</ele>
        <time>2018-08-24T09:51:11Z</time>
      </trkpt>
      <trkpt lat="45.93449" lon="4.71833">
        <ele>181</ele>
        <time>2018-08-24T09:51:12Z</time>
      </trkpt>
      <trkpt lat="45.93454" lon="4.71841">
        <ele>181</ele>
        <time>2018-08-24T09:51:13Z</time>
      </trkpt>
      <trkpt lat="45.9346" lon="4.71849">
        <ele>181</ele>
        <time>2018-08-24T09:51:14Z</time>
      </trkpt>
      <trkpt lat="45.93468" lon="4.71855">
        <ele>180</ele>
        <time>2018-08-24T09:51:15Z</time>
      </trkpt>
      <trkpt lat="45.93476" lon="4.71854">
        <ele>180</ele>
        <time>2018-08-24T09:51:16Z</time>
      </trkpt>
      <trkpt lat="45.93484" lon="4.71853">
        <ele>180</ele>
        <time>2018-08-24T09:51:17Z</time>
      </trkpt>
      <trkpt lat="45.93491" lon="4.7185">
        <ele>180</ele>
        <time>2018-08-24T09:51:18Z</time>
      </trkpt>
      <trkpt lat="45.93498" lon="4.71849">
        <ele>180</ele>
        <time>2018-08-24T09:51:19Z</time>
      </trkpt>
      <trkpt lat="45.93506" lon="4.71848">
        <ele>179</ele>
        <time>2018-08-24T09:51:20Z</time>
      </trkpt>
      <trkpt lat="45.93517" lon="4.71845">
        <ele>179</ele>
        <time>2018-08-24T09:51:21Z</time>
      </trkpt>
      <trkpt lat="45.93524" lon="4.71845">
        <ele>179</ele>
        <time>2018-08-24T09:51:22Z</time>
      </trkpt>
      <trkpt lat="45.93531" lon="4.71845">
        <ele>179</ele>
        <time>2018-08-24T09:51:23Z</time>
      </trkpt>
      <trkpt lat="45.93538" lon="4.71843">
        <ele>179</ele>
        <time>2018-08-24T09:51:24Z</time>
      </trkpt>
      <trkpt lat="45.93546" lon="4.71841">
        <ele>179</ele>
        <time>2018-08-24T09:51:25Z</time>
      </trkpt>
      <trkpt lat="45.93553" lon="4.7184">
        <ele>179</ele>
        <time>2018-08-24T09:51:26Z</time>
      </trkpt>
      <trkpt lat="45.9356" lon="4.71836">
        <ele>179</ele>
        <time>2018-08-24T09:51:27Z</time>
      </trkpt>
      <trkpt lat="45.93567" lon="4.71836">
        <ele>179</ele>
        <time>2018-08-24T09:51:28Z</time>
      </trkpt>
      <trkpt lat="45.93573" lon="4.71837">
        <ele>180</ele>
        <time>2018-08-24T09:51:29Z</time>
      </trkpt>
      <trkpt lat="45.93581" lon="4.71838">
        <ele>180</ele>
        <time>2018-08-24T09:51:30Z</time>
      </trkpt>
      <trkpt lat="45.93586" lon="4.71837">
        <ele>180</ele>
        <time>2018-08-24T09:51:31Z</time>
      </trkpt>
      <trkpt lat="45.93593" lon="4.71833">
        <ele>180</ele>
        <time>2018-08-24T09:51:36Z</time>
      </trkpt>
      <trkpt lat="45.93595" lon="4.71833">
        <ele>180</ele>
        <time>2018-08-24T09:51:37Z</time>
      </trkpt>
      <trkpt lat="45.93602" lon="4.71828">
        <ele>179</ele>
        <time>2018-08-24T09:51:42Z</time>
      </trkpt>
      <trkpt lat="45.93603" lon="4.71827">
        <ele>179</ele>
        <time>2018-08-24T09:51:43Z</time>
      </trkpt>
      <trkpt lat="45.93611" lon="4.71823">
        <ele>179</ele>
        <time>2018-08-24T09:51:49Z</time>
      </trkpt>
      <trkpt lat="45.93613" lon="4.71822">
        <ele>179</ele>
        <time>2018-08-24T09:51:50Z</time>
      </trkpt>
      <trkpt lat="45.93617" lon="4.71817">
        <ele>179</ele>
        <time>2018-08-24T09:51:52Z</time>
      </trkpt>
      <trkpt lat="45.93626" lon="4.71809">
        <ele>179</ele>
        <time>2018-08-24T09:51:53Z</time>
      </trkpt>
      <trkpt lat="45.9363" lon="4.71807">
        <ele>179</ele>
        <time>2018-08-24T09:51:54Z</time>
      </trkpt>
      <trkpt lat="45.93635" lon="4.71805">
        <ele>179</ele>
        <time>2018-08-24T09:51:55Z</time>
      </trkpt>
      <trkpt lat="45.93641" lon="4.718">
        <ele>179</ele>
        <time>2018-08-24T09:51:56Z</time>
      </trkpt>
      <trkpt lat="45.93645" lon="4.71798">
        <ele>179</ele>
        <time>2018-08-24T09:51:57Z</time>
      </trkpt>
      <trkpt lat="45.93653" lon="4.71796">
        <ele>179</ele>
        <time>2018-08-24T09:51:59Z</time>
      </trkpt>
      <trkpt lat="45.93659" lon="4.71791">
        <ele>179</ele>
        <time>2018-08-24T09:52:00Z</time>
      </trkpt>
      <trkpt lat="45.93664" lon="4.7179">
        <ele>179</ele>
        <time>2018-08-24T09:52:01Z</time>
      </trkpt>
      <trkpt lat="45.93669" lon="4.71789">
        <ele>177</ele>
        <time>2018-08-24T09:52:02Z</time>
      </trkpt>
      <trkpt lat="45.93674" lon="4.71788">
        <ele>177</ele>
        <time>2018-08-24T09:52:03Z</time>
      </trkpt>
      <trkpt lat="45.93678" lon="4.71788">
        <ele>177</ele>
        <time>2018-08-24T09:52:04Z</time>
      </trkpt>
      <trkpt lat="45.93682" lon="4.71786">
        <ele>177</ele>
        <time>2018-08-24T09:52:05Z</time>
      </trkpt>
      <trkpt lat="45.93687" lon="4.71784">
        <ele>177</ele>
        <time>2018-08-24T09:52:06Z</time>
      </trkpt>
      <trkpt lat="45.9369" lon="4.71781">
        <ele>177</ele>
        <time>2018-08-24T09:52:07Z</time>
      </trkpt>
      <trkpt lat="45.93696" lon="4.71786">
        <ele>177</ele>
        <time>2018-08-24T09:52:08Z</time>
      </trkpt>
      <trkpt lat="45.93699" lon="4.71787">
        <ele>176</ele>
        <time>2018-08-24T09:52:09Z</time>
      </trkpt>
      <trkpt lat="45.93704" lon="4.71794">
        <ele>176</ele>
        <time>2018-08-24T09:52:10Z</time>
      </trkpt>
      <trkpt lat="45.93704" lon="4.71806">
        <ele>176</ele>
        <time>2018-08-24T09:52:12Z</time>
      </trkpt>
      <trkpt lat="45.93699" lon="4.7181">
        <ele>176</ele>
        <time>2018-08-24T09:52:13Z</time>
      </trkpt>
      <trkpt lat="45.93699" lon="4.7182">
        <ele>176</ele>
        <time>2018-08-24T09:52:14Z</time>
      </trkpt>
      <trkpt lat="45.93697" lon="4.71829">
        <ele>176</ele>
        <time>2018-08-24T09:52:15Z</time>
      </trkpt>
      <trkpt lat="45.93693" lon="4.71832">
        <ele>176</ele>
        <time>2018-08-24T09:52:16Z</time>
      </trkpt>
      <trkpt lat="45.93689" lon="4.71837">
        <ele>176</ele>
        <time>2018-08-24T09:52:17Z</time>
      </trkpt>
      <trkpt lat="45.93688" lon="4.71845">
        <ele>175</ele>
        <time>2018-08-24T09:52:18Z</time>
      </trkpt>
      <trkpt lat="45.93686" lon="4.71852">
        <ele>175</ele>
        <time>2018-08-24T09:52:19Z</time>
      </trkpt>
      <trkpt lat="45.93682" lon="4.71864">
        <ele>175</ele>
        <time>2018-08-24T09:52:22Z</time>
      </trkpt>
      <trkpt lat="45.93681" lon="4.71867">
        <ele>175</ele>
        <time>2018-08-24T09:52:23Z</time>
      </trkpt>
      <trkpt lat="45.93678" lon="4.71875">
        <ele>175</ele>
        <time>2018-08-24T09:52:26Z</time>
      </trkpt>
      <trkpt lat="45.93677" lon="4.71879">
        <ele>175</ele>
        <time>2018-08-24T09:52:27Z</time>
      </trkpt>
      <trkpt lat="45.93674" lon="4.71886">
        <ele>175</ele>
        <time>2018-08-24T09:52:29Z</time>
      </trkpt>
      <trkpt lat="45.93673" lon="4.71891">
        <ele>175</ele>
        <time>2018-08-24T09:52:30Z</time>
      </trkpt>
      <trkpt lat="45.93671" lon="4.71899">
        <ele>175</ele>
        <time>2018-08-24T09:52:32Z</time>
      </trkpt>
      <trkpt lat="45.93669" lon="4.71903">
        <ele>175</ele>
        <time>2018-08-24T09:52:33Z</time>
      </trkpt>
      <trkpt lat="45.93667" lon="4.71912">
        <ele>175</ele>
        <time>2018-08-24T09:52:35Z</time>
      </trkpt>
      <trkpt lat="45.93666" lon="4.71916">
        <ele>175</ele>
        <time>2018-08-24T09:52:36Z</time>
      </trkpt>
      <trkpt lat="45.9366" lon="4.7193">
        <ele>175</ele>
        <time>2018-08-24T09:52:37Z</time>
      </trkpt>
      <trkpt lat="45.93657" lon="4.71934">
        <ele>175</ele>
        <time>2018-08-24T09:52:38Z</time>
      </trkpt>
      <trkpt lat="45.93651" lon="4.71938">
        <ele>175</ele>
        <time>2018-08-24T09:52:39Z</time>
      </trkpt>
      <trkpt lat="45.93648" lon="4.71947">
        <ele>175</ele>
        <time>2018-08-24T09:52:40Z</time>
      </trkpt>
      <trkpt lat="45.93645" lon="4.71955">
        <ele>175</ele>
        <time>2018-08-24T09:52:41Z</time>
      </trkpt>
      <trkpt lat="45.93642" lon="4.71962">
        <ele>175</ele>
        <time>2018-08-24T09:52:42Z</time>
      </trkpt>
      <trkpt lat="45.9364" lon="4.71969">
        <ele>175</ele>
        <time>2018-08-24T09:52:43Z</time>
      </trkpt>
      <trkpt lat="45.93636" lon="4.71976">
        <ele>175</ele>
        <time>2018-08-24T09:52:44Z</time>
      </trkpt>
      <trkpt lat="45.93635" lon="4.71985">
        <ele>175</ele>
        <time>2018-08-24T09:52:45Z</time>
      </trkpt>
      <trkpt lat="45.93633" lon="4.71996">
        <ele>175</ele>
        <time>2018-08-24T09:52:46Z</time>
      </trkpt>
      <trkpt lat="45.93631" lon="4.72006">
        <ele>174</ele>
        <time>2018-08-24T09:52:47Z</time>
      </trkpt>
      <trkpt lat="45.93627" lon="4.72013">
        <ele>175</ele>
        <time>2018-08-24T09:52:48Z</time>
      </trkpt>
      <trkpt lat="45.93625" lon="4.72024">
        <ele>175</ele>
        <time>2018-08-24T09:52:49Z</time>
      </trkpt>
      <trkpt lat="45.93621" lon="4.72031">
        <ele>175</ele>
        <time>2018-08-24T09:52:50Z</time>
      </trkpt>
      <trkpt lat="45.93618" lon="4.72039">
        <ele>175</ele>
        <time>2018-08-24T09:52:51Z</time>
      </trkpt>
      <trkpt lat="45.93615" lon="4.72047">
        <ele>175</ele>
        <time>2018-08-24T09:52:52Z</time>
      </trkpt>
      <trkpt lat="45.93611" lon="4.72053">
        <ele>175</ele>
        <time>2018-08-24T09:52:53Z</time>
      </trkpt>
      <trkpt lat="45.93607" lon="4.72059">
        <ele>175</ele>
        <time>2018-08-24T09:52:54Z</time>
      </trkpt>
      <trkpt lat="45.93603" lon="4.72066">
        <ele>175</ele>
        <time>2018-08-24T09:52:55Z</time>
      </trkpt>
      <trkpt lat="45.93598" lon="4.72075">
        <ele>175</ele>
        <time>2018-08-24T09:52:56Z</time>
      </trkpt>
      <trkpt lat="45.93598" lon="4.72086">
        <ele>175</ele>
        <time>2018-08-24T09:52:57Z</time>
      </trkpt>
      <trkpt lat="45.93597" lon="4.72095">
        <ele>175</ele>
        <time>2018-08-24T09:52:58Z</time>
      </trkpt>
      <trkpt lat="45.93594" lon="4.72101">
        <ele>174</ele>
        <time>2018-08-24T09:52:59Z</time>
      </trkpt>
      <trkpt lat="45.93593" lon="4.7211">
        <ele>174</ele>
        <time>2018-08-24T09:53:00Z</time>
      </trkpt>
      <trkpt lat="45.93588" lon="4.72113">
        <ele>174</ele>
        <time>2018-08-24T09:53:01Z</time>
      </trkpt>
      <trkpt lat="45.93583" lon="4.72119">
        <ele>175</ele>
        <time>2018-08-24T09:53:02Z</time>
      </trkpt>
      <trkpt lat="45.93578" lon="4.72121">
        <ele>175</ele>
        <time>2018-08-24T09:53:03Z</time>
      </trkpt>
      <trkpt lat="45.93573" lon="4.72128">
        <ele>174</ele>
        <time>2018-08-24T09:53:05Z</time>
      </trkpt>
      <trkpt lat="45.93572" lon="4.72139">
        <ele>174</ele>
        <time>2018-08-24T09:53:06Z</time>
      </trkpt>
      <trkpt lat="45.93568" lon="4.72145">
        <ele>174</ele>
        <time>2018-08-24T09:53:07Z</time>
      </trkpt>
      <trkpt lat="45.93565" lon="4.72153">
        <ele>174</ele>
        <time>2018-08-24T09:53:08Z</time>
      </trkpt>
      <trkpt lat="45.93563" lon="4.7216">
        <ele>174</ele>
        <time>2018-08-24T09:53:09Z</time>
      </trkpt>
      <trkpt lat="45.93558" lon="4.72166">
        <ele>174</ele>
        <time>2018-08-24T09:53:10Z</time>
      </trkpt>
      <trkpt lat="45.93555" lon="4.72175">
        <ele>173</ele>
        <time>2018-08-24T09:53:11Z</time>
      </trkpt>
      <trkpt lat="45.93554" lon="4.72185">
        <ele>173</ele>
        <time>2018-08-24T09:53:12Z</time>
      </trkpt>
      <trkpt lat="45.93553" lon="4.72194">
        <ele>173</ele>
        <time>2018-08-24T09:53:13Z</time>
      </trkpt>
      <trkpt lat="45.9355" lon="4.72203">
        <ele>173</ele>
        <time>2018-08-24T09:53:14Z</time>
      </trkpt>
      <trkpt lat="45.93546" lon="4.72209">
        <ele>173</ele>
        <time>2018-08-24T09:53:15Z</time>
      </trkpt>
      <trkpt lat="45.93542" lon="4.72216">
        <ele>172</ele>
        <time>2018-08-24T09:53:16Z</time>
      </trkpt>
      <trkpt lat="45.93538" lon="4.72223">
        <ele>172</ele>
        <time>2018-08-24T09:53:17Z</time>
      </trkpt>
      <trkpt lat="45.93536" lon="4.72231">
        <ele>172</ele>
        <time>2018-08-24T09:53:18Z</time>
      </trkpt>
      <trkpt lat="45.93532" lon="4.72239">
        <ele>172</ele>
        <time>2018-08-24T09:53:19Z</time>
      </trkpt>
      <trkpt lat="45.93529" lon="4.72246">
        <ele>172</ele>
        <time>2018-08-24T09:53:20Z</time>
      </trkpt>
      <trkpt lat="45.93526" lon="4.72253">
        <ele>172</ele>
        <time>2018-08-24T09:53:21Z</time>
      </trkpt>
      <trkpt lat="45.93523" lon="4.7226">
        <ele>172</ele>
        <time>2018-08-24T09:53:22Z</time>
      </trkpt>
      <trkpt lat="45.9352" lon="4.72266">
        <ele>172</ele>
        <time>2018-08-24T09:53:23Z</time>
      </trkpt>
      <trkpt lat="45.93516" lon="4.72271">
        <ele>172</ele>
        <time>2018-08-24T09:53:24Z</time>
      </trkpt>
      <trkpt lat="45.93513" lon="4.72278">
        <ele>172</ele>
        <time>2018-08-24T09:53:25Z</time>
      </trkpt>
      <trkpt lat="45.93511" lon="4.72285">
        <ele>172</ele>
        <time>2018-08-24T09:53:26Z</time>
      </trkpt>
      <trkpt lat="45.93505" lon="4.72288">
        <ele>172</ele>
        <time>2018-08-24T09:53:27Z</time>
      </trkpt>
      <trkpt lat="45.93501" lon="4.72293">
        <ele>172</ele>
        <time>2018-08-24T09:53:28Z</time>
      </trkpt>
      <trkpt lat="45.93496" lon="4.72298">
        <ele>172</ele>
        <time>2018-08-24T09:53:29Z</time>
      </trkpt>
      <trkpt lat="45.93493" lon="4.72307">
        <ele>173</ele>
        <time>2018-08-24T09:53:30Z</time>
      </trkpt>
      <trkpt lat="45.93488" lon="4.72313">
        <ele>173</ele>
        <time>2018-08-24T09:53:31Z</time>
      </trkpt>
      <trkpt lat="45.93484" lon="4.7232">
        <ele>173</ele>
        <time>2018-08-24T09:53:32Z</time>
      </trkpt>
      <trkpt lat="45.93482" lon="4.72331">
        <ele>173</ele>
        <time>2018-08-24T09:53:33Z</time>
      </trkpt>
      <trkpt lat="45.93478" lon="4.72338">
        <ele>173</ele>
        <time>2018-08-24T09:53:34Z</time>
      </trkpt>
      <trkpt lat="45.93473" lon="4.72345">
        <ele>173</ele>
        <time>2018-08-24T09:53:35Z</time>
      </trkpt>
      <trkpt lat="45.93469" lon="4.72351">
        <ele>173</ele>
        <time>2018-08-24T09:53:36Z</time>
      </trkpt>
      <trkpt lat="45.93464" lon="4.72356">
        <ele>173</ele>
        <time>2018-08-24T09:53:37Z</time>
      </trkpt>
      <trkpt lat="45.9346" lon="4.72363">
        <ele>173</ele>
        <time>2018-08-24T09:53:38Z</time>
      </trkpt>
      <trkpt lat="45.93456" lon="4.72369">
        <ele>173</ele>
        <time>2018-08-24T09:53:39Z</time>
      </trkpt>
      <trkpt lat="45.93451" lon="4.72374">
        <ele>173</ele>
        <time>2018-08-24T09:53:40Z</time>
      </trkpt>
      <trkpt lat="45.93445" lon="4.72377">
        <ele>173</ele>
        <time>2018-08-24T09:53:41Z</time>
      </trkpt>
      <trkpt lat="45.93439" lon="4.72381">
        <ele>173</ele>
        <time>2018-08-24T09:53:42Z</time>
      </trkpt>
      <trkpt lat="45.93434" lon="4.72387">
        <ele>173</ele>
        <time>2018-08-24T09:53:43Z</time>
      </trkpt>
      <trkpt lat="45.93429" lon="4.72396">
        <ele>174</ele>
        <time>2018-08-24T09:53:44Z</time>
      </trkpt>
      <trkpt lat="45.93424" lon="4.72402">
        <ele>174</ele>
        <time>2018-08-24T09:53:45Z</time>
      </trkpt>
      <trkpt lat="45.93418" lon="4.72403">
        <ele>174</ele>
        <time>2018-08-24T09:53:46Z</time>
      </trkpt>
      <trkpt lat="45.93414" lon="4.72406">
        <ele>174</ele>
        <time>2018-08-24T09:53:47Z</time>
      </trkpt>
      <trkpt lat="45.93408" lon="4.72407">
        <ele>174</ele>
        <time>2018-08-24T09:53:48Z</time>
      </trkpt>
      <trkpt lat="45.93404" lon="4.7241">
        <ele>174</ele>
        <time>2018-08-24T09:53:49Z</time>
      </trkpt>
      <trkpt lat="45.93397" lon="4.72409">
        <ele>174</ele>
        <time>2018-08-24T09:53:50Z</time>
      </trkpt>
      <trkpt lat="45.93392" lon="4.72408">
        <ele>174</ele>
        <time>2018-08-24T09:53:51Z</time>
      </trkpt>
      <trkpt lat="45.93386" lon="4.72407">
        <ele>174</ele>
        <time>2018-08-24T09:53:52Z</time>
      </trkpt>
      <trkpt lat="45.93381" lon="4.72412">
        <ele>174</ele>
        <time>2018-08-24T09:53:53Z</time>
      </trkpt>
      <trkpt lat="45.93377" lon="4.72415">
        <ele>174</ele>
        <time>2018-08-24T09:53:54Z</time>
      </trkpt>
      <trkpt lat="45.93377" lon="4.72423">
        <ele>173</ele>
        <time>2018-08-24T09:53:55Z</time>
      </trkpt>
      <trkpt lat="45.9338" lon="4.72429">
        <ele>173</ele>
        <time>2018-08-24T09:53:56Z</time>
      </trkpt>
      <trkpt lat="45.93382" lon="4.72436">
        <ele>173</ele>
        <time>2018-08-24T09:53:57Z</time>
      </trkpt>
      <trkpt lat="45.93384" lon="4.72442">
        <ele>173</ele>
        <time>2018-08-24T09:53:58Z</time>
      </trkpt>
      <trkpt lat="45.93386" lon="4.72453">
        <ele>173</ele>
        <time>2018-08-24T09:54:00Z</time>
      </trkpt>
      <trkpt lat="45.93385" lon="4.72461">
        <ele>173</ele>
        <time>2018-08-24T09:54:01Z</time>
      </trkpt>
      <trkpt lat="45.93383" lon="4.72469">
        <ele>173</ele>
        <time>2018-08-24T09:54:02Z</time>
      </trkpt>
      <trkpt lat="45.93379" lon="4.72474">
        <ele>173</ele>
        <time>2018-08-24T09:54:03Z</time>
      </trkpt>
      <trkpt lat="45.93376" lon="4.72479">
        <ele>173</ele>
        <time>2018-08-24T09:54:04Z</time>
      </trkpt>
      <trkpt lat="45.9337" lon="4.72483">
        <ele>173</ele>
        <time>2018-08-24T09:54:05Z</time>
      </trkpt>
      <trkpt lat="45.93365" lon="4.72488">
        <ele>173</ele>
        <time>2018-08-24T09:54:06Z</time>
      </trkpt>
      <trkpt lat="45.9336" lon="4.72493">
        <ele>173</ele>
        <time>2018-08-24T09:54:07Z</time>
      </trkpt>
      <trkpt lat="45.93355" lon="4.72498">
        <ele>173</ele>
        <time>2018-08-24T09:54:08Z</time>
      </trkpt>
      <trkpt lat="45.93352" lon="4.72504">
        <ele>172</ele>
        <time>2018-08-24T09:54:09Z</time>
      </trkpt>
      <trkpt lat="45.93348" lon="4.72509">
        <ele>172</ele>
        <time>2018-08-24T09:54:10Z</time>
      </trkpt>
      <trkpt lat="45.93342" lon="4.72513">
        <ele>172</ele>
        <time>2018-08-24T09:54:11Z</time>
      </trkpt>
      <trkpt lat="45.93338" lon="4.72517">
        <ele>172</ele>
        <time>2018-08-24T09:54:12Z</time>
      </trkpt>
      <trkpt lat="45.93334" lon="4.72522">
        <ele>172</ele>
        <time>2018-08-24T09:54:13Z</time>
      </trkpt>
      <trkpt lat="45.93331" lon="4.7253">
        <ele>172</ele>
        <time>2018-08-24T09:54:14Z</time>
      </trkpt>
      <trkpt lat="45.93326" lon="4.72535">
        <ele>172</ele>
        <time>2018-08-24T09:54:15Z</time>
      </trkpt>
      <trkpt lat="45.93319" lon="4.72534">
        <ele>172</ele>
        <time>2018-08-24T09:54:16Z</time>
      </trkpt>
      <trkpt lat="45.93315" lon="4.72541">
        <ele>172</ele>
        <time>2018-08-24T09:54:17Z</time>
      </trkpt>
      <trkpt lat="45.9331" lon="4.72547">
        <ele>172</ele>
        <time>2018-08-24T09:54:18Z</time>
      </trkpt>
      <trkpt lat="45.93302" lon="4.72549">
        <ele>172</ele>
        <time>2018-08-24T09:54:19Z</time>
      </trkpt>
      <trkpt lat="45.93298" lon="4.72553">
        <ele>172</ele>
        <time>2018-08-24T09:54:20Z</time>
      </trkpt>
      <trkpt lat="45.93294" lon="4.72563">
        <ele>172</ele>
        <time>2018-08-24T09:54:21Z</time>
      </trkpt>
      <trkpt lat="45.9329" lon="4.72567">
        <ele>172</ele>
        <time>2018-08-24T09:54:22Z</time>
      </trkpt>
      <trkpt lat="45.93286" lon="4.72576">
        <ele>172</ele>
        <time>2018-08-24T09:54:23Z</time>
      </trkpt>
      <trkpt lat="45.93282" lon="4.72579">
        <ele>172</ele>
        <time>2018-08-24T09:54:24Z</time>
      </trkpt>
      <trkpt lat="45.93279" lon="4.72584">
        <ele>170</ele>
        <time>2018-08-24T09:54:25Z</time>
      </trkpt>
      <trkpt lat="45.93275" lon="4.7259">
        <ele>170</ele>
        <time>2018-08-24T09:54:26Z</time>
      </trkpt>
      <trkpt lat="45.93271" lon="4.72595">
        <ele>170</ele>
        <time>2018-08-24T09:54:27Z</time>
      </trkpt>
      <trkpt lat="45.93266" lon="4.72599">
        <ele>170</ele>
        <time>2018-08-24T09:54:28Z</time>
      </trkpt>
      <trkpt lat="45.93261" lon="4.72603">
        <ele>170</ele>
        <time>2018-08-24T09:54:29Z</time>
      </trkpt>
      <trkpt lat="45.93257" lon="4.72607">
        <ele>170</ele>
        <time>2018-08-24T09:54:30Z</time>
      </trkpt>
      <trkpt lat="45.93252" lon="4.72612">
        <ele>170</ele>
        <time>2018-08-24T09:54:31Z</time>
      </trkpt>
      <trkpt lat="45.93249" lon="4.72622">
        <ele>170</ele>
        <time>2018-08-24T09:54:32Z</time>
      </trkpt>
      <trkpt lat="45.93242" lon="4.72622">
        <ele>170</ele>
        <time>2018-08-24T09:54:33Z</time>
      </trkpt>
      <trkpt lat="45.93237" lon="4.7263">
        <ele>170</ele>
        <time>2018-08-24T09:54:34Z</time>
      </trkpt>
      <trkpt lat="45.93232" lon="4.72636">
        <ele>170</ele>
        <time>2018-08-24T09:54:35Z</time>
      </trkpt>
      <trkpt lat="45.93228" lon="4.72641">
        <ele>170</ele>
        <time>2018-08-24T09:54:36Z</time>
      </trkpt>
      <trkpt lat="45.93224" lon="4.72646">
        <ele>170</ele>
        <time>2018-08-24T09:54:37Z</time>
      </trkpt>
      <trkpt lat="45.93221" lon="4.72655">
        <ele>170</ele>
        <time>2018-08-24T09:54:38Z</time>
      </trkpt>
      <trkpt lat="45.93218" lon="4.72661">
        <ele>170</ele>
        <time>2018-08-24T09:54:39Z</time>
      </trkpt>
      <trkpt lat="45.93213" lon="4.72665">
        <ele>170</ele>
        <time>2018-08-24T09:54:40Z</time>
      </trkpt>
      <trkpt lat="45.93208" lon="4.7267">
        <ele>169</ele>
        <time>2018-08-24T09:54:41Z</time>
      </trkpt>
      <trkpt lat="45.93204" lon="4.72674">
        <ele>169</ele>
        <time>2018-08-24T09:54:42Z</time>
      </trkpt>
      <trkpt lat="45.93198" lon="4.72676">
        <ele>169</ele>
        <time>2018-08-24T09:54:43Z</time>
      </trkpt>
      <trkpt lat="45.93195" lon="4.72685">
        <ele>169</ele>
        <time>2018-08-24T09:54:44Z</time>
      </trkpt>
      <trkpt lat="45.93191" lon="4.72691">
        <ele>169</ele>
        <time>2018-08-24T09:54:45Z</time>
      </trkpt>
      <trkpt lat="45.93186" lon="4.72697">
        <ele>169</ele>
        <time>2018-08-24T09:54:46Z</time>
      </trkpt>
      <trkpt lat="45.93181" lon="4.72702">
        <ele>169</ele>
        <time>2018-08-24T09:54:47Z</time>
      </trkpt>
      <trkpt lat="45.93177" lon="4.72711">
        <ele>169</ele>
        <time>2018-08-24T09:54:48Z</time>
      </trkpt>
      <trkpt lat="45.93172" lon="4.72717">
        <ele>170</ele>
        <time>2018-08-24T09:54:49Z</time>
      </trkpt>
      <trkpt lat="45.93168" lon="4.72722">
        <ele>170</ele>
        <time>2018-08-24T09:54:50Z</time>
      </trkpt>
      <trkpt lat="45.93164" lon="4.72728">
        <ele>170</ele>
        <time>2018-08-24T09:54:51Z</time>
      </trkpt>
      <trkpt lat="45.93159" lon="4.72733">
        <ele>170</ele>
        <time>2018-08-24T09:54:52Z</time>
      </trkpt>
      <trkpt lat="45.93153" lon="4.72736">
        <ele>170</ele>
        <time>2018-08-24T09:54:53Z</time>
      </trkpt>
      <trkpt lat="45.93148" lon="4.72741">
        <ele>170</ele>
        <time>2018-08-24T09:54:54Z</time>
      </trkpt>
      <trkpt lat="45.93144" lon="4.72746">
        <ele>170</ele>
        <time>2018-08-24T09:54:55Z</time>
      </trkpt>
      <trkpt lat="45.93137" lon="4.72746">
        <ele>170</ele>
        <time>2018-08-24T09:54:56Z</time>
      </trkpt>
      <trkpt lat="45.93134" lon="4.72755">
        <ele>171</ele>
        <time>2018-08-24T09:54:57Z</time>
      </trkpt>
      <trkpt lat="45.9313" lon="4.72761">
        <ele>171</ele>
        <time>2018-08-24T09:54:58Z</time>
      </trkpt>
      <trkpt lat="45.93124" lon="4.72767">
        <ele>171</ele>
        <time>2018-08-24T09:54:59Z</time>
      </trkpt>
      <trkpt lat="45.93119" lon="4.72771">
        <ele>171</ele>
        <time>2018-08-24T09:55:00Z</time>
      </trkpt>
      <trkpt lat="45.93115" lon="4.72776">
        <ele>171</ele>
        <time>2018-08-24T09:55:01Z</time>
      </trkpt>
      <trkpt lat="45.9311" lon="4.72784">
        <ele>171</ele>
        <time>2018-08-24T09:55:02Z</time>
      </trkpt>
      <trkpt lat="45.93107" lon="4.72788">
        <ele>171</ele>
        <time>2018-08-24T09:55:03Z</time>
      </trkpt>
      <trkpt lat="45.93103" lon="4.72793">
        <ele>171</ele>
        <time>2018-08-24T09:55:04Z</time>
      </trkpt>
      <trkpt lat="45.93097" lon="4.72797">
        <ele>171</ele>
        <time>2018-08-24T09:55:05Z</time>
      </trkpt>
      <trkpt lat="45.93091" lon="4.72799">
        <ele>171</ele>
        <time>2018-08-24T09:55:06Z</time>
      </trkpt>
      <trkpt lat="45.93086" lon="4.72803">
        <ele>171</ele>
        <time>2018-08-24T09:55:07Z</time>
      </trkpt>
      <trkpt lat="45.93033" lon="4.72865">
        <ele>172</ele>
        <time>2018-08-24T09:55:17Z</time>
      </trkpt>
      <trkpt lat="45.93029" lon="4.72875">
        <ele>172</ele>
        <time>2018-08-24T09:55:18Z</time>
      </trkpt>
      <trkpt lat="45.93029" lon="4.7288">
        <ele>172</ele>
        <time>2018-08-24T09:55:19Z</time>
      </trkpt>
      <trkpt lat="45.93023" lon="4.72883">
        <ele>172</ele>
        <time>2018-08-24T09:55:20Z</time>
      </trkpt>
      <trkpt lat="45.93019" lon="4.72891">
        <ele>172</ele>
        <time>2018-08-24T09:55:21Z</time>
      </trkpt>
      <trkpt lat="45.93017" lon="4.72896">
        <ele>172</ele>
        <time>2018-08-24T09:55:22Z</time>
      </trkpt>
      <trkpt lat="45.93013" lon="4.72902">
        <ele>172</ele>
        <time>2018-08-24T09:55:23Z</time>
      </trkpt>
      <trkpt lat="45.93009" lon="4.72906">
        <ele>171</ele>
        <time>2018-08-24T09:55:24Z</time>
      </trkpt>
      <trkpt lat="45.93005" lon="4.72912">
        <ele>171</ele>
        <time>2018-08-24T09:55:25Z</time>
      </trkpt>
      <trkpt lat="45.93001" lon="4.72915">
        <ele>171</ele>
        <time>2018-08-24T09:55:26Z</time>
      </trkpt>
      <trkpt lat="45.92997" lon="4.7292">
        <ele>171</ele>
        <time>2018-08-24T09:55:27Z</time>
      </trkpt>
      <trkpt lat="45.92993" lon="4.72925">
        <ele>171</ele>
        <time>2018-08-24T09:55:28Z</time>
      </trkpt>
      <trkpt lat="45.92991" lon="4.72932">
        <ele>171</ele>
        <time>2018-08-24T09:55:29Z</time>
      </trkpt>
      <trkpt lat="45.92985" lon="4.72933">
        <ele>171</ele>
        <time>2018-08-24T09:55:30Z</time>
      </trkpt>
      <trkpt lat="45.92979" lon="4.72934">
        <ele>171</ele>
        <time>2018-08-24T09:55:31Z</time>
      </trkpt>
      <trkpt lat="45.92977" lon="4.72942">
        <ele>171</ele>
        <time>2018-08-24T09:55:32Z</time>
      </trkpt>
      <trkpt lat="45.92974" lon="4.72949">
        <ele>171</ele>
        <time>2018-08-24T09:55:33Z</time>
      </trkpt>
      <trkpt lat="45.92972" lon="4.72958">
        <ele>171</ele>
        <time>2018-08-24T09:55:34Z</time>
      </trkpt>
      <trkpt lat="45.92967" lon="4.72961">
        <ele>171</ele>
        <time>2018-08-24T09:55:35Z</time>
      </trkpt>
      <trkpt lat="45.92964" lon="4.72966">
        <ele>171</ele>
        <time>2018-08-24T09:55:36Z</time>
      </trkpt>
      <trkpt lat="45.92957" lon="4.7297">
        <ele>171</ele>
        <time>2018-08-24T09:55:37Z</time>
      </trkpt>
      <trkpt lat="45.92952" lon="4.72975">
        <ele>171</ele>
        <time>2018-08-24T09:55:38Z</time>
      </trkpt>
      <trkpt lat="45.92948" lon="4.72979">
        <ele>171</ele>
        <time>2018-08-24T09:55:39Z</time>
      </trkpt>
      <trkpt lat="45.92944" lon="4.72986">
        <ele>171</ele>
        <time>2018-08-24T09:55:40Z</time>
      </trkpt>
      <trkpt lat="45.9294" lon="4.72991">
        <ele>171</ele>
        <time>2018-08-24T09:55:41Z</time>
      </trkpt>
      <trkpt lat="45.92935" lon="4.72992">
        <ele>172</ele>
        <time>2018-08-24T09:55:42Z</time>
      </trkpt>
      <trkpt lat="45.92931" lon="4.72999">
        <ele>172</ele>
        <time>2018-08-24T09:55:43Z</time>
      </trkpt>
      <trkpt lat="45.92927" lon="4.73004">
        <ele>172</ele>
        <time>2018-08-24T09:55:44Z</time>
      </trkpt>
      <trkpt lat="45.92923" lon="4.73008">
        <ele>172</ele>
        <time>2018-08-24T09:55:45Z</time>
      </trkpt>
      <trkpt lat="45.9292" lon="4.73014">
        <ele>172</ele>
        <time>2018-08-24T09:55:46Z</time>
      </trkpt>
      <trkpt lat="45.92916" lon="4.73018">
        <ele>172</ele>
        <time>2018-08-24T09:55:47Z</time>
      </trkpt>
      <trkpt lat="45.92911" lon="4.73024">
        <ele>172</ele>
        <time>2018-08-24T09:55:48Z</time>
      </trkpt>
      <trkpt lat="45.92907" lon="4.73028">
        <ele>172</ele>
        <time>2018-08-24T09:55:49Z</time>
      </trkpt>
      <trkpt lat="45.92903" lon="4.73033">
        <ele>172</ele>
        <time>2018-08-24T09:55:50Z</time>
      </trkpt>
      <trkpt lat="45.929" lon="4.7304">
        <ele>172</ele>
        <time>2018-08-24T09:55:51Z</time>
      </trkpt>
      <trkpt lat="45.92896" lon="4.73045">
        <ele>172</ele>
        <time>2018-08-24T09:55:52Z</time>
      </trkpt>
      <trkpt lat="45.92892" lon="4.73051">
        <ele>172</ele>
        <time>2018-08-24T09:55:53Z</time>
      </trkpt>
      <trkpt lat="45.92889" lon="4.73055">
        <ele>172</ele>
        <time>2018-08-24T09:55:54Z</time>
      </trkpt>
      <trkpt lat="45.92885" lon="4.7306">
        <ele>172</ele>
        <time>2018-08-24T09:55:55Z</time>
      </trkpt>
      <trkpt lat="45.92881" lon="4.73063">
        <ele>172</ele>
        <time>2018-08-24T09:55:56Z</time>
      </trkpt>
      <trkpt lat="45.92878" lon="4.73067">
        <ele>172</ele>
        <time>2018-08-24T09:55:57Z</time>
      </trkpt>
      <trkpt lat="45.92875" lon="4.73073">
        <ele>172</ele>
        <time>2018-08-24T09:55:58Z</time>
      </trkpt>
      <trkpt lat="45.9287" lon="4.73076">
        <ele>172</ele>
        <time>2018-08-24T09:55:59Z</time>
      </trkpt>
      <trkpt lat="45.92866" lon="4.7308">
        <ele>172</ele>
        <time>2018-08-24T09:56:00Z</time>
      </trkpt>
      <trkpt lat="45.92863" lon="4.73085">
        <ele>171</ele>
        <time>2018-08-24T09:56:01Z</time>
      </trkpt>
      <trkpt lat="45.92856" lon="4.73094">
        <ele>171</ele>
        <time>2018-08-24T09:56:03Z</time>
      </trkpt>
      <trkpt lat="45.92853" lon="4.73097">
        <ele>171</ele>
        <time>2018-08-24T09:56:04Z</time>
      </trkpt>
      <trkpt lat="45.92848" lon="4.73097">
        <ele>171</ele>
        <time>2018-08-24T09:56:06Z</time>
      </trkpt>
      <trkpt lat="45.92845" lon="4.7309">
        <ele>171</ele>
        <time>2018-08-24T09:56:07Z</time>
      </trkpt>
      <trkpt lat="45.92844" lon="4.73079">
        <ele>171</ele>
        <time>2018-08-24T09:56:09Z</time>
      </trkpt>
      <trkpt lat="45.92842" lon="4.73075">
        <ele>171</ele>
        <time>2018-08-24T09:56:10Z</time>
      </trkpt>
      <trkpt lat="45.92842" lon="4.73068">
        <ele>171</ele>
        <time>2018-08-24T09:56:11Z</time>
      </trkpt>
      <trkpt lat="45.9284" lon="4.73061">
        <ele>171</ele>
        <time>2018-08-24T09:56:12Z</time>
      </trkpt>
      <trkpt lat="45.9284" lon="4.73054">
        <ele>171</ele>
        <time>2018-08-24T09:56:13Z</time>
      </trkpt>
      <trkpt lat="45.92838" lon="4.73046">
        <ele>171</ele>
        <time>2018-08-24T09:56:14Z</time>
      </trkpt>
      <trkpt lat="45.92837" lon="4.73039">
        <ele>171</ele>
        <time>2018-08-24T09:56:15Z</time>
      </trkpt>
      <trkpt lat="45.92836" lon="4.7303">
        <ele>171</ele>
        <time>2018-08-24T09:56:16Z</time>
      </trkpt>
      <trkpt lat="45.92834" lon="4.73023">
        <ele>171</ele>
        <time>2018-08-24T09:56:17Z</time>
      </trkpt>
      <trkpt lat="45.92834" lon="4.73016">
        <ele>171</ele>
        <time>2018-08-24T09:56:18Z</time>
      </trkpt>
      <trkpt lat="45.92833" lon="4.73009">
        <ele>170</ele>
        <time>2018-08-24T09:56:19Z</time>
      </trkpt>
      <trkpt lat="45.92833" lon="4.73003">
        <ele>170</ele>
        <time>2018-08-24T09:56:20Z</time>
      </trkpt>
      <trkpt lat="45.92832" lon="4.72993">
        <ele>170</ele>
        <time>2018-08-24T09:56:21Z</time>
      </trkpt>
      <trkpt lat="45.92831" lon="4.72987">
        <ele>170</ele>
        <time>2018-08-24T09:56:22Z</time>
      </trkpt>
      <trkpt lat="45.92833" lon="4.72976">
        <ele>170</ele>
        <time>2018-08-24T09:56:25Z</time>
      </trkpt>
      <trkpt lat="45.92833" lon="4.72969">
        <ele>170</ele>
        <time>2018-08-24T09:56:26Z</time>
      </trkpt>
      <trkpt lat="45.92833" lon="4.72962">
        <ele>170</ele>
        <time>2018-08-24T09:56:27Z</time>
      </trkpt>
      <trkpt lat="45.92833" lon="4.72955">
        <ele>170</ele>
        <time>2018-08-24T09:56:28Z</time>
      </trkpt>
      <trkpt lat="45.92831" lon="4.72949">
        <ele>170</ele>
        <time>2018-08-24T09:56:29Z</time>
      </trkpt>
      <trkpt lat="45.9283" lon="4.72942">
        <ele>170</ele>
        <time>2018-08-24T09:56:30Z</time>
      </trkpt>
      <trkpt lat="45.9283" lon="4.72936">
        <ele>170</ele>
        <time>2018-08-24T09:56:31Z</time>
      </trkpt>
      <trkpt lat="45.9283" lon="4.72928">
        <ele>170</ele>
        <time>2018-08-24T09:56:32Z</time>
      </trkpt>
      <trkpt lat="45.9283" lon="4.72916">
        <ele>170</ele>
        <time>2018-08-24T09:56:34Z</time>
      </trkpt>
      <trkpt lat="45.92829" lon="4.72909">
        <ele>170</ele>
        <time>2018-08-24T09:56:35Z</time>
      </trkpt>
      <trkpt lat="45.92827" lon="4.72903">
        <ele>170</ele>
        <time>2018-08-24T09:56:36Z</time>
      </trkpt>
      <trkpt lat="45.92825" lon="4.72897">
        <ele>170</ele>
        <time>2018-08-24T09:56:37Z</time>
      </trkpt>
      <trkpt lat="45.92824" lon="4.7289">
        <ele>170</ele>
        <time>2018-08-24T09:56:38Z</time>
      </trkpt>
      <trkpt lat="45.92822" lon="4.72882">
        <ele>170</ele>
        <time>2018-08-24T09:56:39Z</time>
      </trkpt>
      <trkpt lat="45.92819" lon="4.7287">
        <ele>170</ele>
        <time>2018-08-24T09:56:41Z</time>
      </trkpt>
      <trkpt lat="45.92818" lon="4.72864">
        <ele>170</ele>
        <time>2018-08-24T09:56:42Z</time>
      </trkpt>
      <trkpt lat="45.92817" lon="4.72857">
        <ele>170</ele>
        <time>2018-08-24T09:56:43Z</time>
      </trkpt>
      <trkpt lat="45.92814" lon="4.7285">
        <ele>170</ele>
        <time>2018-08-24T09:56:44Z</time>
      </trkpt>
      <trkpt lat="45.92813" lon="4.72843">
        <ele>170</ele>
        <time>2018-08-24T09:56:45Z</time>
      </trkpt>
      <trkpt lat="45.92812" lon="4.72835">
        <ele>170</ele>
        <time>2018-08-24T09:56:46Z</time>
      </trkpt>
      <trkpt lat="45.9281" lon="4.72828">
        <ele>171</ele>
        <time>2018-08-24T09:56:47Z</time>
      </trkpt>
      <trkpt lat="45.92809" lon="4.72821">
        <ele>171</ele>
        <time>2018-08-24T09:56:48Z</time>
      </trkpt>
      <trkpt lat="45.92808" lon="4.72813">
        <ele>171</ele>
        <time>2018-08-24T09:56:49Z</time>
      </trkpt>
      <trkpt lat="45.92807" lon="4.72808">
        <ele>171</ele>
        <time>2018-08-24T09:56:50Z</time>
      </trkpt>
      <trkpt lat="45.92805" lon="4.72797">
        <ele>171</ele>
        <time>2018-08-24T09:56:51Z</time>
      </trkpt>
      <trkpt lat="45.92802" lon="4.72791">
        <ele>171</ele>
        <time>2018-08-24T09:56:52Z</time>
      </trkpt>
      <trkpt lat="45.92797" lon="4.72787">
        <ele>171</ele>
        <time>2018-08-24T09:56:53Z</time>
      </trkpt>
      <trkpt lat="45.92792" lon="4.72786">
        <ele>171</ele>
        <time>2018-08-24T09:56:54Z</time>
      </trkpt>
      <trkpt lat="45.92784" lon="4.72785">
        <ele>171</ele>
        <time>2018-08-24T09:56:56Z</time>
      </trkpt>
      <trkpt lat="45.9278" lon="4.72788">
        <ele>170</ele>
        <time>2018-08-24T09:56:57Z</time>
      </trkpt>
      <trkpt lat="45.92775" lon="4.72791">
        <ele>170</ele>
        <time>2018-08-24T09:56:58Z</time>
      </trkpt>
      <trkpt lat="45.92772" lon="4.72794">
        <ele>170</ele>
        <time>2018-08-24T09:56:59Z</time>
      </trkpt>
      <trkpt lat="45.92764" lon="4.72799">
        <ele>170</ele>
        <time>2018-08-24T09:57:01Z</time>
      </trkpt>
      <trkpt lat="45.92761" lon="4.72803">
        <ele>170</ele>
        <time>2018-08-24T09:57:02Z</time>
      </trkpt>
      <trkpt lat="45.92753" lon="4.72809">
        <ele>170</ele>
        <time>2018-08-24T09:57:04Z</time>
      </trkpt>
      <trkpt lat="45.92749" lon="4.72813">
        <ele>170</ele>
        <time>2018-08-24T09:57:05Z</time>
      </trkpt>
      <trkpt lat="45.92743" lon="4.72817">
        <ele>170</ele>
        <time>2018-08-24T09:57:06Z</time>
      </trkpt>
      <trkpt lat="45.92738" lon="4.7282">
        <ele>170</ele>
        <time>2018-08-24T09:57:07Z</time>
      </trkpt>
      <trkpt lat="45.92736" lon="4.72825">
        <ele>169</ele>
        <time>2018-08-24T09:57:08Z</time>
      </trkpt>
      <trkpt lat="45.92731" lon="4.72829">
        <ele>169</ele>
        <time>2018-08-24T09:57:09Z</time>
      </trkpt>
      <trkpt lat="45.92726" lon="4.72833">
        <ele>170</ele>
        <time>2018-08-24T09:57:10Z</time>
      </trkpt>
      <trkpt lat="45.92722" lon="4.72838">
        <ele>169</ele>
        <time>2018-08-24T09:57:11Z</time>
      </trkpt>
      <trkpt lat="45.92718" lon="4.72841">
        <ele>169</ele>
        <time>2018-08-24T09:57:12Z</time>
      </trkpt>
      <trkpt lat="45.92713" lon="4.72846">
        <ele>169</ele>
        <time>2018-08-24T09:57:13Z</time>
      </trkpt>
      <trkpt lat="45.92708" lon="4.72849">
        <ele>169</ele>
        <time>2018-08-24T09:57:14Z</time>
      </trkpt>
      <trkpt lat="45.92704" lon="4.72853">
        <ele>169</ele>
        <time>2018-08-24T09:57:15Z</time>
      </trkpt>
      <trkpt lat="45.927" lon="4.72854">
        <ele>169</ele>
        <time>2018-08-24T09:57:16Z</time>
      </trkpt>
      <trkpt lat="45.92695" lon="4.72857">
        <ele>169</ele>
        <time>2018-08-24T09:57:17Z</time>
      </trkpt>
      <trkpt lat="45.9269" lon="4.7286">
        <ele>169</ele>
        <time>2018-08-24T09:57:18Z</time>
      </trkpt>
      <trkpt lat="45.92684" lon="4.72864">
        <ele>169</ele>
        <time>2018-08-24T09:57:19Z</time>
      </trkpt>
      <trkpt lat="45.92679" lon="4.72869">
        <ele>169</ele>
        <time>2018-08-24T09:57:20Z</time>
      </trkpt>
      <trkpt lat="45.92675" lon="4.72874">
        <ele>169</ele>
        <time>2018-08-24T09:57:21Z</time>
      </trkpt>
      <trkpt lat="45.9267" lon="4.72884">
        <ele>170</ele>
        <time>2018-08-24T09:57:22Z</time>
      </trkpt>
      <trkpt lat="45.92665" lon="4.72887">
        <ele>169</ele>
        <time>2018-08-24T09:57:23Z</time>
      </trkpt>
      <trkpt lat="45.9266" lon="4.72893">
        <ele>170</ele>
        <time>2018-08-24T09:57:24Z</time>
      </trkpt>
      <trkpt lat="45.92654" lon="4.72897">
        <ele>170</ele>
        <time>2018-08-24T09:57:25Z</time>
      </trkpt>
      <trkpt lat="45.92647" lon="4.72903">
        <ele>170</ele>
        <time>2018-08-24T09:57:26Z</time>
      </trkpt>
      <trkpt lat="45.92642" lon="4.72909">
        <ele>169</ele>
        <time>2018-08-24T09:57:27Z</time>
      </trkpt>
      <trkpt lat="45.92637" lon="4.72914">
        <ele>169</ele>
        <time>2018-08-24T09:57:28Z</time>
      </trkpt>
      <trkpt lat="45.92631" lon="4.72918">
        <ele>170</ele>
        <time>2018-08-24T09:57:29Z</time>
      </trkpt>
      <trkpt lat="45.92626" lon="4.72922">
        <ele>170</ele>
        <time>2018-08-24T09:57:30Z</time>
      </trkpt>
      <trkpt lat="45.92619" lon="4.72925">
        <ele>169</ele>
        <time>2018-08-24T09:57:31Z</time>
      </trkpt>
      <trkpt lat="45.92614" lon="4.7293">
        <ele>169</ele>
        <time>2018-08-24T09:57:32Z</time>
      </trkpt>
      <trkpt lat="45.92608" lon="4.72935">
        <ele>169</ele>
        <time>2018-08-24T09:57:33Z</time>
      </trkpt>
      <trkpt lat="45.92603" lon="4.72942">
        <ele>169</ele>
        <time>2018-08-24T09:57:34Z</time>
      </trkpt>
      <trkpt lat="45.92596" lon="4.72946">
        <ele>169</ele>
        <time>2018-08-24T09:57:35Z</time>
      </trkpt>
      <trkpt lat="45.92591" lon="4.72953">
        <ele>169</ele>
        <time>2018-08-24T09:57:36Z</time>
      </trkpt>
      <trkpt lat="45.92585" lon="4.72957">
        <ele>169</ele>
        <time>2018-08-24T09:57:37Z</time>
      </trkpt>
      <trkpt lat="45.9258" lon="4.72962">
        <ele>169</ele>
        <time>2018-08-24T09:57:38Z</time>
      </trkpt>
      <trkpt lat="45.92576" lon="4.72966">
        <ele>169</ele>
        <time>2018-08-24T09:57:39Z</time>
      </trkpt>
      <trkpt lat="45.92571" lon="4.72972">
        <ele>169</ele>
        <time>2018-08-24T09:57:40Z</time>
      </trkpt>
      <trkpt lat="45.92565" lon="4.72975">
        <ele>169</ele>
        <time>2018-08-24T09:57:41Z</time>
      </trkpt>
      <trkpt lat="45.92561" lon="4.7298">
        <ele>169</ele>
        <time>2018-08-24T09:57:42Z</time>
      </trkpt>
      <trkpt lat="45.92556" lon="4.72987">
        <ele>169</ele>
        <time>2018-08-24T09:57:43Z</time>
      </trkpt>
      <trkpt lat="45.9255" lon="4.72991">
        <ele>169</ele>
        <time>2018-08-24T09:57:44Z</time>
      </trkpt>
      <trkpt lat="45.92545" lon="4.72996">
        <ele>169</ele>
        <time>2018-08-24T09:57:45Z</time>
      </trkpt>
      <trkpt lat="45.92539" lon="4.72997">
        <ele>169</ele>
        <time>2018-08-24T09:57:46Z</time>
      </trkpt>
      <trkpt lat="45.92534" lon="4.73004">
        <ele>169</ele>
        <time>2018-08-24T09:57:47Z</time>
      </trkpt>
      <trkpt lat="45.92531" lon="4.73013">
        <ele>169</ele>
        <time>2018-08-24T09:57:48Z</time>
      </trkpt>
      <trkpt lat="45.92526" lon="4.73018">
        <ele>169</ele>
        <time>2018-08-24T09:57:49Z</time>
      </trkpt>
      <trkpt lat="45.92521" lon="4.73022">
        <ele>169</ele>
        <time>2018-08-24T09:57:50Z</time>
      </trkpt>
      <trkpt lat="45.92518" lon="4.73029">
        <ele>169</ele>
        <time>2018-08-24T09:57:51Z</time>
      </trkpt>
      <trkpt lat="45.92514" lon="4.73033">
        <ele>169</ele>
        <time>2018-08-24T09:57:52Z</time>
      </trkpt>
      <trkpt lat="45.92509" lon="4.73036">
        <ele>169</ele>
        <time>2018-08-24T09:57:53Z</time>
      </trkpt>
      <trkpt lat="45.92505" lon="4.73039">
        <ele>169</ele>
        <time>2018-08-24T09:57:54Z</time>
      </trkpt>
      <trkpt lat="45.92499" lon="4.73041">
        <ele>170</ele>
        <time>2018-08-24T09:57:55Z</time>
      </trkpt>
      <trkpt lat="45.92494" lon="4.73045">
        <ele>170</ele>
        <time>2018-08-24T09:57:56Z</time>
      </trkpt>
      <trkpt lat="45.9249" lon="4.73054">
        <ele>170</ele>
        <time>2018-08-24T09:57:57Z</time>
      </trkpt>
      <trkpt lat="45.92485" lon="4.73059">
        <ele>170</ele>
        <time>2018-08-24T09:57:58Z</time>
      </trkpt>
      <trkpt lat="45.92477" lon="4.73056">
        <ele>170</ele>
        <time>2018-08-24T09:57:59Z</time>
      </trkpt>
      <trkpt lat="45.92472" lon="4.73059">
        <ele>170</ele>
        <time>2018-08-24T09:58:00Z</time>
      </trkpt>
      <trkpt lat="45.92469" lon="4.73069">
        <ele>170</ele>
        <time>2018-08-24T09:58:01Z</time>
      </trkpt>
      <trkpt lat="45.92465" lon="4.73075">
        <ele>170</ele>
        <time>2018-08-24T09:58:02Z</time>
      </trkpt>
      <trkpt lat="45.9246" lon="4.73078">
        <ele>170</ele>
        <time>2018-08-24T09:58:03Z</time>
      </trkpt>
      <trkpt lat="45.92457" lon="4.73087">
        <ele>170</ele>
        <time>2018-08-24T09:58:04Z</time>
      </trkpt>
      <trkpt lat="45.92453" lon="4.73092">
        <ele>170</ele>
        <time>2018-08-24T09:58:05Z</time>
      </trkpt>
      <trkpt lat="45.92451" lon="4.73096">
        <ele>170</ele>
        <time>2018-08-24T09:58:06Z</time>
      </trkpt>
      <trkpt lat="45.92447" lon="4.73102">
        <ele>170</ele>
        <time>2018-08-24T09:58:07Z</time>
      </trkpt>
      <trkpt lat="45.92442" lon="4.73106">
        <ele>170</ele>
        <time>2018-08-24T09:58:08Z</time>
      </trkpt>
      <trkpt lat="45.92437" lon="4.7311">
        <ele>170</ele>
        <time>2018-08-24T09:58:09Z</time>
      </trkpt>
      <trkpt lat="45.9243" lon="4.73108">
        <ele>170</ele>
        <time>2018-08-24T09:58:10Z</time>
      </trkpt>
      <trkpt lat="45.92425" lon="4.73108">
        <ele>170</ele>
        <time>2018-08-24T09:58:11Z</time>
      </trkpt>
      <trkpt lat="45.9242" lon="4.73111">
        <ele>170</ele>
        <time>2018-08-24T09:58:12Z</time>
      </trkpt>
      <trkpt lat="45.92416" lon="4.73115">
        <ele>171</ele>
        <time>2018-08-24T09:58:13Z</time>
      </trkpt>
      <trkpt lat="45.92411" lon="4.73125">
        <ele>171</ele>
        <time>2018-08-24T09:58:15Z</time>
      </trkpt>
      <trkpt lat="45.9241" lon="4.73132">
        <ele>171</ele>
        <time>2018-08-24T09:58:16Z</time>
      </trkpt>
      <trkpt lat="45.92411" lon="4.73139">
        <ele>171</ele>
        <time>2018-08-24T09:58:17Z</time>
      </trkpt>
      <trkpt lat="45.9241" lon="4.73146">
        <ele>171</ele>
        <time>2018-08-24T09:58:18Z</time>
      </trkpt>
      <trkpt lat="45.9241" lon="4.73154">
        <ele>170</ele>
        <time>2018-08-24T09:58:19Z</time>
      </trkpt>
      <trkpt lat="45.92411" lon="4.73163">
        <ele>170</ele>
        <time>2018-08-24T09:58:20Z</time>
      </trkpt>
      <trkpt lat="45.92411" lon="4.73171">
        <ele>170</ele>
        <time>2018-08-24T09:58:21Z</time>
      </trkpt>
      <trkpt lat="45.92411" lon="4.73179">
        <ele>171</ele>
        <time>2018-08-24T09:58:22Z</time>
      </trkpt>
      <trkpt lat="45.92411" lon="4.73189">
        <ele>171</ele>
        <time>2018-08-24T09:58:23Z</time>
      </trkpt>
      <trkpt lat="45.92412" lon="4.73199">
        <ele>171</ele>
        <time>2018-08-24T09:58:24Z</time>
      </trkpt>
      <trkpt lat="45.92412" lon="4.73208">
        <ele>171</ele>
        <time>2018-08-24T09:58:25Z</time>
      </trkpt>
      <trkpt lat="45.92413" lon="4.73218">
        <ele>171</ele>
        <time>2018-08-24T09:58:26Z</time>
      </trkpt>
      <trkpt lat="45.92413" lon="4.73226">
        <ele>171</ele>
        <time>2018-08-24T09:58:27Z</time>
      </trkpt>
      <trkpt lat="45.92413" lon="4.73235">
        <ele>171</ele>
        <time>2018-08-24T09:58:28Z</time>
      </trkpt>
      <trkpt lat="45.92414" lon="4.73243">
        <ele>171</ele>
        <time>2018-08-24T09:58:29Z</time>
      </trkpt>
      <trkpt lat="45.92414" lon="4.73251">
        <ele>171</ele>
        <time>2018-08-24T09:58:30Z</time>
      </trkpt>
      <trkpt lat="45.92414" lon="4.73259">
        <ele>171</ele>
        <time>2018-08-24T09:58:31Z</time>
      </trkpt>
      <trkpt lat="45.92415" lon="4.73267">
        <ele>171</ele>
        <time>2018-08-24T09:58:32Z</time>
      </trkpt>
      <trkpt lat="45.92417" lon="4.73279">
        <ele>171</ele>
        <time>2018-08-24T09:58:34Z</time>
      </trkpt>
      <trkpt lat="45.92418" lon="4.73286">
        <ele>171</ele>
        <time>2018-08-24T09:58:35Z</time>
      </trkpt>
      <trkpt lat="45.92418" lon="4.73294">
        <ele>171</ele>
        <time>2018-08-24T09:58:36Z</time>
      </trkpt>
      <trkpt lat="45.92418" lon="4.73302">
        <ele>171</ele>
        <time>2018-08-24T09:58:37Z</time>
      </trkpt>
      <trkpt lat="45.92418" lon="4.73309">
        <ele>171</ele>
        <time>2018-08-24T09:58:38Z</time>
      </trkpt>
      <trkpt lat="45.92418" lon="4.73317">
        <ele>171</ele>
        <time>2018-08-24T09:58:39Z</time>
      </trkpt>
      <trkpt lat="45.92418" lon="4.73325">
        <ele>171</ele>
        <time>2018-08-24T09:58:40Z</time>
      </trkpt>
      <trkpt lat="45.92419" lon="4.73333">
        <ele>171</ele>
        <time>2018-08-24T09:58:41Z</time>
      </trkpt>
      <trkpt lat="45.92419" lon="4.73341">
        <ele>171</ele>
        <time>2018-08-24T09:58:42Z</time>
      </trkpt>
      <trkpt lat="45.92421" lon="4.7335">
        <ele>171</ele>
        <time>2018-08-24T09:58:43Z</time>
      </trkpt>
      <trkpt lat="45.92422" lon="4.73358">
        <ele>171</ele>
        <time>2018-08-24T09:58:44Z</time>
      </trkpt>
      <trkpt lat="45.92423" lon="4.73367">
        <ele>172</ele>
        <time>2018-08-24T09:58:45Z</time>
      </trkpt>
      <trkpt lat="45.92424" lon="4.73374">
        <ele>172</ele>
        <time>2018-08-24T09:58:46Z</time>
      </trkpt>
      <trkpt lat="45.92425" lon="4.73381">
        <ele>172</ele>
        <time>2018-08-24T09:58:47Z</time>
      </trkpt>
      <trkpt lat="45.92427" lon="4.7339">
        <ele>172</ele>
        <time>2018-08-24T09:58:48Z</time>
      </trkpt>
      <trkpt lat="45.92427" lon="4.73396">
        <ele>172</ele>
        <time>2018-08-24T09:58:49Z</time>
      </trkpt>
      <trkpt lat="45.92432" lon="4.73406">
        <ele>172</ele>
        <time>2018-08-24T09:58:51Z</time>
      </trkpt>
      <trkpt lat="45.92435" lon="4.73411">
        <ele>172</ele>
        <time>2018-08-24T09:58:52Z</time>
      </trkpt>
      <trkpt lat="45.92443" lon="4.73417">
        <ele>172</ele>
        <time>2018-08-24T09:58:54Z</time>
      </trkpt>
      <trkpt lat="45.92447" lon="4.73419">
        <ele>173</ele>
        <time>2018-08-24T09:58:55Z</time>
      </trkpt>
      <trkpt lat="45.92455" lon="4.73425">
        <ele>173</ele>
        <time>2018-08-24T09:58:57Z</time>
      </trkpt>
      <trkpt lat="45.92458" lon="4.7343">
        <ele>173</ele>
        <time>2018-08-24T09:58:58Z</time>
      </trkpt>
      <trkpt lat="45.92461" lon="4.73437">
        <ele>173</ele>
        <time>2018-08-24T09:58:59Z</time>
      </trkpt>
      <trkpt lat="45.92464" lon="4.73445">
        <ele>173</ele>
        <time>2018-08-24T09:59:00Z</time>
      </trkpt>
      <trkpt lat="45.92465" lon="4.73452">
        <ele>173</ele>
        <time>2018-08-24T09:59:01Z</time>
      </trkpt>
      <trkpt lat="45.92467" lon="4.7346">
        <ele>173</ele>
        <time>2018-08-24T09:59:02Z</time>
      </trkpt>
      <trkpt lat="45.92467" lon="4.73467">
        <ele>173</ele>
        <time>2018-08-24T09:59:03Z</time>
      </trkpt>
      <trkpt lat="45.92466" lon="4.73474">
        <ele>173</ele>
        <time>2018-08-24T09:59:04Z</time>
      </trkpt>
      <trkpt lat="45.92468" lon="4.73484">
        <ele>173</ele>
        <time>2018-08-24T09:59:05Z</time>
      </trkpt>
      <trkpt lat="45.92468" lon="4.73491">
        <ele>173</ele>
        <time>2018-08-24T09:59:06Z</time>
      </trkpt>
      <trkpt lat="45.92467" lon="4.73499">
        <ele>173</ele>
        <time>2018-08-24T09:59:07Z</time>
      </trkpt>
      <trkpt lat="45.92468" lon="4.73508">
        <ele>174</ele>
        <time>2018-08-24T09:59:08Z</time>
      </trkpt>
      <trkpt lat="45.92467" lon="4.73516">
        <ele>174</ele>
        <time>2018-08-24T09:59:09Z</time>
      </trkpt>
      <trkpt lat="45.92467" lon="4.73525">
        <ele>174</ele>
        <time>2018-08-24T09:59:10Z</time>
      </trkpt>
      <trkpt lat="45.92467" lon="4.73533">
        <ele>174</ele>
        <time>2018-08-24T09:59:11Z</time>
      </trkpt>
      <trkpt lat="45.92467" lon="4.73539">
        <ele>174</ele>
        <time>2018-08-24T09:59:12Z</time>
      </trkpt>
      <trkpt lat="45.92467" lon="4.73552">
        <ele>173</ele>
        <time>2018-08-24T09:59:14Z</time>
      </trkpt>
      <trkpt lat="45.92465" lon="4.73554">
        <ele>173</ele>
        <time>2018-08-24T09:59:15Z</time>
      </trkpt>
      <trkpt lat="45.92465" lon="4.73562">
        <ele>173</ele>
        <time>2018-08-24T09:59:16Z</time>
      </trkpt>
      <trkpt lat="45.92466" lon="4.73572">
        <ele>173</ele>
        <time>2018-08-24T09:59:17Z</time>
      </trkpt>
      <trkpt lat="45.92467" lon="4.7358">
        <ele>173</ele>
        <time>2018-08-24T09:59:18Z</time>
      </trkpt>
      <trkpt lat="45.92468" lon="4.7359">
        <ele>174</ele>
        <time>2018-08-24T09:59:19Z</time>
      </trkpt>
      <trkpt lat="45.92469" lon="4.73598">
        <ele>174</ele>
        <time>2018-08-24T09:59:20Z</time>
      </trkpt>
      <trkpt lat="45.92469" lon="4.73607">
        <ele>174</ele>
        <time>2018-08-24T09:59:21Z</time>
      </trkpt>
      <trkpt lat="45.92471" lon="4.73614">
        <ele>174</ele>
        <time>2018-08-24T09:59:22Z</time>
      </trkpt>
      <trkpt lat="45.92471" lon="4.73623">
        <ele>174</ele>
        <time>2018-08-24T09:59:23Z</time>
      </trkpt>
      <trkpt lat="45.92471" lon="4.73632">
        <ele>174</ele>
        <time>2018-08-24T09:59:24Z</time>
      </trkpt>
      <trkpt lat="45.9247" lon="4.7364">
        <ele>174</ele>
        <time>2018-08-24T09:59:25Z</time>
      </trkpt>
      <trkpt lat="45.92468" lon="4.7365">
        <ele>174</ele>
        <time>2018-08-24T09:59:27Z</time>
      </trkpt>
      <trkpt lat="45.92469" lon="4.7366">
        <ele>174</ele>
        <time>2018-08-24T09:59:28Z</time>
      </trkpt>
      <trkpt lat="45.92468" lon="4.73668">
        <ele>174</ele>
        <time>2018-08-24T09:59:29Z</time>
      </trkpt>
      <trkpt lat="45.92467" lon="4.73674">
        <ele>174</ele>
        <time>2018-08-24T09:59:30Z</time>
      </trkpt>
      <trkpt lat="45.92466" lon="4.7368">
        <ele>174</ele>
        <time>2018-08-24T09:59:31Z</time>
      </trkpt>
      <trkpt lat="45.92465" lon="4.73688">
        <ele>174</ele>
        <time>2018-08-24T09:59:32Z</time>
      </trkpt>
      <trkpt lat="45.92464" lon="4.73699">
        <ele>174</ele>
        <time>2018-08-24T09:59:34Z</time>
      </trkpt>
      <trkpt lat="45.92463" lon="4.73702">
        <ele>174</ele>
        <time>2018-08-24T09:59:35Z</time>
      </trkpt>
      <trkpt lat="45.92464" lon="4.73705">
        <ele>174</ele>
        <time>2018-08-24T09:59:36Z</time>
      </trkpt>
      <trkpt lat="45.92465" lon="4.73706">
        <ele>174</ele>
        <time>2018-08-24T09:59:37Z</time>
      </trkpt>
      <trkpt lat="45.92465" lon="4.73709">
        <ele>174</ele>
        <time>2018-08-24T09:59:40Z</time>
      </trkpt>
      <trkpt lat="45.92465" lon="4.7371">
        <ele>174</ele>
        <time>2018-08-24T09:59:41Z</time>
      </trkpt>
      <trkpt lat="45.92462" lon="4.73708">
        <ele>174</ele>
        <time>2018-08-24T09:59:58.466Z</time>
      </trkpt>
    </trkseg>
  </trk>
</gpx>